<?xml version="1.0" encoding="UTF-8" standalone="no" ?>
<gpx xmlns="http://www.topografix.com/GPX/1/1" xmlns:xsi="http://www.w3.org/2001/XMLSchema-instance" xsi:schemaLocation="http://www.topografix.com/GPX/1/1 http://www.topografix.com/GPX/1/1/gpx.xsd" version="1.1" creator="VisuGPX - https://www.visugpx.com">
  <metadata>
    <name>La Milliaçoise - en forêt des Trois Pignons et de Fontainebleau</name>
    <desc><![CDATA[Que du sable, que du sable, que du sable..... Eprouvant, mais superbe paysages]]></desc>
  </metadata>
  <trk>
    <name><![CDATA[Milliaçoise]]></name>
    <cmt><![CDATA[Milly la foret - foret de Fontainebleau]]></cmt>
    <trkseg>
      <trkpt lat="48.42205" lon="2.46487">
        <ele>12.15380859375</ele>
        <time>2011-11-20T07:55:32Z</time>
      </trkpt>
      <trkpt lat="48.42205" lon="2.46486">
        <ele>6.866455078125</ele>
        <time>2011-11-20T07:55:33Z</time>
      </trkpt>
      <trkpt lat="48.42206" lon="2.46486">
        <ele>6.866455078125</ele>
        <time>2011-11-20T07:55:34Z</time>
      </trkpt>
      <trkpt lat="48.42206" lon="2.46486">
        <ele>12.15380859375</ele>
        <time>2011-11-20T07:55:36Z</time>
      </trkpt>
      <trkpt lat="48.42205" lon="2.46486">
        <ele>11.673217773438</ele>
        <time>2011-11-20T07:55:37Z</time>
      </trkpt>
      <trkpt lat="48.42205" lon="2.46488">
        <ele>11.673217773438</ele>
        <time>2011-11-20T07:55:38Z</time>
      </trkpt>
      <trkpt lat="48.42197" lon="2.465">
        <ele>12.634399414062</ele>
        <time>2011-11-20T07:55:45Z</time>
      </trkpt>
      <trkpt lat="48.42191" lon="2.46507">
        <ele>13.595825195312</ele>
        <time>2011-11-20T07:55:49Z</time>
      </trkpt>
      <trkpt lat="48.42172" lon="2.46508">
        <ele>13.115112304688</ele>
        <time>2011-11-20T07:55:55Z</time>
      </trkpt>
      <trkpt lat="48.42142" lon="2.4651">
        <ele>14.076416015625</ele>
        <time>2011-11-20T07:56:03Z</time>
      </trkpt>
      <trkpt lat="48.42113" lon="2.46512">
        <ele>14.076416015625</ele>
        <time>2011-11-20T07:56:11Z</time>
      </trkpt>
      <trkpt lat="48.42084" lon="2.46515">
        <ele>15.518432617188</ele>
        <time>2011-11-20T07:56:19Z</time>
      </trkpt>
      <trkpt lat="48.42073" lon="2.46516">
        <ele>14.557006835938</ele>
        <time>2011-11-20T07:56:22Z</time>
      </trkpt>
      <trkpt lat="48.42061" lon="2.46508">
        <ele>15.037719726562</ele>
        <time>2011-11-20T07:56:25Z</time>
      </trkpt>
      <trkpt lat="48.42034" lon="2.465">
        <ele>15.518432617188</ele>
        <time>2011-11-20T07:56:31Z</time>
      </trkpt>
      <trkpt lat="48.42021" lon="2.46509">
        <ele>15.037719726562</ele>
        <time>2011-11-20T07:56:35Z</time>
      </trkpt>
      <trkpt lat="48.42014" lon="2.46527">
        <ele>16.96044921875</ele>
        <time>2011-11-20T07:56:40Z</time>
      </trkpt>
      <trkpt lat="48.41992" lon="2.46541">
        <ele>16.96044921875</ele>
        <time>2011-11-20T07:56:46Z</time>
      </trkpt>
      <trkpt lat="48.4198" lon="2.46543">
        <ele>17.441162109375</ele>
        <time>2011-11-20T07:56:49Z</time>
      </trkpt>
      <trkpt lat="48.41932" lon="2.46545">
        <ele>16.96044921875</ele>
        <time>2011-11-20T07:57:00Z</time>
      </trkpt>
      <trkpt lat="48.41904" lon="2.46547">
        <ele>18.40234375</ele>
        <time>2011-11-20T07:57:07Z</time>
      </trkpt>
      <trkpt lat="48.41877" lon="2.46548">
        <ele>17.921752929688</ele>
        <time>2011-11-20T07:57:14Z</time>
      </trkpt>
      <trkpt lat="48.41864" lon="2.46573">
        <ele>18.40234375</ele>
        <time>2011-11-20T07:57:20Z</time>
      </trkpt>
      <trkpt lat="48.41859" lon="2.46582">
        <ele>18.883056640625</ele>
        <time>2011-11-20T07:57:22Z</time>
      </trkpt>
      <trkpt lat="48.41854" lon="2.4661">
        <ele>20.324951171875</ele>
        <time>2011-11-20T07:57:27Z</time>
      </trkpt>
      <trkpt lat="48.41863" lon="2.46619">
        <ele>18.883056640625</ele>
        <time>2011-11-20T07:57:30Z</time>
      </trkpt>
      <trkpt lat="48.41892" lon="2.4663">
        <ele>18.40234375</ele>
        <time>2011-11-20T07:57:38Z</time>
      </trkpt>
      <trkpt lat="48.41905" lon="2.46648">
        <ele>18.40234375</ele>
        <time>2011-11-20T07:57:43Z</time>
      </trkpt>
      <trkpt lat="48.41925" lon="2.46667">
        <ele>18.883056640625</ele>
        <time>2011-11-20T07:57:49Z</time>
      </trkpt>
      <trkpt lat="48.41941" lon="2.46676">
        <ele>20.324951171875</ele>
        <time>2011-11-20T07:57:53Z</time>
      </trkpt>
      <trkpt lat="48.41961" lon="2.46688">
        <ele>19.844360351562</ele>
        <time>2011-11-20T07:57:59Z</time>
      </trkpt>
      <trkpt lat="48.41978" lon="2.46699">
        <ele>19.844360351562</ele>
        <time>2011-11-20T07:58:04Z</time>
      </trkpt>
      <trkpt lat="48.42012" lon="2.46719">
        <ele>19.36376953125</ele>
        <time>2011-11-20T07:58:13Z</time>
      </trkpt>
      <trkpt lat="48.42043" lon="2.46738">
        <ele>20.324951171875</ele>
        <time>2011-11-20T07:58:21Z</time>
      </trkpt>
      <trkpt lat="48.42069" lon="2.46754">
        <ele>19.844360351562</ele>
        <time>2011-11-20T07:58:28Z</time>
      </trkpt>
      <trkpt lat="48.42099" lon="2.46771">
        <ele>20.324951171875</ele>
        <time>2011-11-20T07:58:36Z</time>
      </trkpt>
      <trkpt lat="48.42131" lon="2.4679">
        <ele>21.286376953125</ele>
        <time>2011-11-20T07:58:45Z</time>
      </trkpt>
      <trkpt lat="48.42161" lon="2.46804">
        <ele>21.766967773438</ele>
        <time>2011-11-20T07:58:54Z</time>
      </trkpt>
      <trkpt lat="48.4219" lon="2.46813">
        <ele>22.24755859375</ele>
        <time>2011-11-20T07:59:02Z</time>
      </trkpt>
      <trkpt lat="48.42225" lon="2.46825">
        <ele>24.651000976562</ele>
        <time>2011-11-20T07:59:12Z</time>
      </trkpt>
      <trkpt lat="48.42253" lon="2.46832">
        <ele>24.170288085938</ele>
        <time>2011-11-20T07:59:20Z</time>
      </trkpt>
      <trkpt lat="48.42284" lon="2.46842">
        <ele>26.092895507812</ele>
        <time>2011-11-20T07:59:29Z</time>
      </trkpt>
      <trkpt lat="48.42308" lon="2.46849">
        <ele>26.573608398438</ele>
        <time>2011-11-20T07:59:36Z</time>
      </trkpt>
      <trkpt lat="48.42331" lon="2.46857">
        <ele>27.534912109375</ele>
        <time>2011-11-20T07:59:44Z</time>
      </trkpt>
      <trkpt lat="48.42344" lon="2.46879">
        <ele>26.573608398438</ele>
        <time>2011-11-20T07:59:49Z</time>
      </trkpt>
      <trkpt lat="48.42362" lon="2.46909">
        <ele>28.015502929688</ele>
        <time>2011-11-20T07:59:55Z</time>
      </trkpt>
      <trkpt lat="48.42378" lon="2.46931">
        <ele>28.976928710938</ele>
        <time>2011-11-20T08:00:00Z</time>
      </trkpt>
      <trkpt lat="48.42389" lon="2.46946">
        <ele>29.45751953125</ele>
        <time>2011-11-20T08:00:03Z</time>
      </trkpt>
      <trkpt lat="48.4241" lon="2.4697">
        <ele>31.380126953125</ele>
        <time>2011-11-20T08:00:09Z</time>
      </trkpt>
      <trkpt lat="48.4243" lon="2.46998">
        <ele>33.302856445312</ele>
        <time>2011-11-20T08:00:15Z</time>
      </trkpt>
      <trkpt lat="48.42449" lon="2.47031">
        <ele>34.744873046875</ele>
        <time>2011-11-20T08:00:22Z</time>
      </trkpt>
      <trkpt lat="48.42458" lon="2.47043">
        <ele>35.7060546875</ele>
        <time>2011-11-20T08:00:25Z</time>
      </trkpt>
      <trkpt lat="48.42478" lon="2.47082">
        <ele>36.66748046875</ele>
        <time>2011-11-20T08:00:32Z</time>
      </trkpt>
      <trkpt lat="48.42483" lon="2.47101">
        <ele>37.148071289062</ele>
        <time>2011-11-20T08:00:35Z</time>
      </trkpt>
      <trkpt lat="48.42501" lon="2.47141">
        <ele>38.109375</ele>
        <time>2011-11-20T08:00:42Z</time>
      </trkpt>
      <trkpt lat="48.42512" lon="2.47168">
        <ele>39.55126953125</ele>
        <time>2011-11-20T08:00:47Z</time>
      </trkpt>
      <trkpt lat="48.42519" lon="2.47195">
        <ele>40.512817382812</ele>
        <time>2011-11-20T08:00:52Z</time>
      </trkpt>
      <trkpt lat="48.42526" lon="2.47219">
        <ele>39.55126953125</ele>
        <time>2011-11-20T08:00:56Z</time>
      </trkpt>
      <trkpt lat="48.42531" lon="2.47234">
        <ele>38.109375</ele>
        <time>2011-11-20T08:00:58Z</time>
      </trkpt>
      <trkpt lat="48.42538" lon="2.47279">
        <ele>36.66748046875</ele>
        <time>2011-11-20T08:01:03Z</time>
      </trkpt>
      <trkpt lat="48.42538" lon="2.47288">
        <ele>36.66748046875</ele>
        <time>2011-11-20T08:01:04Z</time>
      </trkpt>
      <trkpt lat="48.42538" lon="2.47309">
        <ele>35.225463867188</ele>
        <time>2011-11-20T08:01:06Z</time>
      </trkpt>
      <trkpt lat="48.42529" lon="2.47369">
        <ele>34.744873046875</ele>
        <time>2011-11-20T08:01:12Z</time>
      </trkpt>
      <trkpt lat="48.42529" lon="2.47379">
        <ele>35.225463867188</ele>
        <time>2011-11-20T08:01:13Z</time>
      </trkpt>
      <trkpt lat="48.42528" lon="2.474">
        <ele>34.26416015625</ele>
        <time>2011-11-20T08:01:15Z</time>
      </trkpt>
      <trkpt lat="48.42526" lon="2.47443">
        <ele>33.302856445312</ele>
        <time>2011-11-20T08:01:19Z</time>
      </trkpt>
      <trkpt lat="48.42522" lon="2.47473">
        <ele>32.822265625</ele>
        <time>2011-11-20T08:01:22Z</time>
      </trkpt>
      <trkpt lat="48.42527" lon="2.47522">
        <ele>32.822265625</ele>
        <time>2011-11-20T08:01:28Z</time>
      </trkpt>
      <trkpt lat="48.4253" lon="2.47538">
        <ele>33.302856445312</ele>
        <time>2011-11-20T08:01:30Z</time>
      </trkpt>
      <trkpt lat="48.42537" lon="2.4757">
        <ele>31.860717773438</ele>
        <time>2011-11-20T08:01:34Z</time>
      </trkpt>
      <trkpt lat="48.42543" lon="2.47606">
        <ele>31.380126953125</ele>
        <time>2011-11-20T08:01:38Z</time>
      </trkpt>
      <trkpt lat="48.42546" lon="2.47624">
        <ele>31.380126953125</ele>
        <time>2011-11-20T08:01:40Z</time>
      </trkpt>
      <trkpt lat="48.42543" lon="2.47657">
        <ele>31.860717773438</ele>
        <time>2011-11-20T08:01:44Z</time>
      </trkpt>
      <trkpt lat="48.42541" lon="2.47675">
        <ele>31.860717773438</ele>
        <time>2011-11-20T08:01:46Z</time>
      </trkpt>
      <trkpt lat="48.42543" lon="2.47742">
        <ele>30.899536132812</ele>
        <time>2011-11-20T08:01:53Z</time>
      </trkpt>
      <trkpt lat="48.42544" lon="2.47751">
        <ele>30.899536132812</ele>
        <time>2011-11-20T08:01:54Z</time>
      </trkpt>
      <trkpt lat="48.42546" lon="2.4777">
        <ele>31.860717773438</ele>
        <time>2011-11-20T08:01:56Z</time>
      </trkpt>
      <trkpt lat="48.42549" lon="2.47787">
        <ele>31.860717773438</ele>
        <time>2011-11-20T08:01:58Z</time>
      </trkpt>
      <trkpt lat="48.42551" lon="2.47843">
        <ele>31.380126953125</ele>
        <time>2011-11-20T08:02:04Z</time>
      </trkpt>
      <trkpt lat="48.42551" lon="2.47898">
        <ele>31.380126953125</ele>
        <time>2011-11-20T08:02:10Z</time>
      </trkpt>
      <trkpt lat="48.42553" lon="2.47973">
        <ele>30.899536132812</ele>
        <time>2011-11-20T08:02:18Z</time>
      </trkpt>
      <trkpt lat="48.42554" lon="2.48057">
        <ele>31.860717773438</ele>
        <time>2011-11-20T08:02:27Z</time>
      </trkpt>
      <trkpt lat="48.42556" lon="2.4811">
        <ele>32.822265625</ele>
        <time>2011-11-20T08:02:33Z</time>
      </trkpt>
      <trkpt lat="48.42552" lon="2.48162">
        <ele>33.783447265625</ele>
        <time>2011-11-20T08:02:39Z</time>
      </trkpt>
      <trkpt lat="48.42543" lon="2.48239">
        <ele>33.302856445312</ele>
        <time>2011-11-20T08:02:48Z</time>
      </trkpt>
      <trkpt lat="48.42543" lon="2.48287">
        <ele>33.302856445312</ele>
        <time>2011-11-20T08:02:54Z</time>
      </trkpt>
      <trkpt lat="48.42545" lon="2.48323">
        <ele>33.302856445312</ele>
        <time>2011-11-20T08:02:59Z</time>
      </trkpt>
      <trkpt lat="48.42551" lon="2.48377">
        <ele>33.302856445312</ele>
        <time>2011-11-20T08:03:05Z</time>
      </trkpt>
      <trkpt lat="48.42558" lon="2.48441">
        <ele>34.26416015625</ele>
        <time>2011-11-20T08:03:12Z</time>
      </trkpt>
      <trkpt lat="48.42567" lon="2.485">
        <ele>35.225463867188</ele>
        <time>2011-11-20T08:03:19Z</time>
      </trkpt>
      <trkpt lat="48.42569" lon="2.48508">
        <ele>35.225463867188</ele>
        <time>2011-11-20T08:03:20Z</time>
      </trkpt>
      <trkpt lat="48.42578" lon="2.48547">
        <ele>35.7060546875</ele>
        <time>2011-11-20T08:03:25Z</time>
      </trkpt>
      <trkpt lat="48.42585" lon="2.48585">
        <ele>35.7060546875</ele>
        <time>2011-11-20T08:03:30Z</time>
      </trkpt>
      <trkpt lat="48.42595" lon="2.48625">
        <ele>35.7060546875</ele>
        <time>2011-11-20T08:03:35Z</time>
      </trkpt>
      <trkpt lat="48.42595" lon="2.48644">
        <ele>35.225463867188</ele>
        <time>2011-11-20T08:03:37Z</time>
      </trkpt>
      <trkpt lat="48.42589" lon="2.48696">
        <ele>35.7060546875</ele>
        <time>2011-11-20T08:03:43Z</time>
      </trkpt>
      <trkpt lat="48.42587" lon="2.48746">
        <ele>34.26416015625</ele>
        <time>2011-11-20T08:03:49Z</time>
      </trkpt>
      <trkpt lat="48.42586" lon="2.48797">
        <ele>34.744873046875</ele>
        <time>2011-11-20T08:03:55Z</time>
      </trkpt>
      <trkpt lat="48.42587" lon="2.48859">
        <ele>33.302856445312</ele>
        <time>2011-11-20T08:04:02Z</time>
      </trkpt>
      <trkpt lat="48.42589" lon="2.48904">
        <ele>33.302856445312</ele>
        <time>2011-11-20T08:04:07Z</time>
      </trkpt>
      <trkpt lat="48.42585" lon="2.48937">
        <ele>33.783447265625</ele>
        <time>2011-11-20T08:04:11Z</time>
      </trkpt>
      <trkpt lat="48.42573" lon="2.48962">
        <ele>32.822265625</ele>
        <time>2011-11-20T08:04:15Z</time>
      </trkpt>
      <trkpt lat="48.42559" lon="2.48977">
        <ele>32.341552734375</ele>
        <time>2011-11-20T08:04:18Z</time>
      </trkpt>
      <trkpt lat="48.42519" lon="2.49007">
        <ele>32.822265625</ele>
        <time>2011-11-20T08:04:26Z</time>
      </trkpt>
      <trkpt lat="48.42496" lon="2.49023">
        <ele>33.302856445312</ele>
        <time>2011-11-20T08:04:31Z</time>
      </trkpt>
      <trkpt lat="48.42459" lon="2.49042">
        <ele>34.26416015625</ele>
        <time>2011-11-20T08:04:38Z</time>
      </trkpt>
      <trkpt lat="48.42443" lon="2.49048">
        <ele>35.7060546875</ele>
        <time>2011-11-20T08:04:41Z</time>
      </trkpt>
      <trkpt lat="48.42425" lon="2.49062">
        <ele>36.66748046875</ele>
        <time>2011-11-20T08:04:45Z</time>
      </trkpt>
      <trkpt lat="48.42402" lon="2.49093">
        <ele>37.148071289062</ele>
        <time>2011-11-20T08:04:51Z</time>
      </trkpt>
      <trkpt lat="48.42389" lon="2.49108">
        <ele>36.66748046875</ele>
        <time>2011-11-20T08:04:54Z</time>
      </trkpt>
      <trkpt lat="48.42374" lon="2.49131">
        <ele>37.628662109375</ele>
        <time>2011-11-20T08:04:58Z</time>
      </trkpt>
      <trkpt lat="48.42356" lon="2.49147">
        <ele>38.109375</ele>
        <time>2011-11-20T08:05:02Z</time>
      </trkpt>
      <trkpt lat="48.42327" lon="2.49159">
        <ele>39.55126953125</ele>
        <time>2011-11-20T08:05:08Z</time>
      </trkpt>
      <trkpt lat="48.42301" lon="2.49161">
        <ele>40.512817382812</ele>
        <time>2011-11-20T08:05:13Z</time>
      </trkpt>
      <trkpt lat="48.42271" lon="2.49171">
        <ele>40.993408203125</ele>
        <time>2011-11-20T08:05:19Z</time>
      </trkpt>
      <trkpt lat="48.42255" lon="2.49183">
        <ele>42.916015625</ele>
        <time>2011-11-20T08:05:23Z</time>
      </trkpt>
      <trkpt lat="48.42251" lon="2.49187">
        <ele>42.435424804688</ele>
        <time>2011-11-20T08:05:24Z</time>
      </trkpt>
      <trkpt lat="48.4223" lon="2.49223">
        <ele>44.358032226562</ele>
        <time>2011-11-20T08:05:31Z</time>
      </trkpt>
      <trkpt lat="48.42206" lon="2.49278">
        <ele>46.76123046875</ele>
        <time>2011-11-20T08:05:41Z</time>
      </trkpt>
      <trkpt lat="48.42198" lon="2.49315">
        <ele>48.203369140625</ele>
        <time>2011-11-20T08:05:48Z</time>
      </trkpt>
      <trkpt lat="48.42197" lon="2.49345">
        <ele>50.606567382812</ele>
        <time>2011-11-20T08:05:55Z</time>
      </trkpt>
      <trkpt lat="48.422" lon="2.4937">
        <ele>53.97119140625</ele>
        <time>2011-11-20T08:06:02Z</time>
      </trkpt>
      <trkpt lat="48.42202" lon="2.49387">
        <ele>56.855102539062</ele>
        <time>2011-11-20T08:06:07Z</time>
      </trkpt>
      <trkpt lat="48.42202" lon="2.4939">
        <ele>56.855102539062</ele>
        <time>2011-11-20T08:06:08Z</time>
      </trkpt>
      <trkpt lat="48.42203" lon="2.49401">
        <ele>58.777709960938</ele>
        <time>2011-11-20T08:06:11Z</time>
      </trkpt>
      <trkpt lat="48.42205" lon="2.49413">
        <ele>61.661743164062</ele>
        <time>2011-11-20T08:06:15Z</time>
      </trkpt>
      <trkpt lat="48.42205" lon="2.49434">
        <ele>63.103637695312</ele>
        <time>2011-11-20T08:06:23Z</time>
      </trkpt>
      <trkpt lat="48.42204" lon="2.49464">
        <ele>64.065063476562</ele>
        <time>2011-11-20T08:06:30Z</time>
      </trkpt>
      <trkpt lat="48.42204" lon="2.49502">
        <ele>65.507080078125</ele>
        <time>2011-11-20T08:06:38Z</time>
      </trkpt>
      <trkpt lat="48.422" lon="2.49528">
        <ele>65.987670898438</ele>
        <time>2011-11-20T08:06:44Z</time>
      </trkpt>
      <trkpt lat="48.42188" lon="2.49572">
        <ele>67.910278320312</ele>
        <time>2011-11-20T08:06:54Z</time>
      </trkpt>
      <trkpt lat="48.42178" lon="2.49604">
        <ele>69.352294921875</ele>
        <time>2011-11-20T08:07:02Z</time>
      </trkpt>
      <trkpt lat="48.4217" lon="2.49632">
        <ele>71.27490234375</ele>
        <time>2011-11-20T08:07:10Z</time>
      </trkpt>
      <trkpt lat="48.42167" lon="2.49647">
        <ele>73.197631835938</ele>
        <time>2011-11-20T08:07:15Z</time>
      </trkpt>
      <trkpt lat="48.42166" lon="2.49652">
        <ele>75.120239257812</ele>
        <time>2011-11-20T08:07:17Z</time>
      </trkpt>
      <trkpt lat="48.42161" lon="2.49665">
        <ele>78.004028320312</ele>
        <time>2011-11-20T08:07:22Z</time>
      </trkpt>
      <trkpt lat="48.42153" lon="2.49679">
        <ele>79.926635742188</ele>
        <time>2011-11-20T08:07:28Z</time>
      </trkpt>
      <trkpt lat="48.42146" lon="2.49695">
        <ele>80.88818359375</ele>
        <time>2011-11-20T08:07:34Z</time>
      </trkpt>
      <trkpt lat="48.4214" lon="2.49712">
        <ele>82.330078125</ele>
        <time>2011-11-20T08:07:41Z</time>
      </trkpt>
      <trkpt lat="48.42134" lon="2.49735">
        <ele>82.810791015625</ele>
        <time>2011-11-20T08:07:47Z</time>
      </trkpt>
      <trkpt lat="48.42129" lon="2.49756">
        <ele>83.77197265625</ele>
        <time>2011-11-20T08:07:52Z</time>
      </trkpt>
      <trkpt lat="48.42117" lon="2.49753">
        <ele>85.694580078125</ele>
        <time>2011-11-20T08:07:57Z</time>
      </trkpt>
      <trkpt lat="48.42115" lon="2.49752">
        <ele>86.17529296875</ele>
        <time>2011-11-20T08:07:58Z</time>
      </trkpt>
      <trkpt lat="48.4209" lon="2.49741">
        <ele>87.136596679688</ele>
        <time>2011-11-20T08:08:07Z</time>
      </trkpt>
      <trkpt lat="48.42065" lon="2.49737">
        <ele>87.6171875</ele>
        <time>2011-11-20T08:08:15Z</time>
      </trkpt>
      <trkpt lat="48.4204" lon="2.49733">
        <ele>87.136596679688</ele>
        <time>2011-11-20T08:08:23Z</time>
      </trkpt>
      <trkpt lat="48.42022" lon="2.49735">
        <ele>87.136596679688</ele>
        <time>2011-11-20T08:08:29Z</time>
      </trkpt>
      <trkpt lat="48.42007" lon="2.49751">
        <ele>87.6171875</ele>
        <time>2011-11-20T08:08:36Z</time>
      </trkpt>
      <trkpt lat="48.42002" lon="2.49774">
        <ele>87.6171875</ele>
        <time>2011-11-20T08:08:42Z</time>
      </trkpt>
      <trkpt lat="48.42" lon="2.49803">
        <ele>88.098022460938</ele>
        <time>2011-11-20T08:08:48Z</time>
      </trkpt>
      <trkpt lat="48.41996" lon="2.49835">
        <ele>88.098022460938</ele>
        <time>2011-11-20T08:08:54Z</time>
      </trkpt>
      <trkpt lat="48.41992" lon="2.49865">
        <ele>87.6171875</ele>
        <time>2011-11-20T08:09:00Z</time>
      </trkpt>
      <trkpt lat="48.41985" lon="2.49903">
        <ele>88.098022460938</ele>
        <time>2011-11-20T08:09:07Z</time>
      </trkpt>
      <trkpt lat="48.41986" lon="2.49922">
        <ele>88.098022460938</ele>
        <time>2011-11-20T08:09:11Z</time>
      </trkpt>
      <trkpt lat="48.41983" lon="2.49952">
        <ele>89.059326171875</ele>
        <time>2011-11-20T08:09:17Z</time>
      </trkpt>
      <trkpt lat="48.41978" lon="2.49974">
        <ele>88.578735351562</ele>
        <time>2011-11-20T08:09:22Z</time>
      </trkpt>
      <trkpt lat="48.4197" lon="2.50009">
        <ele>89.539916992188</ele>
        <time>2011-11-20T08:09:29Z</time>
      </trkpt>
      <trkpt lat="48.41965" lon="2.50032">
        <ele>89.539916992188</ele>
        <time>2011-11-20T08:09:33Z</time>
      </trkpt>
      <trkpt lat="48.41946" lon="2.50082">
        <ele>89.539916992188</ele>
        <time>2011-11-20T08:09:42Z</time>
      </trkpt>
      <trkpt lat="48.41941" lon="2.50093">
        <ele>90.020629882812</ele>
        <time>2011-11-20T08:09:44Z</time>
      </trkpt>
      <trkpt lat="48.41918" lon="2.50112">
        <ele>90.020629882812</ele>
        <time>2011-11-20T08:09:50Z</time>
      </trkpt>
      <trkpt lat="48.41894" lon="2.50131">
        <ele>92.423950195312</ele>
        <time>2011-11-20T08:09:57Z</time>
      </trkpt>
      <trkpt lat="48.4188" lon="2.50156">
        <ele>92.904541015625</ele>
        <time>2011-11-20T08:10:03Z</time>
      </trkpt>
      <trkpt lat="48.41864" lon="2.50189">
        <ele>93.385131835938</ele>
        <time>2011-11-20T08:10:10Z</time>
      </trkpt>
      <trkpt lat="48.41852" lon="2.50201">
        <ele>93.385131835938</ele>
        <time>2011-11-20T08:10:14Z</time>
      </trkpt>
      <trkpt lat="48.41829" lon="2.50209">
        <ele>93.865844726562</ele>
        <time>2011-11-20T08:10:19Z</time>
      </trkpt>
      <trkpt lat="48.41815" lon="2.50215">
        <ele>93.385131835938</ele>
        <time>2011-11-20T08:10:22Z</time>
      </trkpt>
      <trkpt lat="48.4179" lon="2.50215">
        <ele>93.385131835938</ele>
        <time>2011-11-20T08:10:27Z</time>
      </trkpt>
      <trkpt lat="48.41772" lon="2.50204">
        <ele>93.385131835938</ele>
        <time>2011-11-20T08:10:31Z</time>
      </trkpt>
      <trkpt lat="48.41754" lon="2.50185">
        <ele>94.346557617188</ele>
        <time>2011-11-20T08:10:36Z</time>
      </trkpt>
      <trkpt lat="48.41749" lon="2.50161">
        <ele>93.865844726562</ele>
        <time>2011-11-20T08:10:40Z</time>
      </trkpt>
      <trkpt lat="48.4175" lon="2.50126">
        <ele>92.904541015625</ele>
        <time>2011-11-20T08:10:46Z</time>
      </trkpt>
      <trkpt lat="48.4175" lon="2.50094">
        <ele>93.385131835938</ele>
        <time>2011-11-20T08:10:51Z</time>
      </trkpt>
      <trkpt lat="48.4175" lon="2.50087">
        <ele>92.904541015625</ele>
        <time>2011-11-20T08:10:52Z</time>
      </trkpt>
      <trkpt lat="48.4174" lon="2.50056">
        <ele>91.943237304688</ele>
        <time>2011-11-20T08:10:57Z</time>
      </trkpt>
      <trkpt lat="48.41718" lon="2.50012">
        <ele>92.423950195312</ele>
        <time>2011-11-20T08:11:05Z</time>
      </trkpt>
      <trkpt lat="48.41702" lon="2.49979">
        <ele>92.423950195312</ele>
        <time>2011-11-20T08:11:11Z</time>
      </trkpt>
      <trkpt lat="48.41688" lon="2.49952">
        <ele>92.423950195312</ele>
        <time>2011-11-20T08:11:17Z</time>
      </trkpt>
      <trkpt lat="48.41675" lon="2.49928">
        <ele>92.904541015625</ele>
        <time>2011-11-20T08:11:23Z</time>
      </trkpt>
      <trkpt lat="48.41661" lon="2.49908">
        <ele>93.385131835938</ele>
        <time>2011-11-20T08:11:29Z</time>
      </trkpt>
      <trkpt lat="48.4164" lon="2.49889">
        <ele>93.385131835938</ele>
        <time>2011-11-20T08:11:36Z</time>
      </trkpt>
      <trkpt lat="48.41614" lon="2.49871">
        <ele>93.865844726562</ele>
        <time>2011-11-20T08:11:44Z</time>
      </trkpt>
      <trkpt lat="48.41594" lon="2.49859">
        <ele>94.346557617188</ele>
        <time>2011-11-20T08:11:50Z</time>
      </trkpt>
      <trkpt lat="48.41575" lon="2.49853">
        <ele>94.8271484375</ele>
        <time>2011-11-20T08:11:54Z</time>
      </trkpt>
      <trkpt lat="48.41542" lon="2.49849">
        <ele>95.788452148438</ele>
        <time>2011-11-20T08:12:01Z</time>
      </trkpt>
      <trkpt lat="48.41517" lon="2.49843">
        <ele>98.19189453125</ele>
        <time>2011-11-20T08:12:07Z</time>
      </trkpt>
      <trkpt lat="48.41493" lon="2.49841">
        <ele>98.19189453125</ele>
        <time>2011-11-20T08:12:12Z</time>
      </trkpt>
      <trkpt lat="48.41467" lon="2.49823">
        <ele>95.788452148438</ele>
        <time>2011-11-20T08:12:18Z</time>
      </trkpt>
      <trkpt lat="48.41463" lon="2.4982">
        <ele>96.749877929688</ele>
        <time>2011-11-20T08:12:19Z</time>
      </trkpt>
      <trkpt lat="48.41451" lon="2.49808">
        <ele>96.749877929688</ele>
        <time>2011-11-20T08:12:22Z</time>
      </trkpt>
      <trkpt lat="48.41429" lon="2.49784">
        <ele>93.865844726562</ele>
        <time>2011-11-20T08:12:27Z</time>
      </trkpt>
      <trkpt lat="48.41423" lon="2.49759">
        <ele>93.385131835938</ele>
        <time>2011-11-20T08:12:30Z</time>
      </trkpt>
      <trkpt lat="48.41418" lon="2.4971">
        <ele>88.098022460938</ele>
        <time>2011-11-20T08:12:34Z</time>
      </trkpt>
      <trkpt lat="48.41413" lon="2.49651">
        <ele>84.7333984375</ele>
        <time>2011-11-20T08:12:38Z</time>
      </trkpt>
      <trkpt lat="48.41413" lon="2.49618">
        <ele>83.77197265625</ele>
        <time>2011-11-20T08:12:40Z</time>
      </trkpt>
      <trkpt lat="48.41409" lon="2.49586">
        <ele>80.88818359375</ele>
        <time>2011-11-20T08:12:42Z</time>
      </trkpt>
      <trkpt lat="48.41406" lon="2.49511">
        <ele>76.081420898438</ele>
        <time>2011-11-20T08:12:47Z</time>
      </trkpt>
      <trkpt lat="48.41414" lon="2.49455">
        <ele>73.197631835938</ele>
        <time>2011-11-20T08:12:51Z</time>
      </trkpt>
      <trkpt lat="48.41418" lon="2.49413">
        <ele>71.27490234375</ele>
        <time>2011-11-20T08:12:54Z</time>
      </trkpt>
      <trkpt lat="48.4143" lon="2.49363">
        <ele>68.87158203125</ele>
        <time>2011-11-20T08:12:58Z</time>
      </trkpt>
      <trkpt lat="48.41441" lon="2.49297">
        <ele>67.910278320312</ele>
        <time>2011-11-20T08:13:04Z</time>
      </trkpt>
      <trkpt lat="48.41446" lon="2.49227">
        <ele>66.46826171875</ele>
        <time>2011-11-20T08:13:11Z</time>
      </trkpt>
      <trkpt lat="48.41454" lon="2.49144">
        <ele>65.0263671875</ele>
        <time>2011-11-20T08:13:19Z</time>
      </trkpt>
      <trkpt lat="48.41455" lon="2.49133">
        <ele>64.545654296875</ele>
        <time>2011-11-20T08:13:20Z</time>
      </trkpt>
      <trkpt lat="48.41465" lon="2.49074">
        <ele>65.0263671875</ele>
        <time>2011-11-20T08:13:26Z</time>
      </trkpt>
      <trkpt lat="48.41465" lon="2.49054">
        <ele>63.584350585938</ele>
        <time>2011-11-20T08:13:28Z</time>
      </trkpt>
      <trkpt lat="48.4147" lon="2.49024">
        <ele>63.584350585938</ele>
        <time>2011-11-20T08:13:31Z</time>
      </trkpt>
      <trkpt lat="48.41484" lon="2.48973">
        <ele>62.622924804688</ele>
        <time>2011-11-20T08:13:36Z</time>
      </trkpt>
      <trkpt lat="48.41486" lon="2.48961">
        <ele>61.661743164062</ele>
        <time>2011-11-20T08:13:37Z</time>
      </trkpt>
      <trkpt lat="48.41494" lon="2.48911">
        <ele>60.2197265625</ele>
        <time>2011-11-20T08:13:41Z</time>
      </trkpt>
      <trkpt lat="48.41497" lon="2.48862">
        <ele>59.258422851562</ele>
        <time>2011-11-20T08:13:45Z</time>
      </trkpt>
      <trkpt lat="48.41497" lon="2.48786">
        <ele>58.297119140625</ele>
        <time>2011-11-20T08:13:51Z</time>
      </trkpt>
      <trkpt lat="48.41507" lon="2.48723">
        <ele>56.37451171875</ele>
        <time>2011-11-20T08:13:56Z</time>
      </trkpt>
      <trkpt lat="48.4151" lon="2.48711">
        <ele>55.893798828125</ele>
        <time>2011-11-20T08:13:57Z</time>
      </trkpt>
      <trkpt lat="48.41522" lon="2.48669">
        <ele>54.451782226562</ele>
        <time>2011-11-20T08:14:01Z</time>
      </trkpt>
      <trkpt lat="48.41534" lon="2.48613">
        <ele>53.97119140625</ele>
        <time>2011-11-20T08:14:07Z</time>
      </trkpt>
      <trkpt lat="48.41545" lon="2.48575">
        <ele>53.97119140625</ele>
        <time>2011-11-20T08:14:11Z</time>
      </trkpt>
      <trkpt lat="48.41549" lon="2.48556">
        <ele>53.97119140625</ele>
        <time>2011-11-20T08:14:13Z</time>
      </trkpt>
      <trkpt lat="48.41553" lon="2.48518">
        <ele>53.97119140625</ele>
        <time>2011-11-20T08:14:17Z</time>
      </trkpt>
      <trkpt lat="48.41568" lon="2.48469">
        <ele>54.932373046875</ele>
        <time>2011-11-20T08:14:23Z</time>
      </trkpt>
      <trkpt lat="48.41582" lon="2.48436">
        <ele>53.97119140625</ele>
        <time>2011-11-20T08:14:27Z</time>
      </trkpt>
      <trkpt lat="48.41589" lon="2.48391">
        <ele>53.490478515625</ele>
        <time>2011-11-20T08:14:32Z</time>
      </trkpt>
      <trkpt lat="48.4159" lon="2.48382">
        <ele>53.009765625</ele>
        <time>2011-11-20T08:14:33Z</time>
      </trkpt>
      <trkpt lat="48.41598" lon="2.48332">
        <ele>51.56787109375</ele>
        <time>2011-11-20T08:14:38Z</time>
      </trkpt>
      <trkpt lat="48.41606" lon="2.4828">
        <ele>50.606567382812</ele>
        <time>2011-11-20T08:14:43Z</time>
      </trkpt>
      <trkpt lat="48.41616" lon="2.48236">
        <ele>50.1259765625</ele>
        <time>2011-11-20T08:14:48Z</time>
      </trkpt>
      <trkpt lat="48.41621" lon="2.48219">
        <ele>49.16455078125</ele>
        <time>2011-11-20T08:14:51Z</time>
      </trkpt>
      <trkpt lat="48.41616" lon="2.48206">
        <ele>50.606567382812</ele>
        <time>2011-11-20T08:14:54Z</time>
      </trkpt>
      <trkpt lat="48.41601" lon="2.48189">
        <ele>51.087158203125</ele>
        <time>2011-11-20T08:15:01Z</time>
      </trkpt>
      <trkpt lat="48.41584" lon="2.48176">
        <ele>51.56787109375</ele>
        <time>2011-11-20T08:15:08Z</time>
      </trkpt>
      <trkpt lat="48.41568" lon="2.48163">
        <ele>51.087158203125</ele>
        <time>2011-11-20T08:15:13Z</time>
      </trkpt>
      <trkpt lat="48.41564" lon="2.48159">
        <ele>50.606567382812</ele>
        <time>2011-11-20T08:15:14Z</time>
      </trkpt>
      <trkpt lat="48.41535" lon="2.48125">
        <ele>48.683959960938</ele>
        <time>2011-11-20T08:15:20Z</time>
      </trkpt>
      <trkpt lat="48.41517" lon="2.48081">
        <ele>48.203369140625</ele>
        <time>2011-11-20T08:15:25Z</time>
      </trkpt>
      <trkpt lat="48.41493" lon="2.48026">
        <ele>48.683959960938</ele>
        <time>2011-11-20T08:15:31Z</time>
      </trkpt>
      <trkpt lat="48.41467" lon="2.47973">
        <ele>47.241821289062</ele>
        <time>2011-11-20T08:15:37Z</time>
      </trkpt>
      <trkpt lat="48.41439" lon="2.47937">
        <ele>46.76123046875</ele>
        <time>2011-11-20T08:15:42Z</time>
      </trkpt>
      <trkpt lat="48.41395" lon="2.4788">
        <ele>46.76123046875</ele>
        <time>2011-11-20T08:15:50Z</time>
      </trkpt>
      <trkpt lat="48.41367" lon="2.47844">
        <ele>47.241821289062</ele>
        <time>2011-11-20T08:15:55Z</time>
      </trkpt>
      <trkpt lat="48.41335" lon="2.47806">
        <ele>48.203369140625</ele>
        <time>2011-11-20T08:16:01Z</time>
      </trkpt>
      <trkpt lat="48.41289" lon="2.47755">
        <ele>48.203369140625</ele>
        <time>2011-11-20T08:16:10Z</time>
      </trkpt>
      <trkpt lat="48.41249" lon="2.47719">
        <ele>48.683959960938</ele>
        <time>2011-11-20T08:16:18Z</time>
      </trkpt>
      <trkpt lat="48.41241" lon="2.47712">
        <ele>49.16455078125</ele>
        <time>2011-11-20T08:16:20Z</time>
      </trkpt>
      <trkpt lat="48.41233" lon="2.47718">
        <ele>49.645263671875</ele>
        <time>2011-11-20T08:16:24Z</time>
      </trkpt>
      <trkpt lat="48.41238" lon="2.47738">
        <ele>50.1259765625</ele>
        <time>2011-11-20T08:16:28Z</time>
      </trkpt>
      <trkpt lat="48.41257" lon="2.47805">
        <ele>50.1259765625</ele>
        <time>2011-11-20T08:16:39Z</time>
      </trkpt>
      <trkpt lat="48.41272" lon="2.47889">
        <ele>51.56787109375</ele>
        <time>2011-11-20T08:16:52Z</time>
      </trkpt>
      <trkpt lat="48.41282" lon="2.4796">
        <ele>52.529174804688</ele>
        <time>2011-11-20T08:17:03Z</time>
      </trkpt>
      <trkpt lat="48.41286" lon="2.48005">
        <ele>53.009765625</ele>
        <time>2011-11-20T08:17:10Z</time>
      </trkpt>
      <trkpt lat="48.41286" lon="2.48083">
        <ele>53.490478515625</ele>
        <time>2011-11-20T08:17:21Z</time>
      </trkpt>
      <trkpt lat="48.41283" lon="2.48121">
        <ele>55.4130859375</ele>
        <time>2011-11-20T08:17:27Z</time>
      </trkpt>
      <trkpt lat="48.41278" lon="2.48154">
        <ele>55.893798828125</ele>
        <time>2011-11-20T08:17:32Z</time>
      </trkpt>
      <trkpt lat="48.41277" lon="2.4817">
        <ele>55.4130859375</ele>
        <time>2011-11-20T08:17:34Z</time>
      </trkpt>
      <trkpt lat="48.41277" lon="2.48222">
        <ele>56.855102539062</ele>
        <time>2011-11-20T08:17:41Z</time>
      </trkpt>
      <trkpt lat="48.4128" lon="2.48292">
        <ele>56.855102539062</ele>
        <time>2011-11-20T08:17:51Z</time>
      </trkpt>
      <trkpt lat="48.4128" lon="2.4832">
        <ele>57.335815429688</ele>
        <time>2011-11-20T08:17:55Z</time>
      </trkpt>
      <trkpt lat="48.41288" lon="2.48375">
        <ele>58.777709960938</ele>
        <time>2011-11-20T08:18:04Z</time>
      </trkpt>
      <trkpt lat="48.4129" lon="2.48396">
        <ele>59.258422851562</ele>
        <time>2011-11-20T08:18:09Z</time>
      </trkpt>
      <trkpt lat="48.4129" lon="2.48421">
        <ele>60.2197265625</ele>
        <time>2011-11-20T08:18:14Z</time>
      </trkpt>
      <trkpt lat="48.41285" lon="2.48452">
        <ele>61.661743164062</ele>
        <time>2011-11-20T08:18:20Z</time>
      </trkpt>
      <trkpt lat="48.41281" lon="2.48474">
        <ele>63.103637695312</ele>
        <time>2011-11-20T08:18:25Z</time>
      </trkpt>
      <trkpt lat="48.41277" lon="2.4849">
        <ele>63.584350585938</ele>
        <time>2011-11-20T08:18:29Z</time>
      </trkpt>
      <trkpt lat="48.41273" lon="2.48511">
        <ele>64.065063476562</ele>
        <time>2011-11-20T08:18:34Z</time>
      </trkpt>
      <trkpt lat="48.41265" lon="2.48537">
        <ele>64.545654296875</ele>
        <time>2011-11-20T08:18:39Z</time>
      </trkpt>
      <trkpt lat="48.41253" lon="2.4857">
        <ele>63.584350585938</ele>
        <time>2011-11-20T08:18:45Z</time>
      </trkpt>
      <trkpt lat="48.41247" lon="2.48593">
        <ele>63.584350585938</ele>
        <time>2011-11-20T08:18:49Z</time>
      </trkpt>
      <trkpt lat="48.41233" lon="2.48632">
        <ele>64.065063476562</ele>
        <time>2011-11-20T08:18:56Z</time>
      </trkpt>
      <trkpt lat="48.41227" lon="2.48659">
        <ele>64.545654296875</ele>
        <time>2011-11-20T08:19:01Z</time>
      </trkpt>
      <trkpt lat="48.41219" lon="2.48701">
        <ele>64.545654296875</ele>
        <time>2011-11-20T08:19:08Z</time>
      </trkpt>
      <trkpt lat="48.41212" lon="2.48743">
        <ele>64.545654296875</ele>
        <time>2011-11-20T08:19:14Z</time>
      </trkpt>
      <trkpt lat="48.41208" lon="2.4878">
        <ele>63.103637695312</ele>
        <time>2011-11-20T08:19:20Z</time>
      </trkpt>
      <trkpt lat="48.41203" lon="2.48822">
        <ele>64.065063476562</ele>
        <time>2011-11-20T08:19:27Z</time>
      </trkpt>
      <trkpt lat="48.41198" lon="2.4885">
        <ele>64.545654296875</ele>
        <time>2011-11-20T08:19:32Z</time>
      </trkpt>
      <trkpt lat="48.41193" lon="2.48885">
        <ele>65.507080078125</ele>
        <time>2011-11-20T08:19:38Z</time>
      </trkpt>
      <trkpt lat="48.41185" lon="2.4893">
        <ele>66.46826171875</ele>
        <time>2011-11-20T08:19:46Z</time>
      </trkpt>
      <trkpt lat="48.41174" lon="2.48969">
        <ele>67.4296875</ele>
        <time>2011-11-20T08:19:53Z</time>
      </trkpt>
      <trkpt lat="48.41163" lon="2.49004">
        <ele>66.948974609375</ele>
        <time>2011-11-20T08:19:58Z</time>
      </trkpt>
      <trkpt lat="48.41157" lon="2.49026">
        <ele>66.948974609375</ele>
        <time>2011-11-20T08:20:01Z</time>
      </trkpt>
      <trkpt lat="48.41138" lon="2.49084">
        <ele>67.910278320312</ele>
        <time>2011-11-20T08:20:10Z</time>
      </trkpt>
      <trkpt lat="48.41124" lon="2.49142">
        <ele>68.87158203125</ele>
        <time>2011-11-20T08:20:19Z</time>
      </trkpt>
      <trkpt lat="48.41114" lon="2.49199">
        <ele>71.755493164062</ele>
        <time>2011-11-20T08:20:28Z</time>
      </trkpt>
      <trkpt lat="48.41107" lon="2.49261">
        <ele>75.120239257812</ele>
        <time>2011-11-20T08:20:38Z</time>
      </trkpt>
      <trkpt lat="48.41102" lon="2.49286">
        <ele>76.081420898438</ele>
        <time>2011-11-20T08:20:42Z</time>
      </trkpt>
      <trkpt lat="48.41087" lon="2.49344">
        <ele>77.042846679688</ele>
        <time>2011-11-20T08:20:51Z</time>
      </trkpt>
      <trkpt lat="48.41073" lon="2.49399">
        <ele>77.042846679688</ele>
        <time>2011-11-20T08:20:59Z</time>
      </trkpt>
      <trkpt lat="48.41071" lon="2.49408">
        <ele>77.042846679688</ele>
        <time>2011-11-20T08:21:00Z</time>
      </trkpt>
      <trkpt lat="48.41059" lon="2.4945">
        <ele>73.67822265625</ele>
        <time>2011-11-20T08:21:04Z</time>
      </trkpt>
      <trkpt lat="48.41054" lon="2.49492">
        <ele>70.3134765625</ele>
        <time>2011-11-20T08:21:07Z</time>
      </trkpt>
      <trkpt lat="48.41049" lon="2.49554">
        <ele>67.4296875</ele>
        <time>2011-11-20T08:21:11Z</time>
      </trkpt>
      <trkpt lat="48.41047" lon="2.49587">
        <ele>65.507080078125</ele>
        <time>2011-11-20T08:21:13Z</time>
      </trkpt>
      <trkpt lat="48.41039" lon="2.49669">
        <ele>64.545654296875</ele>
        <time>2011-11-20T08:21:18Z</time>
      </trkpt>
      <trkpt lat="48.4103" lon="2.49732">
        <ele>62.622924804688</ele>
        <time>2011-11-20T08:21:22Z</time>
      </trkpt>
      <trkpt lat="48.41027" lon="2.49747">
        <ele>62.622924804688</ele>
        <time>2011-11-20T08:21:23Z</time>
      </trkpt>
      <trkpt lat="48.41019" lon="2.49804">
        <ele>61.661743164062</ele>
        <time>2011-11-20T08:21:27Z</time>
      </trkpt>
      <trkpt lat="48.41016" lon="2.49878">
        <ele>60.2197265625</ele>
        <time>2011-11-20T08:21:33Z</time>
      </trkpt>
      <trkpt lat="48.4101" lon="2.49938">
        <ele>59.258422851562</ele>
        <time>2011-11-20T08:21:39Z</time>
      </trkpt>
      <trkpt lat="48.41005" lon="2.49979">
        <ele>58.297119140625</ele>
        <time>2011-11-20T08:21:43Z</time>
      </trkpt>
      <trkpt lat="48.40988" lon="2.50035">
        <ele>57.335815429688</ele>
        <time>2011-11-20T08:21:48Z</time>
      </trkpt>
      <trkpt lat="48.40982" lon="2.50081">
        <ele>55.893798828125</ele>
        <time>2011-11-20T08:21:52Z</time>
      </trkpt>
      <trkpt lat="48.40983" lon="2.50105">
        <ele>55.4130859375</ele>
        <time>2011-11-20T08:21:54Z</time>
      </trkpt>
      <trkpt lat="48.40983" lon="2.50117">
        <ele>54.932373046875</ele>
        <time>2011-11-20T08:21:55Z</time>
      </trkpt>
      <trkpt lat="48.40975" lon="2.50188">
        <ele>53.97119140625</ele>
        <time>2011-11-20T08:22:01Z</time>
      </trkpt>
      <trkpt lat="48.40966" lon="2.50233">
        <ele>53.490478515625</ele>
        <time>2011-11-20T08:22:05Z</time>
      </trkpt>
      <trkpt lat="48.40956" lon="2.50326">
        <ele>52.529174804688</ele>
        <time>2011-11-20T08:22:13Z</time>
      </trkpt>
      <trkpt lat="48.40946" lon="2.50381">
        <ele>51.56787109375</ele>
        <time>2011-11-20T08:22:18Z</time>
      </trkpt>
      <trkpt lat="48.4094" lon="2.50433">
        <ele>51.56787109375</ele>
        <time>2011-11-20T08:22:23Z</time>
      </trkpt>
      <trkpt lat="48.40939" lon="2.50443">
        <ele>51.087158203125</ele>
        <time>2011-11-20T08:22:24Z</time>
      </trkpt>
      <trkpt lat="48.40942" lon="2.50488">
        <ele>51.56787109375</ele>
        <time>2011-11-20T08:22:29Z</time>
      </trkpt>
      <trkpt lat="48.40947" lon="2.50547">
        <ele>52.048583984375</ele>
        <time>2011-11-20T08:22:36Z</time>
      </trkpt>
      <trkpt lat="48.40948" lon="2.50588">
        <ele>53.009765625</ele>
        <time>2011-11-20T08:22:41Z</time>
      </trkpt>
      <trkpt lat="48.4095" lon="2.50604">
        <ele>53.009765625</ele>
        <time>2011-11-20T08:22:43Z</time>
      </trkpt>
      <trkpt lat="48.40952" lon="2.50669">
        <ele>53.490478515625</ele>
        <time>2011-11-20T08:22:51Z</time>
      </trkpt>
      <trkpt lat="48.40947" lon="2.50733">
        <ele>53.490478515625</ele>
        <time>2011-11-20T08:22:59Z</time>
      </trkpt>
      <trkpt lat="48.40946" lon="2.50741">
        <ele>53.490478515625</ele>
        <time>2011-11-20T08:23:00Z</time>
      </trkpt>
      <trkpt lat="48.40942" lon="2.50763">
        <ele>53.490478515625</ele>
        <time>2011-11-20T08:23:03Z</time>
      </trkpt>
      <trkpt lat="48.40938" lon="2.50793">
        <ele>53.97119140625</ele>
        <time>2011-11-20T08:23:07Z</time>
      </trkpt>
      <trkpt lat="48.40934" lon="2.5083">
        <ele>53.97119140625</ele>
        <time>2011-11-20T08:23:12Z</time>
      </trkpt>
      <trkpt lat="48.40931" lon="2.50844">
        <ele>54.451782226562</ele>
        <time>2011-11-20T08:23:14Z</time>
      </trkpt>
      <trkpt lat="48.40927" lon="2.50867">
        <ele>54.932373046875</ele>
        <time>2011-11-20T08:23:17Z</time>
      </trkpt>
      <trkpt lat="48.40921" lon="2.50921">
        <ele>54.932373046875</ele>
        <time>2011-11-20T08:23:24Z</time>
      </trkpt>
      <trkpt lat="48.40913" lon="2.5097">
        <ele>53.97119140625</ele>
        <time>2011-11-20T08:23:30Z</time>
      </trkpt>
      <trkpt lat="48.40905" lon="2.51025">
        <ele>54.451782226562</ele>
        <time>2011-11-20T08:23:36Z</time>
      </trkpt>
      <trkpt lat="48.40895" lon="2.51087">
        <ele>53.97119140625</ele>
        <time>2011-11-20T08:23:43Z</time>
      </trkpt>
      <trkpt lat="48.4089" lon="2.51122">
        <ele>53.97119140625</ele>
        <time>2011-11-20T08:23:47Z</time>
      </trkpt>
      <trkpt lat="48.40882" lon="2.51163">
        <ele>53.97119140625</ele>
        <time>2011-11-20T08:23:52Z</time>
      </trkpt>
      <trkpt lat="48.40864" lon="2.51225">
        <ele>53.97119140625</ele>
        <time>2011-11-20T08:24:00Z</time>
      </trkpt>
      <trkpt lat="48.40845" lon="2.51274">
        <ele>53.490478515625</ele>
        <time>2011-11-20T08:24:07Z</time>
      </trkpt>
      <trkpt lat="48.40826" lon="2.51323">
        <ele>53.97119140625</ele>
        <time>2011-11-20T08:24:14Z</time>
      </trkpt>
      <trkpt lat="48.4082" lon="2.51337">
        <ele>53.490478515625</ele>
        <time>2011-11-20T08:24:16Z</time>
      </trkpt>
      <trkpt lat="48.40796" lon="2.51378">
        <ele>53.97119140625</ele>
        <time>2011-11-20T08:24:23Z</time>
      </trkpt>
      <trkpt lat="48.40769" lon="2.5142">
        <ele>54.932373046875</ele>
        <time>2011-11-20T08:24:31Z</time>
      </trkpt>
      <trkpt lat="48.40747" lon="2.51452">
        <ele>54.932373046875</ele>
        <time>2011-11-20T08:24:38Z</time>
      </trkpt>
      <trkpt lat="48.40734" lon="2.5147">
        <ele>54.932373046875</ele>
        <time>2011-11-20T08:24:42Z</time>
      </trkpt>
      <trkpt lat="48.40717" lon="2.51495">
        <ele>53.97119140625</ele>
        <time>2011-11-20T08:24:47Z</time>
      </trkpt>
      <trkpt lat="48.40686" lon="2.51558">
        <ele>53.97119140625</ele>
        <time>2011-11-20T08:24:56Z</time>
      </trkpt>
      <trkpt lat="48.4067" lon="2.51608">
        <ele>52.048583984375</ele>
        <time>2011-11-20T08:25:02Z</time>
      </trkpt>
      <trkpt lat="48.40658" lon="2.51654">
        <ele>51.56787109375</ele>
        <time>2011-11-20T08:25:07Z</time>
      </trkpt>
      <trkpt lat="48.40645" lon="2.51698">
        <ele>50.606567382812</ele>
        <time>2011-11-20T08:25:12Z</time>
      </trkpt>
      <trkpt lat="48.40631" lon="2.51751">
        <ele>50.606567382812</ele>
        <time>2011-11-20T08:25:18Z</time>
      </trkpt>
      <trkpt lat="48.40629" lon="2.51759">
        <ele>50.606567382812</ele>
        <time>2011-11-20T08:25:19Z</time>
      </trkpt>
      <trkpt lat="48.40619" lon="2.51817">
        <ele>50.1259765625</ele>
        <time>2011-11-20T08:25:26Z</time>
      </trkpt>
      <trkpt lat="48.40618" lon="2.51826">
        <ele>50.1259765625</ele>
        <time>2011-11-20T08:25:27Z</time>
      </trkpt>
      <trkpt lat="48.40619" lon="2.5185">
        <ele>51.087158203125</ele>
        <time>2011-11-20T08:25:31Z</time>
      </trkpt>
      <trkpt lat="48.40625" lon="2.51852">
        <ele>51.56787109375</ele>
        <time>2011-11-20T08:25:34Z</time>
      </trkpt>
      <trkpt lat="48.40634" lon="2.51849">
        <ele>53.490478515625</ele>
        <time>2011-11-20T08:25:37Z</time>
      </trkpt>
      <trkpt lat="48.40656" lon="2.51853">
        <ele>53.97119140625</ele>
        <time>2011-11-20T08:25:43Z</time>
      </trkpt>
      <trkpt lat="48.40669" lon="2.51867">
        <ele>54.451782226562</ele>
        <time>2011-11-20T08:25:48Z</time>
      </trkpt>
      <trkpt lat="48.40678" lon="2.51877">
        <ele>54.932373046875</ele>
        <time>2011-11-20T08:25:53Z</time>
      </trkpt>
      <trkpt lat="48.40681" lon="2.51881">
        <ele>55.4130859375</ele>
        <time>2011-11-20T08:25:55Z</time>
      </trkpt>
      <trkpt lat="48.40683" lon="2.51898">
        <ele>54.451782226562</ele>
        <time>2011-11-20T08:26:01Z</time>
      </trkpt>
      <trkpt lat="48.40684" lon="2.51929">
        <ele>53.490478515625</ele>
        <time>2011-11-20T08:26:06Z</time>
      </trkpt>
      <trkpt lat="48.40684" lon="2.51956">
        <ele>52.529174804688</ele>
        <time>2011-11-20T08:26:10Z</time>
      </trkpt>
      <trkpt lat="48.40676" lon="2.51998">
        <ele>52.529174804688</ele>
        <time>2011-11-20T08:26:15Z</time>
      </trkpt>
      <trkpt lat="48.40673" lon="2.52015">
        <ele>52.048583984375</ele>
        <time>2011-11-20T08:26:17Z</time>
      </trkpt>
      <trkpt lat="48.4067" lon="2.52069">
        <ele>52.529174804688</ele>
        <time>2011-11-20T08:26:24Z</time>
      </trkpt>
      <trkpt lat="48.40667" lon="2.52105">
        <ele>53.490478515625</ele>
        <time>2011-11-20T08:26:30Z</time>
      </trkpt>
      <trkpt lat="48.40669" lon="2.52129">
        <ele>54.451782226562</ele>
        <time>2011-11-20T08:26:35Z</time>
      </trkpt>
      <trkpt lat="48.40672" lon="2.52163">
        <ele>54.932373046875</ele>
        <time>2011-11-20T08:26:40Z</time>
      </trkpt>
      <trkpt lat="48.40674" lon="2.52178">
        <ele>55.4130859375</ele>
        <time>2011-11-20T08:26:42Z</time>
      </trkpt>
      <trkpt lat="48.40668" lon="2.52202">
        <ele>55.893798828125</ele>
        <time>2011-11-20T08:26:46Z</time>
      </trkpt>
      <trkpt lat="48.40654" lon="2.52199">
        <ele>55.4130859375</ele>
        <time>2011-11-20T08:26:49Z</time>
      </trkpt>
      <trkpt lat="48.40649" lon="2.52196">
        <ele>54.932373046875</ele>
        <time>2011-11-20T08:26:50Z</time>
      </trkpt>
      <trkpt lat="48.40623" lon="2.52183">
        <ele>54.451782226562</ele>
        <time>2011-11-20T08:26:55Z</time>
      </trkpt>
      <trkpt lat="48.40613" lon="2.52177">
        <ele>53.97119140625</ele>
        <time>2011-11-20T08:26:57Z</time>
      </trkpt>
      <trkpt lat="48.40579" lon="2.52157">
        <ele>53.009765625</ele>
        <time>2011-11-20T08:27:03Z</time>
      </trkpt>
      <trkpt lat="48.40545" lon="2.52137">
        <ele>52.048583984375</ele>
        <time>2011-11-20T08:27:09Z</time>
      </trkpt>
      <trkpt lat="48.40529" lon="2.5213">
        <ele>52.529174804688</ele>
        <time>2011-11-20T08:27:13Z</time>
      </trkpt>
      <trkpt lat="48.40517" lon="2.52122">
        <ele>52.048583984375</ele>
        <time>2011-11-20T08:27:17Z</time>
      </trkpt>
      <trkpt lat="48.40514" lon="2.52119">
        <ele>52.048583984375</ele>
        <time>2011-11-20T08:27:18Z</time>
      </trkpt>
      <trkpt lat="48.40511" lon="2.52117">
        <ele>51.56787109375</ele>
        <time>2011-11-20T08:27:23Z</time>
      </trkpt>
      <trkpt lat="48.40511" lon="2.52119">
        <ele>52.529174804688</ele>
        <time>2011-11-20T08:27:41Z</time>
      </trkpt>
      <trkpt lat="48.40511" lon="2.52119">
        <ele>52.048583984375</ele>
        <time>2011-11-20T08:27:54Z</time>
      </trkpt>
      <trkpt lat="48.4051" lon="2.52118">
        <ele>53.009765625</ele>
        <time>2011-11-20T08:28:24Z</time>
      </trkpt>
      <trkpt lat="48.40512" lon="2.52117">
        <ele>53.490478515625</ele>
        <time>2011-11-20T08:28:49Z</time>
      </trkpt>
      <trkpt lat="48.40511" lon="2.52119">
        <ele>53.490478515625</ele>
        <time>2011-11-20T08:29:02Z</time>
      </trkpt>
      <trkpt lat="48.40511" lon="2.52119">
        <ele>53.009765625</ele>
        <time>2011-11-20T08:29:03Z</time>
      </trkpt>
      <trkpt lat="48.40511" lon="2.52118">
        <ele>53.009765625</ele>
        <time>2011-11-20T08:29:04Z</time>
      </trkpt>
      <trkpt lat="48.40506" lon="2.52125">
        <ele>53.009765625</ele>
        <time>2011-11-20T08:29:09Z</time>
      </trkpt>
      <trkpt lat="48.40506" lon="2.5213">
        <ele>53.490478515625</ele>
        <time>2011-11-20T08:29:10Z</time>
      </trkpt>
      <trkpt lat="48.40501" lon="2.52163">
        <ele>53.97119140625</ele>
        <time>2011-11-20T08:29:17Z</time>
      </trkpt>
      <trkpt lat="48.40495" lon="2.52204">
        <ele>54.451782226562</ele>
        <time>2011-11-20T08:29:23Z</time>
      </trkpt>
      <trkpt lat="48.40488" lon="2.52244">
        <ele>54.932373046875</ele>
        <time>2011-11-20T08:29:29Z</time>
      </trkpt>
      <trkpt lat="48.40484" lon="2.52265">
        <ele>54.932373046875</ele>
        <time>2011-11-20T08:29:32Z</time>
      </trkpt>
      <trkpt lat="48.40476" lon="2.52324">
        <ele>54.932373046875</ele>
        <time>2011-11-20T08:29:40Z</time>
      </trkpt>
      <trkpt lat="48.40466" lon="2.52387">
        <ele>55.893798828125</ele>
        <time>2011-11-20T08:29:48Z</time>
      </trkpt>
      <trkpt lat="48.40454" lon="2.52453">
        <ele>56.37451171875</ele>
        <time>2011-11-20T08:29:57Z</time>
      </trkpt>
      <trkpt lat="48.40445" lon="2.52511">
        <ele>56.855102539062</ele>
        <time>2011-11-20T08:30:05Z</time>
      </trkpt>
      <trkpt lat="48.40443" lon="2.52526">
        <ele>56.37451171875</ele>
        <time>2011-11-20T08:30:07Z</time>
      </trkpt>
      <trkpt lat="48.40435" lon="2.52578">
        <ele>57.816528320312</ele>
        <time>2011-11-20T08:30:14Z</time>
      </trkpt>
      <trkpt lat="48.40432" lon="2.5261">
        <ele>57.816528320312</ele>
        <time>2011-11-20T08:30:18Z</time>
      </trkpt>
      <trkpt lat="48.40429" lon="2.52653">
        <ele>59.258422851562</ele>
        <time>2011-11-20T08:30:24Z</time>
      </trkpt>
      <trkpt lat="48.40414" lon="2.52655">
        <ele>57.335815429688</ele>
        <time>2011-11-20T08:30:28Z</time>
      </trkpt>
      <trkpt lat="48.40385" lon="2.52625">
        <ele>57.335815429688</ele>
        <time>2011-11-20T08:30:33Z</time>
      </trkpt>
      <trkpt lat="48.40338" lon="2.5258">
        <ele>56.37451171875</ele>
        <time>2011-11-20T08:30:42Z</time>
      </trkpt>
      <trkpt lat="48.40313" lon="2.52546">
        <ele>55.893798828125</ele>
        <time>2011-11-20T08:30:47Z</time>
      </trkpt>
      <trkpt lat="48.40287" lon="2.52495">
        <ele>55.893798828125</ele>
        <time>2011-11-20T08:30:53Z</time>
      </trkpt>
      <trkpt lat="48.40251" lon="2.52428">
        <ele>54.451782226562</ele>
        <time>2011-11-20T08:31:01Z</time>
      </trkpt>
      <trkpt lat="48.40227" lon="2.52382">
        <ele>53.97119140625</ele>
        <time>2011-11-20T08:31:06Z</time>
      </trkpt>
      <trkpt lat="48.40219" lon="2.52362">
        <ele>53.97119140625</ele>
        <time>2011-11-20T08:31:08Z</time>
      </trkpt>
      <trkpt lat="48.40205" lon="2.52295">
        <ele>53.97119140625</ele>
        <time>2011-11-20T08:31:14Z</time>
      </trkpt>
      <trkpt lat="48.40201" lon="2.52248">
        <ele>54.451782226562</ele>
        <time>2011-11-20T08:31:19Z</time>
      </trkpt>
      <trkpt lat="48.40199" lon="2.5223">
        <ele>53.97119140625</ele>
        <time>2011-11-20T08:31:21Z</time>
      </trkpt>
      <trkpt lat="48.40191" lon="2.52218">
        <ele>53.97119140625</ele>
        <time>2011-11-20T08:31:25Z</time>
      </trkpt>
      <trkpt lat="48.40185" lon="2.5223">
        <ele>53.97119140625</ele>
        <time>2011-11-20T08:31:28Z</time>
      </trkpt>
      <trkpt lat="48.40183" lon="2.52235">
        <ele>53.490478515625</ele>
        <time>2011-11-20T08:31:29Z</time>
      </trkpt>
      <trkpt lat="48.40179" lon="2.52245">
        <ele>53.97119140625</ele>
        <time>2011-11-20T08:31:31Z</time>
      </trkpt>
      <trkpt lat="48.4016" lon="2.52282">
        <ele>53.97119140625</ele>
        <time>2011-11-20T08:31:38Z</time>
      </trkpt>
      <trkpt lat="48.4014" lon="2.52321">
        <ele>53.97119140625</ele>
        <time>2011-11-20T08:31:44Z</time>
      </trkpt>
      <trkpt lat="48.40113" lon="2.52385">
        <ele>53.97119140625</ele>
        <time>2011-11-20T08:31:53Z</time>
      </trkpt>
      <trkpt lat="48.4011" lon="2.52392">
        <ele>54.451782226562</ele>
        <time>2011-11-20T08:31:54Z</time>
      </trkpt>
      <trkpt lat="48.40104" lon="2.52415">
        <ele>53.97119140625</ele>
        <time>2011-11-20T08:31:58Z</time>
      </trkpt>
      <trkpt lat="48.40097" lon="2.52426">
        <ele>54.451782226562</ele>
        <time>2011-11-20T08:32:01Z</time>
      </trkpt>
      <trkpt lat="48.40082" lon="2.52468">
        <ele>54.451782226562</ele>
        <time>2011-11-20T08:32:08Z</time>
      </trkpt>
      <trkpt lat="48.40066" lon="2.52522">
        <ele>54.932373046875</ele>
        <time>2011-11-20T08:32:16Z</time>
      </trkpt>
      <trkpt lat="48.40055" lon="2.52555">
        <ele>55.4130859375</ele>
        <time>2011-11-20T08:32:21Z</time>
      </trkpt>
      <trkpt lat="48.40043" lon="2.52597">
        <ele>55.893798828125</ele>
        <time>2011-11-20T08:32:27Z</time>
      </trkpt>
      <trkpt lat="48.40031" lon="2.52636">
        <ele>56.855102539062</ele>
        <time>2011-11-20T08:32:33Z</time>
      </trkpt>
      <trkpt lat="48.40023" lon="2.52667">
        <ele>57.335815429688</ele>
        <time>2011-11-20T08:32:38Z</time>
      </trkpt>
      <trkpt lat="48.4002" lon="2.52672">
        <ele>57.335815429688</ele>
        <time>2011-11-20T08:32:39Z</time>
      </trkpt>
      <trkpt lat="48.40013" lon="2.52695">
        <ele>57.816528320312</ele>
        <time>2011-11-20T08:32:43Z</time>
      </trkpt>
      <trkpt lat="48.40005" lon="2.52733">
        <ele>57.816528320312</ele>
        <time>2011-11-20T08:32:49Z</time>
      </trkpt>
      <trkpt lat="48.39981" lon="2.52805">
        <ele>59.739135742188</ele>
        <time>2011-11-20T08:33:01Z</time>
      </trkpt>
      <trkpt lat="48.39972" lon="2.52851">
        <ele>59.739135742188</ele>
        <time>2011-11-20T08:33:08Z</time>
      </trkpt>
      <trkpt lat="48.39959" lon="2.52901">
        <ele>60.700317382812</ele>
        <time>2011-11-20T08:33:16Z</time>
      </trkpt>
      <trkpt lat="48.39946" lon="2.5295">
        <ele>60.700317382812</ele>
        <time>2011-11-20T08:33:25Z</time>
      </trkpt>
      <trkpt lat="48.39937" lon="2.52992">
        <ele>60.700317382812</ele>
        <time>2011-11-20T08:33:33Z</time>
      </trkpt>
      <trkpt lat="48.39929" lon="2.53037">
        <ele>61.661743164062</ele>
        <time>2011-11-20T08:33:41Z</time>
      </trkpt>
      <trkpt lat="48.39922" lon="2.53072">
        <ele>62.622924804688</ele>
        <time>2011-11-20T08:33:48Z</time>
      </trkpt>
      <trkpt lat="48.39912" lon="2.5311">
        <ele>64.065063476562</ele>
        <time>2011-11-20T08:33:56Z</time>
      </trkpt>
      <trkpt lat="48.39905" lon="2.53143">
        <ele>64.545654296875</ele>
        <time>2011-11-20T08:34:03Z</time>
      </trkpt>
      <trkpt lat="48.39898" lon="2.53177">
        <ele>65.507080078125</ele>
        <time>2011-11-20T08:34:10Z</time>
      </trkpt>
      <trkpt lat="48.39894" lon="2.53203">
        <ele>65.987670898438</ele>
        <time>2011-11-20T08:34:16Z</time>
      </trkpt>
      <trkpt lat="48.3989" lon="2.53242">
        <ele>66.948974609375</ele>
        <time>2011-11-20T08:34:24Z</time>
      </trkpt>
      <trkpt lat="48.39888" lon="2.53269">
        <ele>67.910278320312</ele>
        <time>2011-11-20T08:34:31Z</time>
      </trkpt>
      <trkpt lat="48.39879" lon="2.53304">
        <ele>69.352294921875</ele>
        <time>2011-11-20T08:34:40Z</time>
      </trkpt>
      <trkpt lat="48.39873" lon="2.53332">
        <ele>70.3134765625</ele>
        <time>2011-11-20T08:34:47Z</time>
      </trkpt>
      <trkpt lat="48.39869" lon="2.53367">
        <ele>70.794189453125</ele>
        <time>2011-11-20T08:34:55Z</time>
      </trkpt>
      <trkpt lat="48.39868" lon="2.53391">
        <ele>72.236206054688</ele>
        <time>2011-11-20T08:35:02Z</time>
      </trkpt>
      <trkpt lat="48.39866" lon="2.53415">
        <ele>72.236206054688</ele>
        <time>2011-11-20T08:35:09Z</time>
      </trkpt>
      <trkpt lat="48.39862" lon="2.53435">
        <ele>72.716918945312</ele>
        <time>2011-11-20T08:35:15Z</time>
      </trkpt>
      <trkpt lat="48.39855" lon="2.53456">
        <ele>74.158813476562</ele>
        <time>2011-11-20T08:35:22Z</time>
      </trkpt>
      <trkpt lat="48.39848" lon="2.53476">
        <ele>75.600830078125</ele>
        <time>2011-11-20T08:35:28Z</time>
      </trkpt>
      <trkpt lat="48.3984" lon="2.53494">
        <ele>76.562133789062</ele>
        <time>2011-11-20T08:35:34Z</time>
      </trkpt>
      <trkpt lat="48.3983" lon="2.53513">
        <ele>75.120239257812</ele>
        <time>2011-11-20T08:35:39Z</time>
      </trkpt>
      <trkpt lat="48.39823" lon="2.53522">
        <ele>75.120239257812</ele>
        <time>2011-11-20T08:35:41Z</time>
      </trkpt>
      <trkpt lat="48.39812" lon="2.53551">
        <ele>74.158813476562</ele>
        <time>2011-11-20T08:35:46Z</time>
      </trkpt>
      <trkpt lat="48.39806" lon="2.53594">
        <ele>73.197631835938</ele>
        <time>2011-11-20T08:35:51Z</time>
      </trkpt>
      <trkpt lat="48.39797" lon="2.53663">
        <ele>71.27490234375</ele>
        <time>2011-11-20T08:35:57Z</time>
      </trkpt>
      <trkpt lat="48.39792" lon="2.53685">
        <ele>71.27490234375</ele>
        <time>2011-11-20T08:35:59Z</time>
      </trkpt>
      <trkpt lat="48.3979" lon="2.53707">
        <ele>71.27490234375</ele>
        <time>2011-11-20T08:36:01Z</time>
      </trkpt>
      <trkpt lat="48.39787" lon="2.53769">
        <ele>70.3134765625</ele>
        <time>2011-11-20T08:36:07Z</time>
      </trkpt>
      <trkpt lat="48.39785" lon="2.53825">
        <ele>68.87158203125</ele>
        <time>2011-11-20T08:36:13Z</time>
      </trkpt>
      <trkpt lat="48.39788" lon="2.53866">
        <ele>67.910278320312</ele>
        <time>2011-11-20T08:36:18Z</time>
      </trkpt>
      <trkpt lat="48.39785" lon="2.53925">
        <ele>66.948974609375</ele>
        <time>2011-11-20T08:36:24Z</time>
      </trkpt>
      <trkpt lat="48.39783" lon="2.53977">
        <ele>65.507080078125</ele>
        <time>2011-11-20T08:36:29Z</time>
      </trkpt>
      <trkpt lat="48.39777" lon="2.54021">
        <ele>64.545654296875</ele>
        <time>2011-11-20T08:36:34Z</time>
      </trkpt>
      <trkpt lat="48.39777" lon="2.5406">
        <ele>64.545654296875</ele>
        <time>2011-11-20T08:36:38Z</time>
      </trkpt>
      <trkpt lat="48.39766" lon="2.54082">
        <ele>64.545654296875</ele>
        <time>2011-11-20T08:36:41Z</time>
      </trkpt>
      <trkpt lat="48.39735" lon="2.54114">
        <ele>66.948974609375</ele>
        <time>2011-11-20T08:36:48Z</time>
      </trkpt>
      <trkpt lat="48.39723" lon="2.54125">
        <ele>66.948974609375</ele>
        <time>2011-11-20T08:36:51Z</time>
      </trkpt>
      <trkpt lat="48.39694" lon="2.54152">
        <ele>65.507080078125</ele>
        <time>2011-11-20T08:36:58Z</time>
      </trkpt>
      <trkpt lat="48.39678" lon="2.5417">
        <ele>65.0263671875</ele>
        <time>2011-11-20T08:37:03Z</time>
      </trkpt>
      <trkpt lat="48.39677" lon="2.54177">
        <ele>65.0263671875</ele>
        <time>2011-11-20T08:37:06Z</time>
      </trkpt>
      <trkpt lat="48.3968" lon="2.54191">
        <ele>62.622924804688</ele>
        <time>2011-11-20T08:37:11Z</time>
      </trkpt>
      <trkpt lat="48.39683" lon="2.54196">
        <ele>61.661743164062</ele>
        <time>2011-11-20T08:37:12Z</time>
      </trkpt>
      <trkpt lat="48.39689" lon="2.54211">
        <ele>61.181030273438</ele>
        <time>2011-11-20T08:37:14Z</time>
      </trkpt>
      <trkpt lat="48.39699" lon="2.54252">
        <ele>60.2197265625</ele>
        <time>2011-11-20T08:37:18Z</time>
      </trkpt>
      <trkpt lat="48.39712" lon="2.543">
        <ele>60.2197265625</ele>
        <time>2011-11-20T08:37:22Z</time>
      </trkpt>
      <trkpt lat="48.39724" lon="2.54328">
        <ele>58.297119140625</ele>
        <time>2011-11-20T08:37:25Z</time>
      </trkpt>
      <trkpt lat="48.39733" lon="2.54366">
        <ele>58.297119140625</ele>
        <time>2011-11-20T08:37:29Z</time>
      </trkpt>
      <trkpt lat="48.39732" lon="2.54376">
        <ele>58.297119140625</ele>
        <time>2011-11-20T08:37:30Z</time>
      </trkpt>
      <trkpt lat="48.39728" lon="2.54406">
        <ele>57.816528320312</ele>
        <time>2011-11-20T08:37:33Z</time>
      </trkpt>
      <trkpt lat="48.39711" lon="2.5448">
        <ele>57.335815429688</ele>
        <time>2011-11-20T08:37:41Z</time>
      </trkpt>
      <trkpt lat="48.39702" lon="2.54526">
        <ele>57.816528320312</ele>
        <time>2011-11-20T08:37:46Z</time>
      </trkpt>
      <trkpt lat="48.39688" lon="2.54565">
        <ele>57.816528320312</ele>
        <time>2011-11-20T08:37:51Z</time>
      </trkpt>
      <trkpt lat="48.39666" lon="2.54602">
        <ele>56.37451171875</ele>
        <time>2011-11-20T08:37:56Z</time>
      </trkpt>
      <trkpt lat="48.39649" lon="2.54663">
        <ele>55.893798828125</ele>
        <time>2011-11-20T08:38:02Z</time>
      </trkpt>
      <trkpt lat="48.3963" lon="2.5474">
        <ele>55.893798828125</ele>
        <time>2011-11-20T08:38:09Z</time>
      </trkpt>
      <trkpt lat="48.39607" lon="2.54826">
        <ele>55.893798828125</ele>
        <time>2011-11-20T08:38:16Z</time>
      </trkpt>
      <trkpt lat="48.39581" lon="2.54917">
        <ele>54.451782226562</ele>
        <time>2011-11-20T08:38:24Z</time>
      </trkpt>
      <trkpt lat="48.39557" lon="2.54977">
        <ele>54.451782226562</ele>
        <time>2011-11-20T08:38:30Z</time>
      </trkpt>
      <trkpt lat="48.3953" lon="2.55037">
        <ele>54.932373046875</ele>
        <time>2011-11-20T08:38:37Z</time>
      </trkpt>
      <trkpt lat="48.39505" lon="2.55103">
        <ele>55.4130859375</ele>
        <time>2011-11-20T08:38:44Z</time>
      </trkpt>
      <trkpt lat="48.39483" lon="2.55165">
        <ele>55.893798828125</ele>
        <time>2011-11-20T08:38:51Z</time>
      </trkpt>
      <trkpt lat="48.39469" lon="2.55205">
        <ele>55.893798828125</ele>
        <time>2011-11-20T08:38:56Z</time>
      </trkpt>
      <trkpt lat="48.39452" lon="2.55241">
        <ele>55.893798828125</ele>
        <time>2011-11-20T08:39:01Z</time>
      </trkpt>
      <trkpt lat="48.39438" lon="2.55252">
        <ele>55.4130859375</ele>
        <time>2011-11-20T08:39:05Z</time>
      </trkpt>
      <trkpt lat="48.39428" lon="2.55246">
        <ele>55.4130859375</ele>
        <time>2011-11-20T08:39:07Z</time>
      </trkpt>
      <trkpt lat="48.39402" lon="2.5523">
        <ele>56.855102539062</ele>
        <time>2011-11-20T08:39:13Z</time>
      </trkpt>
      <trkpt lat="48.39382" lon="2.55217">
        <ele>56.37451171875</ele>
        <time>2011-11-20T08:39:17Z</time>
      </trkpt>
      <trkpt lat="48.3936" lon="2.55195">
        <ele>56.37451171875</ele>
        <time>2011-11-20T08:39:22Z</time>
      </trkpt>
      <trkpt lat="48.3933" lon="2.55153">
        <ele>56.37451171875</ele>
        <time>2011-11-20T08:39:29Z</time>
      </trkpt>
      <trkpt lat="48.39303" lon="2.55125">
        <ele>57.335815429688</ele>
        <time>2011-11-20T08:39:35Z</time>
      </trkpt>
      <trkpt lat="48.39296" lon="2.55116">
        <ele>57.335815429688</ele>
        <time>2011-11-20T08:39:37Z</time>
      </trkpt>
      <trkpt lat="48.39286" lon="2.55093">
        <ele>57.816528320312</ele>
        <time>2011-11-20T08:39:41Z</time>
      </trkpt>
      <trkpt lat="48.39283" lon="2.5505">
        <ele>59.258422851562</ele>
        <time>2011-11-20T08:39:48Z</time>
      </trkpt>
      <trkpt lat="48.39287" lon="2.55024">
        <ele>59.739135742188</ele>
        <time>2011-11-20T08:39:53Z</time>
      </trkpt>
      <trkpt lat="48.39291" lon="2.55003">
        <ele>61.181030273438</ele>
        <time>2011-11-20T08:39:58Z</time>
      </trkpt>
      <trkpt lat="48.39295" lon="2.54976">
        <ele>61.181030273438</ele>
        <time>2011-11-20T08:40:04Z</time>
      </trkpt>
      <trkpt lat="48.39299" lon="2.54948">
        <ele>62.142333984375</ele>
        <time>2011-11-20T08:40:12Z</time>
      </trkpt>
      <trkpt lat="48.39302" lon="2.54926">
        <ele>62.142333984375</ele>
        <time>2011-11-20T08:40:17Z</time>
      </trkpt>
      <trkpt lat="48.39304" lon="2.54896">
        <ele>63.103637695312</ele>
        <time>2011-11-20T08:40:24Z</time>
      </trkpt>
      <trkpt lat="48.39305" lon="2.54876">
        <ele>62.622924804688</ele>
        <time>2011-11-20T08:40:29Z</time>
      </trkpt>
      <trkpt lat="48.39308" lon="2.54849">
        <ele>63.103637695312</ele>
        <time>2011-11-20T08:40:37Z</time>
      </trkpt>
      <trkpt lat="48.39312" lon="2.54825">
        <ele>63.103637695312</ele>
        <time>2011-11-20T08:40:44Z</time>
      </trkpt>
      <trkpt lat="48.39314" lon="2.54804">
        <ele>63.103637695312</ele>
        <time>2011-11-20T08:40:51Z</time>
      </trkpt>
      <trkpt lat="48.39317" lon="2.54779">
        <ele>63.103637695312</ele>
        <time>2011-11-20T08:40:55Z</time>
      </trkpt>
      <trkpt lat="48.39324" lon="2.54727">
        <ele>64.545654296875</ele>
        <time>2011-11-20T08:41:03Z</time>
      </trkpt>
      <trkpt lat="48.3933" lon="2.54683">
        <ele>66.46826171875</ele>
        <time>2011-11-20T08:41:11Z</time>
      </trkpt>
      <trkpt lat="48.39334" lon="2.54649">
        <ele>67.4296875</ele>
        <time>2011-11-20T08:41:18Z</time>
      </trkpt>
      <trkpt lat="48.39337" lon="2.54619">
        <ele>68.390869140625</ele>
        <time>2011-11-20T08:41:24Z</time>
      </trkpt>
      <trkpt lat="48.39338" lon="2.54585">
        <ele>69.352294921875</ele>
        <time>2011-11-20T08:41:31Z</time>
      </trkpt>
      <trkpt lat="48.39335" lon="2.54559">
        <ele>70.3134765625</ele>
        <time>2011-11-20T08:41:37Z</time>
      </trkpt>
      <trkpt lat="48.39329" lon="2.54546">
        <ele>71.755493164062</ele>
        <time>2011-11-20T08:41:41Z</time>
      </trkpt>
      <trkpt lat="48.39326" lon="2.54531">
        <ele>72.236206054688</ele>
        <time>2011-11-20T08:41:45Z</time>
      </trkpt>
      <trkpt lat="48.39326" lon="2.54513">
        <ele>73.197631835938</ele>
        <time>2011-11-20T08:41:51Z</time>
      </trkpt>
      <trkpt lat="48.39326" lon="2.54495">
        <ele>75.600830078125</ele>
        <time>2011-11-20T08:41:58Z</time>
      </trkpt>
      <trkpt lat="48.39326" lon="2.54485">
        <ele>77.042846679688</ele>
        <time>2011-11-20T08:42:01Z</time>
      </trkpt>
      <trkpt lat="48.39326" lon="2.54469">
        <ele>78.484741210938</ele>
        <time>2011-11-20T08:42:07Z</time>
      </trkpt>
      <trkpt lat="48.39327" lon="2.54456">
        <ele>80.407470703125</ele>
        <time>2011-11-20T08:42:14Z</time>
      </trkpt>
      <trkpt lat="48.39327" lon="2.54448">
        <ele>82.330078125</ele>
        <time>2011-11-20T08:42:18Z</time>
      </trkpt>
      <trkpt lat="48.39328" lon="2.54446">
        <ele>82.330078125</ele>
        <time>2011-11-20T08:42:19Z</time>
      </trkpt>
      <trkpt lat="48.39329" lon="2.5443">
        <ele>83.291381835938</ele>
        <time>2011-11-20T08:42:26Z</time>
      </trkpt>
      <trkpt lat="48.39331" lon="2.54414">
        <ele>84.7333984375</ele>
        <time>2011-11-20T08:42:33Z</time>
      </trkpt>
      <trkpt lat="48.39333" lon="2.544">
        <ele>87.6171875</ele>
        <time>2011-11-20T08:42:39Z</time>
      </trkpt>
      <trkpt lat="48.39336" lon="2.54379">
        <ele>89.539916992188</ele>
        <time>2011-11-20T08:42:45Z</time>
      </trkpt>
      <trkpt lat="48.39338" lon="2.54365">
        <ele>91.943237304688</ele>
        <time>2011-11-20T08:42:50Z</time>
      </trkpt>
      <trkpt lat="48.39337" lon="2.54346">
        <ele>94.8271484375</ele>
        <time>2011-11-20T08:42:56Z</time>
      </trkpt>
      <trkpt lat="48.39337" lon="2.54329">
        <ele>96.749877929688</ele>
        <time>2011-11-20T08:43:02Z</time>
      </trkpt>
      <trkpt lat="48.39338" lon="2.54325">
        <ele>96.749877929688</ele>
        <time>2011-11-20T08:43:03Z</time>
      </trkpt>
      <trkpt lat="48.39337" lon="2.54306">
        <ele>98.19189453125</ele>
        <time>2011-11-20T08:43:09Z</time>
      </trkpt>
      <trkpt lat="48.39336" lon="2.5429">
        <ele>99.153076171875</ele>
        <time>2011-11-20T08:43:15Z</time>
      </trkpt>
      <trkpt lat="48.39334" lon="2.54271">
        <ele>100.11450195312</ele>
        <time>2011-11-20T08:43:21Z</time>
      </trkpt>
      <trkpt lat="48.39336" lon="2.54243">
        <ele>102.037109375</ele>
        <time>2011-11-20T08:43:31Z</time>
      </trkpt>
      <trkpt lat="48.39341" lon="2.54226">
        <ele>102.51770019531</ele>
        <time>2011-11-20T08:43:36Z</time>
      </trkpt>
      <trkpt lat="48.39347" lon="2.54212">
        <ele>104.4404296875</ele>
        <time>2011-11-20T08:43:41Z</time>
      </trkpt>
      <trkpt lat="48.3936" lon="2.54198">
        <ele>105.40173339844</ele>
        <time>2011-11-20T08:43:48Z</time>
      </trkpt>
      <trkpt lat="48.39375" lon="2.54187">
        <ele>105.40173339844</ele>
        <time>2011-11-20T08:43:55Z</time>
      </trkpt>
      <trkpt lat="48.39386" lon="2.54178">
        <ele>105.88244628906</ele>
        <time>2011-11-20T08:44:00Z</time>
      </trkpt>
      <trkpt lat="48.394" lon="2.54158">
        <ele>105.88244628906</ele>
        <time>2011-11-20T08:44:06Z</time>
      </trkpt>
      <trkpt lat="48.39407" lon="2.54139">
        <ele>106.36303710938</ele>
        <time>2011-11-20T08:44:11Z</time>
      </trkpt>
      <trkpt lat="48.39407" lon="2.54135">
        <ele>105.88244628906</ele>
        <time>2011-11-20T08:44:12Z</time>
      </trkpt>
      <trkpt lat="48.39401" lon="2.54126">
        <ele>105.88244628906</ele>
        <time>2011-11-20T08:44:17Z</time>
      </trkpt>
      <trkpt lat="48.394" lon="2.54125">
        <ele>105.88244628906</ele>
        <time>2011-11-20T08:44:18Z</time>
      </trkpt>
      <trkpt lat="48.39389" lon="2.54118">
        <ele>105.88244628906</ele>
        <time>2011-11-20T08:44:26Z</time>
      </trkpt>
      <trkpt lat="48.39386" lon="2.54116">
        <ele>106.36303710938</ele>
        <time>2011-11-20T08:44:31Z</time>
      </trkpt>
      <trkpt lat="48.39383" lon="2.54115">
        <ele>106.36303710938</ele>
        <time>2011-11-20T08:44:48Z</time>
      </trkpt>
      <trkpt lat="48.39382" lon="2.54114">
        <ele>106.84362792969</ele>
        <time>2011-11-20T08:45:00Z</time>
      </trkpt>
      <trkpt lat="48.39384" lon="2.54112">
        <ele>106.84362792969</ele>
        <time>2011-11-20T08:45:12Z</time>
      </trkpt>
      <trkpt lat="48.39384" lon="2.54112">
        <ele>107.80505371094</ele>
        <time>2011-11-20T08:45:30Z</time>
      </trkpt>
      <trkpt lat="48.39386" lon="2.54111">
        <ele>107.80505371094</ele>
        <time>2011-11-20T08:45:36Z</time>
      </trkpt>
      <trkpt lat="48.39386" lon="2.54112">
        <ele>108.28564453125</ele>
        <time>2011-11-20T08:45:45Z</time>
      </trkpt>
      <trkpt lat="48.39386" lon="2.54112">
        <ele>107.80505371094</ele>
        <time>2011-11-20T08:45:53Z</time>
      </trkpt>
      <trkpt lat="48.39379" lon="2.54111">
        <ele>108.76623535156</ele>
        <time>2011-11-20T08:45:58Z</time>
      </trkpt>
      <trkpt lat="48.39363" lon="2.54105">
        <ele>107.80505371094</ele>
        <time>2011-11-20T08:46:03Z</time>
      </trkpt>
      <trkpt lat="48.39343" lon="2.54097">
        <ele>107.32434082031</ele>
        <time>2011-11-20T08:46:10Z</time>
      </trkpt>
      <trkpt lat="48.39326" lon="2.54091">
        <ele>106.84362792969</ele>
        <time>2011-11-20T08:46:15Z</time>
      </trkpt>
      <trkpt lat="48.39309" lon="2.54084">
        <ele>105.88244628906</ele>
        <time>2011-11-20T08:46:20Z</time>
      </trkpt>
      <trkpt lat="48.39292" lon="2.54078">
        <ele>105.40173339844</ele>
        <time>2011-11-20T08:46:24Z</time>
      </trkpt>
      <trkpt lat="48.39267" lon="2.54064">
        <ele>104.4404296875</ele>
        <time>2011-11-20T08:46:30Z</time>
      </trkpt>
      <trkpt lat="48.39255" lon="2.5406">
        <ele>103.47900390625</ele>
        <time>2011-11-20T08:46:34Z</time>
      </trkpt>
      <trkpt lat="48.39251" lon="2.54058">
        <ele>102.51770019531</ele>
        <time>2011-11-20T08:46:36Z</time>
      </trkpt>
      <trkpt lat="48.39244" lon="2.54044">
        <ele>102.037109375</ele>
        <time>2011-11-20T08:46:41Z</time>
      </trkpt>
      <trkpt lat="48.39244" lon="2.5404">
        <ele>102.51770019531</ele>
        <time>2011-11-20T08:46:42Z</time>
      </trkpt>
      <trkpt lat="48.39241" lon="2.5402">
        <ele>102.037109375</ele>
        <time>2011-11-20T08:46:47Z</time>
      </trkpt>
      <trkpt lat="48.39235" lon="2.54003">
        <ele>102.51770019531</ele>
        <time>2011-11-20T08:46:51Z</time>
      </trkpt>
      <trkpt lat="48.39233" lon="2.53999">
        <ele>102.99829101562</ele>
        <time>2011-11-20T08:46:52Z</time>
      </trkpt>
      <trkpt lat="48.39231" lon="2.53988">
        <ele>102.99829101562</ele>
        <time>2011-11-20T08:46:56Z</time>
      </trkpt>
      <trkpt lat="48.39229" lon="2.53982">
        <ele>102.99829101562</ele>
        <time>2011-11-20T08:46:59Z</time>
      </trkpt>
      <trkpt lat="48.39229" lon="2.53967">
        <ele>103.47900390625</ele>
        <time>2011-11-20T08:47:05Z</time>
      </trkpt>
      <trkpt lat="48.39228" lon="2.53952">
        <ele>101.55639648438</ele>
        <time>2011-11-20T08:47:09Z</time>
      </trkpt>
      <trkpt lat="48.39232" lon="2.53936">
        <ele>102.037109375</ele>
        <time>2011-11-20T08:47:15Z</time>
      </trkpt>
      <trkpt lat="48.39234" lon="2.53931">
        <ele>102.51770019531</ele>
        <time>2011-11-20T08:47:19Z</time>
      </trkpt>
      <trkpt lat="48.39236" lon="2.53927">
        <ele>102.99829101562</ele>
        <time>2011-11-20T08:47:25Z</time>
      </trkpt>
      <trkpt lat="48.39238" lon="2.53924">
        <ele>102.51770019531</ele>
        <time>2011-11-20T08:47:30Z</time>
      </trkpt>
      <trkpt lat="48.39246" lon="2.5392">
        <ele>103.47900390625</ele>
        <time>2011-11-20T08:47:35Z</time>
      </trkpt>
      <trkpt lat="48.39255" lon="2.53909">
        <ele>103.47900390625</ele>
        <time>2011-11-20T08:47:41Z</time>
      </trkpt>
      <trkpt lat="48.39257" lon="2.53907">
        <ele>103.47900390625</ele>
        <time>2011-11-20T08:47:42Z</time>
      </trkpt>
      <trkpt lat="48.39262" lon="2.53881">
        <ele>102.99829101562</ele>
        <time>2011-11-20T08:47:49Z</time>
      </trkpt>
      <trkpt lat="48.39264" lon="2.53879">
        <ele>102.51770019531</ele>
        <time>2011-11-20T08:47:50Z</time>
      </trkpt>
      <trkpt lat="48.39269" lon="2.53871">
        <ele>102.51770019531</ele>
        <time>2011-11-20T08:47:56Z</time>
      </trkpt>
      <trkpt lat="48.39272" lon="2.53868">
        <ele>102.99829101562</ele>
        <time>2011-11-20T08:48:02Z</time>
      </trkpt>
      <trkpt lat="48.39272" lon="2.53864">
        <ele>102.51770019531</ele>
        <time>2011-11-20T08:48:09Z</time>
      </trkpt>
      <trkpt lat="48.39274" lon="2.53861">
        <ele>102.99829101562</ele>
        <time>2011-11-20T08:48:14Z</time>
      </trkpt>
      <trkpt lat="48.39276" lon="2.53844">
        <ele>101.55639648438</ele>
        <time>2011-11-20T08:48:19Z</time>
      </trkpt>
      <trkpt lat="48.39276" lon="2.5384">
        <ele>102.037109375</ele>
        <time>2011-11-20T08:48:20Z</time>
      </trkpt>
      <trkpt lat="48.39273" lon="2.53827">
        <ele>102.99829101562</ele>
        <time>2011-11-20T08:48:26Z</time>
      </trkpt>
      <trkpt lat="48.39273" lon="2.53824">
        <ele>102.99829101562</ele>
        <time>2011-11-20T08:48:28Z</time>
      </trkpt>
      <trkpt lat="48.39272" lon="2.53817">
        <ele>103.95971679688</ele>
        <time>2011-11-20T08:48:33Z</time>
      </trkpt>
      <trkpt lat="48.39264" lon="2.53811">
        <ele>102.99829101562</ele>
        <time>2011-11-20T08:48:40Z</time>
      </trkpt>
      <trkpt lat="48.39264" lon="2.53808">
        <ele>103.47900390625</ele>
        <time>2011-11-20T08:48:57Z</time>
      </trkpt>
      <trkpt lat="48.3926" lon="2.53806">
        <ele>103.95971679688</ele>
        <time>2011-11-20T08:49:01Z</time>
      </trkpt>
      <trkpt lat="48.39257" lon="2.53794">
        <ele>102.51770019531</ele>
        <time>2011-11-20T08:49:07Z</time>
      </trkpt>
      <trkpt lat="48.39255" lon="2.5379">
        <ele>102.99829101562</ele>
        <time>2011-11-20T08:49:08Z</time>
      </trkpt>
      <trkpt lat="48.39252" lon="2.53776">
        <ele>102.99829101562</ele>
        <time>2011-11-20T08:49:12Z</time>
      </trkpt>
      <trkpt lat="48.3925" lon="2.53772">
        <ele>102.99829101562</ele>
        <time>2011-11-20T08:49:17Z</time>
      </trkpt>
      <trkpt lat="48.39252" lon="2.5377">
        <ele>103.47900390625</ele>
        <time>2011-11-20T08:49:24Z</time>
      </trkpt>
      <trkpt lat="48.39251" lon="2.53757">
        <ele>102.99829101562</ele>
        <time>2011-11-20T08:49:30Z</time>
      </trkpt>
      <trkpt lat="48.39249" lon="2.53742">
        <ele>103.47900390625</ele>
        <time>2011-11-20T08:49:35Z</time>
      </trkpt>
      <trkpt lat="48.39249" lon="2.53733">
        <ele>103.47900390625</ele>
        <time>2011-11-20T08:49:38Z</time>
      </trkpt>
      <trkpt lat="48.39249" lon="2.53722">
        <ele>103.47900390625</ele>
        <time>2011-11-20T08:49:41Z</time>
      </trkpt>
      <trkpt lat="48.39248" lon="2.53707">
        <ele>103.47900390625</ele>
        <time>2011-11-20T08:49:46Z</time>
      </trkpt>
      <trkpt lat="48.39247" lon="2.53693">
        <ele>103.95971679688</ele>
        <time>2011-11-20T08:49:50Z</time>
      </trkpt>
      <trkpt lat="48.3925" lon="2.5367">
        <ele>103.47900390625</ele>
        <time>2011-11-20T08:49:54Z</time>
      </trkpt>
      <trkpt lat="48.39252" lon="2.5366">
        <ele>102.99829101562</ele>
        <time>2011-11-20T08:49:56Z</time>
      </trkpt>
      <trkpt lat="48.39255" lon="2.53638">
        <ele>103.95971679688</ele>
        <time>2011-11-20T08:50:01Z</time>
      </trkpt>
      <trkpt lat="48.39259" lon="2.53621">
        <ele>103.95971679688</ele>
        <time>2011-11-20T08:50:05Z</time>
      </trkpt>
      <trkpt lat="48.39261" lon="2.53603">
        <ele>104.92102050781</ele>
        <time>2011-11-20T08:50:09Z</time>
      </trkpt>
      <trkpt lat="48.39261" lon="2.53599">
        <ele>105.40173339844</ele>
        <time>2011-11-20T08:50:10Z</time>
      </trkpt>
      <trkpt lat="48.3925" lon="2.53579">
        <ele>106.36303710938</ele>
        <time>2011-11-20T08:50:15Z</time>
      </trkpt>
      <trkpt lat="48.39248" lon="2.53561">
        <ele>106.84362792969</ele>
        <time>2011-11-20T08:50:20Z</time>
      </trkpt>
      <trkpt lat="48.39245" lon="2.5355">
        <ele>108.28564453125</ele>
        <time>2011-11-20T08:50:23Z</time>
      </trkpt>
      <trkpt lat="48.39242" lon="2.53525">
        <ele>109.24694824219</ele>
        <time>2011-11-20T08:50:28Z</time>
      </trkpt>
      <trkpt lat="48.39237" lon="2.53498">
        <ele>108.28564453125</ele>
        <time>2011-11-20T08:50:33Z</time>
      </trkpt>
      <trkpt lat="48.3924" lon="2.53454">
        <ele>109.24694824219</ele>
        <time>2011-11-20T08:50:40Z</time>
      </trkpt>
      <trkpt lat="48.39238" lon="2.53413">
        <ele>108.76623535156</ele>
        <time>2011-11-20T08:50:45Z</time>
      </trkpt>
      <trkpt lat="48.39236" lon="2.53399">
        <ele>107.32434082031</ele>
        <time>2011-11-20T08:50:47Z</time>
      </trkpt>
      <trkpt lat="48.39219" lon="2.5336">
        <ele>106.84362792969</ele>
        <time>2011-11-20T08:50:53Z</time>
      </trkpt>
      <trkpt lat="48.39214" lon="2.53359">
        <ele>106.84362792969</ele>
        <time>2011-11-20T08:50:56Z</time>
      </trkpt>
      <trkpt lat="48.39211" lon="2.53363">
        <ele>106.84362792969</ele>
        <time>2011-11-20T08:51:03Z</time>
      </trkpt>
      <trkpt lat="48.39208" lon="2.53364">
        <ele>107.32434082031</ele>
        <time>2011-11-20T08:51:14Z</time>
      </trkpt>
      <trkpt lat="48.3921" lon="2.53368">
        <ele>107.32434082031</ele>
        <time>2011-11-20T08:51:33Z</time>
      </trkpt>
      <trkpt lat="48.3921" lon="2.53366">
        <ele>107.32434082031</ele>
        <time>2011-11-20T08:51:43Z</time>
      </trkpt>
      <trkpt lat="48.39209" lon="2.53362">
        <ele>107.80505371094</ele>
        <time>2011-11-20T08:52:05Z</time>
      </trkpt>
      <trkpt lat="48.39209" lon="2.5336">
        <ele>107.32434082031</ele>
        <time>2011-11-20T08:52:13Z</time>
      </trkpt>
      <trkpt lat="48.39212" lon="2.5336">
        <ele>108.28564453125</ele>
        <time>2011-11-20T08:52:25Z</time>
      </trkpt>
      <trkpt lat="48.3921" lon="2.53366">
        <ele>107.80505371094</ele>
        <time>2011-11-20T08:52:40Z</time>
      </trkpt>
      <trkpt lat="48.39204" lon="2.53374">
        <ele>108.28564453125</ele>
        <time>2011-11-20T08:52:45Z</time>
      </trkpt>
      <trkpt lat="48.39192" lon="2.53389">
        <ele>109.24694824219</ele>
        <time>2011-11-20T08:52:52Z</time>
      </trkpt>
      <trkpt lat="48.39178" lon="2.53415">
        <ele>110.68884277344</ele>
        <time>2011-11-20T08:52:58Z</time>
      </trkpt>
      <trkpt lat="48.39176" lon="2.53421">
        <ele>110.68884277344</ele>
        <time>2011-11-20T08:52:59Z</time>
      </trkpt>
      <trkpt lat="48.39159" lon="2.53458">
        <ele>110.68884277344</ele>
        <time>2011-11-20T08:53:06Z</time>
      </trkpt>
      <trkpt lat="48.39147" lon="2.53476">
        <ele>111.65026855469</ele>
        <time>2011-11-20T08:53:10Z</time>
      </trkpt>
      <trkpt lat="48.39138" lon="2.53499">
        <ele>111.16955566406</ele>
        <time>2011-11-20T08:53:14Z</time>
      </trkpt>
      <trkpt lat="48.39122" lon="2.53533">
        <ele>111.16955566406</ele>
        <time>2011-11-20T08:53:20Z</time>
      </trkpt>
      <trkpt lat="48.39114" lon="2.53547">
        <ele>111.65026855469</ele>
        <time>2011-11-20T08:53:23Z</time>
      </trkpt>
      <trkpt lat="48.39097" lon="2.53576">
        <ele>112.13098144531</ele>
        <time>2011-11-20T08:53:29Z</time>
      </trkpt>
      <trkpt lat="48.39081" lon="2.53588">
        <ele>111.65026855469</ele>
        <time>2011-11-20T08:53:33Z</time>
      </trkpt>
      <trkpt lat="48.39072" lon="2.5359">
        <ele>112.13098144531</ele>
        <time>2011-11-20T08:53:35Z</time>
      </trkpt>
      <trkpt lat="48.39054" lon="2.5361">
        <ele>112.13098144531</ele>
        <time>2011-11-20T08:53:40Z</time>
      </trkpt>
      <trkpt lat="48.39049" lon="2.53621">
        <ele>111.65026855469</ele>
        <time>2011-11-20T08:53:42Z</time>
      </trkpt>
      <trkpt lat="48.39034" lon="2.53645">
        <ele>112.13098144531</ele>
        <time>2011-11-20T08:53:47Z</time>
      </trkpt>
      <trkpt lat="48.39016" lon="2.53657">
        <ele>112.61157226562</ele>
        <time>2011-11-20T08:53:51Z</time>
      </trkpt>
      <trkpt lat="48.38992" lon="2.53669">
        <ele>113.57299804688</ele>
        <time>2011-11-20T08:53:57Z</time>
      </trkpt>
      <trkpt lat="48.38973" lon="2.53676">
        <ele>114.05358886719</ele>
        <time>2011-11-20T08:54:02Z</time>
      </trkpt>
      <trkpt lat="48.3896" lon="2.53686">
        <ele>113.57299804688</ele>
        <time>2011-11-20T08:54:06Z</time>
      </trkpt>
      <trkpt lat="48.3895" lon="2.53705">
        <ele>113.57299804688</ele>
        <time>2011-11-20T08:54:10Z</time>
      </trkpt>
      <trkpt lat="48.38934" lon="2.53722">
        <ele>113.57299804688</ele>
        <time>2011-11-20T08:54:15Z</time>
      </trkpt>
      <trkpt lat="48.38921" lon="2.53733">
        <ele>113.09228515625</ele>
        <time>2011-11-20T08:54:18Z</time>
      </trkpt>
      <trkpt lat="48.38915" lon="2.53742">
        <ele>113.57299804688</ele>
        <time>2011-11-20T08:54:20Z</time>
      </trkpt>
      <trkpt lat="48.38898" lon="2.53779">
        <ele>112.13098144531</ele>
        <time>2011-11-20T08:54:26Z</time>
      </trkpt>
      <trkpt lat="48.38896" lon="2.53818">
        <ele>111.65026855469</ele>
        <time>2011-11-20T08:54:31Z</time>
      </trkpt>
      <trkpt lat="48.38895" lon="2.5385">
        <ele>111.65026855469</ele>
        <time>2011-11-20T08:54:35Z</time>
      </trkpt>
      <trkpt lat="48.38886" lon="2.53873">
        <ele>112.13098144531</ele>
        <time>2011-11-20T08:54:39Z</time>
      </trkpt>
      <trkpt lat="48.38886" lon="2.53894">
        <ele>112.13098144531</ele>
        <time>2011-11-20T08:54:42Z</time>
      </trkpt>
      <trkpt lat="48.38886" lon="2.539">
        <ele>112.13098144531</ele>
        <time>2011-11-20T08:54:43Z</time>
      </trkpt>
      <trkpt lat="48.38885" lon="2.53922">
        <ele>112.61157226562</ele>
        <time>2011-11-20T08:54:48Z</time>
      </trkpt>
      <trkpt lat="48.3889" lon="2.53921">
        <ele>112.61157226562</ele>
        <time>2011-11-20T08:54:52Z</time>
      </trkpt>
      <trkpt lat="48.38887" lon="2.5391">
        <ele>112.61157226562</ele>
        <time>2011-11-20T08:54:58Z</time>
      </trkpt>
      <trkpt lat="48.38885" lon="2.53917">
        <ele>112.61157226562</ele>
        <time>2011-11-20T08:55:03Z</time>
      </trkpt>
      <trkpt lat="48.38884" lon="2.53921">
        <ele>112.13098144531</ele>
        <time>2011-11-20T08:55:06Z</time>
      </trkpt>
      <trkpt lat="48.38873" lon="2.53927">
        <ele>112.13098144531</ele>
        <time>2011-11-20T08:55:12Z</time>
      </trkpt>
      <trkpt lat="48.38861" lon="2.53939">
        <ele>112.13098144531</ele>
        <time>2011-11-20T08:55:16Z</time>
      </trkpt>
      <trkpt lat="48.38845" lon="2.53969">
        <ele>112.13098144531</ele>
        <time>2011-11-20T08:55:22Z</time>
      </trkpt>
      <trkpt lat="48.3884" lon="2.5398">
        <ele>112.61157226562</ele>
        <time>2011-11-20T08:55:24Z</time>
      </trkpt>
      <trkpt lat="48.38833" lon="2.54007">
        <ele>112.61157226562</ele>
        <time>2011-11-20T08:55:28Z</time>
      </trkpt>
      <trkpt lat="48.38822" lon="2.54042">
        <ele>113.09228515625</ele>
        <time>2011-11-20T08:55:33Z</time>
      </trkpt>
      <trkpt lat="48.38813" lon="2.54087">
        <ele>113.09228515625</ele>
        <time>2011-11-20T08:55:39Z</time>
      </trkpt>
      <trkpt lat="48.38809" lon="2.54111">
        <ele>112.61157226562</ele>
        <time>2011-11-20T08:55:42Z</time>
      </trkpt>
      <trkpt lat="48.38807" lon="2.54151">
        <ele>112.61157226562</ele>
        <time>2011-11-20T08:55:47Z</time>
      </trkpt>
      <trkpt lat="48.38805" lon="2.54167">
        <ele>113.09228515625</ele>
        <time>2011-11-20T08:55:49Z</time>
      </trkpt>
      <trkpt lat="48.38794" lon="2.54192">
        <ele>112.61157226562</ele>
        <time>2011-11-20T08:55:53Z</time>
      </trkpt>
      <trkpt lat="48.38784" lon="2.54196">
        <ele>111.16955566406</ele>
        <time>2011-11-20T08:55:55Z</time>
      </trkpt>
      <trkpt lat="48.38761" lon="2.54209">
        <ele>112.61157226562</ele>
        <time>2011-11-20T08:56:00Z</time>
      </trkpt>
      <trkpt lat="48.38763" lon="2.54223">
        <ele>112.13098144531</ele>
        <time>2011-11-20T08:56:02Z</time>
      </trkpt>
      <trkpt lat="48.38762" lon="2.54259">
        <ele>112.13098144531</ele>
        <time>2011-11-20T08:56:06Z</time>
      </trkpt>
      <trkpt lat="48.38749" lon="2.54282">
        <ele>112.13098144531</ele>
        <time>2011-11-20T08:56:10Z</time>
      </trkpt>
      <trkpt lat="48.38744" lon="2.54288">
        <ele>109.24694824219</ele>
        <time>2011-11-20T08:56:11Z</time>
      </trkpt>
      <trkpt lat="48.38705" lon="2.5433">
        <ele>107.32434082031</ele>
        <time>2011-11-20T08:56:18Z</time>
      </trkpt>
      <trkpt lat="48.3869" lon="2.54357">
        <ele>108.28564453125</ele>
        <time>2011-11-20T08:56:22Z</time>
      </trkpt>
      <trkpt lat="48.38675" lon="2.54395">
        <ele>107.80505371094</ele>
        <time>2011-11-20T08:56:27Z</time>
      </trkpt>
      <trkpt lat="48.38669" lon="2.54411">
        <ele>106.84362792969</ele>
        <time>2011-11-20T08:56:29Z</time>
      </trkpt>
      <trkpt lat="48.38665" lon="2.54426">
        <ele>106.84362792969</ele>
        <time>2011-11-20T08:56:31Z</time>
      </trkpt>
      <trkpt lat="48.38659" lon="2.54446">
        <ele>106.36303710938</ele>
        <time>2011-11-20T08:56:34Z</time>
      </trkpt>
      <trkpt lat="48.38654" lon="2.54474">
        <ele>105.88244628906</ele>
        <time>2011-11-20T08:56:38Z</time>
      </trkpt>
      <trkpt lat="48.38652" lon="2.54488">
        <ele>105.88244628906</ele>
        <time>2011-11-20T08:56:40Z</time>
      </trkpt>
      <trkpt lat="48.3864" lon="2.54529">
        <ele>105.88244628906</ele>
        <time>2011-11-20T08:56:46Z</time>
      </trkpt>
      <trkpt lat="48.38638" lon="2.54537">
        <ele>104.4404296875</ele>
        <time>2011-11-20T08:56:47Z</time>
      </trkpt>
      <trkpt lat="48.38627" lon="2.5458">
        <ele>104.92102050781</ele>
        <time>2011-11-20T08:56:53Z</time>
      </trkpt>
      <trkpt lat="48.38623" lon="2.54604">
        <ele>103.95971679688</ele>
        <time>2011-11-20T08:56:56Z</time>
      </trkpt>
      <trkpt lat="48.3862" lon="2.5462">
        <ele>103.95971679688</ele>
        <time>2011-11-20T08:56:58Z</time>
      </trkpt>
      <trkpt lat="48.38614" lon="2.54653">
        <ele>103.47900390625</ele>
        <time>2011-11-20T08:57:02Z</time>
      </trkpt>
      <trkpt lat="48.38602" lon="2.54709">
        <ele>102.51770019531</ele>
        <time>2011-11-20T08:57:09Z</time>
      </trkpt>
      <trkpt lat="48.38594" lon="2.54759">
        <ele>101.55639648438</ele>
        <time>2011-11-20T08:57:15Z</time>
      </trkpt>
      <trkpt lat="48.38581" lon="2.54779">
        <ele>99.6337890625</ele>
        <time>2011-11-20T08:57:19Z</time>
      </trkpt>
      <trkpt lat="48.38557" lon="2.54771">
        <ele>101.07568359375</ele>
        <time>2011-11-20T08:57:24Z</time>
      </trkpt>
      <trkpt lat="48.38554" lon="2.54765">
        <ele>100.59509277344</ele>
        <time>2011-11-20T08:57:25Z</time>
      </trkpt>
      <trkpt lat="48.38547" lon="2.54753">
        <ele>100.11450195312</ele>
        <time>2011-11-20T08:57:27Z</time>
      </trkpt>
      <trkpt lat="48.38536" lon="2.5474">
        <ele>102.037109375</ele>
        <time>2011-11-20T08:57:30Z</time>
      </trkpt>
      <trkpt lat="48.38525" lon="2.54713">
        <ele>103.95971679688</ele>
        <time>2011-11-20T08:57:35Z</time>
      </trkpt>
      <trkpt lat="48.38524" lon="2.54709">
        <ele>103.95971679688</ele>
        <time>2011-11-20T08:57:36Z</time>
      </trkpt>
      <trkpt lat="48.38514" lon="2.54683">
        <ele>104.4404296875</ele>
        <time>2011-11-20T08:57:42Z</time>
      </trkpt>
      <trkpt lat="48.38499" lon="2.54653">
        <ele>105.88244628906</ele>
        <time>2011-11-20T08:57:49Z</time>
      </trkpt>
      <trkpt lat="48.38498" lon="2.54649">
        <ele>106.36303710938</ele>
        <time>2011-11-20T08:57:50Z</time>
      </trkpt>
      <trkpt lat="48.38488" lon="2.54623">
        <ele>107.32434082031</ele>
        <time>2011-11-20T08:57:56Z</time>
      </trkpt>
      <trkpt lat="48.38479" lon="2.54595">
        <ele>107.32434082031</ele>
        <time>2011-11-20T08:58:02Z</time>
      </trkpt>
      <trkpt lat="48.38467" lon="2.54571">
        <ele>107.32434082031</ele>
        <time>2011-11-20T08:58:08Z</time>
      </trkpt>
      <trkpt lat="48.38459" lon="2.54551">
        <ele>106.84362792969</ele>
        <time>2011-11-20T08:58:13Z</time>
      </trkpt>
      <trkpt lat="48.38454" lon="2.54534">
        <ele>108.28564453125</ele>
        <time>2011-11-20T08:58:18Z</time>
      </trkpt>
      <trkpt lat="48.3845" lon="2.54515">
        <ele>107.80505371094</ele>
        <time>2011-11-20T08:58:23Z</time>
      </trkpt>
      <trkpt lat="48.38445" lon="2.54496">
        <ele>107.80505371094</ele>
        <time>2011-11-20T08:58:27Z</time>
      </trkpt>
      <trkpt lat="48.38442" lon="2.54483">
        <ele>107.80505371094</ele>
        <time>2011-11-20T08:58:31Z</time>
      </trkpt>
      <trkpt lat="48.38441" lon="2.54478">
        <ele>107.32434082031</ele>
        <time>2011-11-20T08:58:38Z</time>
      </trkpt>
      <trkpt lat="48.38441" lon="2.54476">
        <ele>108.28564453125</ele>
        <time>2011-11-20T08:58:40Z</time>
      </trkpt>
      <trkpt lat="48.38438" lon="2.54464">
        <ele>105.88244628906</ele>
        <time>2011-11-20T08:58:44Z</time>
      </trkpt>
      <trkpt lat="48.38437" lon="2.54454">
        <ele>104.92102050781</ele>
        <time>2011-11-20T08:58:46Z</time>
      </trkpt>
      <trkpt lat="48.38428" lon="2.54434">
        <ele>103.95971679688</ele>
        <time>2011-11-20T08:58:50Z</time>
      </trkpt>
      <trkpt lat="48.3842" lon="2.54416">
        <ele>102.037109375</ele>
        <time>2011-11-20T08:58:58Z</time>
      </trkpt>
      <trkpt lat="48.3842" lon="2.54411">
        <ele>101.07568359375</ele>
        <time>2011-11-20T08:59:06Z</time>
      </trkpt>
      <trkpt lat="48.38419" lon="2.54408">
        <ele>102.037109375</ele>
        <time>2011-11-20T08:59:14Z</time>
      </trkpt>
      <trkpt lat="48.3842" lon="2.54389">
        <ele>98.19189453125</ele>
        <time>2011-11-20T08:59:19Z</time>
      </trkpt>
      <trkpt lat="48.38419" lon="2.54383">
        <ele>98.19189453125</ele>
        <time>2011-11-20T08:59:20Z</time>
      </trkpt>
      <trkpt lat="48.3842" lon="2.54373">
        <ele>97.23046875</ele>
        <time>2011-11-20T08:59:23Z</time>
      </trkpt>
      <trkpt lat="48.3842" lon="2.54366">
        <ele>95.307739257812</ele>
        <time>2011-11-20T08:59:28Z</time>
      </trkpt>
      <trkpt lat="48.3842" lon="2.54362">
        <ele>96.269287109375</ele>
        <time>2011-11-20T08:59:44Z</time>
      </trkpt>
      <trkpt lat="48.38421" lon="2.54352">
        <ele>94.8271484375</ele>
        <time>2011-11-20T08:59:49Z</time>
      </trkpt>
      <trkpt lat="48.38421" lon="2.54343">
        <ele>94.346557617188</ele>
        <time>2011-11-20T08:59:56Z</time>
      </trkpt>
      <trkpt lat="48.3842" lon="2.54336">
        <ele>93.865844726562</ele>
        <time>2011-11-20T09:00:01Z</time>
      </trkpt>
      <trkpt lat="48.38418" lon="2.54335">
        <ele>93.385131835938</ele>
        <time>2011-11-20T09:00:07Z</time>
      </trkpt>
      <trkpt lat="48.38418" lon="2.54332">
        <ele>93.865844726562</ele>
        <time>2011-11-20T09:00:22Z</time>
      </trkpt>
      <trkpt lat="48.38419" lon="2.54326">
        <ele>92.904541015625</ele>
        <time>2011-11-20T09:00:28Z</time>
      </trkpt>
      <trkpt lat="48.38418" lon="2.54325">
        <ele>92.904541015625</ele>
        <time>2011-11-20T09:00:43Z</time>
      </trkpt>
      <trkpt lat="48.38419" lon="2.54319">
        <ele>91.943237304688</ele>
        <time>2011-11-20T09:00:49Z</time>
      </trkpt>
      <trkpt lat="48.38418" lon="2.54314">
        <ele>91.462524414062</ele>
        <time>2011-11-20T09:00:53Z</time>
      </trkpt>
      <trkpt lat="48.38417" lon="2.54309">
        <ele>90.98193359375</ele>
        <time>2011-11-20T09:00:55Z</time>
      </trkpt>
      <trkpt lat="48.38416" lon="2.54306">
        <ele>90.98193359375</ele>
        <time>2011-11-20T09:01:00Z</time>
      </trkpt>
      <trkpt lat="48.38416" lon="2.54304">
        <ele>90.501342773438</ele>
        <time>2011-11-20T09:01:05Z</time>
      </trkpt>
      <trkpt lat="48.38412" lon="2.54296">
        <ele>89.059326171875</ele>
        <time>2011-11-20T09:01:09Z</time>
      </trkpt>
      <trkpt lat="48.38413" lon="2.54276">
        <ele>87.6171875</ele>
        <time>2011-11-20T09:01:14Z</time>
      </trkpt>
      <trkpt lat="48.38413" lon="2.54265">
        <ele>86.17529296875</ele>
        <time>2011-11-20T09:01:16Z</time>
      </trkpt>
      <trkpt lat="48.38411" lon="2.5424">
        <ele>85.694580078125</ele>
        <time>2011-11-20T09:01:20Z</time>
      </trkpt>
      <trkpt lat="48.38401" lon="2.54211">
        <ele>81.849365234375</ele>
        <time>2011-11-20T09:01:25Z</time>
      </trkpt>
      <trkpt lat="48.38396" lon="2.54201">
        <ele>81.849365234375</ele>
        <time>2011-11-20T09:01:27Z</time>
      </trkpt>
      <trkpt lat="48.38388" lon="2.54191">
        <ele>80.88818359375</ele>
        <time>2011-11-20T09:01:30Z</time>
      </trkpt>
      <trkpt lat="48.38382" lon="2.54172">
        <ele>78.484741210938</ele>
        <time>2011-11-20T09:01:33Z</time>
      </trkpt>
      <trkpt lat="48.38379" lon="2.54157">
        <ele>77.5234375</ele>
        <time>2011-11-20T09:01:35Z</time>
      </trkpt>
      <trkpt lat="48.38377" lon="2.54148">
        <ele>76.562133789062</ele>
        <time>2011-11-20T09:01:36Z</time>
      </trkpt>
      <trkpt lat="48.38365" lon="2.5412">
        <ele>76.081420898438</ele>
        <time>2011-11-20T09:01:40Z</time>
      </trkpt>
      <trkpt lat="48.38344" lon="2.54085">
        <ele>73.197631835938</ele>
        <time>2011-11-20T09:01:45Z</time>
      </trkpt>
      <trkpt lat="48.38335" lon="2.54072">
        <ele>71.755493164062</ele>
        <time>2011-11-20T09:01:47Z</time>
      </trkpt>
      <trkpt lat="48.38318" lon="2.54062">
        <ele>69.832885742188</ele>
        <time>2011-11-20T09:01:50Z</time>
      </trkpt>
      <trkpt lat="48.38301" lon="2.5405">
        <ele>70.3134765625</ele>
        <time>2011-11-20T09:01:55Z</time>
      </trkpt>
      <trkpt lat="48.38294" lon="2.54041">
        <ele>69.832885742188</ele>
        <time>2011-11-20T09:02:01Z</time>
      </trkpt>
      <trkpt lat="48.38294" lon="2.5404">
        <ele>68.87158203125</ele>
        <time>2011-11-20T09:02:09Z</time>
      </trkpt>
      <trkpt lat="48.38297" lon="2.54036">
        <ele>69.352294921875</ele>
        <time>2011-11-20T09:02:15Z</time>
      </trkpt>
      <trkpt lat="48.38297" lon="2.54037">
        <ele>68.87158203125</ele>
        <time>2011-11-20T09:02:22Z</time>
      </trkpt>
      <trkpt lat="48.38298" lon="2.54041">
        <ele>69.832885742188</ele>
        <time>2011-11-20T09:02:27Z</time>
      </trkpt>
      <trkpt lat="48.38301" lon="2.54038">
        <ele>69.352294921875</ele>
        <time>2011-11-20T09:02:33Z</time>
      </trkpt>
      <trkpt lat="48.38302" lon="2.54038">
        <ele>69.832885742188</ele>
        <time>2011-11-20T09:02:42Z</time>
      </trkpt>
      <trkpt lat="48.38303" lon="2.54035">
        <ele>69.832885742188</ele>
        <time>2011-11-20T09:02:49Z</time>
      </trkpt>
      <trkpt lat="48.38305" lon="2.54033">
        <ele>68.87158203125</ele>
        <time>2011-11-20T09:03:02Z</time>
      </trkpt>
      <trkpt lat="48.38305" lon="2.54033">
        <ele>68.87158203125</ele>
        <time>2011-11-20T09:03:03Z</time>
      </trkpt>
      <trkpt lat="48.38312" lon="2.54023">
        <ele>69.352294921875</ele>
        <time>2011-11-20T09:03:09Z</time>
      </trkpt>
      <trkpt lat="48.38316" lon="2.54013">
        <ele>70.3134765625</ele>
        <time>2011-11-20T09:03:14Z</time>
      </trkpt>
      <trkpt lat="48.38326" lon="2.5399">
        <ele>71.27490234375</ele>
        <time>2011-11-20T09:03:22Z</time>
      </trkpt>
      <trkpt lat="48.38329" lon="2.53975">
        <ele>72.236206054688</ele>
        <time>2011-11-20T09:03:27Z</time>
      </trkpt>
      <trkpt lat="48.38335" lon="2.53955">
        <ele>71.755493164062</ele>
        <time>2011-11-20T09:03:33Z</time>
      </trkpt>
      <trkpt lat="48.38342" lon="2.53938">
        <ele>73.67822265625</ele>
        <time>2011-11-20T09:03:39Z</time>
      </trkpt>
      <trkpt lat="48.3835" lon="2.53917">
        <ele>75.120239257812</ele>
        <time>2011-11-20T09:03:46Z</time>
      </trkpt>
      <trkpt lat="48.38357" lon="2.539">
        <ele>75.600830078125</ele>
        <time>2011-11-20T09:03:52Z</time>
      </trkpt>
      <trkpt lat="48.38366" lon="2.53881">
        <ele>75.600830078125</ele>
        <time>2011-11-20T09:03:58Z</time>
      </trkpt>
      <trkpt lat="48.38373" lon="2.53862">
        <ele>75.600830078125</ele>
        <time>2011-11-20T09:04:04Z</time>
      </trkpt>
      <trkpt lat="48.38382" lon="2.53843">
        <ele>76.081420898438</ele>
        <time>2011-11-20T09:04:10Z</time>
      </trkpt>
      <trkpt lat="48.38389" lon="2.5382">
        <ele>77.5234375</ele>
        <time>2011-11-20T09:04:17Z</time>
      </trkpt>
      <trkpt lat="48.38392" lon="2.53796">
        <ele>77.042846679688</ele>
        <time>2011-11-20T09:04:23Z</time>
      </trkpt>
      <trkpt lat="48.38394" lon="2.53764">
        <ele>76.081420898438</ele>
        <time>2011-11-20T09:04:28Z</time>
      </trkpt>
      <trkpt lat="48.38393" lon="2.53748">
        <ele>76.081420898438</ele>
        <time>2011-11-20T09:04:30Z</time>
      </trkpt>
      <trkpt lat="48.38387" lon="2.53704">
        <ele>74.639526367188</ele>
        <time>2011-11-20T09:04:35Z</time>
      </trkpt>
      <trkpt lat="48.38385" lon="2.53685">
        <ele>72.236206054688</ele>
        <time>2011-11-20T09:04:37Z</time>
      </trkpt>
      <trkpt lat="48.38384" lon="2.53666">
        <ele>71.755493164062</ele>
        <time>2011-11-20T09:04:39Z</time>
      </trkpt>
      <trkpt lat="48.38379" lon="2.53613">
        <ele>70.3134765625</ele>
        <time>2011-11-20T09:04:45Z</time>
      </trkpt>
      <trkpt lat="48.38377" lon="2.53596">
        <ele>69.832885742188</ele>
        <time>2011-11-20T09:04:47Z</time>
      </trkpt>
      <trkpt lat="48.38377" lon="2.53562">
        <ele>69.352294921875</ele>
        <time>2011-11-20T09:04:51Z</time>
      </trkpt>
      <trkpt lat="48.38386" lon="2.53506">
        <ele>68.87158203125</ele>
        <time>2011-11-20T09:04:58Z</time>
      </trkpt>
      <trkpt lat="48.38392" lon="2.53477">
        <ele>67.910278320312</ele>
        <time>2011-11-20T09:05:02Z</time>
      </trkpt>
      <trkpt lat="48.38398" lon="2.5346">
        <ele>68.390869140625</ele>
        <time>2011-11-20T09:05:05Z</time>
      </trkpt>
      <trkpt lat="48.38416" lon="2.53435">
        <ele>68.87158203125</ele>
        <time>2011-11-20T09:05:10Z</time>
      </trkpt>
      <trkpt lat="48.38451" lon="2.53406">
        <ele>68.87158203125</ele>
        <time>2011-11-20T09:05:18Z</time>
      </trkpt>
      <trkpt lat="48.38455" lon="2.53401">
        <ele>68.87158203125</ele>
        <time>2011-11-20T09:05:19Z</time>
      </trkpt>
      <trkpt lat="48.38469" lon="2.53385">
        <ele>67.910278320312</ele>
        <time>2011-11-20T09:05:22Z</time>
      </trkpt>
      <trkpt lat="48.3849" lon="2.53367">
        <ele>67.4296875</ele>
        <time>2011-11-20T09:05:26Z</time>
      </trkpt>
      <trkpt lat="48.38508" lon="2.53358">
        <ele>66.46826171875</ele>
        <time>2011-11-20T09:05:29Z</time>
      </trkpt>
      <trkpt lat="48.38525" lon="2.53346">
        <ele>66.46826171875</ele>
        <time>2011-11-20T09:05:32Z</time>
      </trkpt>
      <trkpt lat="48.38544" lon="2.53325">
        <ele>66.46826171875</ele>
        <time>2011-11-20T09:05:36Z</time>
      </trkpt>
      <trkpt lat="48.38565" lon="2.53305">
        <ele>65.0263671875</ele>
        <time>2011-11-20T09:05:40Z</time>
      </trkpt>
      <trkpt lat="48.38588" lon="2.53298">
        <ele>65.0263671875</ele>
        <time>2011-11-20T09:05:44Z</time>
      </trkpt>
      <trkpt lat="48.38597" lon="2.53287">
        <ele>63.584350585938</ele>
        <time>2011-11-20T09:05:48Z</time>
      </trkpt>
      <trkpt lat="48.38589" lon="2.53282">
        <ele>63.103637695312</ele>
        <time>2011-11-20T09:05:51Z</time>
      </trkpt>
      <trkpt lat="48.38572" lon="2.53284">
        <ele>62.142333984375</ele>
        <time>2011-11-20T09:05:55Z</time>
      </trkpt>
      <trkpt lat="48.38562" lon="2.53281">
        <ele>61.661743164062</ele>
        <time>2011-11-20T09:05:57Z</time>
      </trkpt>
      <trkpt lat="48.38541" lon="2.53272">
        <ele>61.181030273438</ele>
        <time>2011-11-20T09:06:01Z</time>
      </trkpt>
      <trkpt lat="48.38514" lon="2.53254">
        <ele>60.700317382812</ele>
        <time>2011-11-20T09:06:06Z</time>
      </trkpt>
      <trkpt lat="48.38499" lon="2.53241">
        <ele>59.739135742188</ele>
        <time>2011-11-20T09:06:09Z</time>
      </trkpt>
      <trkpt lat="48.38491" lon="2.5323">
        <ele>59.739135742188</ele>
        <time>2011-11-20T09:06:11Z</time>
      </trkpt>
      <trkpt lat="48.3848" lon="2.53211">
        <ele>59.258422851562</ele>
        <time>2011-11-20T09:06:14Z</time>
      </trkpt>
      <trkpt lat="48.3846" lon="2.53172">
        <ele>58.297119140625</ele>
        <time>2011-11-20T09:06:20Z</time>
      </trkpt>
      <trkpt lat="48.38453" lon="2.53151">
        <ele>58.297119140625</ele>
        <time>2011-11-20T09:06:23Z</time>
      </trkpt>
      <trkpt lat="48.38436" lon="2.53102">
        <ele>59.258422851562</ele>
        <time>2011-11-20T09:06:30Z</time>
      </trkpt>
      <trkpt lat="48.38432" lon="2.53088">
        <ele>59.739135742188</ele>
        <time>2011-11-20T09:06:32Z</time>
      </trkpt>
      <trkpt lat="48.38426" lon="2.53061">
        <ele>59.739135742188</ele>
        <time>2011-11-20T09:06:36Z</time>
      </trkpt>
      <trkpt lat="48.38422" lon="2.53038">
        <ele>59.739135742188</ele>
        <time>2011-11-20T09:06:41Z</time>
      </trkpt>
      <trkpt lat="48.38411" lon="2.53003">
        <ele>60.700317382812</ele>
        <time>2011-11-20T09:06:47Z</time>
      </trkpt>
      <trkpt lat="48.38403" lon="2.52975">
        <ele>60.700317382812</ele>
        <time>2011-11-20T09:06:52Z</time>
      </trkpt>
      <trkpt lat="48.38391" lon="2.5292">
        <ele>60.2197265625</ele>
        <time>2011-11-20T09:07:00Z</time>
      </trkpt>
      <trkpt lat="48.38387" lon="2.52906">
        <ele>59.258422851562</ele>
        <time>2011-11-20T09:07:02Z</time>
      </trkpt>
      <trkpt lat="48.38376" lon="2.52877">
        <ele>59.739135742188</ele>
        <time>2011-11-20T09:07:06Z</time>
      </trkpt>
      <trkpt lat="48.38371" lon="2.52855">
        <ele>59.258422851562</ele>
        <time>2011-11-20T09:07:09Z</time>
      </trkpt>
      <trkpt lat="48.38357" lon="2.52811">
        <ele>59.258422851562</ele>
        <time>2011-11-20T09:07:15Z</time>
      </trkpt>
      <trkpt lat="48.38343" lon="2.5277">
        <ele>59.739135742188</ele>
        <time>2011-11-20T09:07:21Z</time>
      </trkpt>
      <trkpt lat="48.3833" lon="2.52759">
        <ele>59.739135742188</ele>
        <time>2011-11-20T09:07:25Z</time>
      </trkpt>
      <trkpt lat="48.38328" lon="2.52772">
        <ele>60.2197265625</ele>
        <time>2011-11-20T09:07:28Z</time>
      </trkpt>
      <trkpt lat="48.3833" lon="2.52782">
        <ele>59.739135742188</ele>
        <time>2011-11-20T09:07:30Z</time>
      </trkpt>
      <trkpt lat="48.38334" lon="2.52799">
        <ele>60.2197265625</ele>
        <time>2011-11-20T09:07:33Z</time>
      </trkpt>
      <trkpt lat="48.38331" lon="2.52825">
        <ele>59.258422851562</ele>
        <time>2011-11-20T09:07:37Z</time>
      </trkpt>
      <trkpt lat="48.3832" lon="2.52866">
        <ele>59.258422851562</ele>
        <time>2011-11-20T09:07:43Z</time>
      </trkpt>
      <trkpt lat="48.38311" lon="2.52898">
        <ele>59.739135742188</ele>
        <time>2011-11-20T09:07:48Z</time>
      </trkpt>
      <trkpt lat="48.38303" lon="2.52926">
        <ele>59.739135742188</ele>
        <time>2011-11-20T09:07:52Z</time>
      </trkpt>
      <trkpt lat="48.3829" lon="2.52963">
        <ele>58.777709960938</ele>
        <time>2011-11-20T09:07:58Z</time>
      </trkpt>
      <trkpt lat="48.38274" lon="2.53003">
        <ele>59.739135742188</ele>
        <time>2011-11-20T09:08:05Z</time>
      </trkpt>
      <trkpt lat="48.38255" lon="2.53044">
        <ele>59.739135742188</ele>
        <time>2011-11-20T09:08:12Z</time>
      </trkpt>
      <trkpt lat="48.3824" lon="2.53081">
        <ele>59.739135742188</ele>
        <time>2011-11-20T09:08:18Z</time>
      </trkpt>
      <trkpt lat="48.38226" lon="2.53104">
        <ele>59.739135742188</ele>
        <time>2011-11-20T09:08:22Z</time>
      </trkpt>
      <trkpt lat="48.38214" lon="2.53132">
        <ele>58.777709960938</ele>
        <time>2011-11-20T09:08:26Z</time>
      </trkpt>
      <trkpt lat="48.38202" lon="2.5319">
        <ele>57.816528320312</ele>
        <time>2011-11-20T09:08:33Z</time>
      </trkpt>
      <trkpt lat="48.38194" lon="2.53236">
        <ele>57.816528320312</ele>
        <time>2011-11-20T09:08:39Z</time>
      </trkpt>
      <trkpt lat="48.38193" lon="2.5329">
        <ele>57.816528320312</ele>
        <time>2011-11-20T09:08:46Z</time>
      </trkpt>
      <trkpt lat="48.38199" lon="2.53343">
        <ele>59.258422851562</ele>
        <time>2011-11-20T09:08:53Z</time>
      </trkpt>
      <trkpt lat="48.38192" lon="2.53376">
        <ele>60.700317382812</ele>
        <time>2011-11-20T09:08:58Z</time>
      </trkpt>
      <trkpt lat="48.38181" lon="2.53413">
        <ele>61.181030273438</ele>
        <time>2011-11-20T09:09:05Z</time>
      </trkpt>
      <trkpt lat="48.3817" lon="2.53451">
        <ele>61.661743164062</ele>
        <time>2011-11-20T09:09:12Z</time>
      </trkpt>
      <trkpt lat="48.38158" lon="2.53472">
        <ele>62.142333984375</ele>
        <time>2011-11-20T09:09:17Z</time>
      </trkpt>
      <trkpt lat="48.38155" lon="2.53475">
        <ele>61.181030273438</ele>
        <time>2011-11-20T09:09:18Z</time>
      </trkpt>
      <trkpt lat="48.38147" lon="2.53476">
        <ele>60.2197265625</ele>
        <time>2011-11-20T09:09:20Z</time>
      </trkpt>
      <trkpt lat="48.38126" lon="2.53466">
        <ele>60.700317382812</ele>
        <time>2011-11-20T09:09:25Z</time>
      </trkpt>
      <trkpt lat="48.3812" lon="2.53456">
        <ele>60.700317382812</ele>
        <time>2011-11-20T09:09:27Z</time>
      </trkpt>
      <trkpt lat="48.38099" lon="2.53413">
        <ele>60.2197265625</ele>
        <time>2011-11-20T09:09:35Z</time>
      </trkpt>
      <trkpt lat="48.38076" lon="2.5338">
        <ele>60.2197265625</ele>
        <time>2011-11-20T09:09:42Z</time>
      </trkpt>
      <trkpt lat="48.38044" lon="2.5334">
        <ele>60.2197265625</ele>
        <time>2011-11-20T09:09:51Z</time>
      </trkpt>
      <trkpt lat="48.38013" lon="2.53298">
        <ele>59.739135742188</ele>
        <time>2011-11-20T09:10:00Z</time>
      </trkpt>
      <trkpt lat="48.37985" lon="2.53254">
        <ele>59.739135742188</ele>
        <time>2011-11-20T09:10:09Z</time>
      </trkpt>
      <trkpt lat="48.37969" lon="2.53241">
        <ele>59.739135742188</ele>
        <time>2011-11-20T09:10:13Z</time>
      </trkpt>
      <trkpt lat="48.37954" lon="2.53226">
        <ele>59.258422851562</ele>
        <time>2011-11-20T09:10:17Z</time>
      </trkpt>
      <trkpt lat="48.37944" lon="2.53211">
        <ele>58.777709960938</ele>
        <time>2011-11-20T09:10:20Z</time>
      </trkpt>
      <trkpt lat="48.37931" lon="2.53197">
        <ele>59.739135742188</ele>
        <time>2011-11-20T09:10:24Z</time>
      </trkpt>
      <trkpt lat="48.37922" lon="2.53202">
        <ele>59.739135742188</ele>
        <time>2011-11-20T09:10:27Z</time>
      </trkpt>
      <trkpt lat="48.37917" lon="2.53218">
        <ele>59.739135742188</ele>
        <time>2011-11-20T09:10:30Z</time>
      </trkpt>
      <trkpt lat="48.37905" lon="2.53245">
        <ele>59.258422851562</ele>
        <time>2011-11-20T09:10:35Z</time>
      </trkpt>
      <trkpt lat="48.37889" lon="2.53276">
        <ele>60.700317382812</ele>
        <time>2011-11-20T09:10:41Z</time>
      </trkpt>
      <trkpt lat="48.37876" lon="2.53289">
        <ele>62.142333984375</ele>
        <time>2011-11-20T09:10:46Z</time>
      </trkpt>
      <trkpt lat="48.37864" lon="2.53303">
        <ele>63.103637695312</ele>
        <time>2011-11-20T09:10:51Z</time>
      </trkpt>
      <trkpt lat="48.37855" lon="2.53326">
        <ele>62.142333984375</ele>
        <time>2011-11-20T09:10:56Z</time>
      </trkpt>
      <trkpt lat="48.37846" lon="2.53351">
        <ele>62.622924804688</ele>
        <time>2011-11-20T09:11:01Z</time>
      </trkpt>
      <trkpt lat="48.37841" lon="2.53367">
        <ele>64.545654296875</ele>
        <time>2011-11-20T09:11:05Z</time>
      </trkpt>
      <trkpt lat="48.37835" lon="2.53388">
        <ele>65.507080078125</ele>
        <time>2011-11-20T09:11:11Z</time>
      </trkpt>
      <trkpt lat="48.37834" lon="2.53393">
        <ele>65.987670898438</ele>
        <time>2011-11-20T09:11:13Z</time>
      </trkpt>
      <trkpt lat="48.37831" lon="2.53404">
        <ele>66.948974609375</ele>
        <time>2011-11-20T09:11:17Z</time>
      </trkpt>
      <trkpt lat="48.37823" lon="2.53418">
        <ele>67.910278320312</ele>
        <time>2011-11-20T09:11:24Z</time>
      </trkpt>
      <trkpt lat="48.3782" lon="2.53434">
        <ele>68.87158203125</ele>
        <time>2011-11-20T09:11:30Z</time>
      </trkpt>
      <trkpt lat="48.3782" lon="2.53437">
        <ele>68.390869140625</ele>
        <time>2011-11-20T09:11:31Z</time>
      </trkpt>
      <trkpt lat="48.37819" lon="2.53445">
        <ele>69.832885742188</ele>
        <time>2011-11-20T09:11:35Z</time>
      </trkpt>
      <trkpt lat="48.37815" lon="2.53455">
        <ele>71.755493164062</ele>
        <time>2011-11-20T09:11:42Z</time>
      </trkpt>
      <trkpt lat="48.37809" lon="2.53469">
        <ele>73.197631835938</ele>
        <time>2011-11-20T09:11:49Z</time>
      </trkpt>
      <trkpt lat="48.37802" lon="2.53483">
        <ele>74.639526367188</ele>
        <time>2011-11-20T09:11:56Z</time>
      </trkpt>
      <trkpt lat="48.37797" lon="2.53495">
        <ele>77.042846679688</ele>
        <time>2011-11-20T09:12:02Z</time>
      </trkpt>
      <trkpt lat="48.37792" lon="2.53508">
        <ele>77.5234375</ele>
        <time>2011-11-20T09:12:08Z</time>
      </trkpt>
      <trkpt lat="48.37791" lon="2.5351">
        <ele>77.5234375</ele>
        <time>2011-11-20T09:12:09Z</time>
      </trkpt>
      <trkpt lat="48.37791" lon="2.53527">
        <ele>78.484741210938</ele>
        <time>2011-11-20T09:12:16Z</time>
      </trkpt>
      <trkpt lat="48.37789" lon="2.53538">
        <ele>80.407470703125</ele>
        <time>2011-11-20T09:12:22Z</time>
      </trkpt>
      <trkpt lat="48.37789" lon="2.53539">
        <ele>79.926635742188</ele>
        <time>2011-11-20T09:12:23Z</time>
      </trkpt>
      <trkpt lat="48.37788" lon="2.53545">
        <ele>81.368774414062</ele>
        <time>2011-11-20T09:12:26Z</time>
      </trkpt>
      <trkpt lat="48.37791" lon="2.53555">
        <ele>83.291381835938</ele>
        <time>2011-11-20T09:12:32Z</time>
      </trkpt>
      <trkpt lat="48.37789" lon="2.5356">
        <ele>83.77197265625</ele>
        <time>2011-11-20T09:12:39Z</time>
      </trkpt>
      <trkpt lat="48.37788" lon="2.53568">
        <ele>84.252685546875</ele>
        <time>2011-11-20T09:12:46Z</time>
      </trkpt>
      <trkpt lat="48.37789" lon="2.53574">
        <ele>84.252685546875</ele>
        <time>2011-11-20T09:12:54Z</time>
      </trkpt>
      <trkpt lat="48.37786" lon="2.53582">
        <ele>84.252685546875</ele>
        <time>2011-11-20T09:12:59Z</time>
      </trkpt>
      <trkpt lat="48.37783" lon="2.53597">
        <ele>84.7333984375</ele>
        <time>2011-11-20T09:13:03Z</time>
      </trkpt>
      <trkpt lat="48.37776" lon="2.53617">
        <ele>84.252685546875</ele>
        <time>2011-11-20T09:13:07Z</time>
      </trkpt>
      <trkpt lat="48.37762" lon="2.53634">
        <ele>80.88818359375</ele>
        <time>2011-11-20T09:13:11Z</time>
      </trkpt>
      <trkpt lat="48.37759" lon="2.53638">
        <ele>80.88818359375</ele>
        <time>2011-11-20T09:13:12Z</time>
      </trkpt>
      <trkpt lat="48.37743" lon="2.53659">
        <ele>77.042846679688</ele>
        <time>2011-11-20T09:13:17Z</time>
      </trkpt>
      <trkpt lat="48.37737" lon="2.5367">
        <ele>76.562133789062</ele>
        <time>2011-11-20T09:13:20Z</time>
      </trkpt>
      <trkpt lat="48.37732" lon="2.53683">
        <ele>74.639526367188</ele>
        <time>2011-11-20T09:13:23Z</time>
      </trkpt>
      <trkpt lat="48.37729" lon="2.53697">
        <ele>75.120239257812</ele>
        <time>2011-11-20T09:13:26Z</time>
      </trkpt>
      <trkpt lat="48.37719" lon="2.53705">
        <ele>74.158813476562</ele>
        <time>2011-11-20T09:13:30Z</time>
      </trkpt>
      <trkpt lat="48.37706" lon="2.53708">
        <ele>69.832885742188</ele>
        <time>2011-11-20T09:13:35Z</time>
      </trkpt>
      <trkpt lat="48.37703" lon="2.5371">
        <ele>69.832885742188</ele>
        <time>2011-11-20T09:13:36Z</time>
      </trkpt>
      <trkpt lat="48.37695" lon="2.53727">
        <ele>68.87158203125</ele>
        <time>2011-11-20T09:13:41Z</time>
      </trkpt>
      <trkpt lat="48.37684" lon="2.53746">
        <ele>68.87158203125</ele>
        <time>2011-11-20T09:13:46Z</time>
      </trkpt>
      <trkpt lat="48.37674" lon="2.53768">
        <ele>67.4296875</ele>
        <time>2011-11-20T09:13:51Z</time>
      </trkpt>
      <trkpt lat="48.37671" lon="2.53772">
        <ele>66.948974609375</ele>
        <time>2011-11-20T09:13:52Z</time>
      </trkpt>
      <trkpt lat="48.37655" lon="2.53808">
        <ele>66.46826171875</ele>
        <time>2011-11-20T09:13:58Z</time>
      </trkpt>
      <trkpt lat="48.37656" lon="2.53822">
        <ele>65.987670898438</ele>
        <time>2011-11-20T09:14:01Z</time>
      </trkpt>
      <trkpt lat="48.37654" lon="2.53837">
        <ele>65.987670898438</ele>
        <time>2011-11-20T09:14:04Z</time>
      </trkpt>
      <trkpt lat="48.37654" lon="2.53863">
        <ele>66.46826171875</ele>
        <time>2011-11-20T09:14:09Z</time>
      </trkpt>
      <trkpt lat="48.37668" lon="2.53888">
        <ele>67.4296875</ele>
        <time>2011-11-20T09:14:15Z</time>
      </trkpt>
      <trkpt lat="48.3768" lon="2.53914">
        <ele>67.4296875</ele>
        <time>2011-11-20T09:14:21Z</time>
      </trkpt>
      <trkpt lat="48.37688" lon="2.53945">
        <ele>68.87158203125</ele>
        <time>2011-11-20T09:14:27Z</time>
      </trkpt>
      <trkpt lat="48.377" lon="2.53975">
        <ele>68.87158203125</ele>
        <time>2011-11-20T09:14:33Z</time>
      </trkpt>
      <trkpt lat="48.37719" lon="2.54002">
        <ele>67.910278320312</ele>
        <time>2011-11-20T09:14:39Z</time>
      </trkpt>
      <trkpt lat="48.37722" lon="2.54007">
        <ele>67.4296875</ele>
        <time>2011-11-20T09:14:40Z</time>
      </trkpt>
      <trkpt lat="48.37736" lon="2.54021">
        <ele>66.948974609375</ele>
        <time>2011-11-20T09:14:43Z</time>
      </trkpt>
      <trkpt lat="48.37761" lon="2.54054">
        <ele>65.507080078125</ele>
        <time>2011-11-20T09:14:48Z</time>
      </trkpt>
      <trkpt lat="48.37796" lon="2.54085">
        <ele>63.103637695312</ele>
        <time>2011-11-20T09:14:54Z</time>
      </trkpt>
      <trkpt lat="48.37808" lon="2.54112">
        <ele>62.622924804688</ele>
        <time>2011-11-20T09:14:58Z</time>
      </trkpt>
      <trkpt lat="48.37809" lon="2.54121">
        <ele>62.622924804688</ele>
        <time>2011-11-20T09:14:59Z</time>
      </trkpt>
      <trkpt lat="48.37808" lon="2.54146">
        <ele>62.622924804688</ele>
        <time>2011-11-20T09:15:02Z</time>
      </trkpt>
      <trkpt lat="48.37798" lon="2.54184">
        <ele>63.584350585938</ele>
        <time>2011-11-20T09:15:07Z</time>
      </trkpt>
      <trkpt lat="48.37792" lon="2.54197">
        <ele>62.622924804688</ele>
        <time>2011-11-20T09:15:09Z</time>
      </trkpt>
      <trkpt lat="48.37772" lon="2.54222">
        <ele>64.065063476562</ele>
        <time>2011-11-20T09:15:15Z</time>
      </trkpt>
      <trkpt lat="48.37754" lon="2.54253">
        <ele>64.545654296875</ele>
        <time>2011-11-20T09:15:21Z</time>
      </trkpt>
      <trkpt lat="48.37742" lon="2.54278">
        <ele>65.0263671875</ele>
        <time>2011-11-20T09:15:26Z</time>
      </trkpt>
      <trkpt lat="48.37735" lon="2.54293">
        <ele>64.545654296875</ele>
        <time>2011-11-20T09:15:29Z</time>
      </trkpt>
      <trkpt lat="48.37724" lon="2.54327">
        <ele>65.507080078125</ele>
        <time>2011-11-20T09:15:35Z</time>
      </trkpt>
      <trkpt lat="48.37721" lon="2.54358">
        <ele>65.987670898438</ele>
        <time>2011-11-20T09:15:41Z</time>
      </trkpt>
      <trkpt lat="48.37718" lon="2.54382">
        <ele>66.948974609375</ele>
        <time>2011-11-20T09:15:47Z</time>
      </trkpt>
      <trkpt lat="48.37715" lon="2.54396">
        <ele>66.948974609375</ele>
        <time>2011-11-20T09:15:52Z</time>
      </trkpt>
      <trkpt lat="48.3771" lon="2.54408">
        <ele>67.910278320312</ele>
        <time>2011-11-20T09:15:57Z</time>
      </trkpt>
      <trkpt lat="48.37703" lon="2.54425">
        <ele>68.87158203125</ele>
        <time>2011-11-20T09:16:03Z</time>
      </trkpt>
      <trkpt lat="48.37698" lon="2.54436">
        <ele>70.3134765625</ele>
        <time>2011-11-20T09:16:07Z</time>
      </trkpt>
      <trkpt lat="48.37691" lon="2.54454">
        <ele>70.794189453125</ele>
        <time>2011-11-20T09:16:13Z</time>
      </trkpt>
      <trkpt lat="48.37687" lon="2.54473">
        <ele>72.236206054688</ele>
        <time>2011-11-20T09:16:19Z</time>
      </trkpt>
      <trkpt lat="48.37685" lon="2.54488">
        <ele>72.236206054688</ele>
        <time>2011-11-20T09:16:24Z</time>
      </trkpt>
      <trkpt lat="48.37684" lon="2.54491">
        <ele>72.236206054688</ele>
        <time>2011-11-20T09:16:25Z</time>
      </trkpt>
      <trkpt lat="48.37683" lon="2.54511">
        <ele>73.197631835938</ele>
        <time>2011-11-20T09:16:31Z</time>
      </trkpt>
      <trkpt lat="48.3768" lon="2.54533">
        <ele>75.600830078125</ele>
        <time>2011-11-20T09:16:38Z</time>
      </trkpt>
      <trkpt lat="48.37679" lon="2.54546">
        <ele>76.562133789062</ele>
        <time>2011-11-20T09:16:43Z</time>
      </trkpt>
      <trkpt lat="48.37681" lon="2.54565">
        <ele>78.484741210938</ele>
        <time>2011-11-20T09:16:49Z</time>
      </trkpt>
      <trkpt lat="48.37682" lon="2.54579">
        <ele>78.484741210938</ele>
        <time>2011-11-20T09:16:53Z</time>
      </trkpt>
      <trkpt lat="48.3768" lon="2.54592">
        <ele>78.965454101562</ele>
        <time>2011-11-20T09:16:58Z</time>
      </trkpt>
      <trkpt lat="48.37675" lon="2.54617">
        <ele>81.368774414062</ele>
        <time>2011-11-20T09:17:07Z</time>
      </trkpt>
      <trkpt lat="48.37672" lon="2.5463">
        <ele>82.330078125</ele>
        <time>2011-11-20T09:17:13Z</time>
      </trkpt>
      <trkpt lat="48.37669" lon="2.5464">
        <ele>83.291381835938</ele>
        <time>2011-11-20T09:17:18Z</time>
      </trkpt>
      <trkpt lat="48.37666" lon="2.54656">
        <ele>82.810791015625</ele>
        <time>2011-11-20T09:17:24Z</time>
      </trkpt>
      <trkpt lat="48.37662" lon="2.54663">
        <ele>83.291381835938</ele>
        <time>2011-11-20T09:17:27Z</time>
      </trkpt>
      <trkpt lat="48.37662" lon="2.54677">
        <ele>83.77197265625</ele>
        <time>2011-11-20T09:17:32Z</time>
      </trkpt>
      <trkpt lat="48.37664" lon="2.54685">
        <ele>84.252685546875</ele>
        <time>2011-11-20T09:17:35Z</time>
      </trkpt>
      <trkpt lat="48.37667" lon="2.54693">
        <ele>84.252685546875</ele>
        <time>2011-11-20T09:17:39Z</time>
      </trkpt>
      <trkpt lat="48.37681" lon="2.54709">
        <ele>85.694580078125</ele>
        <time>2011-11-20T09:17:46Z</time>
      </trkpt>
      <trkpt lat="48.37695" lon="2.54719">
        <ele>86.17529296875</ele>
        <time>2011-11-20T09:17:53Z</time>
      </trkpt>
      <trkpt lat="48.37703" lon="2.54729">
        <ele>88.098022460938</ele>
        <time>2011-11-20T09:18:01Z</time>
      </trkpt>
      <trkpt lat="48.37707" lon="2.5473">
        <ele>89.539916992188</ele>
        <time>2011-11-20T09:18:09Z</time>
      </trkpt>
      <trkpt lat="48.3771" lon="2.5473">
        <ele>90.020629882812</ele>
        <time>2011-11-20T09:18:16Z</time>
      </trkpt>
      <trkpt lat="48.3771" lon="2.54732">
        <ele>89.539916992188</ele>
        <time>2011-11-20T09:18:25Z</time>
      </trkpt>
      <trkpt lat="48.37714" lon="2.54738">
        <ele>89.059326171875</ele>
        <time>2011-11-20T09:18:41Z</time>
      </trkpt>
      <trkpt lat="48.37712" lon="2.54735">
        <ele>90.501342773438</ele>
        <time>2011-11-20T09:18:53Z</time>
      </trkpt>
      <trkpt lat="48.37712" lon="2.54732">
        <ele>90.020629882812</ele>
        <time>2011-11-20T09:19:07Z</time>
      </trkpt>
      <trkpt lat="48.37712" lon="2.5473">
        <ele>90.020629882812</ele>
        <time>2011-11-20T09:19:13Z</time>
      </trkpt>
      <trkpt lat="48.37708" lon="2.54733">
        <ele>89.059326171875</ele>
        <time>2011-11-20T09:20:29Z</time>
      </trkpt>
      <trkpt lat="48.37709" lon="2.54731">
        <ele>89.539916992188</ele>
        <time>2011-11-20T09:20:37Z</time>
      </trkpt>
      <trkpt lat="48.37714" lon="2.54732">
        <ele>90.98193359375</ele>
        <time>2011-11-20T09:20:46Z</time>
      </trkpt>
      <trkpt lat="48.37721" lon="2.54733">
        <ele>91.943237304688</ele>
        <time>2011-11-20T09:20:52Z</time>
      </trkpt>
      <trkpt lat="48.37728" lon="2.54732">
        <ele>92.904541015625</ele>
        <time>2011-11-20T09:20:57Z</time>
      </trkpt>
      <trkpt lat="48.37739" lon="2.54729">
        <ele>94.8271484375</ele>
        <time>2011-11-20T09:21:04Z</time>
      </trkpt>
      <trkpt lat="48.3775" lon="2.54725">
        <ele>95.307739257812</ele>
        <time>2011-11-20T09:21:10Z</time>
      </trkpt>
      <trkpt lat="48.37761" lon="2.54726">
        <ele>96.269287109375</ele>
        <time>2011-11-20T09:21:17Z</time>
      </trkpt>
      <trkpt lat="48.37771" lon="2.54728">
        <ele>96.269287109375</ele>
        <time>2011-11-20T09:21:23Z</time>
      </trkpt>
      <trkpt lat="48.37779" lon="2.5473">
        <ele>96.269287109375</ele>
        <time>2011-11-20T09:21:28Z</time>
      </trkpt>
      <trkpt lat="48.37787" lon="2.54731">
        <ele>97.23046875</ele>
        <time>2011-11-20T09:21:34Z</time>
      </trkpt>
      <trkpt lat="48.37794" lon="2.54733">
        <ele>97.23046875</ele>
        <time>2011-11-20T09:21:41Z</time>
      </trkpt>
      <trkpt lat="48.37799" lon="2.54732">
        <ele>97.711181640625</ele>
        <time>2011-11-20T09:21:48Z</time>
      </trkpt>
      <trkpt lat="48.37805" lon="2.54732">
        <ele>97.23046875</ele>
        <time>2011-11-20T09:21:53Z</time>
      </trkpt>
      <trkpt lat="48.37809" lon="2.54732">
        <ele>97.711181640625</ele>
        <time>2011-11-20T09:21:59Z</time>
      </trkpt>
      <trkpt lat="48.37817" lon="2.54734">
        <ele>96.749877929688</ele>
        <time>2011-11-20T09:22:06Z</time>
      </trkpt>
      <trkpt lat="48.37825" lon="2.54737">
        <ele>97.23046875</ele>
        <time>2011-11-20T09:22:12Z</time>
      </trkpt>
      <trkpt lat="48.37835" lon="2.5474">
        <ele>97.23046875</ele>
        <time>2011-11-20T09:22:19Z</time>
      </trkpt>
      <trkpt lat="48.37839" lon="2.54741">
        <ele>97.711181640625</ele>
        <time>2011-11-20T09:22:26Z</time>
      </trkpt>
      <trkpt lat="48.37836" lon="2.54742">
        <ele>97.711181640625</ele>
        <time>2011-11-20T09:22:34Z</time>
      </trkpt>
      <trkpt lat="48.37839" lon="2.54742">
        <ele>97.23046875</ele>
        <time>2011-11-20T09:22:42Z</time>
      </trkpt>
      <trkpt lat="48.37838" lon="2.54741">
        <ele>97.711181640625</ele>
        <time>2011-11-20T09:22:53Z</time>
      </trkpt>
      <trkpt lat="48.37836" lon="2.54742">
        <ele>98.19189453125</ele>
        <time>2011-11-20T09:23:00Z</time>
      </trkpt>
      <trkpt lat="48.37838" lon="2.54741">
        <ele>98.672485351562</ele>
        <time>2011-11-20T09:23:10Z</time>
      </trkpt>
      <trkpt lat="48.37846" lon="2.54741">
        <ele>98.19189453125</ele>
        <time>2011-11-20T09:23:24Z</time>
      </trkpt>
      <trkpt lat="48.37858" lon="2.54746">
        <ele>97.711181640625</ele>
        <time>2011-11-20T09:23:30Z</time>
      </trkpt>
      <trkpt lat="48.37865" lon="2.54749">
        <ele>98.672485351562</ele>
        <time>2011-11-20T09:23:35Z</time>
      </trkpt>
      <trkpt lat="48.37872" lon="2.54749">
        <ele>98.672485351562</ele>
        <time>2011-11-20T09:23:45Z</time>
      </trkpt>
      <trkpt lat="48.37874" lon="2.54753">
        <ele>99.6337890625</ele>
        <time>2011-11-20T09:23:53Z</time>
      </trkpt>
      <trkpt lat="48.37879" lon="2.54752">
        <ele>100.59509277344</ele>
        <time>2011-11-20T09:24:00Z</time>
      </trkpt>
      <trkpt lat="48.37883" lon="2.5475">
        <ele>100.11450195312</ele>
        <time>2011-11-20T09:24:07Z</time>
      </trkpt>
      <trkpt lat="48.37887" lon="2.54745">
        <ele>100.11450195312</ele>
        <time>2011-11-20T09:24:15Z</time>
      </trkpt>
      <trkpt lat="48.37888" lon="2.54743">
        <ele>100.59509277344</ele>
        <time>2011-11-20T09:24:22Z</time>
      </trkpt>
      <trkpt lat="48.37889" lon="2.54744">
        <ele>101.07568359375</ele>
        <time>2011-11-20T09:24:36Z</time>
      </trkpt>
      <trkpt lat="48.37889" lon="2.54741">
        <ele>100.59509277344</ele>
        <time>2011-11-20T09:24:41Z</time>
      </trkpt>
      <trkpt lat="48.37899" lon="2.54733">
        <ele>102.037109375</ele>
        <time>2011-11-20T09:24:50Z</time>
      </trkpt>
      <trkpt lat="48.37902" lon="2.54729">
        <ele>102.99829101562</ele>
        <time>2011-11-20T09:24:56Z</time>
      </trkpt>
      <trkpt lat="48.37903" lon="2.5473">
        <ele>102.99829101562</ele>
        <time>2011-11-20T09:25:03Z</time>
      </trkpt>
      <trkpt lat="48.3791" lon="2.54732">
        <ele>103.95971679688</ele>
        <time>2011-11-20T09:25:16Z</time>
      </trkpt>
      <trkpt lat="48.37916" lon="2.54727">
        <ele>103.95971679688</ele>
        <time>2011-11-20T09:25:21Z</time>
      </trkpt>
      <trkpt lat="48.37925" lon="2.54727">
        <ele>105.88244628906</ele>
        <time>2011-11-20T09:25:27Z</time>
      </trkpt>
      <trkpt lat="48.37929" lon="2.54727">
        <ele>106.36303710938</ele>
        <time>2011-11-20T09:25:31Z</time>
      </trkpt>
      <trkpt lat="48.3793" lon="2.54727">
        <ele>106.84362792969</ele>
        <time>2011-11-20T09:25:34Z</time>
      </trkpt>
      <trkpt lat="48.37942" lon="2.54727">
        <ele>107.80505371094</ele>
        <time>2011-11-20T09:25:41Z</time>
      </trkpt>
      <trkpt lat="48.37952" lon="2.5473">
        <ele>104.92102050781</ele>
        <time>2011-11-20T09:25:46Z</time>
      </trkpt>
      <trkpt lat="48.37954" lon="2.54732">
        <ele>103.95971679688</ele>
        <time>2011-11-20T09:25:47Z</time>
      </trkpt>
      <trkpt lat="48.3796" lon="2.54745">
        <ele>102.037109375</ele>
        <time>2011-11-20T09:25:51Z</time>
      </trkpt>
      <trkpt lat="48.37968" lon="2.54759">
        <ele>101.07568359375</ele>
        <time>2011-11-20T09:25:55Z</time>
      </trkpt>
      <trkpt lat="48.37978" lon="2.54762">
        <ele>101.07568359375</ele>
        <time>2011-11-20T09:25:58Z</time>
      </trkpt>
      <trkpt lat="48.37992" lon="2.54769">
        <ele>99.6337890625</ele>
        <time>2011-11-20T09:26:01Z</time>
      </trkpt>
      <trkpt lat="48.38004" lon="2.54778">
        <ele>97.711181640625</ele>
        <time>2011-11-20T09:26:05Z</time>
      </trkpt>
      <trkpt lat="48.38007" lon="2.5478">
        <ele>97.23046875</ele>
        <time>2011-11-20T09:26:06Z</time>
      </trkpt>
      <trkpt lat="48.3802" lon="2.54785">
        <ele>96.749877929688</ele>
        <time>2011-11-20T09:26:11Z</time>
      </trkpt>
      <trkpt lat="48.38029" lon="2.5479">
        <ele>97.23046875</ele>
        <time>2011-11-20T09:26:14Z</time>
      </trkpt>
      <trkpt lat="48.3804" lon="2.5481">
        <ele>98.19189453125</ele>
        <time>2011-11-20T09:26:20Z</time>
      </trkpt>
      <trkpt lat="48.38043" lon="2.54824">
        <ele>99.153076171875</ele>
        <time>2011-11-20T09:26:24Z</time>
      </trkpt>
      <trkpt lat="48.38045" lon="2.54842">
        <ele>99.153076171875</ele>
        <time>2011-11-20T09:26:28Z</time>
      </trkpt>
      <trkpt lat="48.3805" lon="2.54863">
        <ele>98.19189453125</ele>
        <time>2011-11-20T09:26:32Z</time>
      </trkpt>
      <trkpt lat="48.38062" lon="2.5491">
        <ele>96.269287109375</ele>
        <time>2011-11-20T09:26:38Z</time>
      </trkpt>
      <trkpt lat="48.38068" lon="2.54946">
        <ele>94.8271484375</ele>
        <time>2011-11-20T09:26:42Z</time>
      </trkpt>
      <trkpt lat="48.38082" lon="2.54965">
        <ele>94.8271484375</ele>
        <time>2011-11-20T09:26:46Z</time>
      </trkpt>
      <trkpt lat="48.38094" lon="2.5496">
        <ele>94.346557617188</ele>
        <time>2011-11-20T09:26:49Z</time>
      </trkpt>
      <trkpt lat="48.38104" lon="2.54939">
        <ele>94.8271484375</ele>
        <time>2011-11-20T09:26:53Z</time>
      </trkpt>
      <trkpt lat="48.38109" lon="2.54925">
        <ele>96.269287109375</ele>
        <time>2011-11-20T09:26:56Z</time>
      </trkpt>
      <trkpt lat="48.38115" lon="2.54902">
        <ele>97.711181640625</ele>
        <time>2011-11-20T09:27:02Z</time>
      </trkpt>
      <trkpt lat="48.3812" lon="2.54877">
        <ele>98.19189453125</ele>
        <time>2011-11-20T09:27:08Z</time>
      </trkpt>
      <trkpt lat="48.38125" lon="2.54862">
        <ele>98.19189453125</ele>
        <time>2011-11-20T09:27:13Z</time>
      </trkpt>
      <trkpt lat="48.38131" lon="2.54838">
        <ele>98.672485351562</ele>
        <time>2011-11-20T09:27:19Z</time>
      </trkpt>
      <trkpt lat="48.38141" lon="2.54805">
        <ele>99.6337890625</ele>
        <time>2011-11-20T09:27:26Z</time>
      </trkpt>
      <trkpt lat="48.38152" lon="2.54776">
        <ele>99.153076171875</ele>
        <time>2011-11-20T09:27:32Z</time>
      </trkpt>
      <trkpt lat="48.38158" lon="2.54767">
        <ele>99.153076171875</ele>
        <time>2011-11-20T09:27:34Z</time>
      </trkpt>
      <trkpt lat="48.38163" lon="2.54757">
        <ele>98.672485351562</ele>
        <time>2011-11-20T09:27:36Z</time>
      </trkpt>
      <trkpt lat="48.38185" lon="2.5473">
        <ele>99.153076171875</ele>
        <time>2011-11-20T09:27:43Z</time>
      </trkpt>
      <trkpt lat="48.38197" lon="2.54715">
        <ele>98.672485351562</ele>
        <time>2011-11-20T09:27:48Z</time>
      </trkpt>
      <trkpt lat="48.38205" lon="2.54704">
        <ele>99.6337890625</ele>
        <time>2011-11-20T09:27:52Z</time>
      </trkpt>
      <trkpt lat="48.38214" lon="2.54695">
        <ele>100.11450195312</ele>
        <time>2011-11-20T09:27:57Z</time>
      </trkpt>
      <trkpt lat="48.38226" lon="2.54686">
        <ele>101.55639648438</ele>
        <time>2011-11-20T09:28:04Z</time>
      </trkpt>
      <trkpt lat="48.38226" lon="2.54695">
        <ele>102.037109375</ele>
        <time>2011-11-20T09:28:09Z</time>
      </trkpt>
      <trkpt lat="48.38223" lon="2.54703">
        <ele>101.07568359375</ele>
        <time>2011-11-20T09:28:14Z</time>
      </trkpt>
      <trkpt lat="48.38223" lon="2.54719">
        <ele>100.59509277344</ele>
        <time>2011-11-20T09:28:19Z</time>
      </trkpt>
      <trkpt lat="48.38224" lon="2.54725">
        <ele>102.037109375</ele>
        <time>2011-11-20T09:28:22Z</time>
      </trkpt>
      <trkpt lat="48.38224" lon="2.54733">
        <ele>104.4404296875</ele>
        <time>2011-11-20T09:28:25Z</time>
      </trkpt>
      <trkpt lat="48.38226" lon="2.54737">
        <ele>104.92102050781</ele>
        <time>2011-11-20T09:28:27Z</time>
      </trkpt>
      <trkpt lat="48.38239" lon="2.54756">
        <ele>104.92102050781</ele>
        <time>2011-11-20T09:28:34Z</time>
      </trkpt>
      <trkpt lat="48.38247" lon="2.54771">
        <ele>104.92102050781</ele>
        <time>2011-11-20T09:28:39Z</time>
      </trkpt>
      <trkpt lat="48.38253" lon="2.54781">
        <ele>105.40173339844</ele>
        <time>2011-11-20T09:28:43Z</time>
      </trkpt>
      <trkpt lat="48.38255" lon="2.54788">
        <ele>106.36303710938</ele>
        <time>2011-11-20T09:28:45Z</time>
      </trkpt>
      <trkpt lat="48.38253" lon="2.54799">
        <ele>107.32434082031</ele>
        <time>2011-11-20T09:28:49Z</time>
      </trkpt>
      <trkpt lat="48.38248" lon="2.54817">
        <ele>108.76623535156</ele>
        <time>2011-11-20T09:28:55Z</time>
      </trkpt>
      <trkpt lat="48.38248" lon="2.54826">
        <ele>108.76623535156</ele>
        <time>2011-11-20T09:28:58Z</time>
      </trkpt>
      <trkpt lat="48.38242" lon="2.54836">
        <ele>110.20825195312</ele>
        <time>2011-11-20T09:29:03Z</time>
      </trkpt>
      <trkpt lat="48.38247" lon="2.54851">
        <ele>110.20825195312</ele>
        <time>2011-11-20T09:29:11Z</time>
      </trkpt>
      <trkpt lat="48.38249" lon="2.54859">
        <ele>110.20825195312</ele>
        <time>2011-11-20T09:29:16Z</time>
      </trkpt>
      <trkpt lat="48.38252" lon="2.54869">
        <ele>111.16955566406</ele>
        <time>2011-11-20T09:29:42Z</time>
      </trkpt>
      <trkpt lat="48.3825" lon="2.54876">
        <ele>111.16955566406</ele>
        <time>2011-11-20T09:29:48Z</time>
      </trkpt>
      <trkpt lat="48.38248" lon="2.54887">
        <ele>111.16955566406</ele>
        <time>2011-11-20T09:29:56Z</time>
      </trkpt>
      <trkpt lat="48.38252" lon="2.54898">
        <ele>111.16955566406</ele>
        <time>2011-11-20T09:30:03Z</time>
      </trkpt>
      <trkpt lat="48.38248" lon="2.54904">
        <ele>110.68884277344</ele>
        <time>2011-11-20T09:30:10Z</time>
      </trkpt>
      <trkpt lat="48.38247" lon="2.549">
        <ele>110.68884277344</ele>
        <time>2011-11-20T09:30:16Z</time>
      </trkpt>
      <trkpt lat="48.38246" lon="2.549">
        <ele>110.68884277344</ele>
        <time>2011-11-20T09:30:23Z</time>
      </trkpt>
      <trkpt lat="48.38245" lon="2.54902">
        <ele>111.16955566406</ele>
        <time>2011-11-20T09:30:39Z</time>
      </trkpt>
      <trkpt lat="48.38245" lon="2.54905">
        <ele>110.20825195312</ele>
        <time>2011-11-20T09:30:46Z</time>
      </trkpt>
      <trkpt lat="48.38244" lon="2.54914">
        <ele>109.24694824219</ele>
        <time>2011-11-20T09:30:53Z</time>
      </trkpt>
      <trkpt lat="48.38244" lon="2.54916">
        <ele>109.72766113281</ele>
        <time>2011-11-20T09:30:56Z</time>
      </trkpt>
      <trkpt lat="48.38245" lon="2.54921">
        <ele>107.80505371094</ele>
        <time>2011-11-20T09:30:59Z</time>
      </trkpt>
      <trkpt lat="48.38245" lon="2.54925">
        <ele>107.80505371094</ele>
        <time>2011-11-20T09:31:06Z</time>
      </trkpt>
      <trkpt lat="48.38244" lon="2.54924">
        <ele>107.80505371094</ele>
        <time>2011-11-20T09:31:11Z</time>
      </trkpt>
      <trkpt lat="48.38242" lon="2.54925">
        <ele>108.28564453125</ele>
        <time>2011-11-20T09:31:16Z</time>
      </trkpt>
      <trkpt lat="48.38243" lon="2.54936">
        <ele>105.40173339844</ele>
        <time>2011-11-20T09:31:20Z</time>
      </trkpt>
      <trkpt lat="48.38248" lon="2.54953">
        <ele>100.59509277344</ele>
        <time>2011-11-20T09:31:24Z</time>
      </trkpt>
      <trkpt lat="48.38255" lon="2.54967">
        <ele>97.23046875</ele>
        <time>2011-11-20T09:31:27Z</time>
      </trkpt>
      <trkpt lat="48.3826" lon="2.54986">
        <ele>96.269287109375</ele>
        <time>2011-11-20T09:31:30Z</time>
      </trkpt>
      <trkpt lat="48.3826" lon="2.55031">
        <ele>95.788452148438</ele>
        <time>2011-11-20T09:31:36Z</time>
      </trkpt>
      <trkpt lat="48.38266" lon="2.55042">
        <ele>95.788452148438</ele>
        <time>2011-11-20T09:31:40Z</time>
      </trkpt>
      <trkpt lat="48.38271" lon="2.55039">
        <ele>95.307739257812</ele>
        <time>2011-11-20T09:31:42Z</time>
      </trkpt>
      <trkpt lat="48.38284" lon="2.55029">
        <ele>97.711181640625</ele>
        <time>2011-11-20T09:31:48Z</time>
      </trkpt>
      <trkpt lat="48.38293" lon="2.55028">
        <ele>99.153076171875</ele>
        <time>2011-11-20T09:31:53Z</time>
      </trkpt>
      <trkpt lat="48.38302" lon="2.55025">
        <ele>100.59509277344</ele>
        <time>2011-11-20T09:31:59Z</time>
      </trkpt>
      <trkpt lat="48.38303" lon="2.55025">
        <ele>100.11450195312</ele>
        <time>2011-11-20T09:32:00Z</time>
      </trkpt>
      <trkpt lat="48.38314" lon="2.55025">
        <ele>104.4404296875</ele>
        <time>2011-11-20T09:32:07Z</time>
      </trkpt>
      <trkpt lat="48.38316" lon="2.55025">
        <ele>104.4404296875</ele>
        <time>2011-11-20T09:32:08Z</time>
      </trkpt>
      <trkpt lat="48.38325" lon="2.5503">
        <ele>105.40173339844</ele>
        <time>2011-11-20T09:32:14Z</time>
      </trkpt>
      <trkpt lat="48.38335" lon="2.55037">
        <ele>107.80505371094</ele>
        <time>2011-11-20T09:32:22Z</time>
      </trkpt>
      <trkpt lat="48.3834" lon="2.55046">
        <ele>109.72766113281</ele>
        <time>2011-11-20T09:32:29Z</time>
      </trkpt>
      <trkpt lat="48.38341" lon="2.55059">
        <ele>112.13098144531</ele>
        <time>2011-11-20T09:32:33Z</time>
      </trkpt>
      <trkpt lat="48.38346" lon="2.55069">
        <ele>112.61157226562</ele>
        <time>2011-11-20T09:32:39Z</time>
      </trkpt>
      <trkpt lat="48.38357" lon="2.55075">
        <ele>112.61157226562</ele>
        <time>2011-11-20T09:32:46Z</time>
      </trkpt>
      <trkpt lat="48.38359" lon="2.55075">
        <ele>112.61157226562</ele>
        <time>2011-11-20T09:32:51Z</time>
      </trkpt>
      <trkpt lat="48.38362" lon="2.55074">
        <ele>113.09228515625</ele>
        <time>2011-11-20T09:33:00Z</time>
      </trkpt>
      <trkpt lat="48.38372" lon="2.55074">
        <ele>112.61157226562</ele>
        <time>2011-11-20T09:33:06Z</time>
      </trkpt>
      <trkpt lat="48.38385" lon="2.55081">
        <ele>113.57299804688</ele>
        <time>2011-11-20T09:33:12Z</time>
      </trkpt>
      <trkpt lat="48.38397" lon="2.5509">
        <ele>112.13098144531</ele>
        <time>2011-11-20T09:33:17Z</time>
      </trkpt>
      <trkpt lat="48.38415" lon="2.55101">
        <ele>111.16955566406</ele>
        <time>2011-11-20T09:33:21Z</time>
      </trkpt>
      <trkpt lat="48.38438" lon="2.55117">
        <ele>110.20825195312</ele>
        <time>2011-11-20T09:33:25Z</time>
      </trkpt>
      <trkpt lat="48.3847" lon="2.55138">
        <ele>108.76623535156</ele>
        <time>2011-11-20T09:33:30Z</time>
      </trkpt>
      <trkpt lat="48.38484" lon="2.55145">
        <ele>107.80505371094</ele>
        <time>2011-11-20T09:33:32Z</time>
      </trkpt>
      <trkpt lat="48.38504" lon="2.55157">
        <ele>105.40173339844</ele>
        <time>2011-11-20T09:33:35Z</time>
      </trkpt>
      <trkpt lat="48.38517" lon="2.55181">
        <ele>105.88244628906</ele>
        <time>2011-11-20T09:33:39Z</time>
      </trkpt>
      <trkpt lat="48.38519" lon="2.55226">
        <ele>107.32434082031</ele>
        <time>2011-11-20T09:33:45Z</time>
      </trkpt>
      <trkpt lat="48.38519" lon="2.55241">
        <ele>106.84362792969</ele>
        <time>2011-11-20T09:33:47Z</time>
      </trkpt>
      <trkpt lat="48.38515" lon="2.55313">
        <ele>103.95971679688</ele>
        <time>2011-11-20T09:33:54Z</time>
      </trkpt>
      <trkpt lat="48.38508" lon="2.55368">
        <ele>102.51770019531</ele>
        <time>2011-11-20T09:33:59Z</time>
      </trkpt>
      <trkpt lat="48.38507" lon="2.55379">
        <ele>102.51770019531</ele>
        <time>2011-11-20T09:34:00Z</time>
      </trkpt>
      <trkpt lat="48.38505" lon="2.55422">
        <ele>100.59509277344</ele>
        <time>2011-11-20T09:34:03Z</time>
      </trkpt>
      <trkpt lat="48.38498" lon="2.55494">
        <ele>100.11450195312</ele>
        <time>2011-11-20T09:34:09Z</time>
      </trkpt>
      <trkpt lat="48.38482" lon="2.55552">
        <ele>99.153076171875</ele>
        <time>2011-11-20T09:34:14Z</time>
      </trkpt>
      <trkpt lat="48.38475" lon="2.55573">
        <ele>98.672485351562</ele>
        <time>2011-11-20T09:34:16Z</time>
      </trkpt>
      <trkpt lat="48.38457" lon="2.55645">
        <ele>95.788452148438</ele>
        <time>2011-11-20T09:34:23Z</time>
      </trkpt>
      <trkpt lat="48.38455" lon="2.55655">
        <ele>95.307739257812</ele>
        <time>2011-11-20T09:34:24Z</time>
      </trkpt>
      <trkpt lat="48.38445" lon="2.55704">
        <ele>94.8271484375</ele>
        <time>2011-11-20T09:34:29Z</time>
      </trkpt>
      <trkpt lat="48.3844" lon="2.55728">
        <ele>94.8271484375</ele>
        <time>2011-11-20T09:34:32Z</time>
      </trkpt>
      <trkpt lat="48.38426" lon="2.55752">
        <ele>95.307739257812</ele>
        <time>2011-11-20T09:34:36Z</time>
      </trkpt>
      <trkpt lat="48.38415" lon="2.55767">
        <ele>95.307739257812</ele>
        <time>2011-11-20T09:34:39Z</time>
      </trkpt>
      <trkpt lat="48.38409" lon="2.55799">
        <ele>95.788452148438</ele>
        <time>2011-11-20T09:34:44Z</time>
      </trkpt>
      <trkpt lat="48.38409" lon="2.55812">
        <ele>96.269287109375</ele>
        <time>2011-11-20T09:34:47Z</time>
      </trkpt>
      <trkpt lat="48.38425" lon="2.55852">
        <ele>95.788452148438</ele>
        <time>2011-11-20T09:34:51Z</time>
      </trkpt>
      <trkpt lat="48.3842" lon="2.55884">
        <ele>96.269287109375</ele>
        <time>2011-11-20T09:34:57Z</time>
      </trkpt>
      <trkpt lat="48.38416" lon="2.55895">
        <ele>95.788452148438</ele>
        <time>2011-11-20T09:34:59Z</time>
      </trkpt>
      <trkpt lat="48.38407" lon="2.55938">
        <ele>97.23046875</ele>
        <time>2011-11-20T09:35:06Z</time>
      </trkpt>
      <trkpt lat="48.38403" lon="2.55975">
        <ele>98.19189453125</ele>
        <time>2011-11-20T09:35:12Z</time>
      </trkpt>
      <trkpt lat="48.384" lon="2.55998">
        <ele>99.153076171875</ele>
        <time>2011-11-20T09:35:16Z</time>
      </trkpt>
      <trkpt lat="48.38396" lon="2.56026">
        <ele>100.59509277344</ele>
        <time>2011-11-20T09:35:21Z</time>
      </trkpt>
      <trkpt lat="48.38389" lon="2.56057">
        <ele>102.037109375</ele>
        <time>2011-11-20T09:35:27Z</time>
      </trkpt>
      <trkpt lat="48.38385" lon="2.56086">
        <ele>102.99829101562</ele>
        <time>2011-11-20T09:35:33Z</time>
      </trkpt>
      <trkpt lat="48.3838" lon="2.56107">
        <ele>102.99829101562</ele>
        <time>2011-11-20T09:35:38Z</time>
      </trkpt>
      <trkpt lat="48.38368" lon="2.56126">
        <ele>103.47900390625</ele>
        <time>2011-11-20T09:35:43Z</time>
      </trkpt>
      <trkpt lat="48.38359" lon="2.56142">
        <ele>104.4404296875</ele>
        <time>2011-11-20T09:35:47Z</time>
      </trkpt>
      <trkpt lat="48.38348" lon="2.56154">
        <ele>103.95971679688</ele>
        <time>2011-11-20T09:35:51Z</time>
      </trkpt>
      <trkpt lat="48.38334" lon="2.56163">
        <ele>104.92102050781</ele>
        <time>2011-11-20T09:35:56Z</time>
      </trkpt>
      <trkpt lat="48.38316" lon="2.5617">
        <ele>106.36303710938</ele>
        <time>2011-11-20T09:36:02Z</time>
      </trkpt>
      <trkpt lat="48.38308" lon="2.56182">
        <ele>107.32434082031</ele>
        <time>2011-11-20T09:36:06Z</time>
      </trkpt>
      <trkpt lat="48.38301" lon="2.56202">
        <ele>108.28564453125</ele>
        <time>2011-11-20T09:36:11Z</time>
      </trkpt>
      <trkpt lat="48.38291" lon="2.56232">
        <ele>108.76623535156</ele>
        <time>2011-11-20T09:36:18Z</time>
      </trkpt>
      <trkpt lat="48.38282" lon="2.56249">
        <ele>109.72766113281</ele>
        <time>2011-11-20T09:36:23Z</time>
      </trkpt>
      <trkpt lat="48.3826" lon="2.56264">
        <ele>110.20825195312</ele>
        <time>2011-11-20T09:36:30Z</time>
      </trkpt>
      <trkpt lat="48.38243" lon="2.56274">
        <ele>111.65026855469</ele>
        <time>2011-11-20T09:36:36Z</time>
      </trkpt>
      <trkpt lat="48.38232" lon="2.56285">
        <ele>113.09228515625</ele>
        <time>2011-11-20T09:36:41Z</time>
      </trkpt>
      <trkpt lat="48.38222" lon="2.56302">
        <ele>113.57299804688</ele>
        <time>2011-11-20T09:36:47Z</time>
      </trkpt>
      <trkpt lat="48.38212" lon="2.56328">
        <ele>113.57299804688</ele>
        <time>2011-11-20T09:36:53Z</time>
      </trkpt>
      <trkpt lat="48.382" lon="2.56356">
        <ele>114.05358886719</ele>
        <time>2011-11-20T09:36:59Z</time>
      </trkpt>
      <trkpt lat="48.3819" lon="2.5639">
        <ele>115.01489257812</ele>
        <time>2011-11-20T09:37:06Z</time>
      </trkpt>
      <trkpt lat="48.38182" lon="2.56419">
        <ele>114.5341796875</ele>
        <time>2011-11-20T09:37:11Z</time>
      </trkpt>
      <trkpt lat="48.38168" lon="2.56439">
        <ele>114.5341796875</ele>
        <time>2011-11-20T09:37:15Z</time>
      </trkpt>
      <trkpt lat="48.38158" lon="2.56462">
        <ele>113.09228515625</ele>
        <time>2011-11-20T09:37:19Z</time>
      </trkpt>
      <trkpt lat="48.38151" lon="2.56489">
        <ele>112.61157226562</ele>
        <time>2011-11-20T09:37:24Z</time>
      </trkpt>
      <trkpt lat="48.3815" lon="2.56496">
        <ele>112.61157226562</ele>
        <time>2011-11-20T09:37:27Z</time>
      </trkpt>
      <trkpt lat="48.3815" lon="2.56496">
        <ele>112.61157226562</ele>
        <time>2011-11-20T09:37:31Z</time>
      </trkpt>
      <trkpt lat="48.38148" lon="2.56499">
        <ele>110.68884277344</ele>
        <time>2011-11-20T09:46:38Z</time>
      </trkpt>
      <trkpt lat="48.38148" lon="2.565">
        <ele>110.68884277344</ele>
        <time>2011-11-20T09:46:39Z</time>
      </trkpt>
      <trkpt lat="48.38148" lon="2.56501">
        <ele>110.68884277344</ele>
        <time>2011-11-20T09:46:40Z</time>
      </trkpt>
      <trkpt lat="48.38148" lon="2.56503">
        <ele>111.16955566406</ele>
        <time>2011-11-20T09:46:41Z</time>
      </trkpt>
      <trkpt lat="48.38149" lon="2.56507">
        <ele>110.20825195312</ele>
        <time>2011-11-20T09:46:44Z</time>
      </trkpt>
      <trkpt lat="48.38148" lon="2.56512">
        <ele>110.20825195312</ele>
        <time>2011-11-20T09:46:48Z</time>
      </trkpt>
      <trkpt lat="48.38151" lon="2.56528">
        <ele>110.20825195312</ele>
        <time>2011-11-20T09:46:55Z</time>
      </trkpt>
      <trkpt lat="48.3815" lon="2.56542">
        <ele>109.72766113281</ele>
        <time>2011-11-20T09:47:00Z</time>
      </trkpt>
      <trkpt lat="48.38149" lon="2.56555">
        <ele>109.24694824219</ele>
        <time>2011-11-20T09:47:05Z</time>
      </trkpt>
      <trkpt lat="48.38149" lon="2.56559">
        <ele>109.24694824219</ele>
        <time>2011-11-20T09:47:07Z</time>
      </trkpt>
      <trkpt lat="48.38139" lon="2.56564">
        <ele>109.72766113281</ele>
        <time>2011-11-20T09:47:11Z</time>
      </trkpt>
      <trkpt lat="48.3812" lon="2.56567">
        <ele>108.76623535156</ele>
        <time>2011-11-20T09:47:15Z</time>
      </trkpt>
      <trkpt lat="48.3808" lon="2.56577">
        <ele>107.32434082031</ele>
        <time>2011-11-20T09:47:22Z</time>
      </trkpt>
      <trkpt lat="48.38074" lon="2.56578">
        <ele>107.32434082031</ele>
        <time>2011-11-20T09:47:23Z</time>
      </trkpt>
      <trkpt lat="48.38046" lon="2.56568">
        <ele>107.32434082031</ele>
        <time>2011-11-20T09:47:28Z</time>
      </trkpt>
      <trkpt lat="48.38036" lon="2.56546">
        <ele>108.76623535156</ele>
        <time>2011-11-20T09:47:32Z</time>
      </trkpt>
      <trkpt lat="48.38036" lon="2.56532">
        <ele>108.76623535156</ele>
        <time>2011-11-20T09:47:34Z</time>
      </trkpt>
      <trkpt lat="48.38041" lon="2.56477">
        <ele>111.65026855469</ele>
        <time>2011-11-20T09:47:42Z</time>
      </trkpt>
      <trkpt lat="48.38039" lon="2.56453">
        <ele>113.57299804688</ele>
        <time>2011-11-20T09:47:46Z</time>
      </trkpt>
      <trkpt lat="48.38029" lon="2.56429">
        <ele>114.5341796875</ele>
        <time>2011-11-20T09:47:50Z</time>
      </trkpt>
      <trkpt lat="48.38004" lon="2.56413">
        <ele>115.01489257812</ele>
        <time>2011-11-20T09:47:56Z</time>
      </trkpt>
      <trkpt lat="48.3797" lon="2.56396">
        <ele>115.01489257812</ele>
        <time>2011-11-20T09:48:04Z</time>
      </trkpt>
      <trkpt lat="48.37934" lon="2.56382">
        <ele>114.5341796875</ele>
        <time>2011-11-20T09:48:11Z</time>
      </trkpt>
      <trkpt lat="48.37923" lon="2.5638">
        <ele>114.05358886719</ele>
        <time>2011-11-20T09:48:13Z</time>
      </trkpt>
      <trkpt lat="48.37872" lon="2.56387">
        <ele>113.09228515625</ele>
        <time>2011-11-20T09:48:21Z</time>
      </trkpt>
      <trkpt lat="48.37832" lon="2.56387">
        <ele>112.13098144531</ele>
        <time>2011-11-20T09:48:27Z</time>
      </trkpt>
      <trkpt lat="48.37801" lon="2.56371">
        <ele>111.65026855469</ele>
        <time>2011-11-20T09:48:32Z</time>
      </trkpt>
      <trkpt lat="48.37757" lon="2.56334">
        <ele>111.16955566406</ele>
        <time>2011-11-20T09:48:40Z</time>
      </trkpt>
      <trkpt lat="48.37718" lon="2.56298">
        <ele>109.72766113281</ele>
        <time>2011-11-20T09:48:47Z</time>
      </trkpt>
      <trkpt lat="48.37688" lon="2.56257">
        <ele>108.76623535156</ele>
        <time>2011-11-20T09:48:53Z</time>
      </trkpt>
      <trkpt lat="48.37661" lon="2.56209">
        <ele>108.28564453125</ele>
        <time>2011-11-20T09:48:59Z</time>
      </trkpt>
      <trkpt lat="48.37656" lon="2.56201">
        <ele>109.24694824219</ele>
        <time>2011-11-20T09:49:00Z</time>
      </trkpt>
      <trkpt lat="48.37649" lon="2.5619">
        <ele>109.24694824219</ele>
        <time>2011-11-20T09:49:02Z</time>
      </trkpt>
      <trkpt lat="48.37638" lon="2.5618">
        <ele>110.20825195312</ele>
        <time>2011-11-20T09:49:06Z</time>
      </trkpt>
      <trkpt lat="48.37621" lon="2.56128">
        <ele>110.20825195312</ele>
        <time>2011-11-20T09:49:10Z</time>
      </trkpt>
      <trkpt lat="48.37594" lon="2.56092">
        <ele>111.65026855469</ele>
        <time>2011-11-20T09:49:16Z</time>
      </trkpt>
      <trkpt lat="48.37567" lon="2.56069">
        <ele>112.61157226562</ele>
        <time>2011-11-20T09:49:22Z</time>
      </trkpt>
      <trkpt lat="48.37532" lon="2.56057">
        <ele>112.61157226562</ele>
        <time>2011-11-20T09:49:29Z</time>
      </trkpt>
      <trkpt lat="48.37503" lon="2.56057">
        <ele>113.57299804688</ele>
        <time>2011-11-20T09:49:35Z</time>
      </trkpt>
      <trkpt lat="48.37469" lon="2.56066">
        <ele>114.5341796875</ele>
        <time>2011-11-20T09:49:42Z</time>
      </trkpt>
      <trkpt lat="48.37429" lon="2.56078">
        <ele>115.01489257812</ele>
        <time>2011-11-20T09:49:50Z</time>
      </trkpt>
      <trkpt lat="48.37396" lon="2.56086">
        <ele>115.49560546875</ele>
        <time>2011-11-20T09:49:56Z</time>
      </trkpt>
      <trkpt lat="48.37362" lon="2.5609">
        <ele>115.01489257812</ele>
        <time>2011-11-20T09:50:02Z</time>
      </trkpt>
      <trkpt lat="48.37326" lon="2.56085">
        <ele>115.49560546875</ele>
        <time>2011-11-20T09:50:08Z</time>
      </trkpt>
      <trkpt lat="48.37288" lon="2.56075">
        <ele>115.01489257812</ele>
        <time>2011-11-20T09:50:14Z</time>
      </trkpt>
      <trkpt lat="48.37244" lon="2.56064">
        <ele>115.01489257812</ele>
        <time>2011-11-20T09:50:21Z</time>
      </trkpt>
      <trkpt lat="48.37187" lon="2.56051">
        <ele>115.01489257812</ele>
        <time>2011-11-20T09:50:30Z</time>
      </trkpt>
      <trkpt lat="48.37152" lon="2.5605">
        <ele>116.45678710938</ele>
        <time>2011-11-20T09:50:36Z</time>
      </trkpt>
      <trkpt lat="48.37141" lon="2.56052">
        <ele>116.9375</ele>
        <time>2011-11-20T09:50:38Z</time>
      </trkpt>
      <trkpt lat="48.37131" lon="2.56057">
        <ele>116.9375</ele>
        <time>2011-11-20T09:50:40Z</time>
      </trkpt>
      <trkpt lat="48.37122" lon="2.56064">
        <ele>117.41821289062</ele>
        <time>2011-11-20T09:50:42Z</time>
      </trkpt>
      <trkpt lat="48.37095" lon="2.5609">
        <ele>117.89880371094</ele>
        <time>2011-11-20T09:50:48Z</time>
      </trkpt>
      <trkpt lat="48.3707" lon="2.56132">
        <ele>116.9375</ele>
        <time>2011-11-20T09:50:56Z</time>
      </trkpt>
      <trkpt lat="48.37056" lon="2.56158">
        <ele>117.41821289062</ele>
        <time>2011-11-20T09:51:02Z</time>
      </trkpt>
      <trkpt lat="48.37045" lon="2.56183">
        <ele>116.45678710938</ele>
        <time>2011-11-20T09:51:08Z</time>
      </trkpt>
      <trkpt lat="48.37034" lon="2.56204">
        <ele>116.9375</ele>
        <time>2011-11-20T09:51:13Z</time>
      </trkpt>
      <trkpt lat="48.37016" lon="2.56234">
        <ele>116.45678710938</ele>
        <time>2011-11-20T09:51:19Z</time>
      </trkpt>
      <trkpt lat="48.37001" lon="2.56251">
        <ele>115.97619628906</ele>
        <time>2011-11-20T09:51:23Z</time>
      </trkpt>
      <trkpt lat="48.3699" lon="2.56265">
        <ele>115.49560546875</ele>
        <time>2011-11-20T09:51:26Z</time>
      </trkpt>
      <trkpt lat="48.36976" lon="2.56277">
        <ele>115.49560546875</ele>
        <time>2011-11-20T09:51:30Z</time>
      </trkpt>
      <trkpt lat="48.36959" lon="2.56292">
        <ele>115.97619628906</ele>
        <time>2011-11-20T09:51:37Z</time>
      </trkpt>
      <trkpt lat="48.36943" lon="2.56301">
        <ele>115.97619628906</ele>
        <time>2011-11-20T09:51:41Z</time>
      </trkpt>
      <trkpt lat="48.36905" lon="2.56316">
        <ele>115.97619628906</ele>
        <time>2011-11-20T09:51:50Z</time>
      </trkpt>
      <trkpt lat="48.36872" lon="2.5633">
        <ele>115.49560546875</ele>
        <time>2011-11-20T09:51:58Z</time>
      </trkpt>
      <trkpt lat="48.36848" lon="2.56341">
        <ele>115.97619628906</ele>
        <time>2011-11-20T09:52:04Z</time>
      </trkpt>
      <trkpt lat="48.36822" lon="2.56351">
        <ele>116.9375</ele>
        <time>2011-11-20T09:52:11Z</time>
      </trkpt>
      <trkpt lat="48.36805" lon="2.56359">
        <ele>117.41821289062</ele>
        <time>2011-11-20T09:52:16Z</time>
      </trkpt>
      <trkpt lat="48.36781" lon="2.56369">
        <ele>117.41821289062</ele>
        <time>2011-11-20T09:52:22Z</time>
      </trkpt>
      <trkpt lat="48.36757" lon="2.56378">
        <ele>116.9375</ele>
        <time>2011-11-20T09:52:28Z</time>
      </trkpt>
      <trkpt lat="48.3674" lon="2.56386">
        <ele>116.9375</ele>
        <time>2011-11-20T09:52:33Z</time>
      </trkpt>
      <trkpt lat="48.36726" lon="2.56391">
        <ele>117.41821289062</ele>
        <time>2011-11-20T09:52:39Z</time>
      </trkpt>
      <trkpt lat="48.36726" lon="2.56393">
        <ele>116.9375</ele>
        <time>2011-11-20T09:52:40Z</time>
      </trkpt>
      <trkpt lat="48.36731" lon="2.56393">
        <ele>116.9375</ele>
        <time>2011-11-20T09:52:44Z</time>
      </trkpt>
      <trkpt lat="48.36748" lon="2.56386">
        <ele>116.9375</ele>
        <time>2011-11-20T09:52:51Z</time>
      </trkpt>
      <trkpt lat="48.36764" lon="2.56379">
        <ele>116.45678710938</ele>
        <time>2011-11-20T09:52:56Z</time>
      </trkpt>
      <trkpt lat="48.36779" lon="2.56372">
        <ele>116.45678710938</ele>
        <time>2011-11-20T09:53:00Z</time>
      </trkpt>
      <trkpt lat="48.36821" lon="2.56356">
        <ele>116.45678710938</ele>
        <time>2011-11-20T09:53:10Z</time>
      </trkpt>
      <trkpt lat="48.36825" lon="2.56354">
        <ele>116.45678710938</ele>
        <time>2011-11-20T09:53:11Z</time>
      </trkpt>
      <trkpt lat="48.36862" lon="2.56336">
        <ele>116.45678710938</ele>
        <time>2011-11-20T09:53:19Z</time>
      </trkpt>
      <trkpt lat="48.36897" lon="2.56322">
        <ele>116.9375</ele>
        <time>2011-11-20T09:53:26Z</time>
      </trkpt>
      <trkpt lat="48.36903" lon="2.5632">
        <ele>116.9375</ele>
        <time>2011-11-20T09:53:27Z</time>
      </trkpt>
      <trkpt lat="48.36939" lon="2.56305">
        <ele>116.9375</ele>
        <time>2011-11-20T09:53:34Z</time>
      </trkpt>
      <trkpt lat="48.36974" lon="2.56283">
        <ele>115.97619628906</ele>
        <time>2011-11-20T09:53:41Z</time>
      </trkpt>
      <trkpt lat="48.37001" lon="2.56258">
        <ele>116.45678710938</ele>
        <time>2011-11-20T09:53:47Z</time>
      </trkpt>
      <trkpt lat="48.37028" lon="2.56223">
        <ele>117.41821289062</ele>
        <time>2011-11-20T09:53:54Z</time>
      </trkpt>
      <trkpt lat="48.37057" lon="2.56173">
        <ele>116.9375</ele>
        <time>2011-11-20T09:54:03Z</time>
      </trkpt>
      <trkpt lat="48.37083" lon="2.56121">
        <ele>116.45678710938</ele>
        <time>2011-11-20T09:54:11Z</time>
      </trkpt>
      <trkpt lat="48.37087" lon="2.56114">
        <ele>116.45678710938</ele>
        <time>2011-11-20T09:54:12Z</time>
      </trkpt>
      <trkpt lat="48.37103" lon="2.56092">
        <ele>116.45678710938</ele>
        <time>2011-11-20T09:54:16Z</time>
      </trkpt>
      <trkpt lat="48.37136" lon="2.56063">
        <ele>115.49560546875</ele>
        <time>2011-11-20T09:54:23Z</time>
      </trkpt>
      <trkpt lat="48.37162" lon="2.56052">
        <ele>115.49560546875</ele>
        <time>2011-11-20T09:54:28Z</time>
      </trkpt>
      <trkpt lat="48.37206" lon="2.56057">
        <ele>115.49560546875</ele>
        <time>2011-11-20T09:54:36Z</time>
      </trkpt>
      <trkpt lat="48.37241" lon="2.56065">
        <ele>115.01489257812</ele>
        <time>2011-11-20T09:54:43Z</time>
      </trkpt>
      <trkpt lat="48.37265" lon="2.5607">
        <ele>115.01489257812</ele>
        <time>2011-11-20T09:54:48Z</time>
      </trkpt>
      <trkpt lat="48.37294" lon="2.56077">
        <ele>115.01489257812</ele>
        <time>2011-11-20T09:54:54Z</time>
      </trkpt>
      <trkpt lat="48.37328" lon="2.56085">
        <ele>115.49560546875</ele>
        <time>2011-11-20T09:55:01Z</time>
      </trkpt>
      <trkpt lat="48.37357" lon="2.5609">
        <ele>114.5341796875</ele>
        <time>2011-11-20T09:55:07Z</time>
      </trkpt>
      <trkpt lat="48.37394" lon="2.56089">
        <ele>115.97619628906</ele>
        <time>2011-11-20T09:55:14Z</time>
      </trkpt>
      <trkpt lat="48.37432" lon="2.5608">
        <ele>116.45678710938</ele>
        <time>2011-11-20T09:55:21Z</time>
      </trkpt>
      <trkpt lat="48.37484" lon="2.56065">
        <ele>115.49560546875</ele>
        <time>2011-11-20T09:55:30Z</time>
      </trkpt>
      <trkpt lat="48.37531" lon="2.5606">
        <ele>114.05358886719</ele>
        <time>2011-11-20T09:55:37Z</time>
      </trkpt>
      <trkpt lat="48.37566" lon="2.56073">
        <ele>113.57299804688</ele>
        <time>2011-11-20T09:55:42Z</time>
      </trkpt>
      <trkpt lat="48.37595" lon="2.561">
        <ele>112.61157226562</ele>
        <time>2011-11-20T09:55:47Z</time>
      </trkpt>
      <trkpt lat="48.37622" lon="2.56139">
        <ele>111.65026855469</ele>
        <time>2011-11-20T09:55:52Z</time>
      </trkpt>
      <trkpt lat="48.3764" lon="2.56173">
        <ele>111.16955566406</ele>
        <time>2011-11-20T09:55:56Z</time>
      </trkpt>
      <trkpt lat="48.37654" lon="2.56206">
        <ele>110.20825195312</ele>
        <time>2011-11-20T09:55:59Z</time>
      </trkpt>
      <trkpt lat="48.37686" lon="2.56259">
        <ele>110.20825195312</ele>
        <time>2011-11-20T09:56:06Z</time>
      </trkpt>
      <trkpt lat="48.37713" lon="2.5629">
        <ele>110.68884277344</ele>
        <time>2011-11-20T09:56:11Z</time>
      </trkpt>
      <trkpt lat="48.37743" lon="2.56322">
        <ele>112.13098144531</ele>
        <time>2011-11-20T09:56:17Z</time>
      </trkpt>
      <trkpt lat="48.37774" lon="2.56349">
        <ele>111.65026855469</ele>
        <time>2011-11-20T09:56:23Z</time>
      </trkpt>
      <trkpt lat="48.37806" lon="2.56374">
        <ele>112.13098144531</ele>
        <time>2011-11-20T09:56:29Z</time>
      </trkpt>
      <trkpt lat="48.37827" lon="2.56387">
        <ele>112.61157226562</ele>
        <time>2011-11-20T09:56:33Z</time>
      </trkpt>
      <trkpt lat="48.37859" lon="2.56391">
        <ele>113.09228515625</ele>
        <time>2011-11-20T09:56:39Z</time>
      </trkpt>
      <trkpt lat="48.37887" lon="2.56386">
        <ele>113.09228515625</ele>
        <time>2011-11-20T09:56:44Z</time>
      </trkpt>
      <trkpt lat="48.37928" lon="2.56383">
        <ele>114.5341796875</ele>
        <time>2011-11-20T09:56:52Z</time>
      </trkpt>
      <trkpt lat="48.37967" lon="2.56394">
        <ele>117.41821289062</ele>
        <time>2011-11-20T09:57:00Z</time>
      </trkpt>
      <trkpt lat="48.37996" lon="2.56407">
        <ele>116.45678710938</ele>
        <time>2011-11-20T09:57:07Z</time>
      </trkpt>
      <trkpt lat="48.38012" lon="2.56415">
        <ele>115.97619628906</ele>
        <time>2011-11-20T09:57:10Z</time>
      </trkpt>
      <trkpt lat="48.3803" lon="2.56437">
        <ele>114.5341796875</ele>
        <time>2011-11-20T09:57:14Z</time>
      </trkpt>
      <trkpt lat="48.38036" lon="2.5647">
        <ele>113.09228515625</ele>
        <time>2011-11-20T09:57:17Z</time>
      </trkpt>
      <trkpt lat="48.38036" lon="2.56481">
        <ele>112.61157226562</ele>
        <time>2011-11-20T09:57:18Z</time>
      </trkpt>
      <trkpt lat="48.38036" lon="2.56504">
        <ele>111.65026855469</ele>
        <time>2011-11-20T09:57:20Z</time>
      </trkpt>
      <trkpt lat="48.38035" lon="2.56537">
        <ele>110.68884277344</ele>
        <time>2011-11-20T09:57:23Z</time>
      </trkpt>
      <trkpt lat="48.3804" lon="2.56566">
        <ele>108.76623535156</ele>
        <time>2011-11-20T09:57:28Z</time>
      </trkpt>
      <trkpt lat="48.38043" lon="2.56571">
        <ele>108.28564453125</ele>
        <time>2011-11-20T09:57:30Z</time>
      </trkpt>
      <trkpt lat="48.38044" lon="2.56565">
        <ele>108.76623535156</ele>
        <time>2011-11-20T09:57:34Z</time>
      </trkpt>
      <trkpt lat="48.38041" lon="2.56554">
        <ele>108.28564453125</ele>
        <time>2011-11-20T09:57:38Z</time>
      </trkpt>
      <trkpt lat="48.38047" lon="2.56546">
        <ele>107.80505371094</ele>
        <time>2011-11-20T09:57:42Z</time>
      </trkpt>
      <trkpt lat="48.38049" lon="2.56543">
        <ele>107.32434082031</ele>
        <time>2011-11-20T09:57:43Z</time>
      </trkpt>
      <trkpt lat="48.38063" lon="2.56513">
        <ele>106.36303710938</ele>
        <time>2011-11-20T09:57:49Z</time>
      </trkpt>
      <trkpt lat="48.38083" lon="2.56464">
        <ele>105.40173339844</ele>
        <time>2011-11-20T09:57:56Z</time>
      </trkpt>
      <trkpt lat="48.38097" lon="2.56409">
        <ele>104.4404296875</ele>
        <time>2011-11-20T09:58:02Z</time>
      </trkpt>
      <trkpt lat="48.38105" lon="2.56339">
        <ele>104.4404296875</ele>
        <time>2011-11-20T09:58:09Z</time>
      </trkpt>
      <trkpt lat="48.38107" lon="2.5629">
        <ele>103.47900390625</ele>
        <time>2011-11-20T09:58:15Z</time>
      </trkpt>
      <trkpt lat="48.38093" lon="2.56222">
        <ele>102.51770019531</ele>
        <time>2011-11-20T09:58:23Z</time>
      </trkpt>
      <trkpt lat="48.38089" lon="2.56205">
        <ele>101.55639648438</ele>
        <time>2011-11-20T09:58:25Z</time>
      </trkpt>
      <trkpt lat="48.38081" lon="2.5615">
        <ele>100.11450195312</ele>
        <time>2011-11-20T09:58:31Z</time>
      </trkpt>
      <trkpt lat="48.38071" lon="2.56084">
        <ele>99.153076171875</ele>
        <time>2011-11-20T09:58:38Z</time>
      </trkpt>
      <trkpt lat="48.38067" lon="2.56067">
        <ele>99.153076171875</ele>
        <time>2011-11-20T09:58:40Z</time>
      </trkpt>
      <trkpt lat="48.3806" lon="2.56049">
        <ele>98.672485351562</ele>
        <time>2011-11-20T09:58:43Z</time>
      </trkpt>
      <trkpt lat="48.38053" lon="2.56021">
        <ele>98.672485351562</ele>
        <time>2011-11-20T09:58:48Z</time>
      </trkpt>
      <trkpt lat="48.38049" lon="2.55999">
        <ele>98.19189453125</ele>
        <time>2011-11-20T09:58:52Z</time>
      </trkpt>
      <trkpt lat="48.38038" lon="2.55943">
        <ele>98.19189453125</ele>
        <time>2011-11-20T09:58:59Z</time>
      </trkpt>
      <trkpt lat="48.38032" lon="2.55893">
        <ele>98.19189453125</ele>
        <time>2011-11-20T09:59:05Z</time>
      </trkpt>
      <trkpt lat="48.38028" lon="2.55844">
        <ele>98.672485351562</ele>
        <time>2011-11-20T09:59:11Z</time>
      </trkpt>
      <trkpt lat="48.38032" lon="2.55811">
        <ele>98.19189453125</ele>
        <time>2011-11-20T09:59:15Z</time>
      </trkpt>
      <trkpt lat="48.38034" lon="2.55779">
        <ele>98.19189453125</ele>
        <time>2011-11-20T09:59:19Z</time>
      </trkpt>
      <trkpt lat="48.38036" lon="2.55745">
        <ele>98.19189453125</ele>
        <time>2011-11-20T09:59:23Z</time>
      </trkpt>
      <trkpt lat="48.38029" lon="2.55713">
        <ele>97.23046875</ele>
        <time>2011-11-20T09:59:27Z</time>
      </trkpt>
      <trkpt lat="48.38019" lon="2.55678">
        <ele>97.711181640625</ele>
        <time>2011-11-20T09:59:32Z</time>
      </trkpt>
      <trkpt lat="48.38015" lon="2.55657">
        <ele>97.711181640625</ele>
        <time>2011-11-20T09:59:36Z</time>
      </trkpt>
      <trkpt lat="48.38012" lon="2.55657">
        <ele>97.711181640625</ele>
        <time>2011-11-20T09:59:37Z</time>
      </trkpt>
      <trkpt lat="48.37997" lon="2.55659">
        <ele>97.711181640625</ele>
        <time>2011-11-20T09:59:42Z</time>
      </trkpt>
      <trkpt lat="48.37984" lon="2.55657">
        <ele>97.23046875</ele>
        <time>2011-11-20T09:59:46Z</time>
      </trkpt>
      <trkpt lat="48.37966" lon="2.55655">
        <ele>97.711181640625</ele>
        <time>2011-11-20T09:59:52Z</time>
      </trkpt>
      <trkpt lat="48.37958" lon="2.55653">
        <ele>98.672485351562</ele>
        <time>2011-11-20T09:59:55Z</time>
      </trkpt>
      <trkpt lat="48.3795" lon="2.55666">
        <ele>98.672485351562</ele>
        <time>2011-11-20T10:00:00Z</time>
      </trkpt>
      <trkpt lat="48.37939" lon="2.55681">
        <ele>98.672485351562</ele>
        <time>2011-11-20T10:00:05Z</time>
      </trkpt>
      <trkpt lat="48.37926" lon="2.5569">
        <ele>98.672485351562</ele>
        <time>2011-11-20T10:00:10Z</time>
      </trkpt>
      <trkpt lat="48.37922" lon="2.55692">
        <ele>99.153076171875</ele>
        <time>2011-11-20T10:00:12Z</time>
      </trkpt>
      <trkpt lat="48.37916" lon="2.55693">
        <ele>99.6337890625</ele>
        <time>2011-11-20T10:00:16Z</time>
      </trkpt>
      <trkpt lat="48.3791" lon="2.55696">
        <ele>101.55639648438</ele>
        <time>2011-11-20T10:00:20Z</time>
      </trkpt>
      <trkpt lat="48.37903" lon="2.55698">
        <ele>103.47900390625</ele>
        <time>2011-11-20T10:00:25Z</time>
      </trkpt>
      <trkpt lat="48.37891" lon="2.55703">
        <ele>105.40173339844</ele>
        <time>2011-11-20T10:00:33Z</time>
      </trkpt>
      <trkpt lat="48.37882" lon="2.55707">
        <ele>106.36303710938</ele>
        <time>2011-11-20T10:00:40Z</time>
      </trkpt>
      <trkpt lat="48.37881" lon="2.55707">
        <ele>106.36303710938</ele>
        <time>2011-11-20T10:00:41Z</time>
      </trkpt>
      <trkpt lat="48.37875" lon="2.55705">
        <ele>108.28564453125</ele>
        <time>2011-11-20T10:00:46Z</time>
      </trkpt>
      <trkpt lat="48.37868" lon="2.55704">
        <ele>110.20825195312</ele>
        <time>2011-11-20T10:00:52Z</time>
      </trkpt>
      <trkpt lat="48.37867" lon="2.55703">
        <ele>110.68884277344</ele>
        <time>2011-11-20T10:00:53Z</time>
      </trkpt>
      <trkpt lat="48.37857" lon="2.55697">
        <ele>114.05358886719</ele>
        <time>2011-11-20T10:01:02Z</time>
      </trkpt>
      <trkpt lat="48.37857" lon="2.55697">
        <ele>114.05358886719</ele>
        <time>2011-11-20T10:01:03Z</time>
      </trkpt>
      <trkpt lat="48.37849" lon="2.55699">
        <ele>114.5341796875</ele>
        <time>2011-11-20T10:01:09Z</time>
      </trkpt>
      <trkpt lat="48.37838" lon="2.55701">
        <ele>114.5341796875</ele>
        <time>2011-11-20T10:01:15Z</time>
      </trkpt>
      <trkpt lat="48.37823" lon="2.55701">
        <ele>114.5341796875</ele>
        <time>2011-11-20T10:01:21Z</time>
      </trkpt>
      <trkpt lat="48.37819" lon="2.55701">
        <ele>114.05358886719</ele>
        <time>2011-11-20T10:01:23Z</time>
      </trkpt>
      <trkpt lat="48.37811" lon="2.55703">
        <ele>111.16955566406</ele>
        <time>2011-11-20T10:01:27Z</time>
      </trkpt>
      <trkpt lat="48.37797" lon="2.55706">
        <ele>106.36303710938</ele>
        <time>2011-11-20T10:01:33Z</time>
      </trkpt>
      <trkpt lat="48.37789" lon="2.55703">
        <ele>104.92102050781</ele>
        <time>2011-11-20T10:01:37Z</time>
      </trkpt>
      <trkpt lat="48.37786" lon="2.55713">
        <ele>104.4404296875</ele>
        <time>2011-11-20T10:01:40Z</time>
      </trkpt>
      <trkpt lat="48.37785" lon="2.55716">
        <ele>103.47900390625</ele>
        <time>2011-11-20T10:01:41Z</time>
      </trkpt>
      <trkpt lat="48.37776" lon="2.55722">
        <ele>101.55639648438</ele>
        <time>2011-11-20T10:01:44Z</time>
      </trkpt>
      <trkpt lat="48.37768" lon="2.55734">
        <ele>99.6337890625</ele>
        <time>2011-11-20T10:01:48Z</time>
      </trkpt>
      <trkpt lat="48.37759" lon="2.55745">
        <ele>98.19189453125</ele>
        <time>2011-11-20T10:01:52Z</time>
      </trkpt>
      <trkpt lat="48.37753" lon="2.55764">
        <ele>97.23046875</ele>
        <time>2011-11-20T10:01:56Z</time>
      </trkpt>
      <trkpt lat="48.37751" lon="2.55768">
        <ele>96.749877929688</ele>
        <time>2011-11-20T10:01:57Z</time>
      </trkpt>
      <trkpt lat="48.37742" lon="2.55785">
        <ele>96.749877929688</ele>
        <time>2011-11-20T10:02:02Z</time>
      </trkpt>
      <trkpt lat="48.37739" lon="2.55793">
        <ele>96.749877929688</ele>
        <time>2011-11-20T10:02:04Z</time>
      </trkpt>
      <trkpt lat="48.37732" lon="2.5581">
        <ele>96.269287109375</ele>
        <time>2011-11-20T10:02:09Z</time>
      </trkpt>
      <trkpt lat="48.37724" lon="2.55801">
        <ele>96.269287109375</ele>
        <time>2011-11-20T10:02:14Z</time>
      </trkpt>
      <trkpt lat="48.37716" lon="2.55793">
        <ele>96.269287109375</ele>
        <time>2011-11-20T10:02:17Z</time>
      </trkpt>
      <trkpt lat="48.37696" lon="2.55772">
        <ele>96.749877929688</ele>
        <time>2011-11-20T10:02:24Z</time>
      </trkpt>
      <trkpt lat="48.37681" lon="2.55749">
        <ele>96.269287109375</ele>
        <time>2011-11-20T10:02:30Z</time>
      </trkpt>
      <trkpt lat="48.37676" lon="2.55741">
        <ele>96.749877929688</ele>
        <time>2011-11-20T10:02:32Z</time>
      </trkpt>
      <trkpt lat="48.37664" lon="2.5572">
        <ele>96.269287109375</ele>
        <time>2011-11-20T10:02:37Z</time>
      </trkpt>
      <trkpt lat="48.37654" lon="2.55705">
        <ele>96.269287109375</ele>
        <time>2011-11-20T10:02:41Z</time>
      </trkpt>
      <trkpt lat="48.37652" lon="2.55696">
        <ele>95.788452148438</ele>
        <time>2011-11-20T10:02:43Z</time>
      </trkpt>
      <trkpt lat="48.37635" lon="2.55664">
        <ele>91.943237304688</ele>
        <time>2011-11-20T10:02:49Z</time>
      </trkpt>
      <trkpt lat="48.37632" lon="2.55658">
        <ele>91.943237304688</ele>
        <time>2011-11-20T10:02:50Z</time>
      </trkpt>
      <trkpt lat="48.37623" lon="2.55638">
        <ele>91.462524414062</ele>
        <time>2011-11-20T10:02:55Z</time>
      </trkpt>
      <trkpt lat="48.37617" lon="2.5563">
        <ele>90.501342773438</ele>
        <time>2011-11-20T10:03:00Z</time>
      </trkpt>
      <trkpt lat="48.37611" lon="2.55619">
        <ele>90.020629882812</ele>
        <time>2011-11-20T10:03:05Z</time>
      </trkpt>
      <trkpt lat="48.37601" lon="2.55596">
        <ele>89.059326171875</ele>
        <time>2011-11-20T10:03:11Z</time>
      </trkpt>
      <trkpt lat="48.37588" lon="2.55569">
        <ele>89.539916992188</ele>
        <time>2011-11-20T10:03:17Z</time>
      </trkpt>
      <trkpt lat="48.37576" lon="2.55538">
        <ele>89.059326171875</ele>
        <time>2011-11-20T10:03:23Z</time>
      </trkpt>
      <trkpt lat="48.37566" lon="2.55509">
        <ele>89.059326171875</ele>
        <time>2011-11-20T10:03:29Z</time>
      </trkpt>
      <trkpt lat="48.37568" lon="2.55488">
        <ele>89.059326171875</ele>
        <time>2011-11-20T10:03:33Z</time>
      </trkpt>
      <trkpt lat="48.37569" lon="2.55467">
        <ele>90.020629882812</ele>
        <time>2011-11-20T10:03:37Z</time>
      </trkpt>
      <trkpt lat="48.37568" lon="2.55461">
        <ele>89.059326171875</ele>
        <time>2011-11-20T10:03:38Z</time>
      </trkpt>
      <trkpt lat="48.37565" lon="2.5545">
        <ele>90.020629882812</ele>
        <time>2011-11-20T10:03:40Z</time>
      </trkpt>
      <trkpt lat="48.37563" lon="2.55407">
        <ele>89.059326171875</ele>
        <time>2011-11-20T10:03:47Z</time>
      </trkpt>
      <trkpt lat="48.37563" lon="2.55349">
        <ele>86.656005859375</ele>
        <time>2011-11-20T10:03:55Z</time>
      </trkpt>
      <trkpt lat="48.3756" lon="2.55308">
        <ele>87.6171875</ele>
        <time>2011-11-20T10:04:01Z</time>
      </trkpt>
      <trkpt lat="48.37553" lon="2.55274">
        <ele>87.136596679688</ele>
        <time>2011-11-20T10:04:07Z</time>
      </trkpt>
      <trkpt lat="48.37548" lon="2.55264">
        <ele>87.136596679688</ele>
        <time>2011-11-20T10:04:09Z</time>
      </trkpt>
      <trkpt lat="48.37535" lon="2.55239">
        <ele>86.17529296875</ele>
        <time>2011-11-20T10:04:14Z</time>
      </trkpt>
      <trkpt lat="48.37513" lon="2.5522">
        <ele>86.17529296875</ele>
        <time>2011-11-20T10:04:20Z</time>
      </trkpt>
      <trkpt lat="48.37496" lon="2.55216">
        <ele>84.7333984375</ele>
        <time>2011-11-20T10:04:24Z</time>
      </trkpt>
      <trkpt lat="48.37492" lon="2.55205">
        <ele>84.7333984375</ele>
        <time>2011-11-20T10:04:26Z</time>
      </trkpt>
      <trkpt lat="48.37485" lon="2.5517">
        <ele>84.252685546875</ele>
        <time>2011-11-20T10:04:31Z</time>
      </trkpt>
      <trkpt lat="48.37486" lon="2.5515">
        <ele>84.7333984375</ele>
        <time>2011-11-20T10:04:34Z</time>
      </trkpt>
      <trkpt lat="48.37484" lon="2.55101">
        <ele>84.252685546875</ele>
        <time>2011-11-20T10:04:41Z</time>
      </trkpt>
      <trkpt lat="48.37486" lon="2.55081">
        <ele>84.7333984375</ele>
        <time>2011-11-20T10:04:44Z</time>
      </trkpt>
      <trkpt lat="48.37485" lon="2.55067">
        <ele>84.252685546875</ele>
        <time>2011-11-20T10:04:46Z</time>
      </trkpt>
      <trkpt lat="48.37482" lon="2.55053">
        <ele>84.252685546875</ele>
        <time>2011-11-20T10:04:48Z</time>
      </trkpt>
      <trkpt lat="48.37484" lon="2.55026">
        <ele>84.252685546875</ele>
        <time>2011-11-20T10:04:52Z</time>
      </trkpt>
      <trkpt lat="48.3749" lon="2.54998">
        <ele>82.810791015625</ele>
        <time>2011-11-20T10:04:56Z</time>
      </trkpt>
      <trkpt lat="48.37491" lon="2.5495">
        <ele>81.368774414062</ele>
        <time>2011-11-20T10:05:02Z</time>
      </trkpt>
      <trkpt lat="48.3749" lon="2.54935">
        <ele>80.407470703125</ele>
        <time>2011-11-20T10:05:04Z</time>
      </trkpt>
      <trkpt lat="48.37491" lon="2.54914">
        <ele>80.88818359375</ele>
        <time>2011-11-20T10:05:07Z</time>
      </trkpt>
      <trkpt lat="48.37494" lon="2.54901">
        <ele>80.88818359375</ele>
        <time>2011-11-20T10:05:09Z</time>
      </trkpt>
      <trkpt lat="48.37495" lon="2.54888">
        <ele>79.926635742188</ele>
        <time>2011-11-20T10:05:11Z</time>
      </trkpt>
      <trkpt lat="48.37499" lon="2.54861">
        <ele>79.446044921875</ele>
        <time>2011-11-20T10:05:15Z</time>
      </trkpt>
      <trkpt lat="48.37497" lon="2.54825">
        <ele>79.446044921875</ele>
        <time>2011-11-20T10:05:20Z</time>
      </trkpt>
      <trkpt lat="48.37494" lon="2.54797">
        <ele>78.965454101562</ele>
        <time>2011-11-20T10:05:24Z</time>
      </trkpt>
      <trkpt lat="48.37491" lon="2.54769">
        <ele>79.446044921875</ele>
        <time>2011-11-20T10:05:28Z</time>
      </trkpt>
      <trkpt lat="48.37492" lon="2.54743">
        <ele>78.965454101562</ele>
        <time>2011-11-20T10:05:32Z</time>
      </trkpt>
      <trkpt lat="48.37492" lon="2.5473">
        <ele>78.965454101562</ele>
        <time>2011-11-20T10:05:34Z</time>
      </trkpt>
      <trkpt lat="48.37489" lon="2.54699">
        <ele>78.484741210938</ele>
        <time>2011-11-20T10:05:39Z</time>
      </trkpt>
      <trkpt lat="48.37487" lon="2.54692">
        <ele>78.484741210938</ele>
        <time>2011-11-20T10:05:40Z</time>
      </trkpt>
      <trkpt lat="48.37486" lon="2.54659">
        <ele>78.965454101562</ele>
        <time>2011-11-20T10:05:45Z</time>
      </trkpt>
      <trkpt lat="48.37483" lon="2.54625">
        <ele>78.965454101562</ele>
        <time>2011-11-20T10:05:50Z</time>
      </trkpt>
      <trkpt lat="48.37479" lon="2.54587">
        <ele>78.004028320312</ele>
        <time>2011-11-20T10:05:55Z</time>
      </trkpt>
      <trkpt lat="48.37478" lon="2.54551">
        <ele>78.004028320312</ele>
        <time>2011-11-20T10:06:00Z</time>
      </trkpt>
      <trkpt lat="48.37475" lon="2.54488">
        <ele>76.562133789062</ele>
        <time>2011-11-20T10:06:08Z</time>
      </trkpt>
      <trkpt lat="48.37471" lon="2.54442">
        <ele>76.081420898438</ele>
        <time>2011-11-20T10:06:14Z</time>
      </trkpt>
      <trkpt lat="48.37471" lon="2.5442">
        <ele>76.081420898438</ele>
        <time>2011-11-20T10:06:17Z</time>
      </trkpt>
      <trkpt lat="48.37464" lon="2.54379">
        <ele>75.600830078125</ele>
        <time>2011-11-20T10:06:22Z</time>
      </trkpt>
      <trkpt lat="48.37454" lon="2.54359">
        <ele>74.639526367188</ele>
        <time>2011-11-20T10:06:26Z</time>
      </trkpt>
      <trkpt lat="48.37447" lon="2.54362">
        <ele>75.120239257812</ele>
        <time>2011-11-20T10:06:29Z</time>
      </trkpt>
      <trkpt lat="48.37439" lon="2.54393">
        <ele>75.120239257812</ele>
        <time>2011-11-20T10:06:35Z</time>
      </trkpt>
      <trkpt lat="48.37438" lon="2.54399">
        <ele>75.120239257812</ele>
        <time>2011-11-20T10:06:36Z</time>
      </trkpt>
      <trkpt lat="48.37426" lon="2.54422">
        <ele>75.600830078125</ele>
        <time>2011-11-20T10:06:41Z</time>
      </trkpt>
      <trkpt lat="48.37418" lon="2.54416">
        <ele>76.562133789062</ele>
        <time>2011-11-20T10:06:44Z</time>
      </trkpt>
      <trkpt lat="48.37402" lon="2.54411">
        <ele>77.042846679688</ele>
        <time>2011-11-20T10:06:49Z</time>
      </trkpt>
      <trkpt lat="48.37397" lon="2.54409">
        <ele>77.042846679688</ele>
        <time>2011-11-20T10:06:51Z</time>
      </trkpt>
      <trkpt lat="48.37381" lon="2.54398">
        <ele>77.5234375</ele>
        <time>2011-11-20T10:06:57Z</time>
      </trkpt>
      <trkpt lat="48.3737" lon="2.54391">
        <ele>77.5234375</ele>
        <time>2011-11-20T10:07:02Z</time>
      </trkpt>
      <trkpt lat="48.37353" lon="2.54389">
        <ele>76.562133789062</ele>
        <time>2011-11-20T10:07:07Z</time>
      </trkpt>
      <trkpt lat="48.37338" lon="2.54388">
        <ele>76.562133789062</ele>
        <time>2011-11-20T10:07:13Z</time>
      </trkpt>
      <trkpt lat="48.37324" lon="2.54394">
        <ele>76.081420898438</ele>
        <time>2011-11-20T10:07:18Z</time>
      </trkpt>
      <trkpt lat="48.37311" lon="2.54386">
        <ele>75.600830078125</ele>
        <time>2011-11-20T10:07:22Z</time>
      </trkpt>
      <trkpt lat="48.37303" lon="2.54383">
        <ele>75.600830078125</ele>
        <time>2011-11-20T10:07:25Z</time>
      </trkpt>
      <trkpt lat="48.37288" lon="2.54377">
        <ele>74.639526367188</ele>
        <time>2011-11-20T10:07:30Z</time>
      </trkpt>
      <trkpt lat="48.3727" lon="2.54366">
        <ele>76.081420898438</ele>
        <time>2011-11-20T10:07:36Z</time>
      </trkpt>
      <trkpt lat="48.37256" lon="2.54357">
        <ele>76.081420898438</ele>
        <time>2011-11-20T10:07:41Z</time>
      </trkpt>
      <trkpt lat="48.37246" lon="2.54336">
        <ele>75.120239257812</ele>
        <time>2011-11-20T10:07:46Z</time>
      </trkpt>
      <trkpt lat="48.37236" lon="2.54321">
        <ele>75.120239257812</ele>
        <time>2011-11-20T10:07:50Z</time>
      </trkpt>
      <trkpt lat="48.37233" lon="2.54317">
        <ele>75.120239257812</ele>
        <time>2011-11-20T10:07:51Z</time>
      </trkpt>
      <trkpt lat="48.37215" lon="2.54295">
        <ele>75.120239257812</ele>
        <time>2011-11-20T10:07:57Z</time>
      </trkpt>
      <trkpt lat="48.37206" lon="2.54276">
        <ele>75.600830078125</ele>
        <time>2011-11-20T10:08:01Z</time>
      </trkpt>
      <trkpt lat="48.37199" lon="2.54258">
        <ele>75.600830078125</ele>
        <time>2011-11-20T10:08:04Z</time>
      </trkpt>
      <trkpt lat="48.37187" lon="2.54229">
        <ele>76.562133789062</ele>
        <time>2011-11-20T10:08:09Z</time>
      </trkpt>
      <trkpt lat="48.37185" lon="2.54224">
        <ele>76.081420898438</ele>
        <time>2011-11-20T10:08:10Z</time>
      </trkpt>
      <trkpt lat="48.3717" lon="2.54196">
        <ele>76.562133789062</ele>
        <time>2011-11-20T10:08:16Z</time>
      </trkpt>
      <trkpt lat="48.37162" lon="2.54161">
        <ele>77.5234375</ele>
        <time>2011-11-20T10:08:22Z</time>
      </trkpt>
      <trkpt lat="48.37154" lon="2.54137">
        <ele>77.5234375</ele>
        <time>2011-11-20T10:08:26Z</time>
      </trkpt>
      <trkpt lat="48.37151" lon="2.54125">
        <ele>78.004028320312</ele>
        <time>2011-11-20T10:08:28Z</time>
      </trkpt>
      <trkpt lat="48.3714" lon="2.54096">
        <ele>76.081420898438</ele>
        <time>2011-11-20T10:08:33Z</time>
      </trkpt>
      <trkpt lat="48.37136" lon="2.54083">
        <ele>75.600830078125</ele>
        <time>2011-11-20T10:08:35Z</time>
      </trkpt>
      <trkpt lat="48.37129" lon="2.54056">
        <ele>76.562133789062</ele>
        <time>2011-11-20T10:08:41Z</time>
      </trkpt>
      <trkpt lat="48.3712" lon="2.54037">
        <ele>77.042846679688</ele>
        <time>2011-11-20T10:08:47Z</time>
      </trkpt>
      <trkpt lat="48.37108" lon="2.54012">
        <ele>78.004028320312</ele>
        <time>2011-11-20T10:08:55Z</time>
      </trkpt>
      <trkpt lat="48.37099" lon="2.53988">
        <ele>78.484741210938</ele>
        <time>2011-11-20T10:09:02Z</time>
      </trkpt>
      <trkpt lat="48.37097" lon="2.53981">
        <ele>78.965454101562</ele>
        <time>2011-11-20T10:09:04Z</time>
      </trkpt>
      <trkpt lat="48.37088" lon="2.53973">
        <ele>79.446044921875</ele>
        <time>2011-11-20T10:09:09Z</time>
      </trkpt>
      <trkpt lat="48.37072" lon="2.53964">
        <ele>80.407470703125</ele>
        <time>2011-11-20T10:09:16Z</time>
      </trkpt>
      <trkpt lat="48.37059" lon="2.5395">
        <ele>80.88818359375</ele>
        <time>2011-11-20T10:09:23Z</time>
      </trkpt>
      <trkpt lat="48.37048" lon="2.53938">
        <ele>81.849365234375</ele>
        <time>2011-11-20T10:09:30Z</time>
      </trkpt>
      <trkpt lat="48.37041" lon="2.53928">
        <ele>83.291381835938</ele>
        <time>2011-11-20T10:09:36Z</time>
      </trkpt>
      <trkpt lat="48.37039" lon="2.53924">
        <ele>83.291381835938</ele>
        <time>2011-11-20T10:09:38Z</time>
      </trkpt>
      <trkpt lat="48.37035" lon="2.53921">
        <ele>83.77197265625</ele>
        <time>2011-11-20T10:09:41Z</time>
      </trkpt>
      <trkpt lat="48.37031" lon="2.53913">
        <ele>84.7333984375</ele>
        <time>2011-11-20T10:09:46Z</time>
      </trkpt>
      <trkpt lat="48.37026" lon="2.53909">
        <ele>86.656005859375</ele>
        <time>2011-11-20T10:09:53Z</time>
      </trkpt>
      <trkpt lat="48.37025" lon="2.53906">
        <ele>88.098022460938</ele>
        <time>2011-11-20T10:09:55Z</time>
      </trkpt>
      <trkpt lat="48.37019" lon="2.53888">
        <ele>89.539916992188</ele>
        <time>2011-11-20T10:10:06Z</time>
      </trkpt>
      <trkpt lat="48.37011" lon="2.53873">
        <ele>90.501342773438</ele>
        <time>2011-11-20T10:10:14Z</time>
      </trkpt>
      <trkpt lat="48.37005" lon="2.53859">
        <ele>91.462524414062</ele>
        <time>2011-11-20T10:10:21Z</time>
      </trkpt>
      <trkpt lat="48.37001" lon="2.53844">
        <ele>92.904541015625</ele>
        <time>2011-11-20T10:10:29Z</time>
      </trkpt>
      <trkpt lat="48.36992" lon="2.53833">
        <ele>94.346557617188</ele>
        <time>2011-11-20T10:10:35Z</time>
      </trkpt>
      <trkpt lat="48.36981" lon="2.53825">
        <ele>95.788452148438</ele>
        <time>2011-11-20T10:10:41Z</time>
      </trkpt>
      <trkpt lat="48.36969" lon="2.53812">
        <ele>97.23046875</ele>
        <time>2011-11-20T10:10:49Z</time>
      </trkpt>
      <trkpt lat="48.36959" lon="2.53802">
        <ele>98.672485351562</ele>
        <time>2011-11-20T10:10:56Z</time>
      </trkpt>
      <trkpt lat="48.36947" lon="2.53791">
        <ele>100.59509277344</ele>
        <time>2011-11-20T10:11:05Z</time>
      </trkpt>
      <trkpt lat="48.36944" lon="2.53788">
        <ele>102.037109375</ele>
        <time>2011-11-20T10:11:08Z</time>
      </trkpt>
      <trkpt lat="48.36935" lon="2.53779">
        <ele>103.95971679688</ele>
        <time>2011-11-20T10:11:16Z</time>
      </trkpt>
      <trkpt lat="48.36921" lon="2.5377">
        <ele>105.40173339844</ele>
        <time>2011-11-20T10:11:25Z</time>
      </trkpt>
      <trkpt lat="48.36912" lon="2.53764">
        <ele>107.32434082031</ele>
        <time>2011-11-20T10:11:31Z</time>
      </trkpt>
      <trkpt lat="48.36902" lon="2.5377">
        <ele>107.80505371094</ele>
        <time>2011-11-20T10:11:37Z</time>
      </trkpt>
      <trkpt lat="48.36895" lon="2.53771">
        <ele>107.32434082031</ele>
        <time>2011-11-20T10:11:40Z</time>
      </trkpt>
      <trkpt lat="48.36881" lon="2.53773">
        <ele>107.80505371094</ele>
        <time>2011-11-20T10:11:46Z</time>
      </trkpt>
      <trkpt lat="48.3687" lon="2.53785">
        <ele>106.84362792969</ele>
        <time>2011-11-20T10:11:51Z</time>
      </trkpt>
      <trkpt lat="48.36859" lon="2.53793">
        <ele>106.84362792969</ele>
        <time>2011-11-20T10:11:56Z</time>
      </trkpt>
      <trkpt lat="48.36858" lon="2.53797">
        <ele>106.36303710938</ele>
        <time>2011-11-20T10:11:57Z</time>
      </trkpt>
      <trkpt lat="48.36845" lon="2.53808">
        <ele>105.40173339844</ele>
        <time>2011-11-20T10:12:02Z</time>
      </trkpt>
      <trkpt lat="48.36839" lon="2.53829">
        <ele>106.36303710938</ele>
        <time>2011-11-20T10:12:06Z</time>
      </trkpt>
      <trkpt lat="48.36838" lon="2.53834">
        <ele>106.84362792969</ele>
        <time>2011-11-20T10:12:07Z</time>
      </trkpt>
      <trkpt lat="48.3683" lon="2.53862">
        <ele>108.76623535156</ele>
        <time>2011-11-20T10:12:14Z</time>
      </trkpt>
      <trkpt lat="48.36825" lon="2.5388">
        <ele>110.68884277344</ele>
        <time>2011-11-20T10:12:19Z</time>
      </trkpt>
      <trkpt lat="48.3682" lon="2.53898">
        <ele>111.65026855469</ele>
        <time>2011-11-20T10:12:25Z</time>
      </trkpt>
      <trkpt lat="48.36816" lon="2.53916">
        <ele>111.65026855469</ele>
        <time>2011-11-20T10:12:30Z</time>
      </trkpt>
      <trkpt lat="48.36814" lon="2.53942">
        <ele>112.61157226562</ele>
        <time>2011-11-20T10:12:37Z</time>
      </trkpt>
      <trkpt lat="48.36813" lon="2.53973">
        <ele>112.61157226562</ele>
        <time>2011-11-20T10:12:44Z</time>
      </trkpt>
      <trkpt lat="48.36819" lon="2.54002">
        <ele>112.61157226562</ele>
        <time>2011-11-20T10:12:50Z</time>
      </trkpt>
      <trkpt lat="48.36823" lon="2.54028">
        <ele>112.61157226562</ele>
        <time>2011-11-20T10:12:56Z</time>
      </trkpt>
      <trkpt lat="48.36828" lon="2.54052">
        <ele>113.57299804688</ele>
        <time>2011-11-20T10:13:02Z</time>
      </trkpt>
      <trkpt lat="48.36834" lon="2.54082">
        <ele>113.57299804688</ele>
        <time>2011-11-20T10:13:07Z</time>
      </trkpt>
      <trkpt lat="48.36848" lon="2.54118">
        <ele>112.61157226562</ele>
        <time>2011-11-20T10:13:13Z</time>
      </trkpt>
      <trkpt lat="48.36856" lon="2.54158">
        <ele>113.09228515625</ele>
        <time>2011-11-20T10:13:19Z</time>
      </trkpt>
      <trkpt lat="48.3686" lon="2.54191">
        <ele>113.57299804688</ele>
        <time>2011-11-20T10:13:24Z</time>
      </trkpt>
      <trkpt lat="48.36863" lon="2.54204">
        <ele>113.09228515625</ele>
        <time>2011-11-20T10:13:26Z</time>
      </trkpt>
      <trkpt lat="48.36875" lon="2.5423">
        <ele>113.57299804688</ele>
        <time>2011-11-20T10:13:31Z</time>
      </trkpt>
      <trkpt lat="48.36879" lon="2.54231">
        <ele>113.09228515625</ele>
        <time>2011-11-20T10:13:32Z</time>
      </trkpt>
      <trkpt lat="48.36903" lon="2.54238">
        <ele>114.5341796875</ele>
        <time>2011-11-20T10:13:38Z</time>
      </trkpt>
      <trkpt lat="48.36931" lon="2.54249">
        <ele>115.49560546875</ele>
        <time>2011-11-20T10:13:45Z</time>
      </trkpt>
      <trkpt lat="48.36953" lon="2.54256">
        <ele>115.97619628906</ele>
        <time>2011-11-20T10:13:51Z</time>
      </trkpt>
      <trkpt lat="48.36968" lon="2.54267">
        <ele>116.45678710938</ele>
        <time>2011-11-20T10:13:56Z</time>
      </trkpt>
      <trkpt lat="48.3698" lon="2.54279">
        <ele>115.97619628906</ele>
        <time>2011-11-20T10:14:00Z</time>
      </trkpt>
      <trkpt lat="48.37003" lon="2.54312">
        <ele>115.49560546875</ele>
        <time>2011-11-20T10:14:07Z</time>
      </trkpt>
      <trkpt lat="48.37013" lon="2.54328">
        <ele>114.5341796875</ele>
        <time>2011-11-20T10:14:10Z</time>
      </trkpt>
      <trkpt lat="48.37024" lon="2.54344">
        <ele>115.49560546875</ele>
        <time>2011-11-20T10:14:13Z</time>
      </trkpt>
      <trkpt lat="48.37045" lon="2.54376">
        <ele>115.97619628906</ele>
        <time>2011-11-20T10:14:19Z</time>
      </trkpt>
      <trkpt lat="48.37066" lon="2.54408">
        <ele>114.5341796875</ele>
        <time>2011-11-20T10:14:25Z</time>
      </trkpt>
      <trkpt lat="48.37083" lon="2.54429">
        <ele>113.57299804688</ele>
        <time>2011-11-20T10:14:29Z</time>
      </trkpt>
      <trkpt lat="48.37105" lon="2.54464">
        <ele>110.20825195312</ele>
        <time>2011-11-20T10:14:34Z</time>
      </trkpt>
      <trkpt lat="48.37119" lon="2.54493">
        <ele>110.20825195312</ele>
        <time>2011-11-20T10:14:37Z</time>
      </trkpt>
      <trkpt lat="48.37126" lon="2.54507">
        <ele>111.16955566406</ele>
        <time>2011-11-20T10:14:39Z</time>
      </trkpt>
      <trkpt lat="48.37136" lon="2.54516">
        <ele>111.65026855469</ele>
        <time>2011-11-20T10:14:41Z</time>
      </trkpt>
      <trkpt lat="48.37157" lon="2.54537">
        <ele>112.61157226562</ele>
        <time>2011-11-20T10:14:47Z</time>
      </trkpt>
      <trkpt lat="48.37173" lon="2.54565">
        <ele>112.61157226562</ele>
        <time>2011-11-20T10:14:53Z</time>
      </trkpt>
      <trkpt lat="48.3719" lon="2.54589">
        <ele>112.61157226562</ele>
        <time>2011-11-20T10:14:58Z</time>
      </trkpt>
      <trkpt lat="48.37206" lon="2.54613">
        <ele>111.65026855469</ele>
        <time>2011-11-20T10:15:02Z</time>
      </trkpt>
      <trkpt lat="48.37231" lon="2.5465">
        <ele>107.80505371094</ele>
        <time>2011-11-20T10:15:07Z</time>
      </trkpt>
      <trkpt lat="48.37257" lon="2.54689">
        <ele>104.92102050781</ele>
        <time>2011-11-20T10:15:11Z</time>
      </trkpt>
      <trkpt lat="48.37274" lon="2.54716">
        <ele>102.99829101562</ele>
        <time>2011-11-20T10:15:14Z</time>
      </trkpt>
      <trkpt lat="48.37275" lon="2.54739">
        <ele>104.92102050781</ele>
        <time>2011-11-20T10:15:18Z</time>
      </trkpt>
      <trkpt lat="48.37274" lon="2.54742">
        <ele>105.40173339844</ele>
        <time>2011-11-20T10:15:19Z</time>
      </trkpt>
      <trkpt lat="48.37271" lon="2.54747">
        <ele>106.36303710938</ele>
        <time>2011-11-20T10:15:21Z</time>
      </trkpt>
      <trkpt lat="48.37265" lon="2.54758">
        <ele>108.28564453125</ele>
        <time>2011-11-20T10:15:26Z</time>
      </trkpt>
      <trkpt lat="48.37257" lon="2.5477">
        <ele>110.20825195312</ele>
        <time>2011-11-20T10:15:32Z</time>
      </trkpt>
      <trkpt lat="48.37247" lon="2.54786">
        <ele>112.13098144531</ele>
        <time>2011-11-20T10:15:38Z</time>
      </trkpt>
      <trkpt lat="48.37236" lon="2.54801">
        <ele>112.13098144531</ele>
        <time>2011-11-20T10:15:44Z</time>
      </trkpt>
      <trkpt lat="48.37227" lon="2.54817">
        <ele>112.61157226562</ele>
        <time>2011-11-20T10:15:50Z</time>
      </trkpt>
      <trkpt lat="48.3722" lon="2.54827">
        <ele>113.09228515625</ele>
        <time>2011-11-20T10:15:54Z</time>
      </trkpt>
      <trkpt lat="48.37207" lon="2.54848">
        <ele>113.09228515625</ele>
        <time>2011-11-20T10:16:01Z</time>
      </trkpt>
      <trkpt lat="48.37192" lon="2.54873">
        <ele>113.09228515625</ele>
        <time>2011-11-20T10:16:07Z</time>
      </trkpt>
      <trkpt lat="48.37182" lon="2.54888">
        <ele>114.5341796875</ele>
        <time>2011-11-20T10:16:11Z</time>
      </trkpt>
      <trkpt lat="48.37169" lon="2.5491">
        <ele>115.97619628906</ele>
        <time>2011-11-20T10:16:16Z</time>
      </trkpt>
      <trkpt lat="48.37153" lon="2.54935">
        <ele>116.9375</ele>
        <time>2011-11-20T10:16:22Z</time>
      </trkpt>
      <trkpt lat="48.37137" lon="2.54959">
        <ele>116.9375</ele>
        <time>2011-11-20T10:16:28Z</time>
      </trkpt>
      <trkpt lat="48.37134" lon="2.54963">
        <ele>116.45678710938</ele>
        <time>2011-11-20T10:16:29Z</time>
      </trkpt>
      <trkpt lat="48.37117" lon="2.54989">
        <ele>117.41821289062</ele>
        <time>2011-11-20T10:16:35Z</time>
      </trkpt>
      <trkpt lat="48.37104" lon="2.55013">
        <ele>116.9375</ele>
        <time>2011-11-20T10:16:40Z</time>
      </trkpt>
      <trkpt lat="48.37093" lon="2.55031">
        <ele>116.45678710938</ele>
        <time>2011-11-20T10:16:44Z</time>
      </trkpt>
      <trkpt lat="48.37076" lon="2.55057">
        <ele>115.97619628906</ele>
        <time>2011-11-20T10:16:49Z</time>
      </trkpt>
      <trkpt lat="48.37052" lon="2.55099">
        <ele>113.57299804688</ele>
        <time>2011-11-20T10:16:55Z</time>
      </trkpt>
      <trkpt lat="48.37035" lon="2.55125">
        <ele>113.57299804688</ele>
        <time>2011-11-20T10:16:59Z</time>
      </trkpt>
      <trkpt lat="48.37025" lon="2.55141">
        <ele>114.5341796875</ele>
        <time>2011-11-20T10:17:02Z</time>
      </trkpt>
      <trkpt lat="48.37008" lon="2.55166">
        <ele>116.45678710938</ele>
        <time>2011-11-20T10:17:08Z</time>
      </trkpt>
      <trkpt lat="48.3699" lon="2.55193">
        <ele>117.89880371094</ele>
        <time>2011-11-20T10:17:14Z</time>
      </trkpt>
      <trkpt lat="48.36984" lon="2.55204">
        <ele>117.89880371094</ele>
        <time>2011-11-20T10:17:16Z</time>
      </trkpt>
      <trkpt lat="48.36975" lon="2.55228">
        <ele>118.37939453125</ele>
        <time>2011-11-20T10:17:21Z</time>
      </trkpt>
      <trkpt lat="48.36981" lon="2.5524">
        <ele>117.89880371094</ele>
        <time>2011-11-20T10:17:24Z</time>
      </trkpt>
      <trkpt lat="48.36996" lon="2.55265">
        <ele>117.89880371094</ele>
        <time>2011-11-20T10:17:30Z</time>
      </trkpt>
      <trkpt lat="48.36999" lon="2.55271">
        <ele>117.89880371094</ele>
        <time>2011-11-20T10:17:31Z</time>
      </trkpt>
      <trkpt lat="48.37014" lon="2.55291">
        <ele>117.89880371094</ele>
        <time>2011-11-20T10:17:35Z</time>
      </trkpt>
      <trkpt lat="48.37042" lon="2.55331">
        <ele>117.41821289062</ele>
        <time>2011-11-20T10:17:42Z</time>
      </trkpt>
      <trkpt lat="48.37065" lon="2.55366">
        <ele>117.89880371094</ele>
        <time>2011-11-20T10:17:48Z</time>
      </trkpt>
      <trkpt lat="48.37071" lon="2.55376">
        <ele>117.89880371094</ele>
        <time>2011-11-20T10:17:50Z</time>
      </trkpt>
      <trkpt lat="48.37107" lon="2.55429">
        <ele>117.41821289062</ele>
        <time>2011-11-20T10:17:59Z</time>
      </trkpt>
      <trkpt lat="48.37132" lon="2.55466">
        <ele>116.9375</ele>
        <time>2011-11-20T10:18:05Z</time>
      </trkpt>
      <trkpt lat="48.37144" lon="2.55486">
        <ele>116.45678710938</ele>
        <time>2011-11-20T10:18:08Z</time>
      </trkpt>
      <trkpt lat="48.37153" lon="2.55499">
        <ele>115.49560546875</ele>
        <time>2011-11-20T10:18:10Z</time>
      </trkpt>
      <trkpt lat="48.37172" lon="2.55516">
        <ele>113.09228515625</ele>
        <time>2011-11-20T10:18:14Z</time>
      </trkpt>
      <trkpt lat="48.37183" lon="2.55517">
        <ele>109.24694824219</ele>
        <time>2011-11-20T10:18:16Z</time>
      </trkpt>
      <trkpt lat="48.37189" lon="2.5552">
        <ele>107.80505371094</ele>
        <time>2011-11-20T10:18:17Z</time>
      </trkpt>
      <trkpt lat="48.37206" lon="2.55526">
        <ele>106.84362792969</ele>
        <time>2011-11-20T10:18:21Z</time>
      </trkpt>
      <trkpt lat="48.37213" lon="2.55528">
        <ele>105.40173339844</ele>
        <time>2011-11-20T10:18:23Z</time>
      </trkpt>
      <trkpt lat="48.37226" lon="2.55536">
        <ele>102.99829101562</ele>
        <time>2011-11-20T10:18:27Z</time>
      </trkpt>
      <trkpt lat="48.3723" lon="2.55535">
        <ele>102.99829101562</ele>
        <time>2011-11-20T10:18:28Z</time>
      </trkpt>
      <trkpt lat="48.3724" lon="2.55533">
        <ele>101.55639648438</ele>
        <time>2011-11-20T10:18:31Z</time>
      </trkpt>
      <trkpt lat="48.37246" lon="2.55547">
        <ele>101.07568359375</ele>
        <time>2011-11-20T10:18:34Z</time>
      </trkpt>
      <trkpt lat="48.37241" lon="2.55578">
        <ele>102.037109375</ele>
        <time>2011-11-20T10:18:39Z</time>
      </trkpt>
      <trkpt lat="48.37237" lon="2.55604">
        <ele>103.47900390625</ele>
        <time>2011-11-20T10:18:43Z</time>
      </trkpt>
      <trkpt lat="48.37234" lon="2.55617">
        <ele>103.95971679688</ele>
        <time>2011-11-20T10:18:45Z</time>
      </trkpt>
      <trkpt lat="48.37215" lon="2.55661">
        <ele>104.92102050781</ele>
        <time>2011-11-20T10:18:53Z</time>
      </trkpt>
      <trkpt lat="48.37212" lon="2.55666">
        <ele>105.40173339844</ele>
        <time>2011-11-20T10:18:54Z</time>
      </trkpt>
      <trkpt lat="48.37188" lon="2.55693">
        <ele>105.40173339844</ele>
        <time>2011-11-20T10:19:01Z</time>
      </trkpt>
      <trkpt lat="48.37168" lon="2.55717">
        <ele>106.36303710938</ele>
        <time>2011-11-20T10:19:08Z</time>
      </trkpt>
      <trkpt lat="48.37156" lon="2.55735">
        <ele>108.28564453125</ele>
        <time>2011-11-20T10:19:13Z</time>
      </trkpt>
      <trkpt lat="48.37141" lon="2.55756">
        <ele>109.72766113281</ele>
        <time>2011-11-20T10:19:19Z</time>
      </trkpt>
      <trkpt lat="48.37134" lon="2.55767">
        <ele>110.68884277344</ele>
        <time>2011-11-20T10:19:22Z</time>
      </trkpt>
      <trkpt lat="48.3712" lon="2.55783">
        <ele>111.16955566406</ele>
        <time>2011-11-20T10:19:27Z</time>
      </trkpt>
      <trkpt lat="48.37102" lon="2.55797">
        <ele>111.65026855469</ele>
        <time>2011-11-20T10:19:33Z</time>
      </trkpt>
      <trkpt lat="48.37088" lon="2.55811">
        <ele>112.61157226562</ele>
        <time>2011-11-20T10:19:38Z</time>
      </trkpt>
      <trkpt lat="48.3707" lon="2.5583">
        <ele>112.61157226562</ele>
        <time>2011-11-20T10:19:44Z</time>
      </trkpt>
      <trkpt lat="48.37065" lon="2.55842">
        <ele>112.61157226562</ele>
        <time>2011-11-20T10:19:46Z</time>
      </trkpt>
      <trkpt lat="48.37041" lon="2.55893">
        <ele>112.61157226562</ele>
        <time>2011-11-20T10:19:54Z</time>
      </trkpt>
      <trkpt lat="48.3702" lon="2.5593">
        <ele>112.13098144531</ele>
        <time>2011-11-20T10:20:01Z</time>
      </trkpt>
      <trkpt lat="48.37002" lon="2.55967">
        <ele>114.5341796875</ele>
        <time>2011-11-20T10:20:08Z</time>
      </trkpt>
      <trkpt lat="48.36993" lon="2.56">
        <ele>114.05358886719</ele>
        <time>2011-11-20T10:20:13Z</time>
      </trkpt>
      <trkpt lat="48.36982" lon="2.56069">
        <ele>114.5341796875</ele>
        <time>2011-11-20T10:20:22Z</time>
      </trkpt>
      <trkpt lat="48.36978" lon="2.56089">
        <ele>114.5341796875</ele>
        <time>2011-11-20T10:20:25Z</time>
      </trkpt>
      <trkpt lat="48.36982" lon="2.56115">
        <ele>115.01489257812</ele>
        <time>2011-11-20T10:20:30Z</time>
      </trkpt>
      <trkpt lat="48.36984" lon="2.56119">
        <ele>114.5341796875</ele>
        <time>2011-11-20T10:20:31Z</time>
      </trkpt>
      <trkpt lat="48.36998" lon="2.56135">
        <ele>116.9375</ele>
        <time>2011-11-20T10:20:37Z</time>
      </trkpt>
      <trkpt lat="48.37002" lon="2.56139">
        <ele>117.89880371094</ele>
        <time>2011-11-20T10:20:40Z</time>
      </trkpt>
      <trkpt lat="48.3701" lon="2.56148">
        <ele>117.41821289062</ele>
        <time>2011-11-20T10:20:46Z</time>
      </trkpt>
      <trkpt lat="48.37025" lon="2.56152">
        <ele>117.41821289062</ele>
        <time>2011-11-20T10:20:52Z</time>
      </trkpt>
      <trkpt lat="48.37043" lon="2.56148">
        <ele>118.86010742188</ele>
        <time>2011-11-20T10:20:57Z</time>
      </trkpt>
      <trkpt lat="48.37053" lon="2.56148">
        <ele>118.37939453125</ele>
        <time>2011-11-20T10:21:01Z</time>
      </trkpt>
      <trkpt lat="48.37054" lon="2.56147">
        <ele>118.37939453125</ele>
        <time>2011-11-20T10:21:02Z</time>
      </trkpt>
      <trkpt lat="48.37054" lon="2.5614">
        <ele>118.37939453125</ele>
        <time>2011-11-20T10:21:06Z</time>
      </trkpt>
      <trkpt lat="48.37039" lon="2.56148">
        <ele>118.86010742188</ele>
        <time>2011-11-20T10:21:10Z</time>
      </trkpt>
      <trkpt lat="48.37017" lon="2.56148">
        <ele>118.37939453125</ele>
        <time>2011-11-20T10:21:15Z</time>
      </trkpt>
      <trkpt lat="48.37004" lon="2.56137">
        <ele>117.89880371094</ele>
        <time>2011-11-20T10:21:19Z</time>
      </trkpt>
      <trkpt lat="48.36997" lon="2.5613">
        <ele>116.9375</ele>
        <time>2011-11-20T10:21:21Z</time>
      </trkpt>
      <trkpt lat="48.36983" lon="2.5611">
        <ele>114.5341796875</ele>
        <time>2011-11-20T10:21:24Z</time>
      </trkpt>
      <trkpt lat="48.36974" lon="2.56093">
        <ele>114.05358886719</ele>
        <time>2011-11-20T10:21:28Z</time>
      </trkpt>
      <trkpt lat="48.36969" lon="2.56094">
        <ele>114.05358886719</ele>
        <time>2011-11-20T10:21:31Z</time>
      </trkpt>
      <trkpt lat="48.36956" lon="2.56097">
        <ele>115.49560546875</ele>
        <time>2011-11-20T10:21:35Z</time>
      </trkpt>
      <trkpt lat="48.36937" lon="2.56089">
        <ele>115.97619628906</ele>
        <time>2011-11-20T10:21:41Z</time>
      </trkpt>
      <trkpt lat="48.36919" lon="2.56076">
        <ele>115.49560546875</ele>
        <time>2011-11-20T10:21:46Z</time>
      </trkpt>
      <trkpt lat="48.36915" lon="2.56071">
        <ele>115.49560546875</ele>
        <time>2011-11-20T10:21:47Z</time>
      </trkpt>
      <trkpt lat="48.36905" lon="2.56057">
        <ele>115.49560546875</ele>
        <time>2011-11-20T10:21:50Z</time>
      </trkpt>
      <trkpt lat="48.36889" lon="2.56041">
        <ele>115.49560546875</ele>
        <time>2011-11-20T10:21:54Z</time>
      </trkpt>
      <trkpt lat="48.36876" lon="2.56033">
        <ele>115.97619628906</ele>
        <time>2011-11-20T10:21:57Z</time>
      </trkpt>
      <trkpt lat="48.36861" lon="2.56008">
        <ele>115.97619628906</ele>
        <time>2011-11-20T10:22:02Z</time>
      </trkpt>
      <trkpt lat="48.36863" lon="2.55984">
        <ele>115.97619628906</ele>
        <time>2011-11-20T10:22:06Z</time>
      </trkpt>
      <trkpt lat="48.36864" lon="2.55966">
        <ele>115.97619628906</ele>
        <time>2011-11-20T10:22:09Z</time>
      </trkpt>
      <trkpt lat="48.3686" lon="2.55918">
        <ele>115.97619628906</ele>
        <time>2011-11-20T10:22:16Z</time>
      </trkpt>
      <trkpt lat="48.36862" lon="2.55878">
        <ele>115.49560546875</ele>
        <time>2011-11-20T10:22:22Z</time>
      </trkpt>
      <trkpt lat="48.36863" lon="2.55871">
        <ele>115.49560546875</ele>
        <time>2011-11-20T10:22:23Z</time>
      </trkpt>
      <trkpt lat="48.36869" lon="2.55851">
        <ele>115.97619628906</ele>
        <time>2011-11-20T10:22:27Z</time>
      </trkpt>
      <trkpt lat="48.36862" lon="2.55829">
        <ele>115.97619628906</ele>
        <time>2011-11-20T10:22:31Z</time>
      </trkpt>
      <trkpt lat="48.36843" lon="2.55798">
        <ele>115.49560546875</ele>
        <time>2011-11-20T10:22:36Z</time>
      </trkpt>
      <trkpt lat="48.36819" lon="2.55761">
        <ele>114.5341796875</ele>
        <time>2011-11-20T10:22:42Z</time>
      </trkpt>
      <trkpt lat="48.36795" lon="2.55722">
        <ele>113.57299804688</ele>
        <time>2011-11-20T10:22:48Z</time>
      </trkpt>
      <trkpt lat="48.36763" lon="2.55674">
        <ele>113.57299804688</ele>
        <time>2011-11-20T10:22:55Z</time>
      </trkpt>
      <trkpt lat="48.3674" lon="2.5564">
        <ele>113.09228515625</ele>
        <time>2011-11-20T10:23:00Z</time>
      </trkpt>
      <trkpt lat="48.3672" lon="2.55608">
        <ele>113.57299804688</ele>
        <time>2011-11-20T10:23:05Z</time>
      </trkpt>
      <trkpt lat="48.36709" lon="2.55592">
        <ele>114.05358886719</ele>
        <time>2011-11-20T10:23:08Z</time>
      </trkpt>
      <trkpt lat="48.36693" lon="2.55588">
        <ele>113.09228515625</ele>
        <time>2011-11-20T10:23:12Z</time>
      </trkpt>
      <trkpt lat="48.36687" lon="2.55599">
        <ele>112.61157226562</ele>
        <time>2011-11-20T10:23:14Z</time>
      </trkpt>
      <trkpt lat="48.36683" lon="2.55613">
        <ele>112.61157226562</ele>
        <time>2011-11-20T10:23:16Z</time>
      </trkpt>
      <trkpt lat="48.36664" lon="2.55634">
        <ele>112.13098144531</ele>
        <time>2011-11-20T10:23:20Z</time>
      </trkpt>
      <trkpt lat="48.36659" lon="2.55636">
        <ele>111.65026855469</ele>
        <time>2011-11-20T10:23:21Z</time>
      </trkpt>
      <trkpt lat="48.36629" lon="2.55658">
        <ele>111.16955566406</ele>
        <time>2011-11-20T10:23:27Z</time>
      </trkpt>
      <trkpt lat="48.36604" lon="2.55703">
        <ele>110.68884277344</ele>
        <time>2011-11-20T10:23:33Z</time>
      </trkpt>
      <trkpt lat="48.36577" lon="2.55741">
        <ele>110.20825195312</ele>
        <time>2011-11-20T10:23:39Z</time>
      </trkpt>
      <trkpt lat="48.36557" lon="2.55771">
        <ele>110.68884277344</ele>
        <time>2011-11-20T10:23:44Z</time>
      </trkpt>
      <trkpt lat="48.36538" lon="2.55801">
        <ele>110.20825195312</ele>
        <time>2011-11-20T10:23:49Z</time>
      </trkpt>
      <trkpt lat="48.36516" lon="2.55842">
        <ele>109.24694824219</ele>
        <time>2011-11-20T10:23:55Z</time>
      </trkpt>
      <trkpt lat="48.36501" lon="2.55872">
        <ele>108.76623535156</ele>
        <time>2011-11-20T10:23:59Z</time>
      </trkpt>
      <trkpt lat="48.36477" lon="2.55908">
        <ele>109.72766113281</ele>
        <time>2011-11-20T10:24:05Z</time>
      </trkpt>
      <trkpt lat="48.36459" lon="2.55939">
        <ele>110.20825195312</ele>
        <time>2011-11-20T10:24:11Z</time>
      </trkpt>
      <trkpt lat="48.36455" lon="2.55943">
        <ele>110.68884277344</ele>
        <time>2011-11-20T10:24:12Z</time>
      </trkpt>
      <trkpt lat="48.3644" lon="2.55942">
        <ele>110.68884277344</ele>
        <time>2011-11-20T10:24:16Z</time>
      </trkpt>
      <trkpt lat="48.36436" lon="2.55924">
        <ele>110.68884277344</ele>
        <time>2011-11-20T10:24:19Z</time>
      </trkpt>
      <trkpt lat="48.36439" lon="2.55901">
        <ele>110.20825195312</ele>
        <time>2011-11-20T10:24:22Z</time>
      </trkpt>
      <trkpt lat="48.36445" lon="2.55858">
        <ele>109.24694824219</ele>
        <time>2011-11-20T10:24:27Z</time>
      </trkpt>
      <trkpt lat="48.36446" lon="2.55789">
        <ele>107.80505371094</ele>
        <time>2011-11-20T10:24:34Z</time>
      </trkpt>
      <trkpt lat="48.36446" lon="2.55732">
        <ele>107.80505371094</ele>
        <time>2011-11-20T10:24:41Z</time>
      </trkpt>
      <trkpt lat="48.36444" lon="2.55699">
        <ele>106.84362792969</ele>
        <time>2011-11-20T10:24:45Z</time>
      </trkpt>
      <trkpt lat="48.36432" lon="2.55678">
        <ele>107.80505371094</ele>
        <time>2011-11-20T10:24:49Z</time>
      </trkpt>
      <trkpt lat="48.36413" lon="2.5568">
        <ele>107.80505371094</ele>
        <time>2011-11-20T10:24:53Z</time>
      </trkpt>
      <trkpt lat="48.36398" lon="2.55666">
        <ele>107.80505371094</ele>
        <time>2011-11-20T10:24:57Z</time>
      </trkpt>
      <trkpt lat="48.36391" lon="2.55653">
        <ele>107.32434082031</ele>
        <time>2011-11-20T10:24:59Z</time>
      </trkpt>
      <trkpt lat="48.36385" lon="2.55643">
        <ele>107.80505371094</ele>
        <time>2011-11-20T10:25:01Z</time>
      </trkpt>
      <trkpt lat="48.36377" lon="2.55636">
        <ele>107.80505371094</ele>
        <time>2011-11-20T10:25:03Z</time>
      </trkpt>
      <trkpt lat="48.36352" lon="2.55612">
        <ele>107.80505371094</ele>
        <time>2011-11-20T10:25:09Z</time>
      </trkpt>
      <trkpt lat="48.36333" lon="2.55574">
        <ele>107.80505371094</ele>
        <time>2011-11-20T10:25:15Z</time>
      </trkpt>
      <trkpt lat="48.36329" lon="2.55567">
        <ele>107.80505371094</ele>
        <time>2011-11-20T10:25:16Z</time>
      </trkpt>
      <trkpt lat="48.36311" lon="2.55559">
        <ele>107.32434082031</ele>
        <time>2011-11-20T10:25:20Z</time>
      </trkpt>
      <trkpt lat="48.36306" lon="2.55578">
        <ele>106.84362792969</ele>
        <time>2011-11-20T10:25:23Z</time>
      </trkpt>
      <trkpt lat="48.36308" lon="2.55618">
        <ele>107.32434082031</ele>
        <time>2011-11-20T10:25:28Z</time>
      </trkpt>
      <trkpt lat="48.36305" lon="2.55634">
        <ele>106.84362792969</ele>
        <time>2011-11-20T10:25:30Z</time>
      </trkpt>
      <trkpt lat="48.36298" lon="2.55702">
        <ele>103.47900390625</ele>
        <time>2011-11-20T10:25:37Z</time>
      </trkpt>
      <trkpt lat="48.36294" lon="2.55728">
        <ele>102.51770019531</ele>
        <time>2011-11-20T10:25:39Z</time>
      </trkpt>
      <trkpt lat="48.36285" lon="2.55771">
        <ele>98.672485351562</ele>
        <time>2011-11-20T10:25:42Z</time>
      </trkpt>
      <trkpt lat="48.36271" lon="2.55826">
        <ele>96.269287109375</ele>
        <time>2011-11-20T10:25:46Z</time>
      </trkpt>
      <trkpt lat="48.36269" lon="2.55839">
        <ele>96.269287109375</ele>
        <time>2011-11-20T10:25:47Z</time>
      </trkpt>
      <trkpt lat="48.36248" lon="2.55865">
        <ele>94.346557617188</ele>
        <time>2011-11-20T10:25:51Z</time>
      </trkpt>
      <trkpt lat="48.36222" lon="2.55861">
        <ele>92.904541015625</ele>
        <time>2011-11-20T10:25:56Z</time>
      </trkpt>
      <trkpt lat="48.36222" lon="2.55843">
        <ele>91.943237304688</ele>
        <time>2011-11-20T10:25:58Z</time>
      </trkpt>
      <trkpt lat="48.36218" lon="2.5581">
        <ele>90.501342773438</ele>
        <time>2011-11-20T10:26:02Z</time>
      </trkpt>
      <trkpt lat="48.36215" lon="2.55802">
        <ele>90.501342773438</ele>
        <time>2011-11-20T10:26:03Z</time>
      </trkpt>
      <trkpt lat="48.36205" lon="2.55789">
        <ele>90.020629882812</ele>
        <time>2011-11-20T10:26:05Z</time>
      </trkpt>
      <trkpt lat="48.36185" lon="2.55752">
        <ele>88.578735351562</ele>
        <time>2011-11-20T10:26:10Z</time>
      </trkpt>
      <trkpt lat="48.36191" lon="2.55724">
        <ele>88.098022460938</ele>
        <time>2011-11-20T10:26:13Z</time>
      </trkpt>
      <trkpt lat="48.36196" lon="2.55686">
        <ele>88.098022460938</ele>
        <time>2011-11-20T10:26:17Z</time>
      </trkpt>
      <trkpt lat="48.3619" lon="2.55653">
        <ele>86.656005859375</ele>
        <time>2011-11-20T10:26:21Z</time>
      </trkpt>
      <trkpt lat="48.36182" lon="2.55638">
        <ele>86.656005859375</ele>
        <time>2011-11-20T10:26:23Z</time>
      </trkpt>
      <trkpt lat="48.3616" lon="2.55595">
        <ele>86.17529296875</ele>
        <time>2011-11-20T10:26:29Z</time>
      </trkpt>
      <trkpt lat="48.36144" lon="2.55564">
        <ele>86.17529296875</ele>
        <time>2011-11-20T10:26:34Z</time>
      </trkpt>
      <trkpt lat="48.36138" lon="2.55537">
        <ele>86.17529296875</ele>
        <time>2011-11-20T10:26:37Z</time>
      </trkpt>
      <trkpt lat="48.36137" lon="2.55527">
        <ele>86.17529296875</ele>
        <time>2011-11-20T10:26:38Z</time>
      </trkpt>
      <trkpt lat="48.36137" lon="2.55489">
        <ele>84.7333984375</ele>
        <time>2011-11-20T10:26:42Z</time>
      </trkpt>
      <trkpt lat="48.36146" lon="2.55456">
        <ele>84.7333984375</ele>
        <time>2011-11-20T10:26:46Z</time>
      </trkpt>
      <trkpt lat="48.36153" lon="2.55424">
        <ele>85.213989257812</ele>
        <time>2011-11-20T10:26:50Z</time>
      </trkpt>
      <trkpt lat="48.36155" lon="2.55388">
        <ele>83.291381835938</ele>
        <time>2011-11-20T10:26:54Z</time>
      </trkpt>
      <trkpt lat="48.36161" lon="2.55353">
        <ele>82.330078125</ele>
        <time>2011-11-20T10:26:58Z</time>
      </trkpt>
      <trkpt lat="48.36162" lon="2.55302">
        <ele>81.368774414062</ele>
        <time>2011-11-20T10:27:04Z</time>
      </trkpt>
      <trkpt lat="48.36163" lon="2.55257">
        <ele>81.368774414062</ele>
        <time>2011-11-20T10:27:09Z</time>
      </trkpt>
      <trkpt lat="48.36157" lon="2.55227">
        <ele>80.88818359375</ele>
        <time>2011-11-20T10:27:13Z</time>
      </trkpt>
      <trkpt lat="48.36143" lon="2.55216">
        <ele>80.407470703125</ele>
        <time>2011-11-20T10:27:16Z</time>
      </trkpt>
      <trkpt lat="48.36132" lon="2.55205">
        <ele>78.965454101562</ele>
        <time>2011-11-20T10:27:18Z</time>
      </trkpt>
      <trkpt lat="48.36122" lon="2.55193">
        <ele>78.484741210938</ele>
        <time>2011-11-20T10:27:20Z</time>
      </trkpt>
      <trkpt lat="48.36104" lon="2.55187">
        <ele>78.004028320312</ele>
        <time>2011-11-20T10:27:23Z</time>
      </trkpt>
      <trkpt lat="48.36089" lon="2.55176">
        <ele>77.042846679688</ele>
        <time>2011-11-20T10:27:26Z</time>
      </trkpt>
      <trkpt lat="48.36071" lon="2.55148">
        <ele>77.5234375</ele>
        <time>2011-11-20T10:27:30Z</time>
      </trkpt>
      <trkpt lat="48.3606" lon="2.55115">
        <ele>77.5234375</ele>
        <time>2011-11-20T10:27:34Z</time>
      </trkpt>
      <trkpt lat="48.36058" lon="2.55107">
        <ele>77.5234375</ele>
        <time>2011-11-20T10:27:35Z</time>
      </trkpt>
      <trkpt lat="48.36046" lon="2.55057">
        <ele>76.562133789062</ele>
        <time>2011-11-20T10:27:41Z</time>
      </trkpt>
      <trkpt lat="48.3604" lon="2.55032">
        <ele>77.042846679688</ele>
        <time>2011-11-20T10:27:44Z</time>
      </trkpt>
      <trkpt lat="48.36038" lon="2.55002">
        <ele>76.562133789062</ele>
        <time>2011-11-20T10:27:48Z</time>
      </trkpt>
      <trkpt lat="48.36032" lon="2.54961">
        <ele>74.639526367188</ele>
        <time>2011-11-20T10:27:53Z</time>
      </trkpt>
      <trkpt lat="48.36032" lon="2.54952">
        <ele>74.158813476562</ele>
        <time>2011-11-20T10:27:54Z</time>
      </trkpt>
      <trkpt lat="48.36032" lon="2.54925">
        <ele>74.158813476562</ele>
        <time>2011-11-20T10:27:57Z</time>
      </trkpt>
      <trkpt lat="48.36023" lon="2.5489">
        <ele>73.67822265625</ele>
        <time>2011-11-20T10:28:01Z</time>
      </trkpt>
      <trkpt lat="48.36" lon="2.54852">
        <ele>73.197631835938</ele>
        <time>2011-11-20T10:28:07Z</time>
      </trkpt>
      <trkpt lat="48.35979" lon="2.54827">
        <ele>72.716918945312</ele>
        <time>2011-11-20T10:28:12Z</time>
      </trkpt>
      <trkpt lat="48.35975" lon="2.54822">
        <ele>72.716918945312</ele>
        <time>2011-11-20T10:28:13Z</time>
      </trkpt>
      <trkpt lat="48.35956" lon="2.54791">
        <ele>72.236206054688</ele>
        <time>2011-11-20T10:28:18Z</time>
      </trkpt>
      <trkpt lat="48.35949" lon="2.54779">
        <ele>72.236206054688</ele>
        <time>2011-11-20T10:28:20Z</time>
      </trkpt>
      <trkpt lat="48.35959" lon="2.54776">
        <ele>71.755493164062</ele>
        <time>2011-11-20T10:28:24Z</time>
      </trkpt>
      <trkpt lat="48.35981" lon="2.54787">
        <ele>73.67822265625</ele>
        <time>2011-11-20T10:28:30Z</time>
      </trkpt>
      <trkpt lat="48.35986" lon="2.54788">
        <ele>73.197631835938</ele>
        <time>2011-11-20T10:28:31Z</time>
      </trkpt>
      <trkpt lat="48.36011" lon="2.54801">
        <ele>74.639526367188</ele>
        <time>2011-11-20T10:28:38Z</time>
      </trkpt>
      <trkpt lat="48.36034" lon="2.54809">
        <ele>75.600830078125</ele>
        <time>2011-11-20T10:28:44Z</time>
      </trkpt>
      <trkpt lat="48.36049" lon="2.54812">
        <ele>75.600830078125</ele>
        <time>2011-11-20T10:28:49Z</time>
      </trkpt>
      <trkpt lat="48.36065" lon="2.54814">
        <ele>75.600830078125</ele>
        <time>2011-11-20T10:28:54Z</time>
      </trkpt>
      <trkpt lat="48.36073" lon="2.54795">
        <ele>77.042846679688</ele>
        <time>2011-11-20T10:29:00Z</time>
      </trkpt>
      <trkpt lat="48.36076" lon="2.54779">
        <ele>78.004028320312</ele>
        <time>2011-11-20T10:29:05Z</time>
      </trkpt>
      <trkpt lat="48.36082" lon="2.54759">
        <ele>79.926635742188</ele>
        <time>2011-11-20T10:29:12Z</time>
      </trkpt>
      <trkpt lat="48.36088" lon="2.54746">
        <ele>80.407470703125</ele>
        <time>2011-11-20T10:29:18Z</time>
      </trkpt>
      <trkpt lat="48.36094" lon="2.54734">
        <ele>80.88818359375</ele>
        <time>2011-11-20T10:29:23Z</time>
      </trkpt>
      <trkpt lat="48.36103" lon="2.54721">
        <ele>81.849365234375</ele>
        <time>2011-11-20T10:29:29Z</time>
      </trkpt>
      <trkpt lat="48.36112" lon="2.54704">
        <ele>83.77197265625</ele>
        <time>2011-11-20T10:29:36Z</time>
      </trkpt>
      <trkpt lat="48.36115" lon="2.54692">
        <ele>84.7333984375</ele>
        <time>2011-11-20T10:29:40Z</time>
      </trkpt>
      <trkpt lat="48.36121" lon="2.54679">
        <ele>84.252685546875</ele>
        <time>2011-11-20T10:29:45Z</time>
      </trkpt>
      <trkpt lat="48.36123" lon="2.5467">
        <ele>85.694580078125</ele>
        <time>2011-11-20T10:29:48Z</time>
      </trkpt>
      <trkpt lat="48.36131" lon="2.54654">
        <ele>85.694580078125</ele>
        <time>2011-11-20T10:29:55Z</time>
      </trkpt>
      <trkpt lat="48.36139" lon="2.54643">
        <ele>87.136596679688</ele>
        <time>2011-11-20T10:30:01Z</time>
      </trkpt>
      <trkpt lat="48.36149" lon="2.54629">
        <ele>89.059326171875</ele>
        <time>2011-11-20T10:30:08Z</time>
      </trkpt>
      <trkpt lat="48.36156" lon="2.54623">
        <ele>90.020629882812</ele>
        <time>2011-11-20T10:30:12Z</time>
      </trkpt>
      <trkpt lat="48.36162" lon="2.54621">
        <ele>90.501342773438</ele>
        <time>2011-11-20T10:30:15Z</time>
      </trkpt>
      <trkpt lat="48.36172" lon="2.54609">
        <ele>91.462524414062</ele>
        <time>2011-11-20T10:30:23Z</time>
      </trkpt>
      <trkpt lat="48.36174" lon="2.54604">
        <ele>91.462524414062</ele>
        <time>2011-11-20T10:30:26Z</time>
      </trkpt>
      <trkpt lat="48.36176" lon="2.54594">
        <ele>92.423950195312</ele>
        <time>2011-11-20T10:30:31Z</time>
      </trkpt>
      <trkpt lat="48.36178" lon="2.54584">
        <ele>93.865844726562</ele>
        <time>2011-11-20T10:30:35Z</time>
      </trkpt>
      <trkpt lat="48.36181" lon="2.54571">
        <ele>95.788452148438</ele>
        <time>2011-11-20T10:30:42Z</time>
      </trkpt>
      <trkpt lat="48.36184" lon="2.5457">
        <ele>95.788452148438</ele>
        <time>2011-11-20T10:30:44Z</time>
      </trkpt>
      <trkpt lat="48.36189" lon="2.54561">
        <ele>97.23046875</ele>
        <time>2011-11-20T10:30:51Z</time>
      </trkpt>
      <trkpt lat="48.3619" lon="2.5456">
        <ele>96.749877929688</ele>
        <time>2011-11-20T10:30:52Z</time>
      </trkpt>
      <trkpt lat="48.36195" lon="2.54557">
        <ele>97.23046875</ele>
        <time>2011-11-20T10:30:58Z</time>
      </trkpt>
      <trkpt lat="48.36197" lon="2.54554">
        <ele>97.23046875</ele>
        <time>2011-11-20T10:31:05Z</time>
      </trkpt>
      <trkpt lat="48.36198" lon="2.5455">
        <ele>98.19189453125</ele>
        <time>2011-11-20T10:31:12Z</time>
      </trkpt>
      <trkpt lat="48.36199" lon="2.54557">
        <ele>98.672485351562</ele>
        <time>2011-11-20T10:31:30Z</time>
      </trkpt>
      <trkpt lat="48.36187" lon="2.54571">
        <ele>99.153076171875</ele>
        <time>2011-11-20T10:32:07Z</time>
      </trkpt>
      <trkpt lat="48.36191" lon="2.54564">
        <ele>99.6337890625</ele>
        <time>2011-11-20T10:32:12Z</time>
      </trkpt>
      <trkpt lat="48.36196" lon="2.54556">
        <ele>100.11450195312</ele>
        <time>2011-11-20T10:32:21Z</time>
      </trkpt>
      <trkpt lat="48.36198" lon="2.54551">
        <ele>99.6337890625</ele>
        <time>2011-11-20T10:32:27Z</time>
      </trkpt>
      <trkpt lat="48.36199" lon="2.54547">
        <ele>100.59509277344</ele>
        <time>2011-11-20T10:32:33Z</time>
      </trkpt>
      <trkpt lat="48.36201" lon="2.54549">
        <ele>102.037109375</ele>
        <time>2011-11-20T10:32:39Z</time>
      </trkpt>
      <trkpt lat="48.36205" lon="2.54549">
        <ele>103.95971679688</ele>
        <time>2011-11-20T10:32:48Z</time>
      </trkpt>
      <trkpt lat="48.36208" lon="2.54543">
        <ele>105.40173339844</ele>
        <time>2011-11-20T10:32:56Z</time>
      </trkpt>
      <trkpt lat="48.36213" lon="2.54537">
        <ele>105.88244628906</ele>
        <time>2011-11-20T10:33:03Z</time>
      </trkpt>
      <trkpt lat="48.36216" lon="2.54538">
        <ele>106.36303710938</ele>
        <time>2011-11-20T10:33:08Z</time>
      </trkpt>
      <trkpt lat="48.36219" lon="2.54537">
        <ele>106.84362792969</ele>
        <time>2011-11-20T10:33:11Z</time>
      </trkpt>
      <trkpt lat="48.36229" lon="2.54533">
        <ele>106.36303710938</ele>
        <time>2011-11-20T10:33:18Z</time>
      </trkpt>
      <trkpt lat="48.3623" lon="2.54525">
        <ele>107.32434082031</ele>
        <time>2011-11-20T10:33:22Z</time>
      </trkpt>
      <trkpt lat="48.36229" lon="2.54517">
        <ele>108.28564453125</ele>
        <time>2011-11-20T10:33:26Z</time>
      </trkpt>
      <trkpt lat="48.36232" lon="2.54506">
        <ele>108.76623535156</ele>
        <time>2011-11-20T10:33:31Z</time>
      </trkpt>
      <trkpt lat="48.36238" lon="2.54491">
        <ele>109.24694824219</ele>
        <time>2011-11-20T10:33:39Z</time>
      </trkpt>
      <trkpt lat="48.36246" lon="2.54482">
        <ele>109.72766113281</ele>
        <time>2011-11-20T10:33:44Z</time>
      </trkpt>
      <trkpt lat="48.36255" lon="2.54468">
        <ele>110.20825195312</ele>
        <time>2011-11-20T10:33:50Z</time>
      </trkpt>
      <trkpt lat="48.36255" lon="2.54454">
        <ele>110.20825195312</ele>
        <time>2011-11-20T10:33:54Z</time>
      </trkpt>
      <trkpt lat="48.36257" lon="2.54423">
        <ele>110.68884277344</ele>
        <time>2011-11-20T10:34:01Z</time>
      </trkpt>
      <trkpt lat="48.36259" lon="2.54394">
        <ele>111.16955566406</ele>
        <time>2011-11-20T10:34:06Z</time>
      </trkpt>
      <trkpt lat="48.36261" lon="2.54374">
        <ele>110.68884277344</ele>
        <time>2011-11-20T10:34:09Z</time>
      </trkpt>
      <trkpt lat="48.36263" lon="2.54325">
        <ele>111.65026855469</ele>
        <time>2011-11-20T10:34:16Z</time>
      </trkpt>
      <trkpt lat="48.36258" lon="2.54277">
        <ele>111.65026855469</ele>
        <time>2011-11-20T10:34:23Z</time>
      </trkpt>
      <trkpt lat="48.36257" lon="2.5424">
        <ele>112.13098144531</ele>
        <time>2011-11-20T10:34:29Z</time>
      </trkpt>
      <trkpt lat="48.36259" lon="2.54207">
        <ele>112.13098144531</ele>
        <time>2011-11-20T10:34:34Z</time>
      </trkpt>
      <trkpt lat="48.36264" lon="2.5416">
        <ele>112.13098144531</ele>
        <time>2011-11-20T10:34:41Z</time>
      </trkpt>
      <trkpt lat="48.36271" lon="2.54105">
        <ele>111.65026855469</ele>
        <time>2011-11-20T10:34:49Z</time>
      </trkpt>
      <trkpt lat="48.36274" lon="2.54059">
        <ele>111.65026855469</ele>
        <time>2011-11-20T10:34:55Z</time>
      </trkpt>
      <trkpt lat="48.36282" lon="2.54013">
        <ele>111.65026855469</ele>
        <time>2011-11-20T10:35:02Z</time>
      </trkpt>
      <trkpt lat="48.36288" lon="2.53995">
        <ele>111.65026855469</ele>
        <time>2011-11-20T10:35:05Z</time>
      </trkpt>
      <trkpt lat="48.36304" lon="2.53967">
        <ele>111.16955566406</ele>
        <time>2011-11-20T10:35:10Z</time>
      </trkpt>
      <trkpt lat="48.3631" lon="2.53955">
        <ele>110.68884277344</ele>
        <time>2011-11-20T10:35:12Z</time>
      </trkpt>
      <trkpt lat="48.36317" lon="2.53943">
        <ele>110.20825195312</ele>
        <time>2011-11-20T10:35:14Z</time>
      </trkpt>
      <trkpt lat="48.36336" lon="2.53934">
        <ele>110.20825195312</ele>
        <time>2011-11-20T10:35:18Z</time>
      </trkpt>
      <trkpt lat="48.36352" lon="2.53926">
        <ele>109.24694824219</ele>
        <time>2011-11-20T10:35:21Z</time>
      </trkpt>
      <trkpt lat="48.36361" lon="2.53919">
        <ele>110.20825195312</ele>
        <time>2011-11-20T10:35:23Z</time>
      </trkpt>
      <trkpt lat="48.36384" lon="2.53915">
        <ele>110.20825195312</ele>
        <time>2011-11-20T10:35:28Z</time>
      </trkpt>
      <trkpt lat="48.36398" lon="2.53926">
        <ele>109.24694824219</ele>
        <time>2011-11-20T10:35:31Z</time>
      </trkpt>
      <trkpt lat="48.3641" lon="2.53959">
        <ele>109.72766113281</ele>
        <time>2011-11-20T10:35:36Z</time>
      </trkpt>
      <trkpt lat="48.36411" lon="2.54006">
        <ele>111.16955566406</ele>
        <time>2011-11-20T10:35:43Z</time>
      </trkpt>
      <trkpt lat="48.36415" lon="2.54071">
        <ele>113.09228515625</ele>
        <time>2011-11-20T10:35:53Z</time>
      </trkpt>
      <trkpt lat="48.36416" lon="2.54078">
        <ele>113.09228515625</ele>
        <time>2011-11-20T10:35:54Z</time>
      </trkpt>
      <trkpt lat="48.36428" lon="2.54139">
        <ele>113.57299804688</ele>
        <time>2011-11-20T10:36:04Z</time>
      </trkpt>
      <trkpt lat="48.36442" lon="2.54191">
        <ele>114.05358886719</ele>
        <time>2011-11-20T10:36:12Z</time>
      </trkpt>
      <trkpt lat="48.36459" lon="2.54215">
        <ele>114.05358886719</ele>
        <time>2011-11-20T10:36:17Z</time>
      </trkpt>
      <trkpt lat="48.36474" lon="2.54217">
        <ele>114.05358886719</ele>
        <time>2011-11-20T10:36:20Z</time>
      </trkpt>
      <trkpt lat="48.36485" lon="2.54217">
        <ele>114.5341796875</ele>
        <time>2011-11-20T10:36:22Z</time>
      </trkpt>
      <trkpt lat="48.36501" lon="2.54231">
        <ele>114.5341796875</ele>
        <time>2011-11-20T10:36:26Z</time>
      </trkpt>
      <trkpt lat="48.36504" lon="2.54245">
        <ele>114.05358886719</ele>
        <time>2011-11-20T10:36:28Z</time>
      </trkpt>
      <trkpt lat="48.3651" lon="2.54301">
        <ele>115.01489257812</ele>
        <time>2011-11-20T10:36:36Z</time>
      </trkpt>
      <trkpt lat="48.3651" lon="2.54352">
        <ele>115.49560546875</ele>
        <time>2011-11-20T10:36:43Z</time>
      </trkpt>
      <trkpt lat="48.36522" lon="2.54354">
        <ele>115.01489257812</ele>
        <time>2011-11-20T10:36:47Z</time>
      </trkpt>
      <trkpt lat="48.36529" lon="2.54346">
        <ele>115.01489257812</ele>
        <time>2011-11-20T10:36:49Z</time>
      </trkpt>
      <trkpt lat="48.36536" lon="2.54338">
        <ele>115.49560546875</ele>
        <time>2011-11-20T10:36:51Z</time>
      </trkpt>
      <trkpt lat="48.3656" lon="2.5432">
        <ele>115.49560546875</ele>
        <time>2011-11-20T10:36:56Z</time>
      </trkpt>
      <trkpt lat="48.36575" lon="2.543">
        <ele>115.01489257812</ele>
        <time>2011-11-20T10:37:00Z</time>
      </trkpt>
      <trkpt lat="48.36582" lon="2.5429">
        <ele>115.01489257812</ele>
        <time>2011-11-20T10:37:02Z</time>
      </trkpt>
      <trkpt lat="48.36596" lon="2.54257">
        <ele>113.57299804688</ele>
        <time>2011-11-20T10:37:07Z</time>
      </trkpt>
      <trkpt lat="48.366" lon="2.54245">
        <ele>112.61157226562</ele>
        <time>2011-11-20T10:37:09Z</time>
      </trkpt>
      <trkpt lat="48.36605" lon="2.54229">
        <ele>112.61157226562</ele>
        <time>2011-11-20T10:37:11Z</time>
      </trkpt>
      <trkpt lat="48.36613" lon="2.54203">
        <ele>112.13098144531</ele>
        <time>2011-11-20T10:37:15Z</time>
      </trkpt>
      <trkpt lat="48.36618" lon="2.54192">
        <ele>111.16955566406</ele>
        <time>2011-11-20T10:37:17Z</time>
      </trkpt>
      <trkpt lat="48.3661" lon="2.54162">
        <ele>110.20825195312</ele>
        <time>2011-11-20T10:37:23Z</time>
      </trkpt>
      <trkpt lat="48.36608" lon="2.54142">
        <ele>109.72766113281</ele>
        <time>2011-11-20T10:37:27Z</time>
      </trkpt>
      <trkpt lat="48.36605" lon="2.54133">
        <ele>109.72766113281</ele>
        <time>2011-11-20T10:37:29Z</time>
      </trkpt>
      <trkpt lat="48.36596" lon="2.54115">
        <ele>109.24694824219</ele>
        <time>2011-11-20T10:37:34Z</time>
      </trkpt>
      <trkpt lat="48.36593" lon="2.54108">
        <ele>108.28564453125</ele>
        <time>2011-11-20T10:37:40Z</time>
      </trkpt>
      <trkpt lat="48.36594" lon="2.54107">
        <ele>108.76623535156</ele>
        <time>2011-11-20T10:37:46Z</time>
      </trkpt>
      <trkpt lat="48.36595" lon="2.541">
        <ele>104.92102050781</ele>
        <time>2011-11-20T10:37:49Z</time>
      </trkpt>
      <trkpt lat="48.36599" lon="2.54073">
        <ele>101.55639648438</ele>
        <time>2011-11-20T10:37:53Z</time>
      </trkpt>
      <trkpt lat="48.36601" lon="2.54064">
        <ele>101.07568359375</ele>
        <time>2011-11-20T10:37:54Z</time>
      </trkpt>
      <trkpt lat="48.36603" lon="2.54038">
        <ele>98.672485351562</ele>
        <time>2011-11-20T10:37:57Z</time>
      </trkpt>
      <trkpt lat="48.36604" lon="2.5402">
        <ele>97.711181640625</ele>
        <time>2011-11-20T10:37:59Z</time>
      </trkpt>
      <trkpt lat="48.36611" lon="2.53978">
        <ele>95.788452148438</ele>
        <time>2011-11-20T10:38:03Z</time>
      </trkpt>
      <trkpt lat="48.36613" lon="2.53968">
        <ele>94.8271484375</ele>
        <time>2011-11-20T10:38:04Z</time>
      </trkpt>
      <trkpt lat="48.3662" lon="2.53948">
        <ele>93.865844726562</ele>
        <time>2011-11-20T10:38:06Z</time>
      </trkpt>
      <trkpt lat="48.36628" lon="2.53932">
        <ele>93.865844726562</ele>
        <time>2011-11-20T10:38:08Z</time>
      </trkpt>
      <trkpt lat="48.36639" lon="2.53891">
        <ele>91.462524414062</ele>
        <time>2011-11-20T10:38:13Z</time>
      </trkpt>
      <trkpt lat="48.36638" lon="2.53866">
        <ele>90.98193359375</ele>
        <time>2011-11-20T10:38:17Z</time>
      </trkpt>
      <trkpt lat="48.36632" lon="2.53841">
        <ele>90.501342773438</ele>
        <time>2011-11-20T10:38:20Z</time>
      </trkpt>
      <trkpt lat="48.36622" lon="2.53814">
        <ele>90.98193359375</ele>
        <time>2011-11-20T10:38:23Z</time>
      </trkpt>
      <trkpt lat="48.3661" lon="2.53789">
        <ele>90.020629882812</ele>
        <time>2011-11-20T10:38:26Z</time>
      </trkpt>
      <trkpt lat="48.36599" lon="2.53744">
        <ele>89.539916992188</ele>
        <time>2011-11-20T10:38:31Z</time>
      </trkpt>
      <trkpt lat="48.36596" lon="2.53735">
        <ele>89.059326171875</ele>
        <time>2011-11-20T10:38:32Z</time>
      </trkpt>
      <trkpt lat="48.36593" lon="2.53705">
        <ele>88.578735351562</ele>
        <time>2011-11-20T10:38:35Z</time>
      </trkpt>
      <trkpt lat="48.36583" lon="2.53674">
        <ele>88.098022460938</ele>
        <time>2011-11-20T10:38:39Z</time>
      </trkpt>
      <trkpt lat="48.36558" lon="2.53636">
        <ele>88.578735351562</ele>
        <time>2011-11-20T10:38:45Z</time>
      </trkpt>
      <trkpt lat="48.36549" lon="2.53624">
        <ele>88.098022460938</ele>
        <time>2011-11-20T10:38:47Z</time>
      </trkpt>
      <trkpt lat="48.36536" lon="2.53619">
        <ele>88.578735351562</ele>
        <time>2011-11-20T10:38:50Z</time>
      </trkpt>
      <trkpt lat="48.36518" lon="2.53624">
        <ele>88.578735351562</ele>
        <time>2011-11-20T10:38:54Z</time>
      </trkpt>
      <trkpt lat="48.36514" lon="2.53622">
        <ele>88.098022460938</ele>
        <time>2011-11-20T10:38:55Z</time>
      </trkpt>
      <trkpt lat="48.36505" lon="2.53616">
        <ele>87.6171875</ele>
        <time>2011-11-20T10:38:57Z</time>
      </trkpt>
      <trkpt lat="48.36487" lon="2.53616">
        <ele>88.578735351562</ele>
        <time>2011-11-20T10:39:01Z</time>
      </trkpt>
      <trkpt lat="48.36469" lon="2.53631">
        <ele>89.539916992188</ele>
        <time>2011-11-20T10:39:06Z</time>
      </trkpt>
      <trkpt lat="48.3645" lon="2.53636">
        <ele>88.098022460938</ele>
        <time>2011-11-20T10:39:10Z</time>
      </trkpt>
      <trkpt lat="48.36422" lon="2.53648">
        <ele>87.136596679688</ele>
        <time>2011-11-20T10:39:15Z</time>
      </trkpt>
      <trkpt lat="48.36406" lon="2.53659">
        <ele>86.17529296875</ele>
        <time>2011-11-20T10:39:18Z</time>
      </trkpt>
      <trkpt lat="48.36385" lon="2.53653">
        <ele>84.7333984375</ele>
        <time>2011-11-20T10:39:22Z</time>
      </trkpt>
      <trkpt lat="48.3638" lon="2.53648">
        <ele>84.252685546875</ele>
        <time>2011-11-20T10:39:23Z</time>
      </trkpt>
      <trkpt lat="48.36368" lon="2.53631">
        <ele>83.291381835938</ele>
        <time>2011-11-20T10:39:26Z</time>
      </trkpt>
      <trkpt lat="48.36354" lon="2.53612">
        <ele>82.810791015625</ele>
        <time>2011-11-20T10:39:30Z</time>
      </trkpt>
      <trkpt lat="48.36337" lon="2.53587">
        <ele>81.849365234375</ele>
        <time>2011-11-20T10:39:35Z</time>
      </trkpt>
      <trkpt lat="48.36332" lon="2.53573">
        <ele>82.330078125</ele>
        <time>2011-11-20T10:39:37Z</time>
      </trkpt>
      <trkpt lat="48.36325" lon="2.53551">
        <ele>82.330078125</ele>
        <time>2011-11-20T10:39:40Z</time>
      </trkpt>
      <trkpt lat="48.3632" lon="2.53511">
        <ele>81.368774414062</ele>
        <time>2011-11-20T10:39:44Z</time>
      </trkpt>
      <trkpt lat="48.36321" lon="2.53471">
        <ele>81.368774414062</ele>
        <time>2011-11-20T10:39:48Z</time>
      </trkpt>
      <trkpt lat="48.36324" lon="2.53442">
        <ele>80.88818359375</ele>
        <time>2011-11-20T10:39:51Z</time>
      </trkpt>
      <trkpt lat="48.36337" lon="2.53409">
        <ele>79.926635742188</ele>
        <time>2011-11-20T10:39:55Z</time>
      </trkpt>
      <trkpt lat="48.36343" lon="2.53391">
        <ele>78.965454101562</ele>
        <time>2011-11-20T10:39:57Z</time>
      </trkpt>
      <trkpt lat="48.36354" lon="2.53355">
        <ele>78.965454101562</ele>
        <time>2011-11-20T10:40:01Z</time>
      </trkpt>
      <trkpt lat="48.36362" lon="2.53338">
        <ele>78.484741210938</ele>
        <time>2011-11-20T10:40:03Z</time>
      </trkpt>
      <trkpt lat="48.36374" lon="2.53295">
        <ele>76.562133789062</ele>
        <time>2011-11-20T10:40:07Z</time>
      </trkpt>
      <trkpt lat="48.36383" lon="2.53259">
        <ele>72.716918945312</ele>
        <time>2011-11-20T10:40:10Z</time>
      </trkpt>
      <trkpt lat="48.36378" lon="2.53207">
        <ele>70.3134765625</ele>
        <time>2011-11-20T10:40:14Z</time>
      </trkpt>
      <trkpt lat="48.36367" lon="2.5316">
        <ele>68.87158203125</ele>
        <time>2011-11-20T10:40:18Z</time>
      </trkpt>
      <trkpt lat="48.36361" lon="2.53121">
        <ele>69.352294921875</ele>
        <time>2011-11-20T10:40:22Z</time>
      </trkpt>
      <trkpt lat="48.36348" lon="2.53092">
        <ele>68.87158203125</ele>
        <time>2011-11-20T10:40:26Z</time>
      </trkpt>
      <trkpt lat="48.36335" lon="2.53072">
        <ele>68.390869140625</ele>
        <time>2011-11-20T10:40:29Z</time>
      </trkpt>
      <trkpt lat="48.36315" lon="2.53026">
        <ele>67.910278320312</ele>
        <time>2011-11-20T10:40:35Z</time>
      </trkpt>
      <trkpt lat="48.36293" lon="2.52978">
        <ele>67.4296875</ele>
        <time>2011-11-20T10:40:41Z</time>
      </trkpt>
      <trkpt lat="48.36285" lon="2.52964">
        <ele>67.910278320312</ele>
        <time>2011-11-20T10:40:43Z</time>
      </trkpt>
      <trkpt lat="48.36261" lon="2.5291">
        <ele>67.4296875</ele>
        <time>2011-11-20T10:40:50Z</time>
      </trkpt>
      <trkpt lat="48.36244" lon="2.52861">
        <ele>67.4296875</ele>
        <time>2011-11-20T10:40:56Z</time>
      </trkpt>
      <trkpt lat="48.36242" lon="2.52852">
        <ele>66.948974609375</ele>
        <time>2011-11-20T10:40:57Z</time>
      </trkpt>
      <trkpt lat="48.36242" lon="2.52808">
        <ele>67.4296875</ele>
        <time>2011-11-20T10:41:02Z</time>
      </trkpt>
      <trkpt lat="48.36256" lon="2.528">
        <ele>66.948974609375</ele>
        <time>2011-11-20T10:41:05Z</time>
      </trkpt>
      <trkpt lat="48.36268" lon="2.52798">
        <ele>66.948974609375</ele>
        <time>2011-11-20T10:41:07Z</time>
      </trkpt>
      <trkpt lat="48.36292" lon="2.52786">
        <ele>67.4296875</ele>
        <time>2011-11-20T10:41:11Z</time>
      </trkpt>
      <trkpt lat="48.36316" lon="2.52775">
        <ele>66.46826171875</ele>
        <time>2011-11-20T10:41:15Z</time>
      </trkpt>
      <trkpt lat="48.36331" lon="2.52764">
        <ele>67.4296875</ele>
        <time>2011-11-20T10:41:18Z</time>
      </trkpt>
      <trkpt lat="48.36349" lon="2.52754">
        <ele>67.4296875</ele>
        <time>2011-11-20T10:41:21Z</time>
      </trkpt>
      <trkpt lat="48.36376" lon="2.5273">
        <ele>66.948974609375</ele>
        <time>2011-11-20T10:41:27Z</time>
      </trkpt>
      <trkpt lat="48.36389" lon="2.52733">
        <ele>66.46826171875</ele>
        <time>2011-11-20T10:41:31Z</time>
      </trkpt>
      <trkpt lat="48.36399" lon="2.52726">
        <ele>66.46826171875</ele>
        <time>2011-11-20T10:41:34Z</time>
      </trkpt>
      <trkpt lat="48.36406" lon="2.52721">
        <ele>67.4296875</ele>
        <time>2011-11-20T10:41:36Z</time>
      </trkpt>
      <trkpt lat="48.36423" lon="2.52714">
        <ele>67.910278320312</ele>
        <time>2011-11-20T10:41:40Z</time>
      </trkpt>
      <trkpt lat="48.36446" lon="2.52714">
        <ele>67.910278320312</ele>
        <time>2011-11-20T10:41:45Z</time>
      </trkpt>
      <trkpt lat="48.36457" lon="2.52715">
        <ele>67.4296875</ele>
        <time>2011-11-20T10:41:47Z</time>
      </trkpt>
      <trkpt lat="48.36467" lon="2.52715">
        <ele>68.390869140625</ele>
        <time>2011-11-20T10:41:49Z</time>
      </trkpt>
      <trkpt lat="48.36494" lon="2.52702">
        <ele>68.87158203125</ele>
        <time>2011-11-20T10:41:55Z</time>
      </trkpt>
      <trkpt lat="48.36533" lon="2.52682">
        <ele>68.87158203125</ele>
        <time>2011-11-20T10:42:03Z</time>
      </trkpt>
      <trkpt lat="48.36538" lon="2.52681">
        <ele>68.87158203125</ele>
        <time>2011-11-20T10:42:04Z</time>
      </trkpt>
      <trkpt lat="48.3657" lon="2.52678">
        <ele>67.910278320312</ele>
        <time>2011-11-20T10:42:10Z</time>
      </trkpt>
      <trkpt lat="48.36586" lon="2.52674">
        <ele>68.390869140625</ele>
        <time>2011-11-20T10:42:13Z</time>
      </trkpt>
      <trkpt lat="48.36596" lon="2.52668">
        <ele>67.910278320312</ele>
        <time>2011-11-20T10:42:15Z</time>
      </trkpt>
      <trkpt lat="48.3662" lon="2.52653">
        <ele>67.910278320312</ele>
        <time>2011-11-20T10:42:21Z</time>
      </trkpt>
      <trkpt lat="48.36656" lon="2.52648">
        <ele>67.4296875</ele>
        <time>2011-11-20T10:42:28Z</time>
      </trkpt>
      <trkpt lat="48.36671" lon="2.52649">
        <ele>67.4296875</ele>
        <time>2011-11-20T10:42:31Z</time>
      </trkpt>
      <trkpt lat="48.36712" lon="2.52656">
        <ele>67.910278320312</ele>
        <time>2011-11-20T10:42:40Z</time>
      </trkpt>
      <trkpt lat="48.36717" lon="2.52656">
        <ele>67.4296875</ele>
        <time>2011-11-20T10:42:41Z</time>
      </trkpt>
      <trkpt lat="48.36737" lon="2.52651">
        <ele>67.910278320312</ele>
        <time>2011-11-20T10:42:46Z</time>
      </trkpt>
      <trkpt lat="48.36758" lon="2.52629">
        <ele>67.4296875</ele>
        <time>2011-11-20T10:42:52Z</time>
      </trkpt>
      <trkpt lat="48.36774" lon="2.5261">
        <ele>67.910278320312</ele>
        <time>2011-11-20T10:42:57Z</time>
      </trkpt>
      <trkpt lat="48.36794" lon="2.52585">
        <ele>68.87158203125</ele>
        <time>2011-11-20T10:43:04Z</time>
      </trkpt>
      <trkpt lat="48.36812" lon="2.52555">
        <ele>70.794189453125</ele>
        <time>2011-11-20T10:43:12Z</time>
      </trkpt>
      <trkpt lat="48.36825" lon="2.52542">
        <ele>71.27490234375</ele>
        <time>2011-11-20T10:43:16Z</time>
      </trkpt>
      <trkpt lat="48.36836" lon="2.52531">
        <ele>70.3134765625</ele>
        <time>2011-11-20T10:43:19Z</time>
      </trkpt>
      <trkpt lat="48.36857" lon="2.52502">
        <ele>68.390869140625</ele>
        <time>2011-11-20T10:43:24Z</time>
      </trkpt>
      <trkpt lat="48.36869" lon="2.52481">
        <ele>67.910278320312</ele>
        <time>2011-11-20T10:43:27Z</time>
      </trkpt>
      <trkpt lat="48.36887" lon="2.52433">
        <ele>67.4296875</ele>
        <time>2011-11-20T10:43:33Z</time>
      </trkpt>
      <trkpt lat="48.36889" lon="2.52425">
        <ele>67.4296875</ele>
        <time>2011-11-20T10:43:34Z</time>
      </trkpt>
      <trkpt lat="48.36903" lon="2.52398">
        <ele>67.4296875</ele>
        <time>2011-11-20T10:43:38Z</time>
      </trkpt>
      <trkpt lat="48.36915" lon="2.52381">
        <ele>66.948974609375</ele>
        <time>2011-11-20T10:43:41Z</time>
      </trkpt>
      <trkpt lat="48.36933" lon="2.52352">
        <ele>66.948974609375</ele>
        <time>2011-11-20T10:43:46Z</time>
      </trkpt>
      <trkpt lat="48.36955" lon="2.52331">
        <ele>66.948974609375</ele>
        <time>2011-11-20T10:43:51Z</time>
      </trkpt>
      <trkpt lat="48.3696" lon="2.52328">
        <ele>66.948974609375</ele>
        <time>2011-11-20T10:43:52Z</time>
      </trkpt>
      <trkpt lat="48.3699" lon="2.52309">
        <ele>66.46826171875</ele>
        <time>2011-11-20T10:43:58Z</time>
      </trkpt>
      <trkpt lat="48.37021" lon="2.52285">
        <ele>66.948974609375</ele>
        <time>2011-11-20T10:44:05Z</time>
      </trkpt>
      <trkpt lat="48.3705" lon="2.52268">
        <ele>66.948974609375</ele>
        <time>2011-11-20T10:44:11Z</time>
      </trkpt>
      <trkpt lat="48.37082" lon="2.52245">
        <ele>66.948974609375</ele>
        <time>2011-11-20T10:44:18Z</time>
      </trkpt>
      <trkpt lat="48.37114" lon="2.52219">
        <ele>66.948974609375</ele>
        <time>2011-11-20T10:44:25Z</time>
      </trkpt>
      <trkpt lat="48.3714" lon="2.52204">
        <ele>66.948974609375</ele>
        <time>2011-11-20T10:44:30Z</time>
      </trkpt>
      <trkpt lat="48.37156" lon="2.52194">
        <ele>66.46826171875</ele>
        <time>2011-11-20T10:44:34Z</time>
      </trkpt>
      <trkpt lat="48.37175" lon="2.52173">
        <ele>66.948974609375</ele>
        <time>2011-11-20T10:44:39Z</time>
      </trkpt>
      <trkpt lat="48.37183" lon="2.52185">
        <ele>66.46826171875</ele>
        <time>2011-11-20T10:44:43Z</time>
      </trkpt>
      <trkpt lat="48.3718" lon="2.52234">
        <ele>66.46826171875</ele>
        <time>2011-11-20T10:44:50Z</time>
      </trkpt>
      <trkpt lat="48.37179" lon="2.52249">
        <ele>66.46826171875</ele>
        <time>2011-11-20T10:44:52Z</time>
      </trkpt>
      <trkpt lat="48.37186" lon="2.52292">
        <ele>66.948974609375</ele>
        <time>2011-11-20T10:44:58Z</time>
      </trkpt>
      <trkpt lat="48.37194" lon="2.52321">
        <ele>66.46826171875</ele>
        <time>2011-11-20T10:45:03Z</time>
      </trkpt>
      <trkpt lat="48.37209" lon="2.52368">
        <ele>66.46826171875</ele>
        <time>2011-11-20T10:45:10Z</time>
      </trkpt>
      <trkpt lat="48.37214" lon="2.52381">
        <ele>66.46826171875</ele>
        <time>2011-11-20T10:45:12Z</time>
      </trkpt>
      <trkpt lat="48.37231" lon="2.52424">
        <ele>66.948974609375</ele>
        <time>2011-11-20T10:45:19Z</time>
      </trkpt>
      <trkpt lat="48.3724" lon="2.52447">
        <ele>66.948974609375</ele>
        <time>2011-11-20T10:45:23Z</time>
      </trkpt>
      <trkpt lat="48.37244" lon="2.52472">
        <ele>66.948974609375</ele>
        <time>2011-11-20T10:45:27Z</time>
      </trkpt>
      <trkpt lat="48.37236" lon="2.52486">
        <ele>67.910278320312</ele>
        <time>2011-11-20T10:45:30Z</time>
      </trkpt>
      <trkpt lat="48.37232" lon="2.52489">
        <ele>65.507080078125</ele>
        <time>2011-11-20T10:45:31Z</time>
      </trkpt>
      <trkpt lat="48.37202" lon="2.52508">
        <ele>66.948974609375</ele>
        <time>2011-11-20T10:45:38Z</time>
      </trkpt>
      <trkpt lat="48.37187" lon="2.5252">
        <ele>66.948974609375</ele>
        <time>2011-11-20T10:45:42Z</time>
      </trkpt>
      <trkpt lat="48.37154" lon="2.52543">
        <ele>67.4296875</ele>
        <time>2011-11-20T10:45:50Z</time>
      </trkpt>
      <trkpt lat="48.3713" lon="2.52561">
        <ele>67.910278320312</ele>
        <time>2011-11-20T10:45:56Z</time>
      </trkpt>
      <trkpt lat="48.37117" lon="2.52592">
        <ele>67.910278320312</ele>
        <time>2011-11-20T10:46:01Z</time>
      </trkpt>
      <trkpt lat="48.37117" lon="2.52599">
        <ele>67.4296875</ele>
        <time>2011-11-20T10:46:02Z</time>
      </trkpt>
      <trkpt lat="48.37129" lon="2.52649">
        <ele>68.390869140625</ele>
        <time>2011-11-20T10:46:10Z</time>
      </trkpt>
      <trkpt lat="48.37138" lon="2.52679">
        <ele>68.390869140625</ele>
        <time>2011-11-20T10:46:15Z</time>
      </trkpt>
      <trkpt lat="48.37143" lon="2.52697">
        <ele>68.390869140625</ele>
        <time>2011-11-20T10:46:18Z</time>
      </trkpt>
      <trkpt lat="48.37147" lon="2.52715">
        <ele>68.390869140625</ele>
        <time>2011-11-20T10:46:21Z</time>
      </trkpt>
      <trkpt lat="48.37146" lon="2.52742">
        <ele>68.390869140625</ele>
        <time>2011-11-20T10:46:25Z</time>
      </trkpt>
      <trkpt lat="48.37145" lon="2.52763">
        <ele>67.910278320312</ele>
        <time>2011-11-20T10:46:28Z</time>
      </trkpt>
      <trkpt lat="48.37143" lon="2.52776">
        <ele>68.390869140625</ele>
        <time>2011-11-20T10:46:30Z</time>
      </trkpt>
      <trkpt lat="48.37138" lon="2.52801">
        <ele>68.390869140625</ele>
        <time>2011-11-20T10:46:34Z</time>
      </trkpt>
      <trkpt lat="48.37137" lon="2.52827">
        <ele>68.390869140625</ele>
        <time>2011-11-20T10:46:38Z</time>
      </trkpt>
      <trkpt lat="48.37137" lon="2.52873">
        <ele>68.390869140625</ele>
        <time>2011-11-20T10:46:45Z</time>
      </trkpt>
      <trkpt lat="48.37141" lon="2.52921">
        <ele>68.87158203125</ele>
        <time>2011-11-20T10:46:52Z</time>
      </trkpt>
      <trkpt lat="48.37148" lon="2.52948">
        <ele>68.390869140625</ele>
        <time>2011-11-20T10:46:57Z</time>
      </trkpt>
      <trkpt lat="48.37154" lon="2.52957">
        <ele>68.390869140625</ele>
        <time>2011-11-20T10:46:59Z</time>
      </trkpt>
      <trkpt lat="48.37167" lon="2.52983">
        <ele>68.87158203125</ele>
        <time>2011-11-20T10:47:04Z</time>
      </trkpt>
      <trkpt lat="48.37182" lon="2.5302">
        <ele>68.390869140625</ele>
        <time>2011-11-20T10:47:10Z</time>
      </trkpt>
      <trkpt lat="48.37198" lon="2.53038">
        <ele>68.390869140625</ele>
        <time>2011-11-20T10:47:15Z</time>
      </trkpt>
      <trkpt lat="48.37217" lon="2.53046">
        <ele>68.87158203125</ele>
        <time>2011-11-20T10:47:20Z</time>
      </trkpt>
      <trkpt lat="48.37224" lon="2.53052">
        <ele>68.87158203125</ele>
        <time>2011-11-20T10:47:22Z</time>
      </trkpt>
      <trkpt lat="48.37236" lon="2.5307">
        <ele>68.87158203125</ele>
        <time>2011-11-20T10:47:26Z</time>
      </trkpt>
      <trkpt lat="48.37246" lon="2.53099">
        <ele>69.352294921875</ele>
        <time>2011-11-20T10:47:31Z</time>
      </trkpt>
      <trkpt lat="48.37254" lon="2.5313">
        <ele>69.352294921875</ele>
        <time>2011-11-20T10:47:36Z</time>
      </trkpt>
      <trkpt lat="48.37258" lon="2.5315">
        <ele>69.832885742188</ele>
        <time>2011-11-20T10:47:39Z</time>
      </trkpt>
      <trkpt lat="48.37265" lon="2.53193">
        <ele>70.3134765625</ele>
        <time>2011-11-20T10:47:46Z</time>
      </trkpt>
      <trkpt lat="48.37267" lon="2.532">
        <ele>69.832885742188</ele>
        <time>2011-11-20T10:47:47Z</time>
      </trkpt>
      <trkpt lat="48.37273" lon="2.53226">
        <ele>69.352294921875</ele>
        <time>2011-11-20T10:47:52Z</time>
      </trkpt>
      <trkpt lat="48.37285" lon="2.53224">
        <ele>70.3134765625</ele>
        <time>2011-11-20T10:47:55Z</time>
      </trkpt>
      <trkpt lat="48.37309" lon="2.53212">
        <ele>69.832885742188</ele>
        <time>2011-11-20T10:48:01Z</time>
      </trkpt>
      <trkpt lat="48.37342" lon="2.53194">
        <ele>70.3134765625</ele>
        <time>2011-11-20T10:48:09Z</time>
      </trkpt>
      <trkpt lat="48.37364" lon="2.53185">
        <ele>71.27490234375</ele>
        <time>2011-11-20T10:48:14Z</time>
      </trkpt>
      <trkpt lat="48.37387" lon="2.53181">
        <ele>71.27490234375</ele>
        <time>2011-11-20T10:48:20Z</time>
      </trkpt>
      <trkpt lat="48.37402" lon="2.53175">
        <ele>71.755493164062</ele>
        <time>2011-11-20T10:48:24Z</time>
      </trkpt>
      <trkpt lat="48.37413" lon="2.53158">
        <ele>71.755493164062</ele>
        <time>2011-11-20T10:48:29Z</time>
      </trkpt>
      <trkpt lat="48.37432" lon="2.53146">
        <ele>71.27490234375</ele>
        <time>2011-11-20T10:48:35Z</time>
      </trkpt>
      <trkpt lat="48.37453" lon="2.53134">
        <ele>71.27490234375</ele>
        <time>2011-11-20T10:48:42Z</time>
      </trkpt>
      <trkpt lat="48.37467" lon="2.53126">
        <ele>72.236206054688</ele>
        <time>2011-11-20T10:48:47Z</time>
      </trkpt>
      <trkpt lat="48.37477" lon="2.5312">
        <ele>72.236206054688</ele>
        <time>2011-11-20T10:48:51Z</time>
      </trkpt>
      <trkpt lat="48.3749" lon="2.53114">
        <ele>71.755493164062</ele>
        <time>2011-11-20T10:48:55Z</time>
      </trkpt>
      <trkpt lat="48.37503" lon="2.53106">
        <ele>71.27490234375</ele>
        <time>2011-11-20T10:48:59Z</time>
      </trkpt>
      <trkpt lat="48.37516" lon="2.53099">
        <ele>71.27490234375</ele>
        <time>2011-11-20T10:49:03Z</time>
      </trkpt>
      <trkpt lat="48.37527" lon="2.53094">
        <ele>70.794189453125</ele>
        <time>2011-11-20T10:49:06Z</time>
      </trkpt>
      <trkpt lat="48.37545" lon="2.53083">
        <ele>71.27490234375</ele>
        <time>2011-11-20T10:49:11Z</time>
      </trkpt>
      <trkpt lat="48.37552" lon="2.53079">
        <ele>71.755493164062</ele>
        <time>2011-11-20T10:49:13Z</time>
      </trkpt>
      <trkpt lat="48.37574" lon="2.53065">
        <ele>72.716918945312</ele>
        <time>2011-11-20T10:49:19Z</time>
      </trkpt>
      <trkpt lat="48.37596" lon="2.53054">
        <ele>73.197631835938</ele>
        <time>2011-11-20T10:49:25Z</time>
      </trkpt>
      <trkpt lat="48.37618" lon="2.53043">
        <ele>72.716918945312</ele>
        <time>2011-11-20T10:49:31Z</time>
      </trkpt>
      <trkpt lat="48.37633" lon="2.53035">
        <ele>72.716918945312</ele>
        <time>2011-11-20T10:49:35Z</time>
      </trkpt>
      <trkpt lat="48.37636" lon="2.53032">
        <ele>73.197631835938</ele>
        <time>2011-11-20T10:49:36Z</time>
      </trkpt>
      <trkpt lat="48.37658" lon="2.53022">
        <ele>72.716918945312</ele>
        <time>2011-11-20T10:49:42Z</time>
      </trkpt>
      <trkpt lat="48.37661" lon="2.53019">
        <ele>72.716918945312</ele>
        <time>2011-11-20T10:49:43Z</time>
      </trkpt>
      <trkpt lat="48.37678" lon="2.53013">
        <ele>72.236206054688</ele>
        <time>2011-11-20T10:49:47Z</time>
      </trkpt>
      <trkpt lat="48.37688" lon="2.53002">
        <ele>71.755493164062</ele>
        <time>2011-11-20T10:49:50Z</time>
      </trkpt>
      <trkpt lat="48.37701" lon="2.52994">
        <ele>71.27490234375</ele>
        <time>2011-11-20T10:49:53Z</time>
      </trkpt>
      <trkpt lat="48.37722" lon="2.52988">
        <ele>70.794189453125</ele>
        <time>2011-11-20T10:49:58Z</time>
      </trkpt>
      <trkpt lat="48.37726" lon="2.52992">
        <ele>71.27490234375</ele>
        <time>2011-11-20T10:49:59Z</time>
      </trkpt>
      <trkpt lat="48.37741" lon="2.53014">
        <ele>72.716918945312</ele>
        <time>2011-11-20T10:50:04Z</time>
      </trkpt>
      <trkpt lat="48.37762" lon="2.53028">
        <ele>72.236206054688</ele>
        <time>2011-11-20T10:50:10Z</time>
      </trkpt>
      <trkpt lat="48.3777" lon="2.5303">
        <ele>73.197631835938</ele>
        <time>2011-11-20T10:50:12Z</time>
      </trkpt>
      <trkpt lat="48.37803" lon="2.53039">
        <ele>71.755493164062</ele>
        <time>2011-11-20T10:50:19Z</time>
      </trkpt>
      <trkpt lat="48.37824" lon="2.53053">
        <ele>71.755493164062</ele>
        <time>2011-11-20T10:50:24Z</time>
      </trkpt>
      <trkpt lat="48.37843" lon="2.53071">
        <ele>71.27490234375</ele>
        <time>2011-11-20T10:50:29Z</time>
      </trkpt>
      <trkpt lat="48.37852" lon="2.53062">
        <ele>70.3134765625</ele>
        <time>2011-11-20T10:50:33Z</time>
      </trkpt>
      <trkpt lat="48.37854" lon="2.53039">
        <ele>69.832885742188</ele>
        <time>2011-11-20T10:50:37Z</time>
      </trkpt>
      <trkpt lat="48.37854" lon="2.53004">
        <ele>68.87158203125</ele>
        <time>2011-11-20T10:50:42Z</time>
      </trkpt>
      <trkpt lat="48.37856" lon="2.52966">
        <ele>67.910278320312</ele>
        <time>2011-11-20T10:50:47Z</time>
      </trkpt>
      <trkpt lat="48.37862" lon="2.5291">
        <ele>67.910278320312</ele>
        <time>2011-11-20T10:50:55Z</time>
      </trkpt>
      <trkpt lat="48.37867" lon="2.52849">
        <ele>67.4296875</ele>
        <time>2011-11-20T10:51:04Z</time>
      </trkpt>
      <trkpt lat="48.37866" lon="2.52842">
        <ele>67.910278320312</ele>
        <time>2011-11-20T10:51:05Z</time>
      </trkpt>
      <trkpt lat="48.37857" lon="2.52812">
        <ele>68.390869140625</ele>
        <time>2011-11-20T10:51:11Z</time>
      </trkpt>
      <trkpt lat="48.37849" lon="2.52788">
        <ele>68.87158203125</ele>
        <time>2011-11-20T10:51:16Z</time>
      </trkpt>
      <trkpt lat="48.37848" lon="2.5276">
        <ele>69.352294921875</ele>
        <time>2011-11-20T10:51:21Z</time>
      </trkpt>
      <trkpt lat="48.37844" lon="2.52732">
        <ele>70.3134765625</ele>
        <time>2011-11-20T10:51:27Z</time>
      </trkpt>
      <trkpt lat="48.37839" lon="2.52708">
        <ele>70.3134765625</ele>
        <time>2011-11-20T10:51:32Z</time>
      </trkpt>
      <trkpt lat="48.37836" lon="2.52675">
        <ele>71.755493164062</ele>
        <time>2011-11-20T10:51:39Z</time>
      </trkpt>
      <trkpt lat="48.37836" lon="2.52671">
        <ele>72.236206054688</ele>
        <time>2011-11-20T10:51:40Z</time>
      </trkpt>
      <trkpt lat="48.3784" lon="2.52652">
        <ele>72.236206054688</ele>
        <time>2011-11-20T10:51:45Z</time>
      </trkpt>
      <trkpt lat="48.37843" lon="2.52634">
        <ele>72.236206054688</ele>
        <time>2011-11-20T10:51:50Z</time>
      </trkpt>
      <trkpt lat="48.37856" lon="2.52626">
        <ele>73.197631835938</ele>
        <time>2011-11-20T10:51:56Z</time>
      </trkpt>
      <trkpt lat="48.37865" lon="2.52612">
        <ele>73.67822265625</ele>
        <time>2011-11-20T10:52:03Z</time>
      </trkpt>
      <trkpt lat="48.37878" lon="2.52603">
        <ele>76.081420898438</ele>
        <time>2011-11-20T10:52:10Z</time>
      </trkpt>
      <trkpt lat="48.37881" lon="2.52601">
        <ele>77.042846679688</ele>
        <time>2011-11-20T10:52:12Z</time>
      </trkpt>
      <trkpt lat="48.37888" lon="2.52601">
        <ele>77.042846679688</ele>
        <time>2011-11-20T10:52:16Z</time>
      </trkpt>
      <trkpt lat="48.37897" lon="2.52594">
        <ele>78.004028320312</ele>
        <time>2011-11-20T10:52:23Z</time>
      </trkpt>
      <trkpt lat="48.37905" lon="2.52587">
        <ele>79.926635742188</ele>
        <time>2011-11-20T10:52:29Z</time>
      </trkpt>
      <trkpt lat="48.37916" lon="2.52577">
        <ele>79.926635742188</ele>
        <time>2011-11-20T10:52:35Z</time>
      </trkpt>
      <trkpt lat="48.37923" lon="2.52566">
        <ele>80.88818359375</ele>
        <time>2011-11-20T10:52:40Z</time>
      </trkpt>
      <trkpt lat="48.37924" lon="2.52565">
        <ele>80.407470703125</ele>
        <time>2011-11-20T10:52:41Z</time>
      </trkpt>
      <trkpt lat="48.37935" lon="2.52553">
        <ele>80.407470703125</ele>
        <time>2011-11-20T10:52:47Z</time>
      </trkpt>
      <trkpt lat="48.37943" lon="2.52527">
        <ele>78.484741210938</ele>
        <time>2011-11-20T10:52:52Z</time>
      </trkpt>
      <trkpt lat="48.37946" lon="2.52522">
        <ele>78.484741210938</ele>
        <time>2011-11-20T10:52:53Z</time>
      </trkpt>
      <trkpt lat="48.37965" lon="2.52496">
        <ele>76.562133789062</ele>
        <time>2011-11-20T10:52:59Z</time>
      </trkpt>
      <trkpt lat="48.37968" lon="2.52491">
        <ele>75.600830078125</ele>
        <time>2011-11-20T10:53:00Z</time>
      </trkpt>
      <trkpt lat="48.37976" lon="2.52485">
        <ele>74.639526367188</ele>
        <time>2011-11-20T10:53:02Z</time>
      </trkpt>
      <trkpt lat="48.37984" lon="2.52476">
        <ele>73.197631835938</ele>
        <time>2011-11-20T10:53:04Z</time>
      </trkpt>
      <trkpt lat="48.38007" lon="2.5244">
        <ele>70.794189453125</ele>
        <time>2011-11-20T10:53:09Z</time>
      </trkpt>
      <trkpt lat="48.38033" lon="2.5241">
        <ele>67.910278320312</ele>
        <time>2011-11-20T10:53:14Z</time>
      </trkpt>
      <trkpt lat="48.38068" lon="2.52389">
        <ele>67.4296875</ele>
        <time>2011-11-20T10:53:21Z</time>
      </trkpt>
      <trkpt lat="48.38095" lon="2.52375">
        <ele>66.948974609375</ele>
        <time>2011-11-20T10:53:27Z</time>
      </trkpt>
      <trkpt lat="48.38108" lon="2.52367">
        <ele>66.948974609375</ele>
        <time>2011-11-20T10:53:30Z</time>
      </trkpt>
      <trkpt lat="48.38131" lon="2.52364">
        <ele>66.948974609375</ele>
        <time>2011-11-20T10:53:35Z</time>
      </trkpt>
      <trkpt lat="48.38144" lon="2.52364">
        <ele>67.4296875</ele>
        <time>2011-11-20T10:53:38Z</time>
      </trkpt>
      <trkpt lat="48.38164" lon="2.52354">
        <ele>66.948974609375</ele>
        <time>2011-11-20T10:53:43Z</time>
      </trkpt>
      <trkpt lat="48.38168" lon="2.52355">
        <ele>67.4296875</ele>
        <time>2011-11-20T10:53:44Z</time>
      </trkpt>
      <trkpt lat="48.38187" lon="2.5236">
        <ele>67.4296875</ele>
        <time>2011-11-20T10:53:49Z</time>
      </trkpt>
      <trkpt lat="48.38221" lon="2.52358">
        <ele>66.948974609375</ele>
        <time>2011-11-20T10:53:57Z</time>
      </trkpt>
      <trkpt lat="48.3825" lon="2.52369">
        <ele>67.4296875</ele>
        <time>2011-11-20T10:54:04Z</time>
      </trkpt>
      <trkpt lat="48.38261" lon="2.52372">
        <ele>66.948974609375</ele>
        <time>2011-11-20T10:54:07Z</time>
      </trkpt>
      <trkpt lat="48.38287" lon="2.5239">
        <ele>67.4296875</ele>
        <time>2011-11-20T10:54:13Z</time>
      </trkpt>
      <trkpt lat="48.38315" lon="2.5241">
        <ele>67.4296875</ele>
        <time>2011-11-20T10:54:19Z</time>
      </trkpt>
      <trkpt lat="48.38366" lon="2.52442">
        <ele>68.390869140625</ele>
        <time>2011-11-20T10:54:29Z</time>
      </trkpt>
      <trkpt lat="48.38411" lon="2.52465">
        <ele>68.390869140625</ele>
        <time>2011-11-20T10:54:38Z</time>
      </trkpt>
      <trkpt lat="48.38448" lon="2.52471">
        <ele>69.352294921875</ele>
        <time>2011-11-20T10:54:46Z</time>
      </trkpt>
      <trkpt lat="48.38462" lon="2.52472">
        <ele>69.832885742188</ele>
        <time>2011-11-20T10:54:49Z</time>
      </trkpt>
      <trkpt lat="48.38503" lon="2.52463">
        <ele>69.352294921875</ele>
        <time>2011-11-20T10:54:57Z</time>
      </trkpt>
      <trkpt lat="48.38537" lon="2.52456">
        <ele>69.352294921875</ele>
        <time>2011-11-20T10:55:03Z</time>
      </trkpt>
      <trkpt lat="48.38557" lon="2.52453">
        <ele>69.832885742188</ele>
        <time>2011-11-20T10:55:07Z</time>
      </trkpt>
      <trkpt lat="48.38575" lon="2.52453">
        <ele>70.794189453125</ele>
        <time>2011-11-20T10:55:11Z</time>
      </trkpt>
      <trkpt lat="48.38609" lon="2.52438">
        <ele>71.27490234375</ele>
        <time>2011-11-20T10:55:19Z</time>
      </trkpt>
      <trkpt lat="48.38637" lon="2.52423">
        <ele>72.236206054688</ele>
        <time>2011-11-20T10:55:26Z</time>
      </trkpt>
      <trkpt lat="48.38641" lon="2.5242">
        <ele>72.236206054688</ele>
        <time>2011-11-20T10:55:27Z</time>
      </trkpt>
      <trkpt lat="48.38658" lon="2.52398">
        <ele>72.236206054688</ele>
        <time>2011-11-20T10:55:32Z</time>
      </trkpt>
      <trkpt lat="48.38673" lon="2.52359">
        <ele>72.236206054688</ele>
        <time>2011-11-20T10:55:38Z</time>
      </trkpt>
      <trkpt lat="48.38682" lon="2.52332">
        <ele>71.755493164062</ele>
        <time>2011-11-20T10:55:42Z</time>
      </trkpt>
      <trkpt lat="48.38699" lon="2.52291">
        <ele>71.27490234375</ele>
        <time>2011-11-20T10:55:48Z</time>
      </trkpt>
      <trkpt lat="48.38704" lon="2.52276">
        <ele>71.755493164062</ele>
        <time>2011-11-20T10:55:50Z</time>
      </trkpt>
      <trkpt lat="48.3871" lon="2.52228">
        <ele>71.27490234375</ele>
        <time>2011-11-20T10:55:56Z</time>
      </trkpt>
      <trkpt lat="48.38713" lon="2.52185">
        <ele>70.3134765625</ele>
        <time>2011-11-20T10:56:01Z</time>
      </trkpt>
      <trkpt lat="48.38717" lon="2.52144">
        <ele>70.794189453125</ele>
        <time>2011-11-20T10:56:07Z</time>
      </trkpt>
      <trkpt lat="48.38721" lon="2.52124">
        <ele>70.3134765625</ele>
        <time>2011-11-20T10:56:11Z</time>
      </trkpt>
      <trkpt lat="48.38724" lon="2.52117">
        <ele>71.27490234375</ele>
        <time>2011-11-20T10:56:12Z</time>
      </trkpt>
      <trkpt lat="48.38736" lon="2.52082">
        <ele>71.27490234375</ele>
        <time>2011-11-20T10:56:17Z</time>
      </trkpt>
      <trkpt lat="48.38747" lon="2.5205">
        <ele>71.27490234375</ele>
        <time>2011-11-20T10:56:23Z</time>
      </trkpt>
      <trkpt lat="48.38752" lon="2.52036">
        <ele>70.794189453125</ele>
        <time>2011-11-20T10:56:28Z</time>
      </trkpt>
      <trkpt lat="48.38755" lon="2.52019">
        <ele>70.794189453125</ele>
        <time>2011-11-20T10:56:33Z</time>
      </trkpt>
      <trkpt lat="48.38772" lon="2.51984">
        <ele>70.3134765625</ele>
        <time>2011-11-20T10:56:38Z</time>
      </trkpt>
      <trkpt lat="48.38774" lon="2.51977">
        <ele>70.3134765625</ele>
        <time>2011-11-20T10:56:39Z</time>
      </trkpt>
      <trkpt lat="48.3878" lon="2.51953">
        <ele>69.832885742188</ele>
        <time>2011-11-20T10:56:43Z</time>
      </trkpt>
      <trkpt lat="48.38779" lon="2.51948">
        <ele>69.832885742188</ele>
        <time>2011-11-20T10:56:47Z</time>
      </trkpt>
      <trkpt lat="48.38783" lon="2.51945">
        <ele>69.352294921875</ele>
        <time>2011-11-20T10:57:06Z</time>
      </trkpt>
      <trkpt lat="48.38781" lon="2.51945">
        <ele>68.87158203125</ele>
        <time>2011-11-20T10:57:09Z</time>
      </trkpt>
      <trkpt lat="48.38776" lon="2.51953">
        <ele>70.3134765625</ele>
        <time>2011-11-20T10:57:15Z</time>
      </trkpt>
      <trkpt lat="48.38779" lon="2.51957">
        <ele>69.352294921875</ele>
        <time>2011-11-20T11:02:11Z</time>
      </trkpt>
      <trkpt lat="48.38778" lon="2.51957">
        <ele>69.352294921875</ele>
        <time>2011-11-20T11:02:12Z</time>
      </trkpt>
      <trkpt lat="48.38779" lon="2.51956">
        <ele>69.352294921875</ele>
        <time>2011-11-20T11:02:14Z</time>
      </trkpt>
      <trkpt lat="48.38784" lon="2.51937">
        <ele>68.87158203125</ele>
        <time>2011-11-20T11:02:20Z</time>
      </trkpt>
      <trkpt lat="48.3879" lon="2.51922">
        <ele>69.352294921875</ele>
        <time>2011-11-20T11:02:23Z</time>
      </trkpt>
      <trkpt lat="48.38797" lon="2.51898">
        <ele>68.87158203125</ele>
        <time>2011-11-20T11:02:27Z</time>
      </trkpt>
      <trkpt lat="48.38802" lon="2.51885">
        <ele>68.390869140625</ele>
        <time>2011-11-20T11:02:29Z</time>
      </trkpt>
      <trkpt lat="48.38809" lon="2.51849">
        <ele>68.390869140625</ele>
        <time>2011-11-20T11:02:34Z</time>
      </trkpt>
      <trkpt lat="48.38815" lon="2.51793">
        <ele>68.390869140625</ele>
        <time>2011-11-20T11:02:41Z</time>
      </trkpt>
      <trkpt lat="48.38818" lon="2.51743">
        <ele>68.390869140625</ele>
        <time>2011-11-20T11:02:47Z</time>
      </trkpt>
      <trkpt lat="48.38821" lon="2.51691">
        <ele>67.910278320312</ele>
        <time>2011-11-20T11:02:53Z</time>
      </trkpt>
      <trkpt lat="48.38822" lon="2.51656">
        <ele>67.4296875</ele>
        <time>2011-11-20T11:02:57Z</time>
      </trkpt>
      <trkpt lat="48.38823" lon="2.51617">
        <ele>67.910278320312</ele>
        <time>2011-11-20T11:03:02Z</time>
      </trkpt>
      <trkpt lat="48.38831" lon="2.51605">
        <ele>67.910278320312</ele>
        <time>2011-11-20T11:03:06Z</time>
      </trkpt>
      <trkpt lat="48.38837" lon="2.51609">
        <ele>68.390869140625</ele>
        <time>2011-11-20T11:03:08Z</time>
      </trkpt>
      <trkpt lat="48.38842" lon="2.51619">
        <ele>67.910278320312</ele>
        <time>2011-11-20T11:03:10Z</time>
      </trkpt>
      <trkpt lat="48.38867" lon="2.51665">
        <ele>68.390869140625</ele>
        <time>2011-11-20T11:03:18Z</time>
      </trkpt>
      <trkpt lat="48.38889" lon="2.51706">
        <ele>68.390869140625</ele>
        <time>2011-11-20T11:03:25Z</time>
      </trkpt>
      <trkpt lat="48.3891" lon="2.51748">
        <ele>69.352294921875</ele>
        <time>2011-11-20T11:03:32Z</time>
      </trkpt>
      <trkpt lat="48.38919" lon="2.51761">
        <ele>68.87158203125</ele>
        <time>2011-11-20T11:03:36Z</time>
      </trkpt>
      <trkpt lat="48.38922" lon="2.51768">
        <ele>68.87158203125</ele>
        <time>2011-11-20T11:03:44Z</time>
      </trkpt>
      <trkpt lat="48.38927" lon="2.51777">
        <ele>68.390869140625</ele>
        <time>2011-11-20T11:03:51Z</time>
      </trkpt>
      <trkpt lat="48.38933" lon="2.51787">
        <ele>68.87158203125</ele>
        <time>2011-11-20T11:03:58Z</time>
      </trkpt>
      <trkpt lat="48.38938" lon="2.51797">
        <ele>68.390869140625</ele>
        <time>2011-11-20T11:04:05Z</time>
      </trkpt>
      <trkpt lat="48.38945" lon="2.51811">
        <ele>68.87158203125</ele>
        <time>2011-11-20T11:04:12Z</time>
      </trkpt>
      <trkpt lat="48.38956" lon="2.5183">
        <ele>69.352294921875</ele>
        <time>2011-11-20T11:04:16Z</time>
      </trkpt>
      <trkpt lat="48.38977" lon="2.51865">
        <ele>70.3134765625</ele>
        <time>2011-11-20T11:04:21Z</time>
      </trkpt>
      <trkpt lat="48.39005" lon="2.51903">
        <ele>70.794189453125</ele>
        <time>2011-11-20T11:04:27Z</time>
      </trkpt>
      <trkpt lat="48.39014" lon="2.51926">
        <ele>71.755493164062</ele>
        <time>2011-11-20T11:04:30Z</time>
      </trkpt>
      <trkpt lat="48.39024" lon="2.51963">
        <ele>72.236206054688</ele>
        <time>2011-11-20T11:04:35Z</time>
      </trkpt>
      <trkpt lat="48.39034" lon="2.52008">
        <ele>72.236206054688</ele>
        <time>2011-11-20T11:04:43Z</time>
      </trkpt>
      <trkpt lat="48.39038" lon="2.52023">
        <ele>72.716918945312</ele>
        <time>2011-11-20T11:04:48Z</time>
      </trkpt>
      <trkpt lat="48.3904" lon="2.52038">
        <ele>73.197631835938</ele>
        <time>2011-11-20T11:04:53Z</time>
      </trkpt>
      <trkpt lat="48.39044" lon="2.52057">
        <ele>73.197631835938</ele>
        <time>2011-11-20T11:04:59Z</time>
      </trkpt>
      <trkpt lat="48.39045" lon="2.5206">
        <ele>73.197631835938</ele>
        <time>2011-11-20T11:05:00Z</time>
      </trkpt>
      <trkpt lat="48.39058" lon="2.52064">
        <ele>73.67822265625</ele>
        <time>2011-11-20T11:05:05Z</time>
      </trkpt>
      <trkpt lat="48.39074" lon="2.52067">
        <ele>73.67822265625</ele>
        <time>2011-11-20T11:05:12Z</time>
      </trkpt>
      <trkpt lat="48.39092" lon="2.52064">
        <ele>74.639526367188</ele>
        <time>2011-11-20T11:05:19Z</time>
      </trkpt>
      <trkpt lat="48.39102" lon="2.52068">
        <ele>74.639526367188</ele>
        <time>2011-11-20T11:05:23Z</time>
      </trkpt>
      <trkpt lat="48.39117" lon="2.52072">
        <ele>75.600830078125</ele>
        <time>2011-11-20T11:05:29Z</time>
      </trkpt>
      <trkpt lat="48.3913" lon="2.52079">
        <ele>75.600830078125</ele>
        <time>2011-11-20T11:05:34Z</time>
      </trkpt>
      <trkpt lat="48.39136" lon="2.5209">
        <ele>77.042846679688</ele>
        <time>2011-11-20T11:05:38Z</time>
      </trkpt>
      <trkpt lat="48.39145" lon="2.52098">
        <ele>76.562133789062</ele>
        <time>2011-11-20T11:05:42Z</time>
      </trkpt>
      <trkpt lat="48.39159" lon="2.52119">
        <ele>77.5234375</ele>
        <time>2011-11-20T11:05:48Z</time>
      </trkpt>
      <trkpt lat="48.39175" lon="2.5214">
        <ele>77.5234375</ele>
        <time>2011-11-20T11:05:55Z</time>
      </trkpt>
      <trkpt lat="48.39186" lon="2.52156">
        <ele>78.004028320312</ele>
        <time>2011-11-20T11:06:02Z</time>
      </trkpt>
      <trkpt lat="48.39187" lon="2.52156">
        <ele>78.004028320312</ele>
        <time>2011-11-20T11:06:03Z</time>
      </trkpt>
      <trkpt lat="48.39193" lon="2.52158">
        <ele>78.004028320312</ele>
        <time>2011-11-20T11:06:07Z</time>
      </trkpt>
      <trkpt lat="48.39201" lon="2.52163">
        <ele>78.004028320312</ele>
        <time>2011-11-20T11:06:13Z</time>
      </trkpt>
      <trkpt lat="48.39209" lon="2.52173">
        <ele>78.484741210938</ele>
        <time>2011-11-20T11:06:20Z</time>
      </trkpt>
      <trkpt lat="48.39217" lon="2.52181">
        <ele>78.484741210938</ele>
        <time>2011-11-20T11:06:28Z</time>
      </trkpt>
      <trkpt lat="48.39223" lon="2.52185">
        <ele>78.965454101562</ele>
        <time>2011-11-20T11:06:33Z</time>
      </trkpt>
      <trkpt lat="48.39228" lon="2.52195">
        <ele>79.926635742188</ele>
        <time>2011-11-20T11:06:38Z</time>
      </trkpt>
      <trkpt lat="48.39239" lon="2.52208">
        <ele>80.407470703125</ele>
        <time>2011-11-20T11:06:46Z</time>
      </trkpt>
      <trkpt lat="48.39248" lon="2.52217">
        <ele>80.407470703125</ele>
        <time>2011-11-20T11:06:52Z</time>
      </trkpt>
      <trkpt lat="48.39249" lon="2.52218">
        <ele>80.88818359375</ele>
        <time>2011-11-20T11:06:53Z</time>
      </trkpt>
      <trkpt lat="48.39252" lon="2.52219">
        <ele>81.368774414062</ele>
        <time>2011-11-20T11:06:55Z</time>
      </trkpt>
      <trkpt lat="48.3926" lon="2.52229">
        <ele>81.368774414062</ele>
        <time>2011-11-20T11:07:01Z</time>
      </trkpt>
      <trkpt lat="48.3927" lon="2.52249">
        <ele>82.810791015625</ele>
        <time>2011-11-20T11:07:09Z</time>
      </trkpt>
      <trkpt lat="48.39276" lon="2.52275">
        <ele>84.252685546875</ele>
        <time>2011-11-20T11:07:16Z</time>
      </trkpt>
      <trkpt lat="48.39278" lon="2.52294">
        <ele>83.77197265625</ele>
        <time>2011-11-20T11:07:21Z</time>
      </trkpt>
      <trkpt lat="48.39289" lon="2.52324">
        <ele>84.7333984375</ele>
        <time>2011-11-20T11:07:30Z</time>
      </trkpt>
      <trkpt lat="48.39291" lon="2.52353">
        <ele>85.694580078125</ele>
        <time>2011-11-20T11:07:37Z</time>
      </trkpt>
      <trkpt lat="48.39291" lon="2.52383">
        <ele>85.213989257812</ele>
        <time>2011-11-20T11:07:44Z</time>
      </trkpt>
      <trkpt lat="48.39289" lon="2.52414">
        <ele>86.17529296875</ele>
        <time>2011-11-20T11:07:51Z</time>
      </trkpt>
      <trkpt lat="48.39293" lon="2.52438">
        <ele>87.136596679688</ele>
        <time>2011-11-20T11:07:58Z</time>
      </trkpt>
      <trkpt lat="48.393" lon="2.52458">
        <ele>88.578735351562</ele>
        <time>2011-11-20T11:08:05Z</time>
      </trkpt>
      <trkpt lat="48.393" lon="2.52477">
        <ele>89.539916992188</ele>
        <time>2011-11-20T11:08:12Z</time>
      </trkpt>
      <trkpt lat="48.39301" lon="2.52502">
        <ele>91.462524414062</ele>
        <time>2011-11-20T11:08:21Z</time>
      </trkpt>
      <trkpt lat="48.39302" lon="2.52513">
        <ele>93.385131835938</ele>
        <time>2011-11-20T11:08:25Z</time>
      </trkpt>
      <trkpt lat="48.39312" lon="2.52522">
        <ele>93.865844726562</ele>
        <time>2011-11-20T11:08:31Z</time>
      </trkpt>
      <trkpt lat="48.39324" lon="2.52529">
        <ele>94.8271484375</ele>
        <time>2011-11-20T11:08:38Z</time>
      </trkpt>
      <trkpt lat="48.39338" lon="2.5254">
        <ele>95.788452148438</ele>
        <time>2011-11-20T11:08:46Z</time>
      </trkpt>
      <trkpt lat="48.39346" lon="2.52555">
        <ele>95.788452148438</ele>
        <time>2011-11-20T11:08:52Z</time>
      </trkpt>
      <trkpt lat="48.3935" lon="2.52577">
        <ele>96.749877929688</ele>
        <time>2011-11-20T11:08:59Z</time>
      </trkpt>
      <trkpt lat="48.39352" lon="2.52608">
        <ele>98.19189453125</ele>
        <time>2011-11-20T11:09:08Z</time>
      </trkpt>
      <trkpt lat="48.39352" lon="2.52627">
        <ele>98.672485351562</ele>
        <time>2011-11-20T11:09:13Z</time>
      </trkpt>
      <trkpt lat="48.39352" lon="2.52638">
        <ele>100.11450195312</ele>
        <time>2011-11-20T11:09:17Z</time>
      </trkpt>
      <trkpt lat="48.39352" lon="2.52641">
        <ele>99.153076171875</ele>
        <time>2011-11-20T11:09:18Z</time>
      </trkpt>
      <trkpt lat="48.3935" lon="2.52665">
        <ele>101.55639648438</ele>
        <time>2011-11-20T11:09:25Z</time>
      </trkpt>
      <trkpt lat="48.39348" lon="2.52695">
        <ele>102.51770019531</ele>
        <time>2011-11-20T11:09:34Z</time>
      </trkpt>
      <trkpt lat="48.39344" lon="2.52722">
        <ele>103.95971679688</ele>
        <time>2011-11-20T11:09:42Z</time>
      </trkpt>
      <trkpt lat="48.39337" lon="2.52741">
        <ele>104.92102050781</ele>
        <time>2011-11-20T11:09:49Z</time>
      </trkpt>
      <trkpt lat="48.39331" lon="2.52766">
        <ele>105.88244628906</ele>
        <time>2011-11-20T11:09:57Z</time>
      </trkpt>
      <trkpt lat="48.39332" lon="2.52787">
        <ele>106.84362792969</ele>
        <time>2011-11-20T11:10:04Z</time>
      </trkpt>
      <trkpt lat="48.39331" lon="2.52792">
        <ele>107.32434082031</ele>
        <time>2011-11-20T11:10:06Z</time>
      </trkpt>
      <trkpt lat="48.39323" lon="2.52813">
        <ele>108.76623535156</ele>
        <time>2011-11-20T11:10:16Z</time>
      </trkpt>
      <trkpt lat="48.3932" lon="2.52826">
        <ele>110.20825195312</ele>
        <time>2011-11-20T11:10:22Z</time>
      </trkpt>
      <trkpt lat="48.39313" lon="2.52841">
        <ele>113.09228515625</ele>
        <time>2011-11-20T11:10:32Z</time>
      </trkpt>
      <trkpt lat="48.39304" lon="2.52855">
        <ele>113.57299804688</ele>
        <time>2011-11-20T11:10:40Z</time>
      </trkpt>
      <trkpt lat="48.39299" lon="2.5287">
        <ele>115.01489257812</ele>
        <time>2011-11-20T11:10:48Z</time>
      </trkpt>
      <trkpt lat="48.39292" lon="2.52884">
        <ele>116.45678710938</ele>
        <time>2011-11-20T11:10:56Z</time>
      </trkpt>
      <trkpt lat="48.39286" lon="2.52904">
        <ele>116.9375</ele>
        <time>2011-11-20T11:11:05Z</time>
      </trkpt>
      <trkpt lat="48.39278" lon="2.52928">
        <ele>117.41821289062</ele>
        <time>2011-11-20T11:11:14Z</time>
      </trkpt>
      <trkpt lat="48.39275" lon="2.5295">
        <ele>118.37939453125</ele>
        <time>2011-11-20T11:11:21Z</time>
      </trkpt>
      <trkpt lat="48.39267" lon="2.52984">
        <ele>116.9375</ele>
        <time>2011-11-20T11:11:29Z</time>
      </trkpt>
      <trkpt lat="48.39256" lon="2.53027">
        <ele>117.41821289062</ele>
        <time>2011-11-20T11:11:37Z</time>
      </trkpt>
      <trkpt lat="48.39252" lon="2.53057">
        <ele>117.41821289062</ele>
        <time>2011-11-20T11:11:42Z</time>
      </trkpt>
      <trkpt lat="48.39252" lon="2.53088">
        <ele>116.45678710938</ele>
        <time>2011-11-20T11:11:47Z</time>
      </trkpt>
      <trkpt lat="48.39244" lon="2.53141">
        <ele>117.41821289062</ele>
        <time>2011-11-20T11:11:56Z</time>
      </trkpt>
      <trkpt lat="48.39243" lon="2.53153">
        <ele>117.41821289062</ele>
        <time>2011-11-20T11:11:58Z</time>
      </trkpt>
      <trkpt lat="48.39239" lon="2.53172">
        <ele>117.41821289062</ele>
        <time>2011-11-20T11:12:01Z</time>
      </trkpt>
      <trkpt lat="48.39233" lon="2.53203">
        <ele>116.45678710938</ele>
        <time>2011-11-20T11:12:06Z</time>
      </trkpt>
      <trkpt lat="48.3923" lon="2.53222">
        <ele>116.9375</ele>
        <time>2011-11-20T11:12:09Z</time>
      </trkpt>
      <trkpt lat="48.39229" lon="2.53244">
        <ele>116.9375</ele>
        <time>2011-11-20T11:12:12Z</time>
      </trkpt>
      <trkpt lat="48.39227" lon="2.53265">
        <ele>116.45678710938</ele>
        <time>2011-11-20T11:12:15Z</time>
      </trkpt>
      <trkpt lat="48.39229" lon="2.53298">
        <ele>117.41821289062</ele>
        <time>2011-11-20T11:12:20Z</time>
      </trkpt>
      <trkpt lat="48.39231" lon="2.53353">
        <ele>116.9375</ele>
        <time>2011-11-20T11:12:28Z</time>
      </trkpt>
      <trkpt lat="48.39228" lon="2.53392">
        <ele>116.9375</ele>
        <time>2011-11-20T11:12:33Z</time>
      </trkpt>
      <trkpt lat="48.39222" lon="2.53436">
        <ele>116.9375</ele>
        <time>2011-11-20T11:12:39Z</time>
      </trkpt>
      <trkpt lat="48.39225" lon="2.53476">
        <ele>115.49560546875</ele>
        <time>2011-11-20T11:12:44Z</time>
      </trkpt>
      <trkpt lat="48.39227" lon="2.53486">
        <ele>114.05358886719</ele>
        <time>2011-11-20T11:12:45Z</time>
      </trkpt>
      <trkpt lat="48.39228" lon="2.53508">
        <ele>112.61157226562</ele>
        <time>2011-11-20T11:12:47Z</time>
      </trkpt>
      <trkpt lat="48.39228" lon="2.53543">
        <ele>110.20825195312</ele>
        <time>2011-11-20T11:12:50Z</time>
      </trkpt>
      <trkpt lat="48.39221" lon="2.53596">
        <ele>106.84362792969</ele>
        <time>2011-11-20T11:12:54Z</time>
      </trkpt>
      <trkpt lat="48.39214" lon="2.53655">
        <ele>103.47900390625</ele>
        <time>2011-11-20T11:12:58Z</time>
      </trkpt>
      <trkpt lat="48.39207" lon="2.53712">
        <ele>101.07568359375</ele>
        <time>2011-11-20T11:13:02Z</time>
      </trkpt>
      <trkpt lat="48.39194" lon="2.53754">
        <ele>100.59509277344</ele>
        <time>2011-11-20T11:13:05Z</time>
      </trkpt>
      <trkpt lat="48.39189" lon="2.53807">
        <ele>99.6337890625</ele>
        <time>2011-11-20T11:13:09Z</time>
      </trkpt>
      <trkpt lat="48.39174" lon="2.53862">
        <ele>97.23046875</ele>
        <time>2011-11-20T11:13:14Z</time>
      </trkpt>
      <trkpt lat="48.39173" lon="2.53874">
        <ele>96.749877929688</ele>
        <time>2011-11-20T11:13:15Z</time>
      </trkpt>
      <trkpt lat="48.39172" lon="2.53911">
        <ele>95.788452148438</ele>
        <time>2011-11-20T11:13:18Z</time>
      </trkpt>
      <trkpt lat="48.39157" lon="2.53985">
        <ele>93.865844726562</ele>
        <time>2011-11-20T11:13:24Z</time>
      </trkpt>
      <trkpt lat="48.39153" lon="2.54009">
        <ele>93.865844726562</ele>
        <time>2011-11-20T11:13:26Z</time>
      </trkpt>
      <trkpt lat="48.39141" lon="2.54088">
        <ele>91.462524414062</ele>
        <time>2011-11-20T11:13:33Z</time>
      </trkpt>
      <trkpt lat="48.39127" lon="2.54165">
        <ele>90.501342773438</ele>
        <time>2011-11-20T11:13:41Z</time>
      </trkpt>
      <trkpt lat="48.39119" lon="2.5421">
        <ele>90.98193359375</ele>
        <time>2011-11-20T11:13:47Z</time>
      </trkpt>
      <trkpt lat="48.39111" lon="2.54262">
        <ele>92.423950195312</ele>
        <time>2011-11-20T11:13:55Z</time>
      </trkpt>
      <trkpt lat="48.39104" lon="2.54313">
        <ele>90.98193359375</ele>
        <time>2011-11-20T11:14:02Z</time>
      </trkpt>
      <trkpt lat="48.39096" lon="2.54358">
        <ele>90.501342773438</ele>
        <time>2011-11-20T11:14:08Z</time>
      </trkpt>
      <trkpt lat="48.39084" lon="2.54436">
        <ele>87.6171875</ele>
        <time>2011-11-20T11:14:17Z</time>
      </trkpt>
      <trkpt lat="48.39078" lon="2.54495">
        <ele>85.213989257812</ele>
        <time>2011-11-20T11:14:23Z</time>
      </trkpt>
      <trkpt lat="48.39068" lon="2.54578">
        <ele>83.291381835938</ele>
        <time>2011-11-20T11:14:31Z</time>
      </trkpt>
      <trkpt lat="48.39066" lon="2.54599">
        <ele>81.849365234375</ele>
        <time>2011-11-20T11:14:33Z</time>
      </trkpt>
      <trkpt lat="48.39061" lon="2.5464">
        <ele>79.926635742188</ele>
        <time>2011-11-20T11:14:37Z</time>
      </trkpt>
      <trkpt lat="48.39064" lon="2.54684">
        <ele>78.484741210938</ele>
        <time>2011-11-20T11:14:41Z</time>
      </trkpt>
      <trkpt lat="48.3908" lon="2.54761">
        <ele>76.081420898438</ele>
        <time>2011-11-20T11:14:48Z</time>
      </trkpt>
      <trkpt lat="48.39088" lon="2.54812">
        <ele>75.120239257812</ele>
        <time>2011-11-20T11:14:53Z</time>
      </trkpt>
      <trkpt lat="48.39093" lon="2.54839">
        <ele>75.120239257812</ele>
        <time>2011-11-20T11:14:56Z</time>
      </trkpt>
      <trkpt lat="48.39097" lon="2.54884">
        <ele>75.120239257812</ele>
        <time>2011-11-20T11:15:01Z</time>
      </trkpt>
      <trkpt lat="48.39097" lon="2.5491">
        <ele>74.158813476562</ele>
        <time>2011-11-20T11:15:04Z</time>
      </trkpt>
      <trkpt lat="48.39092" lon="2.54948">
        <ele>74.158813476562</ele>
        <time>2011-11-20T11:15:09Z</time>
      </trkpt>
      <trkpt lat="48.39084" lon="2.54978">
        <ele>74.158813476562</ele>
        <time>2011-11-20T11:15:13Z</time>
      </trkpt>
      <trkpt lat="48.39075" lon="2.54997">
        <ele>73.67822265625</ele>
        <time>2011-11-20T11:15:16Z</time>
      </trkpt>
      <trkpt lat="48.39067" lon="2.55026">
        <ele>73.197631835938</ele>
        <time>2011-11-20T11:15:20Z</time>
      </trkpt>
      <trkpt lat="48.39064" lon="2.5505">
        <ele>73.197631835938</ele>
        <time>2011-11-20T11:15:23Z</time>
      </trkpt>
      <trkpt lat="48.39067" lon="2.55083">
        <ele>73.67822265625</ele>
        <time>2011-11-20T11:15:27Z</time>
      </trkpt>
      <trkpt lat="48.39059" lon="2.55138">
        <ele>73.197631835938</ele>
        <time>2011-11-20T11:15:34Z</time>
      </trkpt>
      <trkpt lat="48.39056" lon="2.55185">
        <ele>73.197631835938</ele>
        <time>2011-11-20T11:15:40Z</time>
      </trkpt>
      <trkpt lat="48.39052" lon="2.55229">
        <ele>72.716918945312</ele>
        <time>2011-11-20T11:15:46Z</time>
      </trkpt>
      <trkpt lat="48.39051" lon="2.55235">
        <ele>72.716918945312</ele>
        <time>2011-11-20T11:15:47Z</time>
      </trkpt>
      <trkpt lat="48.3905" lon="2.5526">
        <ele>72.236206054688</ele>
        <time>2011-11-20T11:15:51Z</time>
      </trkpt>
      <trkpt lat="48.39046" lon="2.5531">
        <ele>72.236206054688</ele>
        <time>2011-11-20T11:15:58Z</time>
      </trkpt>
      <trkpt lat="48.39045" lon="2.55333">
        <ele>72.236206054688</ele>
        <time>2011-11-20T11:16:01Z</time>
      </trkpt>
      <trkpt lat="48.39041" lon="2.55376">
        <ele>72.236206054688</ele>
        <time>2011-11-20T11:16:06Z</time>
      </trkpt>
      <trkpt lat="48.39032" lon="2.55407">
        <ele>71.755493164062</ele>
        <time>2011-11-20T11:16:10Z</time>
      </trkpt>
      <trkpt lat="48.39028" lon="2.55413">
        <ele>71.755493164062</ele>
        <time>2011-11-20T11:16:11Z</time>
      </trkpt>
      <trkpt lat="48.38997" lon="2.55459">
        <ele>72.236206054688</ele>
        <time>2011-11-20T11:16:19Z</time>
      </trkpt>
      <trkpt lat="48.38991" lon="2.55489">
        <ele>71.755493164062</ele>
        <time>2011-11-20T11:16:23Z</time>
      </trkpt>
      <trkpt lat="48.38997" lon="2.55508">
        <ele>72.236206054688</ele>
        <time>2011-11-20T11:16:26Z</time>
      </trkpt>
      <trkpt lat="48.39005" lon="2.55534">
        <ele>71.755493164062</ele>
        <time>2011-11-20T11:16:29Z</time>
      </trkpt>
      <trkpt lat="48.39008" lon="2.55553">
        <ele>71.755493164062</ele>
        <time>2011-11-20T11:16:31Z</time>
      </trkpt>
      <trkpt lat="48.39017" lon="2.5557">
        <ele>71.755493164062</ele>
        <time>2011-11-20T11:16:35Z</time>
      </trkpt>
      <trkpt lat="48.39024" lon="2.5557">
        <ele>72.236206054688</ele>
        <time>2011-11-20T11:16:37Z</time>
      </trkpt>
      <trkpt lat="48.3904" lon="2.55557">
        <ele>71.755493164062</ele>
        <time>2011-11-20T11:16:42Z</time>
      </trkpt>
      <trkpt lat="48.39064" lon="2.55546">
        <ele>72.236206054688</ele>
        <time>2011-11-20T11:16:47Z</time>
      </trkpt>
      <trkpt lat="48.39077" lon="2.55537">
        <ele>71.27490234375</ele>
        <time>2011-11-20T11:16:50Z</time>
      </trkpt>
      <trkpt lat="48.39097" lon="2.55528">
        <ele>71.755493164062</ele>
        <time>2011-11-20T11:16:54Z</time>
      </trkpt>
      <trkpt lat="48.39132" lon="2.55517">
        <ele>71.27490234375</ele>
        <time>2011-11-20T11:17:01Z</time>
      </trkpt>
      <trkpt lat="48.39152" lon="2.55511">
        <ele>72.236206054688</ele>
        <time>2011-11-20T11:17:05Z</time>
      </trkpt>
      <trkpt lat="48.39157" lon="2.55509">
        <ele>71.755493164062</ele>
        <time>2011-11-20T11:17:06Z</time>
      </trkpt>
      <trkpt lat="48.3919" lon="2.555">
        <ele>71.755493164062</ele>
        <time>2011-11-20T11:17:13Z</time>
      </trkpt>
      <trkpt lat="48.39225" lon="2.55494">
        <ele>71.755493164062</ele>
        <time>2011-11-20T11:17:20Z</time>
      </trkpt>
      <trkpt lat="48.3924" lon="2.55491">
        <ele>71.755493164062</ele>
        <time>2011-11-20T11:17:23Z</time>
      </trkpt>
      <trkpt lat="48.39252" lon="2.55487">
        <ele>71.27490234375</ele>
        <time>2011-11-20T11:17:26Z</time>
      </trkpt>
      <trkpt lat="48.39275" lon="2.55491">
        <ele>70.794189453125</ele>
        <time>2011-11-20T11:17:31Z</time>
      </trkpt>
      <trkpt lat="48.39299" lon="2.55508">
        <ele>71.27490234375</ele>
        <time>2011-11-20T11:17:37Z</time>
      </trkpt>
      <trkpt lat="48.39303" lon="2.55508">
        <ele>71.27490234375</ele>
        <time>2011-11-20T11:17:38Z</time>
      </trkpt>
      <trkpt lat="48.39345" lon="2.55511">
        <ele>72.236206054688</ele>
        <time>2011-11-20T11:17:47Z</time>
      </trkpt>
      <trkpt lat="48.39357" lon="2.55515">
        <ele>71.27490234375</ele>
        <time>2011-11-20T11:17:50Z</time>
      </trkpt>
      <trkpt lat="48.39377" lon="2.55523">
        <ele>71.27490234375</ele>
        <time>2011-11-20T11:17:55Z</time>
      </trkpt>
      <trkpt lat="48.39385" lon="2.55526">
        <ele>72.716918945312</ele>
        <time>2011-11-20T11:17:57Z</time>
      </trkpt>
      <trkpt lat="48.39397" lon="2.55514">
        <ele>71.27490234375</ele>
        <time>2011-11-20T11:18:01Z</time>
      </trkpt>
      <trkpt lat="48.39408" lon="2.55501">
        <ele>70.3134765625</ele>
        <time>2011-11-20T11:18:04Z</time>
      </trkpt>
      <trkpt lat="48.39423" lon="2.55481">
        <ele>70.3134765625</ele>
        <time>2011-11-20T11:18:08Z</time>
      </trkpt>
      <trkpt lat="48.39441" lon="2.55461">
        <ele>69.832885742188</ele>
        <time>2011-11-20T11:18:12Z</time>
      </trkpt>
      <trkpt lat="48.39465" lon="2.55455">
        <ele>70.3134765625</ele>
        <time>2011-11-20T11:18:17Z</time>
      </trkpt>
      <trkpt lat="48.39501" lon="2.55456">
        <ele>69.832885742188</ele>
        <time>2011-11-20T11:18:24Z</time>
      </trkpt>
      <trkpt lat="48.39542" lon="2.55458">
        <ele>70.3134765625</ele>
        <time>2011-11-20T11:18:32Z</time>
      </trkpt>
      <trkpt lat="48.39577" lon="2.5546">
        <ele>70.3134765625</ele>
        <time>2011-11-20T11:18:39Z</time>
      </trkpt>
      <trkpt lat="48.39591" lon="2.55461">
        <ele>70.3134765625</ele>
        <time>2011-11-20T11:18:42Z</time>
      </trkpt>
      <trkpt lat="48.39604" lon="2.55463">
        <ele>70.3134765625</ele>
        <time>2011-11-20T11:18:45Z</time>
      </trkpt>
      <trkpt lat="48.39646" lon="2.55469">
        <ele>70.3134765625</ele>
        <time>2011-11-20T11:18:53Z</time>
      </trkpt>
      <trkpt lat="48.39688" lon="2.55477">
        <ele>70.794189453125</ele>
        <time>2011-11-20T11:19:02Z</time>
      </trkpt>
      <trkpt lat="48.39714" lon="2.55483">
        <ele>70.3134765625</ele>
        <time>2011-11-20T11:19:09Z</time>
      </trkpt>
      <trkpt lat="48.39722" lon="2.55486">
        <ele>70.794189453125</ele>
        <time>2011-11-20T11:19:11Z</time>
      </trkpt>
      <trkpt lat="48.39759" lon="2.55494">
        <ele>70.794189453125</ele>
        <time>2011-11-20T11:19:19Z</time>
      </trkpt>
      <trkpt lat="48.3979" lon="2.55503">
        <ele>69.832885742188</ele>
        <time>2011-11-20T11:19:25Z</time>
      </trkpt>
      <trkpt lat="48.39825" lon="2.55512">
        <ele>69.352294921875</ele>
        <time>2011-11-20T11:19:32Z</time>
      </trkpt>
      <trkpt lat="48.39853" lon="2.5552">
        <ele>69.832885742188</ele>
        <time>2011-11-20T11:19:38Z</time>
      </trkpt>
      <trkpt lat="48.39872" lon="2.55525">
        <ele>69.352294921875</ele>
        <time>2011-11-20T11:19:42Z</time>
      </trkpt>
      <trkpt lat="48.39907" lon="2.55535">
        <ele>68.87158203125</ele>
        <time>2011-11-20T11:19:50Z</time>
      </trkpt>
      <trkpt lat="48.39935" lon="2.5554">
        <ele>68.87158203125</ele>
        <time>2011-11-20T11:19:56Z</time>
      </trkpt>
      <trkpt lat="48.39972" lon="2.55549">
        <ele>68.390869140625</ele>
        <time>2011-11-20T11:20:04Z</time>
      </trkpt>
      <trkpt lat="48.40007" lon="2.55555">
        <ele>68.390869140625</ele>
        <time>2011-11-20T11:20:12Z</time>
      </trkpt>
      <trkpt lat="48.40025" lon="2.55557">
        <ele>68.390869140625</ele>
        <time>2011-11-20T11:20:16Z</time>
      </trkpt>
      <trkpt lat="48.40033" lon="2.55558">
        <ele>68.390869140625</ele>
        <time>2011-11-20T11:20:18Z</time>
      </trkpt>
      <trkpt lat="48.40049" lon="2.55563">
        <ele>68.87158203125</ele>
        <time>2011-11-20T11:20:22Z</time>
      </trkpt>
      <trkpt lat="48.40084" lon="2.55564">
        <ele>68.390869140625</ele>
        <time>2011-11-20T11:20:30Z</time>
      </trkpt>
      <trkpt lat="48.40113" lon="2.55565">
        <ele>68.390869140625</ele>
        <time>2011-11-20T11:20:36Z</time>
      </trkpt>
      <trkpt lat="48.40147" lon="2.55565">
        <ele>68.390869140625</ele>
        <time>2011-11-20T11:20:43Z</time>
      </trkpt>
      <trkpt lat="48.4016" lon="2.55566">
        <ele>68.390869140625</ele>
        <time>2011-11-20T11:20:46Z</time>
      </trkpt>
      <trkpt lat="48.40182" lon="2.55561">
        <ele>68.87158203125</ele>
        <time>2011-11-20T11:20:52Z</time>
      </trkpt>
      <trkpt lat="48.40201" lon="2.55561">
        <ele>69.352294921875</ele>
        <time>2011-11-20T11:20:57Z</time>
      </trkpt>
      <trkpt lat="48.40208" lon="2.55566">
        <ele>69.352294921875</ele>
        <time>2011-11-20T11:21:00Z</time>
      </trkpt>
      <trkpt lat="48.40214" lon="2.55595">
        <ele>68.87158203125</ele>
        <time>2011-11-20T11:21:06Z</time>
      </trkpt>
      <trkpt lat="48.40216" lon="2.55603">
        <ele>68.390869140625</ele>
        <time>2011-11-20T11:21:10Z</time>
      </trkpt>
      <trkpt lat="48.40218" lon="2.5561">
        <ele>68.87158203125</ele>
        <time>2011-11-20T11:21:17Z</time>
      </trkpt>
      <trkpt lat="48.40219" lon="2.55614">
        <ele>68.390869140625</ele>
        <time>2011-11-20T11:21:22Z</time>
      </trkpt>
      <trkpt lat="48.4022" lon="2.55619">
        <ele>68.87158203125</ele>
        <time>2011-11-20T11:21:28Z</time>
      </trkpt>
      <trkpt lat="48.40221" lon="2.55624">
        <ele>69.352294921875</ele>
        <time>2011-11-20T11:21:36Z</time>
      </trkpt>
      <trkpt lat="48.40223" lon="2.55627">
        <ele>69.352294921875</ele>
        <time>2011-11-20T11:21:40Z</time>
      </trkpt>
      <trkpt lat="48.40224" lon="2.5563">
        <ele>68.87158203125</ele>
        <time>2011-11-20T11:21:51Z</time>
      </trkpt>
      <trkpt lat="48.40227" lon="2.55626">
        <ele>68.390869140625</ele>
        <time>2011-11-20T11:22:03Z</time>
      </trkpt>
      <trkpt lat="48.40232" lon="2.55626">
        <ele>68.390869140625</ele>
        <time>2011-11-20T11:22:25Z</time>
      </trkpt>
      <trkpt lat="48.40229" lon="2.55624">
        <ele>69.832885742188</ele>
        <time>2011-11-20T11:22:48Z</time>
      </trkpt>
      <trkpt lat="48.40225" lon="2.55625">
        <ele>68.87158203125</ele>
        <time>2011-11-20T11:23:01Z</time>
      </trkpt>
      <trkpt lat="48.40223" lon="2.55628">
        <ele>69.352294921875</ele>
        <time>2011-11-20T11:23:13Z</time>
      </trkpt>
      <trkpt lat="48.4022" lon="2.55628">
        <ele>72.716918945312</ele>
        <time>2011-11-20T11:25:15Z</time>
      </trkpt>
      <trkpt lat="48.40222" lon="2.55632">
        <ele>69.832885742188</ele>
        <time>2011-11-20T11:25:22Z</time>
      </trkpt>
      <trkpt lat="48.40222" lon="2.55637">
        <ele>71.27490234375</ele>
        <time>2011-11-20T11:25:30Z</time>
      </trkpt>
      <trkpt lat="48.40223" lon="2.55642">
        <ele>70.3134765625</ele>
        <time>2011-11-20T11:25:38Z</time>
      </trkpt>
      <trkpt lat="48.40221" lon="2.55645">
        <ele>70.794189453125</ele>
        <time>2011-11-20T11:25:53Z</time>
      </trkpt>
      <trkpt lat="48.40221" lon="2.55647">
        <ele>71.27490234375</ele>
        <time>2011-11-20T11:26:24Z</time>
      </trkpt>
      <trkpt lat="48.40222" lon="2.55647">
        <ele>71.755493164062</ele>
        <time>2011-11-20T11:26:44Z</time>
      </trkpt>
      <trkpt lat="48.40224" lon="2.55645">
        <ele>71.27490234375</ele>
        <time>2011-11-20T11:26:54Z</time>
      </trkpt>
      <trkpt lat="48.40224" lon="2.55642">
        <ele>71.755493164062</ele>
        <time>2011-11-20T11:27:03Z</time>
      </trkpt>
      <trkpt lat="48.40223" lon="2.55646">
        <ele>71.755493164062</ele>
        <time>2011-11-20T11:27:12Z</time>
      </trkpt>
      <trkpt lat="48.40226" lon="2.55664">
        <ele>71.755493164062</ele>
        <time>2011-11-20T11:27:18Z</time>
      </trkpt>
      <trkpt lat="48.40231" lon="2.55695">
        <ele>71.755493164062</ele>
        <time>2011-11-20T11:27:25Z</time>
      </trkpt>
      <trkpt lat="48.40235" lon="2.55724">
        <ele>72.236206054688</ele>
        <time>2011-11-20T11:27:31Z</time>
      </trkpt>
      <trkpt lat="48.40237" lon="2.55763">
        <ele>72.236206054688</ele>
        <time>2011-11-20T11:27:38Z</time>
      </trkpt>
      <trkpt lat="48.40238" lon="2.55781">
        <ele>71.755493164062</ele>
        <time>2011-11-20T11:27:41Z</time>
      </trkpt>
      <trkpt lat="48.4025" lon="2.5578">
        <ele>72.236206054688</ele>
        <time>2011-11-20T11:27:46Z</time>
      </trkpt>
      <trkpt lat="48.40269" lon="2.55764">
        <ele>71.755493164062</ele>
        <time>2011-11-20T11:27:52Z</time>
      </trkpt>
      <trkpt lat="48.40285" lon="2.55747">
        <ele>73.197631835938</ele>
        <time>2011-11-20T11:27:58Z</time>
      </trkpt>
      <trkpt lat="48.40303" lon="2.55732">
        <ele>74.158813476562</ele>
        <time>2011-11-20T11:28:05Z</time>
      </trkpt>
      <trkpt lat="48.40315" lon="2.55722">
        <ele>76.081420898438</ele>
        <time>2011-11-20T11:28:10Z</time>
      </trkpt>
      <trkpt lat="48.40328" lon="2.55708">
        <ele>77.042846679688</ele>
        <time>2011-11-20T11:28:16Z</time>
      </trkpt>
      <trkpt lat="48.40331" lon="2.55689">
        <ele>78.004028320312</ele>
        <time>2011-11-20T11:28:21Z</time>
      </trkpt>
      <trkpt lat="48.40321" lon="2.5567">
        <ele>78.965454101562</ele>
        <time>2011-11-20T11:28:26Z</time>
      </trkpt>
      <trkpt lat="48.40302" lon="2.55635">
        <ele>79.446044921875</ele>
        <time>2011-11-20T11:28:34Z</time>
      </trkpt>
      <trkpt lat="48.40278" lon="2.55587">
        <ele>80.407470703125</ele>
        <time>2011-11-20T11:28:44Z</time>
      </trkpt>
      <trkpt lat="48.40258" lon="2.55537">
        <ele>80.88818359375</ele>
        <time>2011-11-20T11:28:54Z</time>
      </trkpt>
      <trkpt lat="48.40238" lon="2.55488">
        <ele>81.368774414062</ele>
        <time>2011-11-20T11:29:03Z</time>
      </trkpt>
      <trkpt lat="48.40236" lon="2.55483">
        <ele>81.368774414062</ele>
        <time>2011-11-20T11:29:04Z</time>
      </trkpt>
      <trkpt lat="48.40233" lon="2.55456">
        <ele>80.88818359375</ele>
        <time>2011-11-20T11:29:08Z</time>
      </trkpt>
      <trkpt lat="48.40238" lon="2.55446">
        <ele>81.368774414062</ele>
        <time>2011-11-20T11:29:10Z</time>
      </trkpt>
      <trkpt lat="48.40253" lon="2.5543">
        <ele>82.330078125</ele>
        <time>2011-11-20T11:29:16Z</time>
      </trkpt>
      <trkpt lat="48.40265" lon="2.55426">
        <ele>82.330078125</ele>
        <time>2011-11-20T11:29:21Z</time>
      </trkpt>
      <trkpt lat="48.40279" lon="2.5543">
        <ele>83.291381835938</ele>
        <time>2011-11-20T11:29:27Z</time>
      </trkpt>
      <trkpt lat="48.4029" lon="2.55427">
        <ele>85.213989257812</ele>
        <time>2011-11-20T11:29:33Z</time>
      </trkpt>
      <trkpt lat="48.40303" lon="2.55421">
        <ele>84.7333984375</ele>
        <time>2011-11-20T11:29:38Z</time>
      </trkpt>
      <trkpt lat="48.40311" lon="2.55416">
        <ele>82.330078125</ele>
        <time>2011-11-20T11:29:40Z</time>
      </trkpt>
      <trkpt lat="48.40322" lon="2.55406">
        <ele>81.849365234375</ele>
        <time>2011-11-20T11:29:42Z</time>
      </trkpt>
      <trkpt lat="48.40333" lon="2.55392">
        <ele>81.368774414062</ele>
        <time>2011-11-20T11:29:44Z</time>
      </trkpt>
      <trkpt lat="48.4035" lon="2.55374">
        <ele>77.5234375</ele>
        <time>2011-11-20T11:29:47Z</time>
      </trkpt>
      <trkpt lat="48.40365" lon="2.55355">
        <ele>76.562133789062</ele>
        <time>2011-11-20T11:29:49Z</time>
      </trkpt>
      <trkpt lat="48.40376" lon="2.55317">
        <ele>75.600830078125</ele>
        <time>2011-11-20T11:29:53Z</time>
      </trkpt>
      <trkpt lat="48.40384" lon="2.55275">
        <ele>76.562133789062</ele>
        <time>2011-11-20T11:29:58Z</time>
      </trkpt>
      <trkpt lat="48.40387" lon="2.55252">
        <ele>75.120239257812</ele>
        <time>2011-11-20T11:30:01Z</time>
      </trkpt>
      <trkpt lat="48.40399" lon="2.55205">
        <ele>73.67822265625</ele>
        <time>2011-11-20T11:30:06Z</time>
      </trkpt>
      <trkpt lat="48.4041" lon="2.55158">
        <ele>73.67822265625</ele>
        <time>2011-11-20T11:30:11Z</time>
      </trkpt>
      <trkpt lat="48.40419" lon="2.55111">
        <ele>74.158813476562</ele>
        <time>2011-11-20T11:30:17Z</time>
      </trkpt>
      <trkpt lat="48.40427" lon="2.5507">
        <ele>74.639526367188</ele>
        <time>2011-11-20T11:30:23Z</time>
      </trkpt>
      <trkpt lat="48.4043" lon="2.55063">
        <ele>74.158813476562</ele>
        <time>2011-11-20T11:30:24Z</time>
      </trkpt>
      <trkpt lat="48.40445" lon="2.55037">
        <ele>73.197631835938</ele>
        <time>2011-11-20T11:30:28Z</time>
      </trkpt>
      <trkpt lat="48.40468" lon="2.54999">
        <ele>73.197631835938</ele>
        <time>2011-11-20T11:30:34Z</time>
      </trkpt>
      <trkpt lat="48.4047" lon="2.54991">
        <ele>73.67822265625</ele>
        <time>2011-11-20T11:30:35Z</time>
      </trkpt>
      <trkpt lat="48.40474" lon="2.54969">
        <ele>73.67822265625</ele>
        <time>2011-11-20T11:30:38Z</time>
      </trkpt>
      <trkpt lat="48.40491" lon="2.54915">
        <ele>72.236206054688</ele>
        <time>2011-11-20T11:30:45Z</time>
      </trkpt>
      <trkpt lat="48.40493" lon="2.54908">
        <ele>72.236206054688</ele>
        <time>2011-11-20T11:30:46Z</time>
      </trkpt>
      <trkpt lat="48.40516" lon="2.54872">
        <ele>71.27490234375</ele>
        <time>2011-11-20T11:30:52Z</time>
      </trkpt>
      <trkpt lat="48.40538" lon="2.54848">
        <ele>71.755493164062</ele>
        <time>2011-11-20T11:30:57Z</time>
      </trkpt>
      <trkpt lat="48.40573" lon="2.54808">
        <ele>72.236206054688</ele>
        <time>2011-11-20T11:31:05Z</time>
      </trkpt>
      <trkpt lat="48.40577" lon="2.54803">
        <ele>72.716918945312</ele>
        <time>2011-11-20T11:31:06Z</time>
      </trkpt>
      <trkpt lat="48.40612" lon="2.54766">
        <ele>72.236206054688</ele>
        <time>2011-11-20T11:31:14Z</time>
      </trkpt>
      <trkpt lat="48.40639" lon="2.54738">
        <ele>72.236206054688</ele>
        <time>2011-11-20T11:31:20Z</time>
      </trkpt>
      <trkpt lat="48.40651" lon="2.54714">
        <ele>72.716918945312</ele>
        <time>2011-11-20T11:31:24Z</time>
      </trkpt>
      <trkpt lat="48.40652" lon="2.54707">
        <ele>72.716918945312</ele>
        <time>2011-11-20T11:31:25Z</time>
      </trkpt>
      <trkpt lat="48.40651" lon="2.54692">
        <ele>73.197631835938</ele>
        <time>2011-11-20T11:31:27Z</time>
      </trkpt>
      <trkpt lat="48.40657" lon="2.54664">
        <ele>73.67822265625</ele>
        <time>2011-11-20T11:31:31Z</time>
      </trkpt>
      <trkpt lat="48.4067" lon="2.54626">
        <ele>72.716918945312</ele>
        <time>2011-11-20T11:31:37Z</time>
      </trkpt>
      <trkpt lat="48.40676" lon="2.54604">
        <ele>73.197631835938</ele>
        <time>2011-11-20T11:31:40Z</time>
      </trkpt>
      <trkpt lat="48.40676" lon="2.54591">
        <ele>73.67822265625</ele>
        <time>2011-11-20T11:31:42Z</time>
      </trkpt>
      <trkpt lat="48.40675" lon="2.54577">
        <ele>74.158813476562</ele>
        <time>2011-11-20T11:31:44Z</time>
      </trkpt>
      <trkpt lat="48.40673" lon="2.54542">
        <ele>73.67822265625</ele>
        <time>2011-11-20T11:31:49Z</time>
      </trkpt>
      <trkpt lat="48.40672" lon="2.54488">
        <ele>74.158813476562</ele>
        <time>2011-11-20T11:31:56Z</time>
      </trkpt>
      <trkpt lat="48.40672" lon="2.54448">
        <ele>74.639526367188</ele>
        <time>2011-11-20T11:32:02Z</time>
      </trkpt>
      <trkpt lat="48.40664" lon="2.54396">
        <ele>74.158813476562</ele>
        <time>2011-11-20T11:32:09Z</time>
      </trkpt>
      <trkpt lat="48.40662" lon="2.54389">
        <ele>73.67822265625</ele>
        <time>2011-11-20T11:32:10Z</time>
      </trkpt>
      <trkpt lat="48.40643" lon="2.5434">
        <ele>73.67822265625</ele>
        <time>2011-11-20T11:32:17Z</time>
      </trkpt>
      <trkpt lat="48.40631" lon="2.54295">
        <ele>73.197631835938</ele>
        <time>2011-11-20T11:32:23Z</time>
      </trkpt>
      <trkpt lat="48.40619" lon="2.54233">
        <ele>72.716918945312</ele>
        <time>2011-11-20T11:32:32Z</time>
      </trkpt>
      <trkpt lat="48.40614" lon="2.54177">
        <ele>73.67822265625</ele>
        <time>2011-11-20T11:32:40Z</time>
      </trkpt>
      <trkpt lat="48.40614" lon="2.54163">
        <ele>74.158813476562</ele>
        <time>2011-11-20T11:32:42Z</time>
      </trkpt>
      <trkpt lat="48.40623" lon="2.54139">
        <ele>74.158813476562</ele>
        <time>2011-11-20T11:32:46Z</time>
      </trkpt>
      <trkpt lat="48.4063" lon="2.54134">
        <ele>73.67822265625</ele>
        <time>2011-11-20T11:32:48Z</time>
      </trkpt>
      <trkpt lat="48.40659" lon="2.54118">
        <ele>73.197631835938</ele>
        <time>2011-11-20T11:32:54Z</time>
      </trkpt>
      <trkpt lat="48.40691" lon="2.54099">
        <ele>74.639526367188</ele>
        <time>2011-11-20T11:33:01Z</time>
      </trkpt>
      <trkpt lat="48.40706" lon="2.5409">
        <ele>73.197631835938</ele>
        <time>2011-11-20T11:33:04Z</time>
      </trkpt>
      <trkpt lat="48.4073" lon="2.54075">
        <ele>72.716918945312</ele>
        <time>2011-11-20T11:33:09Z</time>
      </trkpt>
      <trkpt lat="48.40754" lon="2.5406">
        <ele>72.716918945312</ele>
        <time>2011-11-20T11:33:14Z</time>
      </trkpt>
      <trkpt lat="48.40776" lon="2.54043">
        <ele>73.197631835938</ele>
        <time>2011-11-20T11:33:19Z</time>
      </trkpt>
      <trkpt lat="48.40797" lon="2.54029">
        <ele>73.67822265625</ele>
        <time>2011-11-20T11:33:24Z</time>
      </trkpt>
      <trkpt lat="48.40813" lon="2.5402">
        <ele>74.639526367188</ele>
        <time>2011-11-20T11:33:28Z</time>
      </trkpt>
      <trkpt lat="48.40829" lon="2.54013">
        <ele>75.120239257812</ele>
        <time>2011-11-20T11:33:32Z</time>
      </trkpt>
      <trkpt lat="48.40849" lon="2.54002">
        <ele>75.120239257812</ele>
        <time>2011-11-20T11:33:37Z</time>
      </trkpt>
      <trkpt lat="48.40868" lon="2.53993">
        <ele>75.600830078125</ele>
        <time>2011-11-20T11:33:42Z</time>
      </trkpt>
      <trkpt lat="48.4089" lon="2.53982">
        <ele>75.600830078125</ele>
        <time>2011-11-20T11:33:48Z</time>
      </trkpt>
      <trkpt lat="48.4091" lon="2.53976">
        <ele>74.639526367188</ele>
        <time>2011-11-20T11:33:52Z</time>
      </trkpt>
      <trkpt lat="48.4092" lon="2.53974">
        <ele>75.120239257812</ele>
        <time>2011-11-20T11:33:54Z</time>
      </trkpt>
      <trkpt lat="48.40946" lon="2.53971">
        <ele>75.120239257812</ele>
        <time>2011-11-20T11:33:59Z</time>
      </trkpt>
      <trkpt lat="48.40978" lon="2.53964">
        <ele>75.120239257812</ele>
        <time>2011-11-20T11:34:05Z</time>
      </trkpt>
      <trkpt lat="48.41004" lon="2.53957">
        <ele>75.120239257812</ele>
        <time>2011-11-20T11:34:10Z</time>
      </trkpt>
      <trkpt lat="48.41035" lon="2.53951">
        <ele>75.120239257812</ele>
        <time>2011-11-20T11:34:16Z</time>
      </trkpt>
      <trkpt lat="48.41054" lon="2.53947">
        <ele>75.600830078125</ele>
        <time>2011-11-20T11:34:20Z</time>
      </trkpt>
      <trkpt lat="48.41059" lon="2.53945">
        <ele>76.081420898438</ele>
        <time>2011-11-20T11:34:21Z</time>
      </trkpt>
      <trkpt lat="48.41077" lon="2.53934">
        <ele>76.081420898438</ele>
        <time>2011-11-20T11:34:25Z</time>
      </trkpt>
      <trkpt lat="48.41085" lon="2.53927">
        <ele>76.562133789062</ele>
        <time>2011-11-20T11:34:27Z</time>
      </trkpt>
      <trkpt lat="48.41092" lon="2.53916">
        <ele>77.5234375</ele>
        <time>2011-11-20T11:34:29Z</time>
      </trkpt>
      <trkpt lat="48.41112" lon="2.53901">
        <ele>77.5234375</ele>
        <time>2011-11-20T11:34:34Z</time>
      </trkpt>
      <trkpt lat="48.41142" lon="2.53896">
        <ele>78.965454101562</ele>
        <time>2011-11-20T11:34:42Z</time>
      </trkpt>
      <trkpt lat="48.41154" lon="2.53894">
        <ele>79.926635742188</ele>
        <time>2011-11-20T11:34:47Z</time>
      </trkpt>
      <trkpt lat="48.41166" lon="2.5389">
        <ele>82.330078125</ele>
        <time>2011-11-20T11:34:54Z</time>
      </trkpt>
      <trkpt lat="48.41177" lon="2.53887">
        <ele>82.810791015625</ele>
        <time>2011-11-20T11:35:01Z</time>
      </trkpt>
      <trkpt lat="48.41184" lon="2.53885">
        <ele>83.291381835938</ele>
        <time>2011-11-20T11:35:06Z</time>
      </trkpt>
      <trkpt lat="48.41186" lon="2.53885">
        <ele>83.77197265625</ele>
        <time>2011-11-20T11:35:07Z</time>
      </trkpt>
      <trkpt lat="48.41193" lon="2.53873">
        <ele>84.252685546875</ele>
        <time>2011-11-20T11:35:13Z</time>
      </trkpt>
      <trkpt lat="48.41202" lon="2.53856">
        <ele>85.694580078125</ele>
        <time>2011-11-20T11:35:20Z</time>
      </trkpt>
      <trkpt lat="48.41209" lon="2.53839">
        <ele>85.694580078125</ele>
        <time>2011-11-20T11:35:27Z</time>
      </trkpt>
      <trkpt lat="48.41218" lon="2.53825">
        <ele>85.213989257812</ele>
        <time>2011-11-20T11:35:33Z</time>
      </trkpt>
      <trkpt lat="48.41231" lon="2.5381">
        <ele>86.656005859375</ele>
        <time>2011-11-20T11:35:40Z</time>
      </trkpt>
      <trkpt lat="48.41245" lon="2.53799">
        <ele>87.6171875</ele>
        <time>2011-11-20T11:35:46Z</time>
      </trkpt>
      <trkpt lat="48.41265" lon="2.53781">
        <ele>87.6171875</ele>
        <time>2011-11-20T11:35:55Z</time>
      </trkpt>
      <trkpt lat="48.41273" lon="2.53775">
        <ele>88.578735351562</ele>
        <time>2011-11-20T11:36:01Z</time>
      </trkpt>
      <trkpt lat="48.41287" lon="2.53766">
        <ele>90.501342773438</ele>
        <time>2011-11-20T11:36:09Z</time>
      </trkpt>
      <trkpt lat="48.413" lon="2.5375">
        <ele>91.943237304688</ele>
        <time>2011-11-20T11:36:18Z</time>
      </trkpt>
      <trkpt lat="48.41307" lon="2.53737">
        <ele>90.501342773438</ele>
        <time>2011-11-20T11:36:21Z</time>
      </trkpt>
      <trkpt lat="48.41316" lon="2.53727">
        <ele>89.539916992188</ele>
        <time>2011-11-20T11:36:23Z</time>
      </trkpt>
      <trkpt lat="48.41333" lon="2.53709">
        <ele>86.17529296875</ele>
        <time>2011-11-20T11:36:26Z</time>
      </trkpt>
      <trkpt lat="48.41341" lon="2.53703">
        <ele>85.213989257812</ele>
        <time>2011-11-20T11:36:27Z</time>
      </trkpt>
      <trkpt lat="48.41376" lon="2.53687">
        <ele>81.849365234375</ele>
        <time>2011-11-20T11:36:31Z</time>
      </trkpt>
      <trkpt lat="48.41398" lon="2.53661">
        <ele>78.965454101562</ele>
        <time>2011-11-20T11:36:35Z</time>
      </trkpt>
      <trkpt lat="48.4141" lon="2.5364">
        <ele>77.042846679688</ele>
        <time>2011-11-20T11:36:38Z</time>
      </trkpt>
      <trkpt lat="48.41436" lon="2.53636">
        <ele>76.081420898438</ele>
        <time>2011-11-20T11:36:42Z</time>
      </trkpt>
      <trkpt lat="48.4148" lon="2.53646">
        <ele>74.639526367188</ele>
        <time>2011-11-20T11:36:48Z</time>
      </trkpt>
      <trkpt lat="48.41494" lon="2.53649">
        <ele>74.158813476562</ele>
        <time>2011-11-20T11:36:50Z</time>
      </trkpt>
      <trkpt lat="48.41521" lon="2.5364">
        <ele>72.716918945312</ele>
        <time>2011-11-20T11:36:54Z</time>
      </trkpt>
      <trkpt lat="48.41529" lon="2.53625">
        <ele>73.197631835938</ele>
        <time>2011-11-20T11:36:56Z</time>
      </trkpt>
      <trkpt lat="48.4155" lon="2.5359">
        <ele>72.716918945312</ele>
        <time>2011-11-20T11:37:01Z</time>
      </trkpt>
      <trkpt lat="48.41573" lon="2.53566">
        <ele>72.236206054688</ele>
        <time>2011-11-20T11:37:06Z</time>
      </trkpt>
      <trkpt lat="48.41595" lon="2.53544">
        <ele>72.236206054688</ele>
        <time>2011-11-20T11:37:10Z</time>
      </trkpt>
      <trkpt lat="48.41607" lon="2.53531">
        <ele>72.236206054688</ele>
        <time>2011-11-20T11:37:12Z</time>
      </trkpt>
      <trkpt lat="48.41624" lon="2.53507">
        <ele>72.716918945312</ele>
        <time>2011-11-20T11:37:16Z</time>
      </trkpt>
      <trkpt lat="48.41635" lon="2.53486">
        <ele>72.236206054688</ele>
        <time>2011-11-20T11:37:19Z</time>
      </trkpt>
      <trkpt lat="48.41647" lon="2.5346">
        <ele>72.716918945312</ele>
        <time>2011-11-20T11:37:23Z</time>
      </trkpt>
      <trkpt lat="48.41669" lon="2.5343">
        <ele>72.236206054688</ele>
        <time>2011-11-20T11:37:29Z</time>
      </trkpt>
      <trkpt lat="48.41693" lon="2.53402">
        <ele>71.27490234375</ele>
        <time>2011-11-20T11:37:35Z</time>
      </trkpt>
      <trkpt lat="48.41707" lon="2.53388">
        <ele>71.27490234375</ele>
        <time>2011-11-20T11:37:38Z</time>
      </trkpt>
      <trkpt lat="48.41721" lon="2.53373">
        <ele>70.794189453125</ele>
        <time>2011-11-20T11:37:41Z</time>
      </trkpt>
      <trkpt lat="48.41746" lon="2.53347">
        <ele>71.27490234375</ele>
        <time>2011-11-20T11:37:46Z</time>
      </trkpt>
      <trkpt lat="48.41762" lon="2.53306">
        <ele>71.755493164062</ele>
        <time>2011-11-20T11:37:52Z</time>
      </trkpt>
      <trkpt lat="48.41783" lon="2.53259">
        <ele>71.755493164062</ele>
        <time>2011-11-20T11:37:59Z</time>
      </trkpt>
      <trkpt lat="48.41794" lon="2.53227">
        <ele>72.236206054688</ele>
        <time>2011-11-20T11:38:03Z</time>
      </trkpt>
      <trkpt lat="48.41802" lon="2.53172">
        <ele>70.794189453125</ele>
        <time>2011-11-20T11:38:09Z</time>
      </trkpt>
      <trkpt lat="48.41803" lon="2.53157">
        <ele>71.27490234375</ele>
        <time>2011-11-20T11:38:11Z</time>
      </trkpt>
      <trkpt lat="48.41811" lon="2.53122">
        <ele>71.755493164062</ele>
        <time>2011-11-20T11:38:16Z</time>
      </trkpt>
      <trkpt lat="48.41818" lon="2.53088">
        <ele>71.27490234375</ele>
        <time>2011-11-20T11:38:21Z</time>
      </trkpt>
      <trkpt lat="48.41816" lon="2.53059">
        <ele>71.27490234375</ele>
        <time>2011-11-20T11:38:26Z</time>
      </trkpt>
      <trkpt lat="48.41802" lon="2.5303">
        <ele>72.716918945312</ele>
        <time>2011-11-20T11:38:32Z</time>
      </trkpt>
      <trkpt lat="48.41782" lon="2.52991">
        <ele>74.158813476562</ele>
        <time>2011-11-20T11:38:41Z</time>
      </trkpt>
      <trkpt lat="48.41768" lon="2.52974">
        <ele>75.600830078125</ele>
        <time>2011-11-20T11:38:49Z</time>
      </trkpt>
      <trkpt lat="48.41754" lon="2.52962">
        <ele>75.600830078125</ele>
        <time>2011-11-20T11:38:57Z</time>
      </trkpt>
      <trkpt lat="48.41744" lon="2.52951">
        <ele>77.042846679688</ele>
        <time>2011-11-20T11:39:05Z</time>
      </trkpt>
      <trkpt lat="48.41738" lon="2.52946">
        <ele>78.484741210938</ele>
        <time>2011-11-20T11:39:09Z</time>
      </trkpt>
      <trkpt lat="48.41726" lon="2.52939">
        <ele>81.849365234375</ele>
        <time>2011-11-20T11:39:18Z</time>
      </trkpt>
      <trkpt lat="48.41713" lon="2.52937">
        <ele>82.810791015625</ele>
        <time>2011-11-20T11:39:28Z</time>
      </trkpt>
      <trkpt lat="48.41705" lon="2.52937">
        <ele>85.694580078125</ele>
        <time>2011-11-20T11:39:35Z</time>
      </trkpt>
      <trkpt lat="48.41695" lon="2.52937">
        <ele>87.6171875</ele>
        <time>2011-11-20T11:39:44Z</time>
      </trkpt>
      <trkpt lat="48.41694" lon="2.52936">
        <ele>88.098022460938</ele>
        <time>2011-11-20T11:39:46Z</time>
      </trkpt>
      <trkpt lat="48.41687" lon="2.52933">
        <ele>89.059326171875</ele>
        <time>2011-11-20T11:39:53Z</time>
      </trkpt>
      <trkpt lat="48.41685" lon="2.52932">
        <ele>89.539916992188</ele>
        <time>2011-11-20T11:39:56Z</time>
      </trkpt>
      <trkpt lat="48.41681" lon="2.52931">
        <ele>90.501342773438</ele>
        <time>2011-11-20T11:40:00Z</time>
      </trkpt>
      <trkpt lat="48.41673" lon="2.5293">
        <ele>91.462524414062</ele>
        <time>2011-11-20T11:40:09Z</time>
      </trkpt>
      <trkpt lat="48.41671" lon="2.52928">
        <ele>91.943237304688</ele>
        <time>2011-11-20T11:40:11Z</time>
      </trkpt>
      <trkpt lat="48.41666" lon="2.52916">
        <ele>92.904541015625</ele>
        <time>2011-11-20T11:40:19Z</time>
      </trkpt>
      <trkpt lat="48.41667" lon="2.52901">
        <ele>94.8271484375</ele>
        <time>2011-11-20T11:40:28Z</time>
      </trkpt>
      <trkpt lat="48.41666" lon="2.52897">
        <ele>95.307739257812</ele>
        <time>2011-11-20T11:40:31Z</time>
      </trkpt>
      <trkpt lat="48.4166" lon="2.52882">
        <ele>96.269287109375</ele>
        <time>2011-11-20T11:40:41Z</time>
      </trkpt>
      <trkpt lat="48.4166" lon="2.52873">
        <ele>97.711181640625</ele>
        <time>2011-11-20T11:40:46Z</time>
      </trkpt>
      <trkpt lat="48.4166" lon="2.52869">
        <ele>98.19189453125</ele>
        <time>2011-11-20T11:40:49Z</time>
      </trkpt>
      <trkpt lat="48.4166" lon="2.52864">
        <ele>99.6337890625</ele>
        <time>2011-11-20T11:40:52Z</time>
      </trkpt>
      <trkpt lat="48.4166" lon="2.5285">
        <ele>100.59509277344</ele>
        <time>2011-11-20T11:41:00Z</time>
      </trkpt>
      <trkpt lat="48.41659" lon="2.52843">
        <ele>101.55639648438</ele>
        <time>2011-11-20T11:41:04Z</time>
      </trkpt>
      <trkpt lat="48.41658" lon="2.52837">
        <ele>102.99829101562</ele>
        <time>2011-11-20T11:41:07Z</time>
      </trkpt>
      <trkpt lat="48.41656" lon="2.52828">
        <ele>103.47900390625</ele>
        <time>2011-11-20T11:41:11Z</time>
      </trkpt>
      <trkpt lat="48.4165" lon="2.5281">
        <ele>104.4404296875</ele>
        <time>2011-11-20T11:41:19Z</time>
      </trkpt>
      <trkpt lat="48.41643" lon="2.52786">
        <ele>104.4404296875</ele>
        <time>2011-11-20T11:41:25Z</time>
      </trkpt>
      <trkpt lat="48.41636" lon="2.52775">
        <ele>104.92102050781</ele>
        <time>2011-11-20T11:41:31Z</time>
      </trkpt>
      <trkpt lat="48.4163" lon="2.52763">
        <ele>106.36303710938</ele>
        <time>2011-11-20T11:41:39Z</time>
      </trkpt>
      <trkpt lat="48.41628" lon="2.5276">
        <ele>106.84362792969</ele>
        <time>2011-11-20T11:41:41Z</time>
      </trkpt>
      <trkpt lat="48.41621" lon="2.52743">
        <ele>107.80505371094</ele>
        <time>2011-11-20T11:41:51Z</time>
      </trkpt>
      <trkpt lat="48.41618" lon="2.52731">
        <ele>109.72766113281</ele>
        <time>2011-11-20T11:41:57Z</time>
      </trkpt>
      <trkpt lat="48.41608" lon="2.5271">
        <ele>110.68884277344</ele>
        <time>2011-11-20T11:42:06Z</time>
      </trkpt>
      <trkpt lat="48.41607" lon="2.52698">
        <ele>112.13098144531</ele>
        <time>2011-11-20T11:42:12Z</time>
      </trkpt>
      <trkpt lat="48.41605" lon="2.52688">
        <ele>113.57299804688</ele>
        <time>2011-11-20T11:42:17Z</time>
      </trkpt>
      <trkpt lat="48.41601" lon="2.52682">
        <ele>114.5341796875</ele>
        <time>2011-11-20T11:42:21Z</time>
      </trkpt>
      <trkpt lat="48.41592" lon="2.52667">
        <ele>115.49560546875</ele>
        <time>2011-11-20T11:42:31Z</time>
      </trkpt>
      <trkpt lat="48.41581" lon="2.52657">
        <ele>117.89880371094</ele>
        <time>2011-11-20T11:42:41Z</time>
      </trkpt>
      <trkpt lat="48.41576" lon="2.52652">
        <ele>119.3408203125</ele>
        <time>2011-11-20T11:42:47Z</time>
      </trkpt>
      <trkpt lat="48.41577" lon="2.52649">
        <ele>120.30212402344</ele>
        <time>2011-11-20T11:42:49Z</time>
      </trkpt>
      <trkpt lat="48.41578" lon="2.52636">
        <ele>122.70544433594</ele>
        <time>2011-11-20T11:42:57Z</time>
      </trkpt>
      <trkpt lat="48.41579" lon="2.52618">
        <ele>124.62805175781</ele>
        <time>2011-11-20T11:43:06Z</time>
      </trkpt>
      <trkpt lat="48.41585" lon="2.52595">
        <ele>124.62805175781</ele>
        <time>2011-11-20T11:43:14Z</time>
      </trkpt>
      <trkpt lat="48.41595" lon="2.52564">
        <ele>125.58935546875</ele>
        <time>2011-11-20T11:43:22Z</time>
      </trkpt>
      <trkpt lat="48.4161" lon="2.52526">
        <ele>124.14733886719</ele>
        <time>2011-11-20T11:43:31Z</time>
      </trkpt>
      <trkpt lat="48.41618" lon="2.52511">
        <ele>123.66674804688</ele>
        <time>2011-11-20T11:43:35Z</time>
      </trkpt>
      <trkpt lat="48.41619" lon="2.52487">
        <ele>122.70544433594</ele>
        <time>2011-11-20T11:43:39Z</time>
      </trkpt>
      <trkpt lat="48.4161" lon="2.52466">
        <ele>121.744140625</ele>
        <time>2011-11-20T11:43:42Z</time>
      </trkpt>
      <trkpt lat="48.41616" lon="2.52442">
        <ele>121.744140625</ele>
        <time>2011-11-20T11:43:45Z</time>
      </trkpt>
      <trkpt lat="48.41619" lon="2.52436">
        <ele>121.744140625</ele>
        <time>2011-11-20T11:43:46Z</time>
      </trkpt>
      <trkpt lat="48.41627" lon="2.52423">
        <ele>121.744140625</ele>
        <time>2011-11-20T11:43:48Z</time>
      </trkpt>
      <trkpt lat="48.41643" lon="2.52376">
        <ele>123.18615722656</ele>
        <time>2011-11-20T11:43:55Z</time>
      </trkpt>
      <trkpt lat="48.41659" lon="2.52328">
        <ele>122.70544433594</ele>
        <time>2011-11-20T11:44:03Z</time>
      </trkpt>
      <trkpt lat="48.41671" lon="2.52289">
        <ele>122.22473144531</ele>
        <time>2011-11-20T11:44:09Z</time>
      </trkpt>
      <trkpt lat="48.41686" lon="2.52242">
        <ele>121.744140625</ele>
        <time>2011-11-20T11:44:15Z</time>
      </trkpt>
      <trkpt lat="48.4169" lon="2.52225">
        <ele>121.26354980469</ele>
        <time>2011-11-20T11:44:17Z</time>
      </trkpt>
      <trkpt lat="48.41709" lon="2.52203">
        <ele>120.78283691406</ele>
        <time>2011-11-20T11:44:21Z</time>
      </trkpt>
      <trkpt lat="48.41728" lon="2.52202">
        <ele>120.30212402344</ele>
        <time>2011-11-20T11:44:24Z</time>
      </trkpt>
      <trkpt lat="48.41758" lon="2.52193">
        <ele>118.37939453125</ele>
        <time>2011-11-20T11:44:29Z</time>
      </trkpt>
      <trkpt lat="48.41764" lon="2.52187">
        <ele>118.37939453125</ele>
        <time>2011-11-20T11:44:30Z</time>
      </trkpt>
      <trkpt lat="48.41776" lon="2.52158">
        <ele>116.9375</ele>
        <time>2011-11-20T11:44:33Z</time>
      </trkpt>
      <trkpt lat="48.41779" lon="2.52147">
        <ele>116.9375</ele>
        <time>2011-11-20T11:44:34Z</time>
      </trkpt>
      <trkpt lat="48.41783" lon="2.52102">
        <ele>118.86010742188</ele>
        <time>2011-11-20T11:44:40Z</time>
      </trkpt>
      <trkpt lat="48.41778" lon="2.52068">
        <ele>118.86010742188</ele>
        <time>2011-11-20T11:44:46Z</time>
      </trkpt>
      <trkpt lat="48.41772" lon="2.52042">
        <ele>120.78283691406</ele>
        <time>2011-11-20T11:44:52Z</time>
      </trkpt>
      <trkpt lat="48.41772" lon="2.5201">
        <ele>120.78283691406</ele>
        <time>2011-11-20T11:44:58Z</time>
      </trkpt>
      <trkpt lat="48.41774" lon="2.51969">
        <ele>121.744140625</ele>
        <time>2011-11-20T11:45:05Z</time>
      </trkpt>
      <trkpt lat="48.4177" lon="2.51928">
        <ele>122.22473144531</ele>
        <time>2011-11-20T11:45:12Z</time>
      </trkpt>
      <trkpt lat="48.41768" lon="2.5189">
        <ele>122.22473144531</ele>
        <time>2011-11-20T11:45:18Z</time>
      </trkpt>
      <trkpt lat="48.41768" lon="2.51878">
        <ele>121.26354980469</ele>
        <time>2011-11-20T11:45:20Z</time>
      </trkpt>
      <trkpt lat="48.41775" lon="2.51852">
        <ele>120.78283691406</ele>
        <time>2011-11-20T11:45:24Z</time>
      </trkpt>
      <trkpt lat="48.41783" lon="2.51843">
        <ele>119.82141113281</ele>
        <time>2011-11-20T11:45:26Z</time>
      </trkpt>
      <trkpt lat="48.41799" lon="2.51816">
        <ele>116.9375</ele>
        <time>2011-11-20T11:45:30Z</time>
      </trkpt>
      <trkpt lat="48.41801" lon="2.51806">
        <ele>116.45678710938</ele>
        <time>2011-11-20T11:45:31Z</time>
      </trkpt>
      <trkpt lat="48.41805" lon="2.51782">
        <ele>113.57299804688</ele>
        <time>2011-11-20T11:45:33Z</time>
      </trkpt>
      <trkpt lat="48.41818" lon="2.51738">
        <ele>104.92102050781</ele>
        <time>2011-11-20T11:45:37Z</time>
      </trkpt>
      <trkpt lat="48.41822" lon="2.51723">
        <ele>102.99829101562</ele>
        <time>2011-11-20T11:45:39Z</time>
      </trkpt>
      <trkpt lat="48.41816" lon="2.51704">
        <ele>100.11450195312</ele>
        <time>2011-11-20T11:45:42Z</time>
      </trkpt>
      <trkpt lat="48.41797" lon="2.51667">
        <ele>97.23046875</ele>
        <time>2011-11-20T11:45:47Z</time>
      </trkpt>
      <trkpt lat="48.41805" lon="2.51662">
        <ele>94.8271484375</ele>
        <time>2011-11-20T11:45:51Z</time>
      </trkpt>
      <trkpt lat="48.41808" lon="2.51664">
        <ele>94.346557617188</ele>
        <time>2011-11-20T11:45:52Z</time>
      </trkpt>
      <trkpt lat="48.41812" lon="2.51667">
        <ele>94.346557617188</ele>
        <time>2011-11-20T11:45:53Z</time>
      </trkpt>
      <trkpt lat="48.41838" lon="2.51694">
        <ele>91.462524414062</ele>
        <time>2011-11-20T11:45:58Z</time>
      </trkpt>
      <trkpt lat="48.41869" lon="2.51717">
        <ele>88.578735351562</ele>
        <time>2011-11-20T11:46:02Z</time>
      </trkpt>
      <trkpt lat="48.41902" lon="2.51735">
        <ele>84.252685546875</ele>
        <time>2011-11-20T11:46:06Z</time>
      </trkpt>
      <trkpt lat="48.41919" lon="2.5175">
        <ele>82.810791015625</ele>
        <time>2011-11-20T11:46:08Z</time>
      </trkpt>
      <trkpt lat="48.41927" lon="2.51757">
        <ele>80.88818359375</ele>
        <time>2011-11-20T11:46:09Z</time>
      </trkpt>
      <trkpt lat="48.41952" lon="2.51768">
        <ele>79.446044921875</ele>
        <time>2011-11-20T11:46:12Z</time>
      </trkpt>
      <trkpt lat="48.41967" lon="2.51779">
        <ele>77.5234375</ele>
        <time>2011-11-20T11:46:14Z</time>
      </trkpt>
      <trkpt lat="48.42" lon="2.51814">
        <ele>76.081420898438</ele>
        <time>2011-11-20T11:46:19Z</time>
      </trkpt>
      <trkpt lat="48.42023" lon="2.51862">
        <ele>76.081420898438</ele>
        <time>2011-11-20T11:46:24Z</time>
      </trkpt>
      <trkpt lat="48.42031" lon="2.51877">
        <ele>75.120239257812</ele>
        <time>2011-11-20T11:46:26Z</time>
      </trkpt>
      <trkpt lat="48.42048" lon="2.51929">
        <ele>74.158813476562</ele>
        <time>2011-11-20T11:46:31Z</time>
      </trkpt>
      <trkpt lat="48.42062" lon="2.51943">
        <ele>74.158813476562</ele>
        <time>2011-11-20T11:46:34Z</time>
      </trkpt>
      <trkpt lat="48.42083" lon="2.51948">
        <ele>71.755493164062</ele>
        <time>2011-11-20T11:46:38Z</time>
      </trkpt>
      <trkpt lat="48.42093" lon="2.5194">
        <ele>71.755493164062</ele>
        <time>2011-11-20T11:46:40Z</time>
      </trkpt>
      <trkpt lat="48.42096" lon="2.51931">
        <ele>72.236206054688</ele>
        <time>2011-11-20T11:46:42Z</time>
      </trkpt>
      <trkpt lat="48.42091" lon="2.51914">
        <ele>72.716918945312</ele>
        <time>2011-11-20T11:46:45Z</time>
      </trkpt>
      <trkpt lat="48.42076" lon="2.51877">
        <ele>72.716918945312</ele>
        <time>2011-11-20T11:46:50Z</time>
      </trkpt>
      <trkpt lat="48.42073" lon="2.5187">
        <ele>72.236206054688</ele>
        <time>2011-11-20T11:46:51Z</time>
      </trkpt>
      <trkpt lat="48.42066" lon="2.51828">
        <ele>73.197631835938</ele>
        <time>2011-11-20T11:46:57Z</time>
      </trkpt>
      <trkpt lat="48.42063" lon="2.51782">
        <ele>74.639526367188</ele>
        <time>2011-11-20T11:47:04Z</time>
      </trkpt>
      <trkpt lat="48.42068" lon="2.51752">
        <ele>76.081420898438</ele>
        <time>2011-11-20T11:47:09Z</time>
      </trkpt>
      <trkpt lat="48.42079" lon="2.51725">
        <ele>76.562133789062</ele>
        <time>2011-11-20T11:47:15Z</time>
      </trkpt>
      <trkpt lat="48.42085" lon="2.51694">
        <ele>77.5234375</ele>
        <time>2011-11-20T11:47:21Z</time>
      </trkpt>
      <trkpt lat="48.42093" lon="2.51661">
        <ele>77.042846679688</ele>
        <time>2011-11-20T11:47:27Z</time>
      </trkpt>
      <trkpt lat="48.42098" lon="2.51615">
        <ele>77.5234375</ele>
        <time>2011-11-20T11:47:34Z</time>
      </trkpt>
      <trkpt lat="48.42103" lon="2.51564">
        <ele>78.484741210938</ele>
        <time>2011-11-20T11:47:42Z</time>
      </trkpt>
      <trkpt lat="48.42097" lon="2.5154">
        <ele>77.5234375</ele>
        <time>2011-11-20T11:47:46Z</time>
      </trkpt>
      <trkpt lat="48.42096" lon="2.51534">
        <ele>77.5234375</ele>
        <time>2011-11-20T11:47:47Z</time>
      </trkpt>
      <trkpt lat="48.42093" lon="2.51505">
        <ele>77.5234375</ele>
        <time>2011-11-20T11:47:51Z</time>
      </trkpt>
      <trkpt lat="48.42093" lon="2.51491">
        <ele>78.004028320312</ele>
        <time>2011-11-20T11:47:53Z</time>
      </trkpt>
      <trkpt lat="48.42104" lon="2.51458">
        <ele>78.004028320312</ele>
        <time>2011-11-20T11:47:59Z</time>
      </trkpt>
      <trkpt lat="48.42123" lon="2.51431">
        <ele>77.5234375</ele>
        <time>2011-11-20T11:48:05Z</time>
      </trkpt>
      <trkpt lat="48.42127" lon="2.51418">
        <ele>78.004028320312</ele>
        <time>2011-11-20T11:48:07Z</time>
      </trkpt>
      <trkpt lat="48.42134" lon="2.5137">
        <ele>77.5234375</ele>
        <time>2011-11-20T11:48:14Z</time>
      </trkpt>
      <trkpt lat="48.42136" lon="2.51331">
        <ele>78.004028320312</ele>
        <time>2011-11-20T11:48:20Z</time>
      </trkpt>
      <trkpt lat="48.42137" lon="2.51298">
        <ele>78.484741210938</ele>
        <time>2011-11-20T11:48:25Z</time>
      </trkpt>
      <trkpt lat="48.42136" lon="2.51256">
        <ele>78.965454101562</ele>
        <time>2011-11-20T11:48:32Z</time>
      </trkpt>
      <trkpt lat="48.42141" lon="2.5123">
        <ele>79.446044921875</ele>
        <time>2011-11-20T11:48:37Z</time>
      </trkpt>
      <trkpt lat="48.42151" lon="2.5121">
        <ele>79.446044921875</ele>
        <time>2011-11-20T11:48:42Z</time>
      </trkpt>
      <trkpt lat="48.4217" lon="2.51185">
        <ele>79.446044921875</ele>
        <time>2011-11-20T11:48:48Z</time>
      </trkpt>
      <trkpt lat="48.42176" lon="2.51164">
        <ele>79.926635742188</ele>
        <time>2011-11-20T11:48:52Z</time>
      </trkpt>
      <trkpt lat="48.42175" lon="2.51136">
        <ele>80.407470703125</ele>
        <time>2011-11-20T11:48:57Z</time>
      </trkpt>
      <trkpt lat="48.4217" lon="2.51118">
        <ele>81.849365234375</ele>
        <time>2011-11-20T11:49:01Z</time>
      </trkpt>
      <trkpt lat="48.42167" lon="2.5109">
        <ele>82.810791015625</ele>
        <time>2011-11-20T11:49:07Z</time>
      </trkpt>
      <trkpt lat="48.42176" lon="2.51071">
        <ele>82.810791015625</ele>
        <time>2011-11-20T11:49:12Z</time>
      </trkpt>
      <trkpt lat="48.42189" lon="2.51039">
        <ele>82.330078125</ele>
        <time>2011-11-20T11:49:18Z</time>
      </trkpt>
      <trkpt lat="48.42198" lon="2.51001">
        <ele>82.330078125</ele>
        <time>2011-11-20T11:49:25Z</time>
      </trkpt>
      <trkpt lat="48.42204" lon="2.5096">
        <ele>83.77197265625</ele>
        <time>2011-11-20T11:49:32Z</time>
      </trkpt>
      <trkpt lat="48.42205" lon="2.50924">
        <ele>83.291381835938</ele>
        <time>2011-11-20T11:49:38Z</time>
      </trkpt>
      <trkpt lat="48.4221" lon="2.50894">
        <ele>83.77197265625</ele>
        <time>2011-11-20T11:49:43Z</time>
      </trkpt>
      <trkpt lat="48.42218" lon="2.50841">
        <ele>84.252685546875</ele>
        <time>2011-11-20T11:49:52Z</time>
      </trkpt>
      <trkpt lat="48.42219" lon="2.50822">
        <ele>84.252685546875</ele>
        <time>2011-11-20T11:49:55Z</time>
      </trkpt>
      <trkpt lat="48.42225" lon="2.50762">
        <ele>84.7333984375</ele>
        <time>2011-11-20T11:50:05Z</time>
      </trkpt>
      <trkpt lat="48.42231" lon="2.50731">
        <ele>85.213989257812</ele>
        <time>2011-11-20T11:50:11Z</time>
      </trkpt>
      <trkpt lat="48.42241" lon="2.507">
        <ele>86.656005859375</ele>
        <time>2011-11-20T11:50:18Z</time>
      </trkpt>
      <trkpt lat="48.42247" lon="2.50676">
        <ele>89.059326171875</ele>
        <time>2011-11-20T11:50:25Z</time>
      </trkpt>
      <trkpt lat="48.42251" lon="2.50654">
        <ele>88.578735351562</ele>
        <time>2011-11-20T11:50:31Z</time>
      </trkpt>
      <trkpt lat="48.42259" lon="2.50627">
        <ele>88.578735351562</ele>
        <time>2011-11-20T11:50:37Z</time>
      </trkpt>
      <trkpt lat="48.42271" lon="2.50597">
        <ele>86.656005859375</ele>
        <time>2011-11-20T11:50:43Z</time>
      </trkpt>
      <trkpt lat="48.42276" lon="2.50579">
        <ele>86.656005859375</ele>
        <time>2011-11-20T11:50:47Z</time>
      </trkpt>
      <trkpt lat="48.42278" lon="2.50562">
        <ele>87.136596679688</ele>
        <time>2011-11-20T11:50:51Z</time>
      </trkpt>
      <trkpt lat="48.42288" lon="2.50529">
        <ele>86.17529296875</ele>
        <time>2011-11-20T11:50:57Z</time>
      </trkpt>
      <trkpt lat="48.42299" lon="2.50471">
        <ele>85.694580078125</ele>
        <time>2011-11-20T11:51:06Z</time>
      </trkpt>
      <trkpt lat="48.42299" lon="2.50419">
        <ele>85.694580078125</ele>
        <time>2011-11-20T11:51:13Z</time>
      </trkpt>
      <trkpt lat="48.42305" lon="2.50383">
        <ele>85.694580078125</ele>
        <time>2011-11-20T11:51:19Z</time>
      </trkpt>
      <trkpt lat="48.42308" lon="2.5036">
        <ele>84.7333984375</ele>
        <time>2011-11-20T11:51:23Z</time>
      </trkpt>
      <trkpt lat="48.42309" lon="2.50333">
        <ele>84.252685546875</ele>
        <time>2011-11-20T11:51:28Z</time>
      </trkpt>
      <trkpt lat="48.42312" lon="2.50318">
        <ele>84.252685546875</ele>
        <time>2011-11-20T11:51:34Z</time>
      </trkpt>
      <trkpt lat="48.42318" lon="2.50297">
        <ele>84.7333984375</ele>
        <time>2011-11-20T11:51:39Z</time>
      </trkpt>
      <trkpt lat="48.42323" lon="2.50277">
        <ele>84.7333984375</ele>
        <time>2011-11-20T11:51:43Z</time>
      </trkpt>
      <trkpt lat="48.42327" lon="2.50245">
        <ele>82.810791015625</ele>
        <time>2011-11-20T11:51:49Z</time>
      </trkpt>
      <trkpt lat="48.42333" lon="2.50231">
        <ele>83.291381835938</ele>
        <time>2011-11-20T11:51:55Z</time>
      </trkpt>
      <trkpt lat="48.42342" lon="2.50205">
        <ele>81.849365234375</ele>
        <time>2011-11-20T11:51:59Z</time>
      </trkpt>
      <trkpt lat="48.42348" lon="2.50191">
        <ele>82.330078125</ele>
        <time>2011-11-20T11:52:01Z</time>
      </trkpt>
      <trkpt lat="48.42359" lon="2.50152">
        <ele>81.368774414062</ele>
        <time>2011-11-20T11:52:06Z</time>
      </trkpt>
      <trkpt lat="48.42363" lon="2.50138">
        <ele>81.368774414062</ele>
        <time>2011-11-20T11:52:08Z</time>
      </trkpt>
      <trkpt lat="48.42374" lon="2.50103">
        <ele>81.368774414062</ele>
        <time>2011-11-20T11:52:13Z</time>
      </trkpt>
      <trkpt lat="48.42389" lon="2.50064">
        <ele>80.407470703125</ele>
        <time>2011-11-20T11:52:19Z</time>
      </trkpt>
      <trkpt lat="48.42396" lon="2.50038">
        <ele>80.407470703125</ele>
        <time>2011-11-20T11:52:23Z</time>
      </trkpt>
      <trkpt lat="48.42399" lon="2.50026">
        <ele>80.407470703125</ele>
        <time>2011-11-20T11:52:25Z</time>
      </trkpt>
      <trkpt lat="48.42403" lon="2.49981">
        <ele>79.446044921875</ele>
        <time>2011-11-20T11:52:31Z</time>
      </trkpt>
      <trkpt lat="48.4241" lon="2.49944">
        <ele>78.484741210938</ele>
        <time>2011-11-20T11:52:36Z</time>
      </trkpt>
      <trkpt lat="48.42418" lon="2.49917">
        <ele>78.484741210938</ele>
        <time>2011-11-20T11:52:40Z</time>
      </trkpt>
      <trkpt lat="48.42428" lon="2.49891">
        <ele>77.5234375</ele>
        <time>2011-11-20T11:52:44Z</time>
      </trkpt>
      <trkpt lat="48.42437" lon="2.49864">
        <ele>78.004028320312</ele>
        <time>2011-11-20T11:52:48Z</time>
      </trkpt>
      <trkpt lat="48.42443" lon="2.49843">
        <ele>77.042846679688</ele>
        <time>2011-11-20T11:52:51Z</time>
      </trkpt>
      <trkpt lat="48.42447" lon="2.49829">
        <ele>77.042846679688</ele>
        <time>2011-11-20T11:52:53Z</time>
      </trkpt>
      <trkpt lat="48.42453" lon="2.498">
        <ele>76.562133789062</ele>
        <time>2011-11-20T11:52:57Z</time>
      </trkpt>
      <trkpt lat="48.42464" lon="2.49749">
        <ele>76.081420898438</ele>
        <time>2011-11-20T11:53:04Z</time>
      </trkpt>
      <trkpt lat="48.42472" lon="2.49701">
        <ele>75.600830078125</ele>
        <time>2011-11-20T11:53:10Z</time>
      </trkpt>
      <trkpt lat="48.42479" lon="2.49637">
        <ele>76.081420898438</ele>
        <time>2011-11-20T11:53:18Z</time>
      </trkpt>
      <trkpt lat="48.42485" lon="2.49584">
        <ele>75.600830078125</ele>
        <time>2011-11-20T11:53:25Z</time>
      </trkpt>
      <trkpt lat="48.42493" lon="2.49528">
        <ele>74.639526367188</ele>
        <time>2011-11-20T11:53:33Z</time>
      </trkpt>
      <trkpt lat="48.42504" lon="2.49479">
        <ele>74.639526367188</ele>
        <time>2011-11-20T11:53:40Z</time>
      </trkpt>
      <trkpt lat="48.42505" lon="2.49472">
        <ele>74.158813476562</ele>
        <time>2011-11-20T11:53:41Z</time>
      </trkpt>
      <trkpt lat="48.42514" lon="2.49434">
        <ele>73.197631835938</ele>
        <time>2011-11-20T11:53:46Z</time>
      </trkpt>
      <trkpt lat="48.42527" lon="2.49383">
        <ele>73.197631835938</ele>
        <time>2011-11-20T11:53:53Z</time>
      </trkpt>
      <trkpt lat="48.42536" lon="2.49341">
        <ele>74.158813476562</ele>
        <time>2011-11-20T11:53:59Z</time>
      </trkpt>
      <trkpt lat="48.42541" lon="2.4931">
        <ele>73.67822265625</ele>
        <time>2011-11-20T11:54:03Z</time>
      </trkpt>
      <trkpt lat="48.42549" lon="2.49253">
        <ele>73.67822265625</ele>
        <time>2011-11-20T11:54:10Z</time>
      </trkpt>
      <trkpt lat="48.42555" lon="2.49207">
        <ele>74.158813476562</ele>
        <time>2011-11-20T11:54:16Z</time>
      </trkpt>
      <trkpt lat="48.42559" lon="2.49171">
        <ele>73.67822265625</ele>
        <time>2011-11-20T11:54:21Z</time>
      </trkpt>
      <trkpt lat="48.42565" lon="2.49128">
        <ele>73.197631835938</ele>
        <time>2011-11-20T11:54:27Z</time>
      </trkpt>
      <trkpt lat="48.42566" lon="2.49121">
        <ele>73.197631835938</ele>
        <time>2011-11-20T11:54:28Z</time>
      </trkpt>
      <trkpt lat="48.42569" lon="2.49088">
        <ele>72.716918945312</ele>
        <time>2011-11-20T11:54:33Z</time>
      </trkpt>
      <trkpt lat="48.4257" lon="2.49065">
        <ele>72.716918945312</ele>
        <time>2011-11-20T11:54:37Z</time>
      </trkpt>
      <trkpt lat="48.42575" lon="2.49042">
        <ele>72.716918945312</ele>
        <time>2011-11-20T11:54:41Z</time>
      </trkpt>
      <trkpt lat="48.42576" lon="2.49009">
        <ele>73.197631835938</ele>
        <time>2011-11-20T11:54:46Z</time>
      </trkpt>
      <trkpt lat="48.42579" lon="2.4897">
        <ele>73.67822265625</ele>
        <time>2011-11-20T11:54:52Z</time>
      </trkpt>
      <trkpt lat="48.4258" lon="2.48936">
        <ele>72.716918945312</ele>
        <time>2011-11-20T11:54:57Z</time>
      </trkpt>
      <trkpt lat="48.42582" lon="2.48901">
        <ele>73.67822265625</ele>
        <time>2011-11-20T11:55:02Z</time>
      </trkpt>
      <trkpt lat="48.42582" lon="2.48864">
        <ele>74.158813476562</ele>
        <time>2011-11-20T11:55:07Z</time>
      </trkpt>
      <trkpt lat="48.42582" lon="2.48815">
        <ele>74.639526367188</ele>
        <time>2011-11-20T11:55:13Z</time>
      </trkpt>
      <trkpt lat="48.42582" lon="2.48755">
        <ele>74.639526367188</ele>
        <time>2011-11-20T11:55:21Z</time>
      </trkpt>
      <trkpt lat="48.42583" lon="2.48741">
        <ele>75.120239257812</ele>
        <time>2011-11-20T11:55:23Z</time>
      </trkpt>
      <trkpt lat="48.42587" lon="2.48696">
        <ele>75.120239257812</ele>
        <time>2011-11-20T11:55:29Z</time>
      </trkpt>
      <trkpt lat="48.4259" lon="2.4866">
        <ele>74.158813476562</ele>
        <time>2011-11-20T11:55:34Z</time>
      </trkpt>
      <trkpt lat="48.42591" lon="2.48639">
        <ele>74.639526367188</ele>
        <time>2011-11-20T11:55:37Z</time>
      </trkpt>
      <trkpt lat="48.42588" lon="2.48613">
        <ele>74.639526367188</ele>
        <time>2011-11-20T11:55:41Z</time>
      </trkpt>
      <trkpt lat="48.42578" lon="2.48571">
        <ele>74.639526367188</ele>
        <time>2011-11-20T11:55:48Z</time>
      </trkpt>
      <trkpt lat="48.42568" lon="2.48523">
        <ele>74.639526367188</ele>
        <time>2011-11-20T11:55:55Z</time>
      </trkpt>
      <trkpt lat="48.42557" lon="2.48471">
        <ele>74.639526367188</ele>
        <time>2011-11-20T11:56:02Z</time>
      </trkpt>
      <trkpt lat="48.4255" lon="2.48422">
        <ele>75.120239257812</ele>
        <time>2011-11-20T11:56:09Z</time>
      </trkpt>
      <trkpt lat="48.42546" lon="2.48387">
        <ele>75.120239257812</ele>
        <time>2011-11-20T11:56:14Z</time>
      </trkpt>
      <trkpt lat="48.42539" lon="2.48344">
        <ele>74.639526367188</ele>
        <time>2011-11-20T11:56:20Z</time>
      </trkpt>
      <trkpt lat="48.42538" lon="2.48306">
        <ele>74.639526367188</ele>
        <time>2011-11-20T11:56:26Z</time>
      </trkpt>
      <trkpt lat="48.42537" lon="2.48257">
        <ele>75.120239257812</ele>
        <time>2011-11-20T11:56:33Z</time>
      </trkpt>
      <trkpt lat="48.4254" lon="2.48207">
        <ele>74.639526367188</ele>
        <time>2011-11-20T11:56:40Z</time>
      </trkpt>
      <trkpt lat="48.42548" lon="2.48124">
        <ele>74.158813476562</ele>
        <time>2011-11-20T11:56:51Z</time>
      </trkpt>
      <trkpt lat="48.42546" lon="2.48055">
        <ele>73.67822265625</ele>
        <time>2011-11-20T11:57:00Z</time>
      </trkpt>
      <trkpt lat="48.42543" lon="2.47988">
        <ele>73.67822265625</ele>
        <time>2011-11-20T11:57:09Z</time>
      </trkpt>
      <trkpt lat="48.4254" lon="2.4793">
        <ele>73.67822265625</ele>
        <time>2011-11-20T11:57:17Z</time>
      </trkpt>
      <trkpt lat="48.42538" lon="2.47872">
        <ele>73.67822265625</ele>
        <time>2011-11-20T11:57:25Z</time>
      </trkpt>
      <trkpt lat="48.42533" lon="2.47813">
        <ele>73.67822265625</ele>
        <time>2011-11-20T11:57:33Z</time>
      </trkpt>
      <trkpt lat="48.42529" lon="2.47758">
        <ele>73.67822265625</ele>
        <time>2011-11-20T11:57:41Z</time>
      </trkpt>
      <trkpt lat="48.42526" lon="2.47693">
        <ele>74.158813476562</ele>
        <time>2011-11-20T11:57:50Z</time>
      </trkpt>
      <trkpt lat="48.42527" lon="2.47658">
        <ele>73.67822265625</ele>
        <time>2011-11-20T11:57:55Z</time>
      </trkpt>
      <trkpt lat="48.4253" lon="2.47631">
        <ele>74.158813476562</ele>
        <time>2011-11-20T11:57:59Z</time>
      </trkpt>
      <trkpt lat="48.42522" lon="2.4758">
        <ele>74.158813476562</ele>
        <time>2011-11-20T11:58:06Z</time>
      </trkpt>
      <trkpt lat="48.42521" lon="2.47574">
        <ele>74.639526367188</ele>
        <time>2011-11-20T11:58:07Z</time>
      </trkpt>
      <trkpt lat="48.42513" lon="2.47537">
        <ele>75.120239257812</ele>
        <time>2011-11-20T11:58:13Z</time>
      </trkpt>
      <trkpt lat="48.42508" lon="2.47484">
        <ele>75.120239257812</ele>
        <time>2011-11-20T11:58:21Z</time>
      </trkpt>
      <trkpt lat="48.42511" lon="2.4743">
        <ele>76.081420898438</ele>
        <time>2011-11-20T11:58:30Z</time>
      </trkpt>
      <trkpt lat="48.42514" lon="2.47399">
        <ele>76.562133789062</ele>
        <time>2011-11-20T11:58:36Z</time>
      </trkpt>
      <trkpt lat="48.42516" lon="2.47378">
        <ele>78.484741210938</ele>
        <time>2011-11-20T11:58:41Z</time>
      </trkpt>
      <trkpt lat="48.42519" lon="2.47355">
        <ele>78.484741210938</ele>
        <time>2011-11-20T11:58:46Z</time>
      </trkpt>
      <trkpt lat="48.42525" lon="2.47332">
        <ele>78.965454101562</ele>
        <time>2011-11-20T11:58:51Z</time>
      </trkpt>
      <trkpt lat="48.42529" lon="2.47308">
        <ele>78.965454101562</ele>
        <time>2011-11-20T11:58:56Z</time>
      </trkpt>
      <trkpt lat="48.42526" lon="2.47285">
        <ele>79.926635742188</ele>
        <time>2011-11-20T11:59:02Z</time>
      </trkpt>
      <trkpt lat="48.42526" lon="2.47266">
        <ele>82.330078125</ele>
        <time>2011-11-20T11:59:07Z</time>
      </trkpt>
      <trkpt lat="48.42518" lon="2.47247">
        <ele>82.330078125</ele>
        <time>2011-11-20T11:59:13Z</time>
      </trkpt>
      <trkpt lat="48.42508" lon="2.47222">
        <ele>83.291381835938</ele>
        <time>2011-11-20T11:59:21Z</time>
      </trkpt>
      <trkpt lat="48.425" lon="2.47197">
        <ele>83.291381835938</ele>
        <time>2011-11-20T11:59:27Z</time>
      </trkpt>
      <trkpt lat="48.42489" lon="2.47157">
        <ele>81.849365234375</ele>
        <time>2011-11-20T11:59:33Z</time>
      </trkpt>
      <trkpt lat="48.42477" lon="2.47125">
        <ele>80.88818359375</ele>
        <time>2011-11-20T11:59:37Z</time>
      </trkpt>
      <trkpt lat="48.42474" lon="2.47118">
        <ele>79.926635742188</ele>
        <time>2011-11-20T11:59:38Z</time>
      </trkpt>
      <trkpt lat="48.42465" lon="2.47084">
        <ele>79.926635742188</ele>
        <time>2011-11-20T11:59:42Z</time>
      </trkpt>
      <trkpt lat="48.4244" lon="2.47028">
        <ele>78.484741210938</ele>
        <time>2011-11-20T11:59:49Z</time>
      </trkpt>
      <trkpt lat="48.42412" lon="2.46979">
        <ele>75.120239257812</ele>
        <time>2011-11-20T11:59:55Z</time>
      </trkpt>
      <trkpt lat="48.42382" lon="2.46942">
        <ele>74.158813476562</ele>
        <time>2011-11-20T12:00:00Z</time>
      </trkpt>
      <trkpt lat="48.42355" lon="2.46903">
        <ele>72.716918945312</ele>
        <time>2011-11-20T12:00:05Z</time>
      </trkpt>
      <trkpt lat="48.42343" lon="2.46887">
        <ele>73.197631835938</ele>
        <time>2011-11-20T12:00:07Z</time>
      </trkpt>
      <trkpt lat="48.42328" lon="2.46862">
        <ele>72.716918945312</ele>
        <time>2011-11-20T12:00:11Z</time>
      </trkpt>
      <trkpt lat="48.42321" lon="2.46853">
        <ele>72.716918945312</ele>
        <time>2011-11-20T12:00:17Z</time>
      </trkpt>
      <trkpt lat="48.42319" lon="2.46853">
        <ele>73.197631835938</ele>
        <time>2011-11-20T12:00:18Z</time>
      </trkpt>
      <trkpt lat="48.42292" lon="2.46845">
        <ele>72.236206054688</ele>
        <time>2011-11-20T12:00:25Z</time>
      </trkpt>
      <trkpt lat="48.42255" lon="2.46835">
        <ele>71.755493164062</ele>
        <time>2011-11-20T12:00:33Z</time>
      </trkpt>
      <trkpt lat="48.42224" lon="2.46826">
        <ele>70.794189453125</ele>
        <time>2011-11-20T12:00:40Z</time>
      </trkpt>
      <trkpt lat="48.42184" lon="2.46814">
        <ele>70.794189453125</ele>
        <time>2011-11-20T12:00:49Z</time>
      </trkpt>
      <trkpt lat="48.42139" lon="2.46799">
        <ele>70.3134765625</ele>
        <time>2011-11-20T12:00:59Z</time>
      </trkpt>
      <trkpt lat="48.42096" lon="2.46773">
        <ele>69.352294921875</ele>
        <time>2011-11-20T12:01:09Z</time>
      </trkpt>
      <trkpt lat="48.42056" lon="2.4675">
        <ele>68.390869140625</ele>
        <time>2011-11-20T12:01:19Z</time>
      </trkpt>
      <trkpt lat="48.4202" lon="2.46727">
        <ele>68.390869140625</ele>
        <time>2011-11-20T12:01:28Z</time>
      </trkpt>
      <trkpt lat="48.41978" lon="2.467">
        <ele>67.910278320312</ele>
        <time>2011-11-20T12:01:39Z</time>
      </trkpt>
      <trkpt lat="48.41944" lon="2.4668">
        <ele>67.4296875</ele>
        <time>2011-11-20T12:01:48Z</time>
      </trkpt>
      <trkpt lat="48.41913" lon="2.46663">
        <ele>67.4296875</ele>
        <time>2011-11-20T12:01:57Z</time>
      </trkpt>
      <trkpt lat="48.41908" lon="2.46653">
        <ele>67.4296875</ele>
        <time>2011-11-20T12:02:01Z</time>
      </trkpt>
      <trkpt lat="48.41898" lon="2.46639">
        <ele>67.910278320312</ele>
        <time>2011-11-20T12:02:05Z</time>
      </trkpt>
      <trkpt lat="48.4188" lon="2.46619">
        <ele>68.390869140625</ele>
        <time>2011-11-20T12:02:11Z</time>
      </trkpt>
      <trkpt lat="48.41872" lon="2.466">
        <ele>67.910278320312</ele>
        <time>2011-11-20T12:02:16Z</time>
      </trkpt>
      <trkpt lat="48.41866" lon="2.4659">
        <ele>67.910278320312</ele>
        <time>2011-11-20T12:02:19Z</time>
      </trkpt>
      <trkpt lat="48.41864" lon="2.46566">
        <ele>67.4296875</ele>
        <time>2011-11-20T12:02:24Z</time>
      </trkpt>
      <trkpt lat="48.41878" lon="2.46549">
        <ele>68.390869140625</ele>
        <time>2011-11-20T12:02:30Z</time>
      </trkpt>
      <trkpt lat="48.41882" lon="2.46549">
        <ele>68.390869140625</ele>
        <time>2011-11-20T12:02:31Z</time>
      </trkpt>
      <trkpt lat="48.41905" lon="2.46552">
        <ele>68.390869140625</ele>
        <time>2011-11-20T12:02:38Z</time>
      </trkpt>
      <trkpt lat="48.41925" lon="2.46549">
        <ele>67.4296875</ele>
        <time>2011-11-20T12:02:43Z</time>
      </trkpt>
      <trkpt lat="48.41956" lon="2.46546">
        <ele>67.4296875</ele>
        <time>2011-11-20T12:02:50Z</time>
      </trkpt>
      <trkpt lat="48.41976" lon="2.46547">
        <ele>66.948974609375</ele>
        <time>2011-11-20T12:02:54Z</time>
      </trkpt>
      <trkpt lat="48.42004" lon="2.46543">
        <ele>66.948974609375</ele>
        <time>2011-11-20T12:03:00Z</time>
      </trkpt>
      <trkpt lat="48.42009" lon="2.46542">
        <ele>67.4296875</ele>
        <time>2011-11-20T12:03:01Z</time>
      </trkpt>
      <trkpt lat="48.42028" lon="2.46535">
        <ele>66.948974609375</ele>
        <time>2011-11-20T12:03:05Z</time>
      </trkpt>
      <trkpt lat="48.42065" lon="2.4653">
        <ele>65.987670898438</ele>
        <time>2011-11-20T12:03:12Z</time>
      </trkpt>
      <trkpt lat="48.42117" lon="2.46527">
        <ele>65.987670898438</ele>
        <time>2011-11-20T12:03:22Z</time>
      </trkpt>
      <trkpt lat="48.42135" lon="2.46523">
        <ele>66.46826171875</ele>
        <time>2011-11-20T12:03:26Z</time>
      </trkpt>
      <trkpt lat="48.42147" lon="2.46516">
        <ele>65.507080078125</ele>
        <time>2011-11-20T12:03:30Z</time>
      </trkpt>
      <trkpt lat="48.42157" lon="2.4651">
        <ele>65.0263671875</ele>
        <time>2011-11-20T12:03:33Z</time>
      </trkpt>
      <trkpt lat="48.42179" lon="2.46507">
        <ele>65.507080078125</ele>
        <time>2011-11-20T12:03:38Z</time>
      </trkpt>
      <trkpt lat="48.42202" lon="2.46494">
        <ele>64.545654296875</ele>
        <time>2011-11-20T12:03:43Z</time>
      </trkpt>
      <trkpt lat="48.42212" lon="2.4647">
        <ele>64.065063476562</ele>
        <time>2011-11-20T12:03:47Z</time>
      </trkpt>
      <trkpt lat="48.4221" lon="2.46455">
        <ele>64.545654296875</ele>
        <time>2011-11-20T12:03:51Z</time>
      </trkpt>
      <trkpt lat="48.42209" lon="2.46453">
        <ele>64.545654296875</ele>
        <time>2011-11-20T12:03:54Z</time>
      </trkpt>
    </trkseg>
  </trk>
</gpx>